Wetterdaten: Mittwoch, 17.05.2017
Datum Zeit Temp. A. Temp. A. max Feuchte A. Luftdruck Regen Wind Richtung Richtung Sonnenschein ET UV Solar Taupunkt Windchill Windböen
17.05.2017 00:00 10,4 °C 10,4 °C 86 % 1026,0 hPa 0,0 mm 0,0 km/h (0 Bft) S 170 ° 0 min 0,000 mm 0,0 UV-I 0 W/m² 8,2 °C 10,4 °C 0,0 km/h (0 Bft)
17.05.2017 00:01 10,3 °C 10,4 °C 85 % 1026,0 hPa 0,0 mm 0,0 km/h (0 Bft) S 170 ° 0 min 0,000 mm 0,0 UV-I 0 W/m² 7,9 °C 10,3 °C 0,0 km/h (0 Bft)
17.05.2017 00:02 10,3 °C 10,3 °C 86 % 1026,1 hPa 0,0 mm 0,0 km/h (0 Bft) S 170 ° 0 min 0,000 mm 0,0 UV-I 0 W/m² 8,1 °C 10,3 °C 0,0 km/h (0 Bft)
17.05.2017 00:03 10,3 °C 10,3 °C 86 % 1026,0 hPa 0,0 mm 0,0 km/h (0 Bft) S 170 ° 0 min 0,000 mm 0,0 UV-I 0 W/m² 8,1 °C 10,3 °C 0,0 km/h (0 Bft)
17.05.2017 00:04 10,3 °C 10,3 °C 86 % 1026,0 hPa 0,0 mm 0,2 km/h (0 Bft) S 170 ° 0 min 0,000 mm 0,0 UV-I 0 W/m² 8,1 °C 10,3 °C 1,6 km/h (1 Bft)
17.05.2017 00:05 10,3 °C 10,3 °C 86 % 1026,0 hPa 0,0 mm 0,0 km/h (0 Bft) S 170 ° 0 min 0,000 mm 0,0 UV-I 0 W/m² 8,1 °C 10,3 °C 0,0 km/h (0 Bft)
17.05.2017 00:06 10,4 °C 10,4 °C 86 % 1026,0 hPa 0,0 mm 0,0 km/h (0 Bft) S 170 ° 0 min 0,000 mm 0,0 UV-I 0 W/m² 8,2 °C 10,4 °C 0,0 km/h (0 Bft)
17.05.2017 00:07 10,4 °C 10,4 °C 86 % 1026,0 hPa 0,0 mm 0,0 km/h (0 Bft) S 170 ° 0 min 0,000 mm 0,0 UV-I 0 W/m² 8,2 °C 10,4 °C 0,0 km/h (0 Bft)
17.05.2017 00:08 10,4 °C 10,4 °C 86 % 1025,9 hPa 0,0 mm 0,0 km/h (0 Bft) S 170 ° 0 min 0,000 mm 0,0 UV-I 0 W/m² 8,2 °C 10,4 °C 0,0 km/h (0 Bft)
17.05.2017 00:09 10,4 °C 10,4 °C 85 % 1025,9 hPa 0,0 mm 0,0 km/h (0 Bft) S 170 ° 0 min 0,000 mm 0,0 UV-I 0 W/m² 8,0 °C 10,4 °C 0,0 km/h (0 Bft)
17.05.2017 00:10 10,3 °C 10,4 °C 85 % 1025,9 hPa 0,0 mm 0,0 km/h (0 Bft) S 170 ° 0 min 0,000 mm 0,0 UV-I 0 W/m² 7,9 °C 10,3 °C 0,0 km/h (0 Bft)
17.05.2017 00:11 10,3 °C 10,3 °C 86 % 1026,0 hPa 0,0 mm 0,0 km/h (0 Bft) S 170 ° 0 min 0,000 mm 0,0 UV-I 0 W/m² 8,1 °C 10,3 °C 0,0 km/h (0 Bft)
17.05.2017 00:12 10,2 °C 10,3 °C 86 % 1025,9 hPa 0,0 mm 0,0 km/h (0 Bft) S 170 ° 0 min 0,000 mm 0,0 UV-I 0 W/m² 8,0 °C 10,2 °C 0,0 km/h (0 Bft)
17.05.2017 00:13 10,2 °C 10,2 °C 86 % 1025,9 hPa 0,0 mm 0,0 km/h (0 Bft) S 170 ° 0 min 0,000 mm 0,0 UV-I 0 W/m² 8,0 °C 10,2 °C 0,0 km/h (0 Bft)
17.05.2017 00:14 10,1 °C 10,2 °C 87 % 1025,9 hPa 0,0 mm 0,0 km/h (0 Bft) S 170 ° 0 min 0,000 mm 0,0 UV-I 0 W/m² 8,0 °C 10,1 °C 0,0 km/h (0 Bft)
17.05.2017 00:15 10,1 °C 10,1 °C 87 % 1026,0 hPa 0,0 mm 0,0 km/h (0 Bft) S 170 ° 0 min 0,000 mm 0,0 UV-I 0 W/m² 8,0 °C 10,1 °C 0,0 km/h (0 Bft)
17.05.2017 00:16 10,1 °C 10,1 °C 87 % 1026,0 hPa 0,0 mm 0,0 km/h (0 Bft) S 170 ° 0 min 0,000 mm 0,0 UV-I 0 W/m² 8,0 °C 10,1 °C 0,0 km/h (0 Bft)
17.05.2017 00:17 10,1 °C 10,1 °C 87 % 1025,9 hPa 0,0 mm 0,0 km/h (0 Bft) S 170 ° 0 min 0,000 mm 0,0 UV-I 0 W/m² 8,0 °C 10,1 °C 0,0 km/h (0 Bft)
17.05.2017 00:18 10,0 °C 10,1 °C 86 % 1025,9 hPa 0,0 mm 0,0 km/h (0 Bft) S 170 ° 0 min 0,000 mm 0,0 UV-I 0 W/m² 7,8 °C 10,0 °C 0,0 km/h (0 Bft)
17.05.2017 00:19 9,9 °C 10,0 °C 87 % 1025,9 hPa 0,0 mm 0,0 km/h (0 Bft) S 170 ° 0 min 0,000 mm 0,0 UV-I 0 W/m² 7,8 °C 9,9 °C 0,0 km/h (0 Bft)
17.05.2017 00:20 9,8 °C 9,9 °C 87 % 1026,0 hPa 0,0 mm 0,0 km/h (0 Bft) S 170 ° 0 min 0,000 mm 0,0 UV-I 0 W/m² 7,7 °C 9,8 °C 0,0 km/h (0 Bft)
17.05.2017 00:21 9,7 °C 9,8 °C 87 % 1025,9 hPa 0,0 mm 0,0 km/h (0 Bft) S 170 ° 0 min 0,000 mm 0,0 UV-I 0 W/m² 7,6 °C 9,7 °C 0,0 km/h (0 Bft)
17.05.2017 00:22 9,7 °C 9,7 °C 88 % 1025,9 hPa 0,0 mm 0,0 km/h (0 Bft) S 170 ° 0 min 0,000 mm 0,0 UV-I 0 W/m² 7,8 °C 9,7 °C 0,0 km/h (0 Bft)
17.05.2017 00:23 9,6 °C 9,7 °C 88 % 1025,9 hPa 0,0 mm 0,0 km/h (0 Bft) S 170 ° 0 min 0,000 mm 0,0 UV-I 0 W/m² 7,7 °C 9,6 °C 0,0 km/h (0 Bft)
17.05.2017 00:24 9,6 °C 9,6 °C 88 % 1025,9 hPa 0,0 mm 0,0 km/h (0 Bft) S 170 ° 0 min 0,000 mm 0,0 UV-I 0 W/m² 7,7 °C 9,6 °C 0,0 km/h (0 Bft)
17.05.2017 00:25 9,6 °C 9,6 °C 89 % 1025,9 hPa 0,0 mm 0,0 km/h (0 Bft) S 170 ° 0 min 0,000 mm 0,0 UV-I 0 W/m² 7,9 °C 9,6 °C 0,0 km/h (0 Bft)
17.05.2017 00:26 9,6 °C 9,6 °C 89 % 1025,9 hPa 0,0 mm 0,0 km/h (0 Bft) S 170 ° 0 min 0,000 mm 0,0 UV-I 0 W/m² 7,9 °C 9,6 °C 0,0 km/h (0 Bft)
17.05.2017 00:27 9,6 °C 9,7 °C 89 % 1025,9 hPa 0,0 mm 0,0 km/h (0 Bft) S 170 ° 0 min 0,000 mm 0,0 UV-I 0 W/m² 7,9 °C 9,6 °C 0,0 km/h (0 Bft)
17.05.2017 00:28 9,7 °C 9,7 °C 89 % 1025,9 hPa 0,0 mm 0,0 km/h (0 Bft) S 170 ° 0 min 0,000 mm 0,0 UV-I 0 W/m² 8,0 °C 9,7 °C 0,0 km/h (0 Bft)
17.05.2017 00:29 9,6 °C 9,7 °C 89 % 1025,9 hPa 0,0 mm 0,0 km/h (0 Bft) S 170 ° 0 min 0,000 mm 0,0 UV-I 0 W/m² 7,9 °C 9,6 °C 0,0 km/h (0 Bft)
17.05.2017 00:30 9,6 °C 9,6 °C 88 % 1025,9 hPa 0,0 mm 0,0 km/h (0 Bft) S 170 ° 0 min 0,000 mm 0,0 UV-I 0 W/m² 7,7 °C 9,6 °C 0,0 km/h (0 Bft)
17.05.2017 00:31 9,6 °C 9,6 °C 89 % 1025,9 hPa 0,0 mm 0,3 km/h (0 Bft) S 170 ° 0 min 0,000 mm 0,0 UV-I 0 W/m² 7,9 °C 9,6 °C 1,6 km/h (1 Bft)
17.05.2017 00:32 9,4 °C 9,6 °C 89 % 1025,9 hPa 0,0 mm 0,4 km/h (0 Bft) S 170 ° 0 min 0,000 mm 0,0 UV-I 0 W/m² 7,7 °C 9,4 °C 1,6 km/h (1 Bft)
17.05.2017 00:33 9,4 °C 9,5 °C 89 % 1025,9 hPa 0,0 mm 0,0 km/h (0 Bft) S 170 ° 0 min 0,000 mm 0,0 UV-I 0 W/m² 7,7 °C 9,4 °C 0,0 km/h (0 Bft)
17.05.2017 00:34 9,4 °C 9,4 °C 89 % 1025,9 hPa 0,0 mm 0,0 km/h (0 Bft) S 170 ° 0 min 0,000 mm 0,0 UV-I 0 W/m² 7,7 °C 9,4 °C 0,0 km/h (0 Bft)
17.05.2017 00:35 9,4 °C 9,4 °C 89 % 1025,9 hPa 0,0 mm 0,0 km/h (0 Bft) S 170 ° 0 min 0,000 mm 0,0 UV-I 0 W/m² 7,7 °C 9,4 °C 0,0 km/h (0 Bft)
17.05.2017 00:36 9,4 °C 9,4 °C 89 % 1025,9 hPa 0,0 mm 0,0 km/h (0 Bft) S 170 ° 0 min 0,000 mm 0,0 UV-I 0 W/m² 7,7 °C 9,4 °C 0,0 km/h (0 Bft)
17.05.2017 00:37 9,4 °C 9,4 °C 89 % 1025,9 hPa 0,0 mm 0,0 km/h (0 Bft) S 170 ° 0 min 0,000 mm 0,0 UV-I 0 W/m² 7,7 °C 9,4 °C 0,0 km/h (0 Bft)
17.05.2017 00:38 9,4 °C 9,4 °C 89 % 1025,9 hPa 0,0 mm 0,0 km/h (0 Bft) S 170 ° 0 min 0,000 mm 0,0 UV-I 0 W/m² 7,7 °C 9,4 °C 0,0 km/h (0 Bft)
17.05.2017 00:39 9,4 °C 9,5 °C 89 % 1025,8 hPa 0,0 mm 0,0 km/h (0 Bft) S 170 ° 0 min 0,000 mm 0,0 UV-I 0 W/m² 7,7 °C 9,4 °C 0,0 km/h (0 Bft)
17.05.2017 00:40 9,6 °C 9,6 °C 89 % 1025,8 hPa 0,0 mm 0,0 km/h (0 Bft) S 170 ° 0 min 0,000 mm 0,0 UV-I 0 W/m² 7,9 °C 9,6 °C 0,0 km/h (0 Bft)
17.05.2017 00:41 9,6 °C 9,6 °C 89 % 1025,8 hPa 0,0 mm 0,0 km/h (0 Bft) S 170 ° 0 min 0,000 mm 0,0 UV-I 0 W/m² 7,9 °C 9,6 °C 0,0 km/h (0 Bft)
17.05.2017 00:42 9,6 °C 9,7 °C 88 % 1025,8 hPa 0,0 mm 0,0 km/h (0 Bft) S 170 ° 0 min 0,000 mm 0,0 UV-I 0 W/m² 7,7 °C 9,6 °C 0,0 km/h (0 Bft)
17.05.2017 00:43 9,6 °C 9,6 °C 88 % 1025,8 hPa 0,0 mm 0,0 km/h (0 Bft) S 170 ° 0 min 0,000 mm 0,0 UV-I 0 W/m² 7,7 °C 9,6 °C 0,0 km/h (0 Bft)
17.05.2017 00:44 9,6 °C 9,7 °C 88 % 1025,8 hPa 0,0 mm 0,0 km/h (0 Bft) S 170 ° 0 min 0,000 mm 0,0 UV-I 0 W/m² 7,7 °C 9,6 °C 0,0 km/h (0 Bft)
17.05.2017 00:45 9,6 °C 9,6 °C 88 % 1025,8 hPa 0,0 mm 0,0 km/h (0 Bft) S 170 ° 0 min 0,000 mm 0,0 UV-I 0 W/m² 7,7 °C 9,6 °C 0,0 km/h (0 Bft)
17.05.2017 00:46 9,5 °C 9,6 °C 89 % 1025,8 hPa 0,0 mm 0,0 km/h (0 Bft) S 170 ° 0 min 0,000 mm 0,0 UV-I 0 W/m² 7,8 °C 9,5 °C 0,0 km/h (0 Bft)
17.05.2017 00:47 9,4 °C 9,5 °C 89 % 1025,8 hPa 0,0 mm 0,0 km/h (0 Bft) S 170 ° 0 min 0,000 mm 0,0 UV-I 0 W/m² 7,7 °C 9,4 °C 0,0 km/h (0 Bft)
17.05.2017 00:48 9,4 °C 9,5 °C 89 % 1025,8 hPa 0,0 mm 0,4 km/h (0 Bft) S 170 ° 0 min 0,000 mm 0,0 UV-I 0 W/m² 7,7 °C 9,4 °C 3,2 km/h (1 Bft)
17.05.2017 00:49 9,5 °C 9,5 °C 89 % 1025,8 hPa 0,0 mm 0,6 km/h (0 Bft) S 170 ° 0 min 0,000 mm 0,0 UV-I 0 W/m² 7,8 °C 9,5 °C 3,2 km/h (1 Bft)
17.05.2017 00:50 9,4 °C 9,5 °C 89 % 1025,8 hPa 0,0 mm 0,0 km/h (0 Bft) S 170 ° 0 min 0,000 mm 0,0 UV-I 0 W/m² 7,7 °C 9,4 °C 0,0 km/h (0 Bft)
17.05.2017 00:51 9,4 °C 9,4 °C 89 % 1025,8 hPa 0,0 mm 0,0 km/h (0 Bft) S 170 ° 0 min 0,000 mm 0,0 UV-I 0 W/m² 7,7 °C 9,4 °C 0,0 km/h (0 Bft)
17.05.2017 00:52 9,4 °C 9,4 °C 89 % 1025,8 hPa 0,0 mm 0,0 km/h (0 Bft) S 170 ° 0 min 0,000 mm 0,0 UV-I 0 W/m² 7,7 °C 9,4 °C 0,0 km/h (0 Bft)
17.05.2017 00:53 9,3 °C 9,4 °C 89 % 1025,7 hPa 0,0 mm 0,0 km/h (0 Bft) S 170 ° 0 min 0,000 mm 0,0 UV-I 0 W/m² 7,6 °C 9,3 °C 0,0 km/h (0 Bft)
17.05.2017 00:54 9,2 °C 9,3 °C 89 % 1025,7 hPa 0,0 mm 0,0 km/h (0 Bft) S 170 ° 0 min 0,000 mm 0,0 UV-I 0 W/m² 7,5 °C 9,2 °C 0,0 km/h (0 Bft)
17.05.2017 00:55 9,2 °C 9,2 °C 89 % 1025,7 hPa 0,0 mm 0,0 km/h (0 Bft) S 170 ° 0 min 0,000 mm 0,0 UV-I 0 W/m² 7,5 °C 9,2 °C 0,0 km/h (0 Bft)
17.05.2017 00:56 9,1 °C 9,2 °C 89 % 1025,7 hPa 0,0 mm 0,0 km/h (0 Bft) S 170 ° 0 min 0,000 mm 0,0 UV-I 0 W/m² 7,4 °C 9,1 °C 0,0 km/h (0 Bft)
17.05.2017 00:57 9,1 °C 9,1 °C 90 % 1025,7 hPa 0,0 mm 0,0 km/h (0 Bft) S 170 ° 0 min 0,000 mm 0,0 UV-I 0 W/m² 7,5 °C 9,1 °C 0,0 km/h (0 Bft)
17.05.2017 00:58 9,0 °C 9,1 °C 90 % 1025,7 hPa 0,0 mm 0,0 km/h (0 Bft) S 170 ° 0 min 0,000 mm 0,0 UV-I 0 W/m² 7,4 °C 9,0 °C 0,0 km/h (0 Bft)
17.05.2017 00:59 9,0 °C 9,0 °C 90 % 1025,7 hPa 0,0 mm 0,0 km/h (0 Bft) S 170 ° 0 min 0,000 mm 0,0 UV-I 0 W/m² 7,4 °C 9,0 °C 0,0 km/h (0 Bft)
17.05.2017 01:00 9,0 °C 9,0 °C 90 % 1025,7 hPa 0,0 mm 0,0 km/h (0 Bft) S 170 ° 0 min 0,000 mm 0,0 UV-I 0 W/m² 7,4 °C 9,0 °C 0,0 km/h (0 Bft)
17.05.2017 01:01 9,1 °C 9,1 °C 90 % 1025,7 hPa 0,0 mm 0,0 km/h (0 Bft) S 170 ° 0 min 0,000 mm 0,0 UV-I 0 W/m² 7,5 °C 9,1 °C 0,0 km/h (0 Bft)
17.05.2017 01:02 9,0 °C 9,1 °C 90 % 1025,7 hPa 0,0 mm 0,0 km/h (0 Bft) S 170 ° 0 min 0,000 mm 0,0 UV-I 0 W/m² 7,4 °C 9,0 °C 0,0 km/h (0 Bft)
17.05.2017 01:03 8,9 °C 9,0 °C 90 % 1025,7 hPa 0,0 mm 0,0 km/h (0 Bft) S 170 ° 0 min 0,000 mm 0,0 UV-I 0 W/m² 7,4 °C 8,9 °C 0,0 km/h (0 Bft)
17.05.2017 01:04 8,9 °C 8,9 °C 90 % 1025,7 hPa 0,0 mm 0,0 km/h (0 Bft) S 170 ° 0 min 0,000 mm 0,0 UV-I 0 W/m² 7,4 °C 8,9 °C 0,0 km/h (0 Bft)
17.05.2017 01:05 8,9 °C 8,9 °C 90 % 1025,7 hPa 0,0 mm 0,0 km/h (0 Bft) S 170 ° 0 min 0,000 mm 0,0 UV-I 0 W/m² 7,4 °C 8,9 °C 0,0 km/h (0 Bft)
17.05.2017 01:06 8,9 °C 8,9 °C 90 % 1025,7 hPa 0,0 mm 0,0 km/h (0 Bft) S 170 ° 0 min 0,000 mm 0,0 UV-I 0 W/m² 7,4 °C 8,9 °C 0,0 km/h (0 Bft)
17.05.2017 01:07 9,0 °C 9,0 °C 90 % 1025,7 hPa 0,0 mm 0,0 km/h (0 Bft) S 170 ° 0 min 0,000 mm 0,0 UV-I 0 W/m² 7,4 °C 9,0 °C 0,0 km/h (0 Bft)
17.05.2017 01:08 9,0 °C 9,0 °C 90 % 1025,7 hPa 0,0 mm 0,0 km/h (0 Bft) S 170 ° 0 min 0,000 mm 0,0 UV-I 0 W/m² 7,4 °C 9,0 °C 0,0 km/h (0 Bft)
17.05.2017 01:09 9,0 °C 9,0 °C 90 % 1025,7 hPa 0,0 mm 0,0 km/h (0 Bft) S 170 ° 0 min 0,000 mm 0,0 UV-I 0 W/m² 7,4 °C 9,0 °C 0,0 km/h (0 Bft)
17.05.2017 01:10 8,9 °C 9,0 °C 90 % 1025,7 hPa 0,0 mm 0,0 km/h (0 Bft) S 170 ° 0 min 0,000 mm 0,0 UV-I 0 W/m² 7,4 °C 8,9 °C 0,0 km/h (0 Bft)
17.05.2017 01:11 8,8 °C 8,9 °C 90 % 1025,7 hPa 0,0 mm 0,0 km/h (0 Bft) S 170 ° 0 min 0,000 mm 0,0 UV-I 0 W/m² 7,3 °C 8,8 °C 0,0 km/h (0 Bft)
17.05.2017 01:12 8,7 °C 8,8 °C 90 % 1025,7 hPa 0,0 mm 0,0 km/h (0 Bft) S 170 ° 0 min 0,000 mm 0,0 UV-I 0 W/m² 7,2 °C 8,7 °C 0,0 km/h (0 Bft)
17.05.2017 01:13 8,7 °C 8,8 °C 90 % 1025,8 hPa 0,0 mm 0,0 km/h (0 Bft) S 170 ° 0 min 0,000 mm 0,0 UV-I 0 W/m² 7,2 °C 8,7 °C 0,0 km/h (0 Bft)
17.05.2017 01:14 8,7 °C 8,7 °C 91 % 1025,7 hPa 0,0 mm 0,0 km/h (0 Bft) S 170 ° 0 min 0,000 mm 0,0 UV-I 0 W/m² 7,3 °C 8,7 °C 0,0 km/h (0 Bft)
17.05.2017 01:15 8,7 °C 8,7 °C 91 % 1025,7 hPa 0,0 mm 0,0 km/h (0 Bft) S 170 ° 0 min 0,000 mm 0,0 UV-I 0 W/m² 7,3 °C 8,7 °C 0,0 km/h (0 Bft)
17.05.2017 01:16 8,7 °C 8,7 °C 90 % 1025,7 hPa 0,0 mm 0,0 km/h (0 Bft) S 170 ° 0 min 0,000 mm 0,0 UV-I 0 W/m² 7,2 °C 8,7 °C 0,0 km/h (0 Bft)
17.05.2017 01:17 8,7 °C 8,7 °C 91 % 1025,7 hPa 0,0 mm 0,0 km/h (0 Bft) S 170 ° 0 min 0,000 mm 0,0 UV-I 0 W/m² 7,3 °C 8,7 °C 0,0 km/h (0 Bft)
17.05.2017 01:18 8,7 °C 8,7 °C 91 % 1025,8 hPa 0,0 mm 0,0 km/h (0 Bft) S 170 ° 0 min 0,000 mm 0,0 UV-I 0 W/m² 7,3 °C 8,7 °C 0,0 km/h (0 Bft)
17.05.2017 01:19 8,7 °C 8,7 °C 91 % 1025,8 hPa 0,0 mm 0,0 km/h (0 Bft) S 170 ° 0 min 0,000 mm 0,0 UV-I 0 W/m² 7,3 °C 8,7 °C 0,0 km/h (0 Bft)
17.05.2017 01:20 8,7 °C 8,7 °C 91 % 1025,8 hPa 0,0 mm 0,0 km/h (0 Bft) S 170 ° 0 min 0,000 mm 0,0 UV-I 0 W/m² 7,3 °C 8,7 °C 0,0 km/h (0 Bft)
17.05.2017 01:21 8,7 °C 8,8 °C 91 % 1025,7 hPa 0,0 mm 0,0 km/h (0 Bft) S 170 ° 0 min 0,000 mm 0,0 UV-I 0 W/m² 7,3 °C 8,7 °C 0,0 km/h (0 Bft)
17.05.2017 01:22 8,7 °C 8,7 °C 90 % 1025,8 hPa 0,0 mm 0,0 km/h (0 Bft) S 170 ° 0 min 0,000 mm 0,0 UV-I 0 W/m² 7,2 °C 8,7 °C 0,0 km/h (0 Bft)
17.05.2017 01:23 8,7 °C 8,7 °C 91 % 1025,8 hPa 0,0 mm 0,0 km/h (0 Bft) S 170 ° 0 min 0,000 mm 0,0 UV-I 0 W/m² 7,3 °C 8,7 °C 0,0 km/h (0 Bft)
17.05.2017 01:24 8,7 °C 8,7 °C 91 % 1025,8 hPa 0,0 mm 0,0 km/h (0 Bft) S 170 ° 0 min 0,000 mm 0,0 UV-I 0 W/m² 7,3 °C 8,7 °C 0,0 km/h (0 Bft)
17.05.2017 01:25 8,6 °C 8,7 °C 91 % 1025,7 hPa 0,0 mm 0,0 km/h (0 Bft) S 170 ° 0 min 0,000 mm 0,0 UV-I 0 W/m² 7,2 °C 8,6 °C 0,0 km/h (0 Bft)
17.05.2017 01:26 8,6 °C 8,6 °C 91 % 1025,7 hPa 0,0 mm 0,0 km/h (0 Bft) S 170 ° 0 min 0,000 mm 0,0 UV-I 0 W/m² 7,2 °C 8,6 °C 0,0 km/h (0 Bft)
17.05.2017 01:27 8,6 °C 8,6 °C 91 % 1025,7 hPa 0,0 mm 0,0 km/h (0 Bft) S 170 ° 0 min 0,000 mm 0,0 UV-I 0 W/m² 7,2 °C 8,6 °C 0,0 km/h (0 Bft)
17.05.2017 01:28 8,6 °C 8,6 °C 91 % 1025,7 hPa 0,0 mm 0,0 km/h (0 Bft) S 170 ° 0 min 0,000 mm 0,0 UV-I 0 W/m² 7,2 °C 8,6 °C 0,0 km/h (0 Bft)
17.05.2017 01:29 8,6 °C 8,6 °C 91 % 1025,7 hPa 0,0 mm 0,0 km/h (0 Bft) S 170 ° 0 min 0,000 mm 0,0 UV-I 0 W/m² 7,2 °C 8,6 °C 0,0 km/h (0 Bft)
17.05.2017 01:30 8,6 °C 8,6 °C 91 % 1025,7 hPa 0,0 mm 0,0 km/h (0 Bft) S 170 ° 0 min 0,000 mm 0,0 UV-I 0 W/m² 7,2 °C 8,6 °C 0,0 km/h (0 Bft)
17.05.2017 01:31 8,6 °C 8,6 °C 91 % 1025,7 hPa 0,0 mm 0,0 km/h (0 Bft) S 170 ° 0 min 0,000 mm 0,0 UV-I 0 W/m² 7,2 °C 8,6 °C 0,0 km/h (0 Bft)
17.05.2017 01:32 8,5 °C 8,6 °C 91 % 1025,7 hPa 0,0 mm 0,0 km/h (0 Bft) S 170 ° 0 min 0,000 mm 0,0 UV-I 0 W/m² 7,1 °C 8,5 °C 0,0 km/h (0 Bft)
17.05.2017 01:33 8,4 °C 8,5 °C 91 % 1025,7 hPa 0,0 mm 0,0 km/h (0 Bft) S 170 ° 0 min 0,000 mm 0,0 UV-I 0 W/m² 7,0 °C 8,4 °C 0,0 km/h (0 Bft)
17.05.2017 01:34 8,4 °C 8,4 °C 91 % 1025,6 hPa 0,0 mm 0,0 km/h (0 Bft) S 170 ° 0 min 0,000 mm 0,0 UV-I 0 W/m² 7,0 °C 8,4 °C 0,0 km/h (0 Bft)
17.05.2017 01:35 8,4 °C 8,4 °C 91 % 1025,6 hPa 0,0 mm 0,0 km/h (0 Bft) S 170 ° 0 min 0,000 mm 0,0 UV-I 0 W/m² 7,0 °C 8,4 °C 0,0 km/h (0 Bft)
17.05.2017 01:36 8,4 °C 8,4 °C 91 % 1025,6 hPa 0,0 mm 0,0 km/h (0 Bft) S 170 ° 0 min 0,000 mm 0,0 UV-I 0 W/m² 7,0 °C 8,4 °C 0,0 km/h (0 Bft)
17.05.2017 01:37 8,4 °C 8,4 °C 92 % 1025,6 hPa 0,0 mm 0,0 km/h (0 Bft) S 170 ° 0 min 0,000 mm 0,0 UV-I 0 W/m² 7,2 °C 8,4 °C 0,0 km/h (0 Bft)
17.05.2017 01:38 8,4 °C 8,4 °C 92 % 1025,6 hPa 0,0 mm 0,0 km/h (0 Bft) S 170 ° 0 min 0,000 mm 0,0 UV-I 0 W/m² 7,2 °C 8,4 °C 0,0 km/h (0 Bft)
17.05.2017 01:39 8,3 °C 8,4 °C 92 % 1025,6 hPa 0,0 mm 0,0 km/h (0 Bft) S 170 ° 0 min 0,000 mm 0,0 UV-I 0 W/m² 7,1 °C 8,3 °C 0,0 km/h (0 Bft)
17.05.2017 01:40 8,4 °C 8,4 °C 92 % 1025,6 hPa 0,0 mm 0,0 km/h (0 Bft) S 170 ° 0 min 0,000 mm 0,0 UV-I 0 W/m² 7,2 °C 8,4 °C 0,0 km/h (0 Bft)
17.05.2017 01:41 8,4 °C 8,4 °C 92 % 1025,5 hPa 0,0 mm 0,0 km/h (0 Bft) S 170 ° 0 min 0,000 mm 0,0 UV-I 0 W/m² 7,2 °C 8,4 °C 0,0 km/h (0 Bft)
17.05.2017 01:42 8,4 °C 8,4 °C 92 % 1025,5 hPa 0,0 mm 0,0 km/h (0 Bft) S 170 ° 0 min 0,000 mm 0,0 UV-I 0 W/m² 7,2 °C 8,4 °C 0,0 km/h (0 Bft)
17.05.2017 01:43 8,3 °C 8,4 °C 92 % 1025,5 hPa 0,0 mm 0,0 km/h (0 Bft) S 170 ° 0 min 0,000 mm 0,0 UV-I 0 W/m² 7,1 °C 8,3 °C 0,0 km/h (0 Bft)
17.05.2017 01:44 8,3 °C 8,3 °C 91 % 1025,5 hPa 0,0 mm 0,0 km/h (0 Bft) S 170 ° 0 min 0,000 mm 0,0 UV-I 0 W/m² 6,9 °C 8,3 °C 0,0 km/h (0 Bft)
17.05.2017 01:45 8,3 °C 8,3 °C 92 % 1025,5 hPa 0,0 mm 0,0 km/h (0 Bft) S 170 ° 0 min 0,000 mm 0,0 UV-I 0 W/m² 7,1 °C 8,3 °C 0,0 km/h (0 Bft)
17.05.2017 01:46 8,3 °C 8,3 °C 91 % 1025,5 hPa 0,0 mm 0,0 km/h (0 Bft) S 170 ° 0 min 0,000 mm 0,0 UV-I 0 W/m² 6,9 °C 8,3 °C 0,0 km/h (0 Bft)
17.05.2017 01:47 8,3 °C 8,3 °C 92 % 1025,5 hPa 0,0 mm 0,0 km/h (0 Bft) S 170 ° 0 min 0,000 mm 0,0 UV-I 0 W/m² 7,1 °C 8,3 °C 0,0 km/h (0 Bft)
17.05.2017 01:48 8,3 °C 8,3 °C 92 % 1025,5 hPa 0,0 mm 0,0 km/h (0 Bft) S 170 ° 0 min 0,000 mm 0,0 UV-I 0 W/m² 7,1 °C 8,3 °C 0,0 km/h (0 Bft)
17.05.2017 01:49 8,3 °C 8,3 °C 92 % 1025,5 hPa 0,0 mm 0,0 km/h (0 Bft) S 170 ° 0 min 0,000 mm 0,0 UV-I 0 W/m² 7,1 °C 8,3 °C 0,0 km/h (0 Bft)
17.05.2017 01:50 8,3 °C 8,3 °C 92 % 1025,5 hPa 0,0 mm 0,0 km/h (0 Bft) S 170 ° 0 min 0,000 mm 0,0 UV-I 0 W/m² 7,1 °C 8,3 °C 0,0 km/h (0 Bft)
17.05.2017 01:51 8,3 °C 8,3 °C 92 % 1025,5 hPa 0,0 mm 0,0 km/h (0 Bft) S 170 ° 0 min 0,000 mm 0,0 UV-I 0 W/m² 7,1 °C 8,3 °C 0,0 km/h (0 Bft)
17.05.2017 01:52 8,3 °C 8,3 °C 92 % 1025,4 hPa 0,0 mm 0,0 km/h (0 Bft) S 170 ° 0 min 0,000 mm 0,0 UV-I 0 W/m² 7,1 °C 8,3 °C 0,0 km/h (0 Bft)
17.05.2017 01:53 8,2 °C 8,3 °C 91 % 1025,5 hPa 0,0 mm 0,0 km/h (0 Bft) S 170 ° 0 min 0,000 mm 0,0 UV-I 0 W/m² 6,8 °C 8,2 °C 0,0 km/h (0 Bft)
17.05.2017 01:54 8,2 °C 8,2 °C 92 % 1025,4 hPa 0,0 mm 0,0 km/h (0 Bft) S 170 ° 0 min 0,000 mm 0,0 UV-I 0 W/m² 7,0 °C 8,2 °C 0,0 km/h (0 Bft)
17.05.2017 01:55 8,2 °C 8,2 °C 92 % 1025,4 hPa 0,0 mm 0,0 km/h (0 Bft) S 170 ° 0 min 0,000 mm 0,0 UV-I 0 W/m² 7,0 °C 8,2 °C 0,0 km/h (0 Bft)
17.05.2017 01:56 8,2 °C 8,2 °C 92 % 1025,4 hPa 0,0 mm 0,0 km/h (0 Bft) S 170 ° 0 min 0,000 mm 0,0 UV-I 0 W/m² 7,0 °C 8,2 °C 0,0 km/h (0 Bft)
17.05.2017 01:57 8,2 °C 8,2 °C 92 % 1025,4 hPa 0,0 mm 0,0 km/h (0 Bft) S 170 ° 0 min 0,000 mm 0,0 UV-I 0 W/m² 7,0 °C 8,2 °C 0,0 km/h (0 Bft)
17.05.2017 01:58 8,1 °C 8,2 °C 92 % 1025,3 hPa 0,0 mm 0,0 km/h (0 Bft) S 170 ° 0 min 0,000 mm 0,0 UV-I 0 W/m² 6,9 °C 8,1 °C 0,0 km/h (0 Bft)
17.05.2017 01:59 8,1 °C 8,2 °C 92 % 1025,4 hPa 0,0 mm 0,0 km/h (0 Bft) S 170 ° 0 min 0,000 mm 0,0 UV-I 0 W/m² 6,9 °C 8,1 °C 0,0 km/h (0 Bft)
17.05.2017 02:00 8,2 °C 8,2 °C 92 % 1025,3 hPa 0,0 mm 0,0 km/h (0 Bft) S 170 ° 0 min 0,000 mm 0,0 UV-I 0 W/m² 7,0 °C 8,2 °C 0,0 km/h (0 Bft)
17.05.2017 02:01 8,2 °C 8,2 °C 92 % 1025,3 hPa 0,0 mm 0,0 km/h (0 Bft) S 170 ° 0 min 0,000 mm 0,0 UV-I 0 W/m² 7,0 °C 8,2 °C 0,0 km/h (0 Bft)
17.05.2017 02:02 8,3 °C 8,3 °C 93 % 1025,3 hPa 0,0 mm 0,0 km/h (0 Bft) S 170 ° 0 min 0,000 mm 0,0 UV-I 0 W/m² 7,2 °C 8,3 °C 0,0 km/h (0 Bft)
17.05.2017 02:03 8,3 °C 8,3 °C 92 % 1025,3 hPa 0,0 mm 0,0 km/h (0 Bft) S 170 ° 0 min 0,000 mm 0,0 UV-I 0 W/m² 7,1 °C 8,3 °C 0,0 km/h (0 Bft)
17.05.2017 02:04 8,3 °C 8,3 °C 92 % 1025,3 hPa 0,0 mm 0,0 km/h (0 Bft) S 170 ° 0 min 0,000 mm 0,0 UV-I 0 W/m² 7,1 °C 8,3 °C 0,0 km/h (0 Bft)
17.05.2017 02:05 8,2 °C 8,3 °C 91 % 1025,3 hPa 0,0 mm 0,0 km/h (0 Bft) S 170 ° 0 min 0,000 mm 0,0 UV-I 0 W/m² 6,8 °C 8,2 °C 0,0 km/h (0 Bft)
17.05.2017 02:06 8,2 °C 8,2 °C 91 % 1025,3 hPa 0,0 mm 0,0 km/h (0 Bft) S 170 ° 0 min 0,000 mm 0,0 UV-I 0 W/m² 6,8 °C 8,2 °C 0,0 km/h (0 Bft)
17.05.2017 02:07 8,2 °C 8,2 °C 91 % 1025,3 hPa 0,0 mm 0,0 km/h (0 Bft) S 170 ° 0 min 0,000 mm 0,0 UV-I 0 W/m² 6,8 °C 8,2 °C 0,0 km/h (0 Bft)
17.05.2017 02:08 8,1 °C 8,2 °C 91 % 1025,3 hPa 0,0 mm 0,0 km/h (0 Bft) S 170 ° 0 min 0,000 mm 0,0 UV-I 0 W/m² 6,7 °C 8,1 °C 0,0 km/h (0 Bft)
17.05.2017 02:09 8,1 °C 8,1 °C 91 % 1025,3 hPa 0,0 mm 0,0 km/h (0 Bft) S 170 ° 0 min 0,000 mm 0,0 UV-I 0 W/m² 6,7 °C 8,1 °C 0,0 km/h (0 Bft)
17.05.2017 02:10 8,0 °C 8,1 °C 91 % 1025,3 hPa 0,0 mm 0,0 km/h (0 Bft) S 170 ° 0 min 0,000 mm 0,0 UV-I 0 W/m² 6,6 °C 8,0 °C 0,0 km/h (0 Bft)
17.05.2017 02:11 8,0 °C 8,1 °C 92 % 1025,3 hPa 0,0 mm 0,0 km/h (0 Bft) S 170 ° 0 min 0,000 mm 0,0 UV-I 0 W/m² 6,8 °C 8,0 °C 0,0 km/h (0 Bft)
17.05.2017 02:12 8,0 °C 8,0 °C 92 % 1025,3 hPa 0,0 mm 0,0 km/h (0 Bft) S 170 ° 0 min 0,000 mm 0,0 UV-I 0 W/m² 6,8 °C 8,0 °C 0,0 km/h (0 Bft)
17.05.2017 02:13 7,9 °C 8,0 °C 92 % 1025,3 hPa 0,0 mm 0,0 km/h (0 Bft) S 170 ° 0 min 0,000 mm 0,0 UV-I 0 W/m² 6,7 °C 7,9 °C 0,0 km/h (0 Bft)
17.05.2017 02:14 8,0 °C 8,0 °C 92 % 1025,2 hPa 0,0 mm 0,0 km/h (0 Bft) S 170 ° 0 min 0,000 mm 0,0 UV-I 0 W/m² 6,8 °C 8,0 °C 0,0 km/h (0 Bft)
17.05.2017 02:15 8,0 °C 8,0 °C 92 % 1025,2 hPa 0,0 mm 0,0 km/h (0 Bft) S 170 ° 0 min 0,000 mm 0,0 UV-I 0 W/m² 6,8 °C 8,0 °C 0,0 km/h (0 Bft)
17.05.2017 02:16 7,9 °C 8,0 °C 92 % 1025,2 hPa 0,0 mm 0,0 km/h (0 Bft) S 170 ° 0 min 0,000 mm 0,0 UV-I 0 W/m² 6,7 °C 7,9 °C 0,0 km/h (0 Bft)
17.05.2017 02:17 7,8 °C 7,9 °C 92 % 1025,2 hPa 0,0 mm 0,0 km/h (0 Bft) S 170 ° 0 min 0,000 mm 0,0 UV-I 0 W/m² 6,6 °C 7,8 °C 0,0 km/h (0 Bft)
17.05.2017 02:18 7,8 °C 7,8 °C 92 % 1025,2 hPa 0,0 mm 0,0 km/h (0 Bft) S 170 ° 0 min 0,000 mm 0,0 UV-I 0 W/m² 6,6 °C 7,8 °C 0,0 km/h (0 Bft)
17.05.2017 02:19 7,8 °C 7,9 °C 92 % 1025,2 hPa 0,0 mm 0,0 km/h (0 Bft) S 170 ° 0 min 0,000 mm 0,0 UV-I 0 W/m² 6,6 °C 7,8 °C 0,0 km/h (0 Bft)
17.05.2017 02:20 7,8 °C 7,9 °C 92 % 1025,2 hPa 0,0 mm 0,0 km/h (0 Bft) S 170 ° 0 min 0,000 mm 0,0 UV-I 0 W/m² 6,6 °C 7,8 °C 0,0 km/h (0 Bft)
17.05.2017 02:21 7,8 °C 7,8 °C 92 % 1025,2 hPa 0,0 mm 0,0 km/h (0 Bft) S 170 ° 0 min 0,000 mm 0,0 UV-I 0 W/m² 6,6 °C 7,8 °C 0,0 km/h (0 Bft)
17.05.2017 02:22 7,8 °C 7,8 °C 92 % 1025,2 hPa 0,0 mm 0,0 km/h (0 Bft) S 170 ° 0 min 0,000 mm 0,0 UV-I 0 W/m² 6,6 °C 7,8 °C 0,0 km/h (0 Bft)
17.05.2017 02:23 7,7 °C 7,8 °C 92 % 1025,1 hPa 0,0 mm 0,0 km/h (0 Bft) S 170 ° 0 min 0,000 mm 0,0 UV-I 0 W/m² 6,5 °C 7,7 °C 0,0 km/h (0 Bft)
17.05.2017 02:24 7,7 °C 7,7 °C 92 % 1025,1 hPa 0,0 mm 0,0 km/h (0 Bft) S 170 ° 0 min 0,000 mm 0,0 UV-I 0 W/m² 6,5 °C 7,7 °C 0,0 km/h (0 Bft)
17.05.2017 02:25 7,6 °C 7,7 °C 92 % 1025,1 hPa 0,0 mm 0,0 km/h (0 Bft) S 170 ° 0 min 0,000 mm 0,0 UV-I 0 W/m² 6,4 °C 7,6 °C 0,0 km/h (0 Bft)
17.05.2017 02:26 7,6 °C 7,7 °C 92 % 1025,1 hPa 0,0 mm 0,0 km/h (0 Bft) S 170 ° 0 min 0,000 mm 0,0 UV-I 0 W/m² 6,4 °C 7,6 °C 0,0 km/h (0 Bft)
17.05.2017 02:27 7,6 °C 7,7 °C 92 % 1025,1 hPa 0,0 mm 0,0 km/h (0 Bft) S 170 ° 0 min 0,000 mm 0,0 UV-I 0 W/m² 6,4 °C 7,6 °C 0,0 km/h (0 Bft)
17.05.2017 02:28 7,6 °C 7,7 °C 92 % 1025,1 hPa 0,0 mm 0,0 km/h (0 Bft) S 170 ° 0 min 0,000 mm 0,0 UV-I 0 W/m² 6,4 °C 7,6 °C 0,0 km/h (0 Bft)
17.05.2017 02:29 7,7 °C 7,7 °C 92 % 1025,1 hPa 0,0 mm 0,0 km/h (0 Bft) S 170 ° 0 min 0,000 mm 0,0 UV-I 0 W/m² 6,5 °C 7,7 °C 0,0 km/h (0 Bft)
17.05.2017 02:30 7,6 °C 7,7 °C 92 % 1025,1 hPa 0,0 mm 0,0 km/h (0 Bft) S 170 ° 0 min 0,000 mm 0,0 UV-I 0 W/m² 6,4 °C 7,6 °C 0,0 km/h (0 Bft)
17.05.2017 02:31 7,6 °C 7,6 °C 92 % 1025,1 hPa 0,0 mm 0,0 km/h (0 Bft) S 170 ° 0 min 0,000 mm 0,0 UV-I 0 W/m² 6,4 °C 7,6 °C 0,0 km/h (0 Bft)
17.05.2017 02:32 7,5 °C 7,6 °C 92 % 1025,1 hPa 0,0 mm 0,0 km/h (0 Bft) S 170 ° 0 min 0,000 mm 0,0 UV-I 0 W/m² 6,3 °C 7,5 °C 0,0 km/h (0 Bft)
17.05.2017 02:33 7,5 °C 7,6 °C 92 % 1025,1 hPa 0,0 mm 0,0 km/h (0 Bft) S 170 ° 0 min 0,000 mm 0,0 UV-I 0 W/m² 6,3 °C 7,5 °C 0,0 km/h (0 Bft)
17.05.2017 02:34 7,5 °C 7,5 °C 92 % 1025,1 hPa 0,0 mm 0,0 km/h (0 Bft) S 170 ° 0 min 0,000 mm 0,0 UV-I 0 W/m² 6,3 °C 7,5 °C 0,0 km/h (0 Bft)
17.05.2017 02:35 7,4 °C 7,5 °C 93 % 1025,0 hPa 0,0 mm 0,0 km/h (0 Bft) S 170 ° 0 min 0,000 mm 0,0 UV-I 0 W/m² 6,3 °C 7,4 °C 0,0 km/h (0 Bft)
17.05.2017 02:36 7,5 °C 7,6 °C 93 % 1025,1 hPa 0,0 mm 0,0 km/h (0 Bft) S 170 ° 0 min 0,000 mm 0,0 UV-I 0 W/m² 6,4 °C 7,5 °C 0,0 km/h (0 Bft)
17.05.2017 02:37 7,5 °C 7,6 °C 93 % 1025,0 hPa 0,0 mm 0,0 km/h (0 Bft) S 170 ° 0 min 0,000 mm 0,0 UV-I 0 W/m² 6,4 °C 7,5 °C 0,0 km/h (0 Bft)
17.05.2017 02:38 7,6 °C 7,6 °C 93 % 1025,0 hPa 0,0 mm 0,0 km/h (0 Bft) S 170 ° 0 min 0,000 mm 0,0 UV-I 0 W/m² 6,5 °C 7,6 °C 0,0 km/h (0 Bft)
17.05.2017 02:39 7,6 °C 7,6 °C 93 % 1025,0 hPa 0,0 mm 0,0 km/h (0 Bft) S 170 ° 0 min 0,000 mm 0,0 UV-I 0 W/m² 6,5 °C 7,6 °C 0,0 km/h (0 Bft)
17.05.2017 02:40 7,6 °C 7,6 °C 93 % 1025,0 hPa 0,0 mm 0,0 km/h (0 Bft) S 170 ° 0 min 0,000 mm 0,0 UV-I 0 W/m² 6,5 °C 7,6 °C 0,0 km/h (0 Bft)
17.05.2017 02:41 7,6 °C 7,6 °C 93 % 1025,0 hPa 0,0 mm 0,0 km/h (0 Bft) S 170 ° 0 min 0,000 mm 0,0 UV-I 0 W/m² 6,5 °C 7,6 °C 0,0 km/h (0 Bft)
17.05.2017 02:42 7,6 °C 7,6 °C 93 % 1025,0 hPa 0,0 mm 0,0 km/h (0 Bft) S 170 ° 0 min 0,000 mm 0,0 UV-I 0 W/m² 6,5 °C 7,6 °C 0,0 km/h (0 Bft)
17.05.2017 02:43 7,6 °C 7,6 °C 93 % 1024,9 hPa 0,0 mm 0,0 km/h (0 Bft) S 170 ° 0 min 0,000 mm 0,0 UV-I 0 W/m² 6,5 °C 7,6 °C 0,0 km/h (0 Bft)
17.05.2017 02:44 7,7 °C 7,7 °C 93 % 1024,9 hPa 0,0 mm 0,0 km/h (0 Bft) S 170 ° 0 min 0,000 mm 0,0 UV-I 0 W/m² 6,6 °C 7,7 °C 0,0 km/h (0 Bft)
17.05.2017 02:45 7,7 °C 7,7 °C 93 % 1024,9 hPa 0,0 mm 0,0 km/h (0 Bft) S 170 ° 0 min 0,000 mm 0,0 UV-I 0 W/m² 6,6 °C 7,7 °C 0,0 km/h (0 Bft)
17.05.2017 02:46 7,7 °C 7,7 °C 93 % 1024,9 hPa 0,0 mm 0,0 km/h (0 Bft) S 170 ° 0 min 0,000 mm 0,0 UV-I 0 W/m² 6,6 °C 7,7 °C 0,0 km/h (0 Bft)
17.05.2017 02:47 7,6 °C 7,7 °C 92 % 1024,9 hPa 0,0 mm 0,0 km/h (0 Bft) S 170 ° 0 min 0,000 mm 0,0 UV-I 0 W/m² 6,4 °C 7,6 °C 0,0 km/h (0 Bft)
17.05.2017 02:48 7,6 °C 7,6 °C 92 % 1024,9 hPa 0,0 mm 0,0 km/h (0 Bft) S 170 ° 0 min 0,000 mm 0,0 UV-I 0 W/m² 6,4 °C 7,6 °C 0,0 km/h (0 Bft)
17.05.2017 02:49 7,6 °C 7,6 °C 93 % 1024,8 hPa 0,0 mm 0,0 km/h (0 Bft) S 170 ° 0 min 0,000 mm 0,0 UV-I 0 W/m² 6,5 °C 7,6 °C 0,0 km/h (0 Bft)
17.05.2017 02:50 7,6 °C 7,6 °C 93 % 1024,8 hPa 0,0 mm 0,0 km/h (0 Bft) S 170 ° 0 min 0,000 mm 0,0 UV-I 0 W/m² 6,5 °C 7,6 °C 0,0 km/h (0 Bft)
17.05.2017 02:51 7,6 °C 7,6 °C 93 % 1024,8 hPa 0,0 mm 0,0 km/h (0 Bft) S 170 ° 0 min 0,000 mm 0,0 UV-I 0 W/m² 6,5 °C 7,6 °C 0,0 km/h (0 Bft)
17.05.2017 02:52 7,7 °C 7,7 °C 93 % 1024,8 hPa 0,0 mm 0,0 km/h (0 Bft) S 170 ° 0 min 0,000 mm 0,0 UV-I 0 W/m² 6,6 °C 7,7 °C 0,0 km/h (0 Bft)
17.05.2017 02:53 7,8 °C 7,8 °C 93 % 1024,8 hPa 0,0 mm 0,0 km/h (0 Bft) S 170 ° 0 min 0,000 mm 0,0 UV-I 0 W/m² 6,7 °C 7,8 °C 0,0 km/h (0 Bft)
17.05.2017 02:54 7,8 °C 7,8 °C 93 % 1024,9 hPa 0,0 mm 0,0 km/h (0 Bft) S 170 ° 0 min 0,000 mm 0,0 UV-I 0 W/m² 6,7 °C 7,8 °C 0,0 km/h (0 Bft)
17.05.2017 02:55 7,8 °C 7,8 °C 93 % 1024,8 hPa 0,0 mm 0,0 km/h (0 Bft) S 170 ° 0 min 0,000 mm 0,0 UV-I 0 W/m² 6,7 °C 7,8 °C 0,0 km/h (0 Bft)
17.05.2017 02:56 7,8 °C 7,8 °C 93 % 1024,9 hPa 0,0 mm 0,0 km/h (0 Bft) S 170 ° 0 min 0,000 mm 0,0 UV-I 0 W/m² 6,7 °C 7,8 °C 0,0 km/h (0 Bft)
17.05.2017 02:57 7,8 °C 7,8 °C 93 % 1024,8 hPa 0,0 mm 0,0 km/h (0 Bft) S 170 ° 0 min 0,000 mm 0,0 UV-I 0 W/m² 6,7 °C 7,8 °C 0,0 km/h (0 Bft)
17.05.2017 02:58 7,8 °C 7,8 °C 93 % 1024,8 hPa 0,0 mm 0,0 km/h (0 Bft) S 170 ° 0 min 0,000 mm 0,0 UV-I 0 W/m² 6,7 °C 7,8 °C 0,0 km/h (0 Bft)
17.05.2017 02:59 7,8 °C 7,8 °C 93 % 1024,8 hPa 0,0 mm 0,0 km/h (0 Bft) S 170 ° 0 min 0,000 mm 0,0 UV-I 0 W/m² 6,7 °C 7,8 °C 0,0 km/h (0 Bft)
17.05.2017 03:00 7,8 °C 7,8 °C 93 % 1024,8 hPa 0,0 mm 0,0 km/h (0 Bft) S 170 ° 0 min 0,000 mm 0,0 UV-I 0 W/m² 6,7 °C 7,8 °C 0,0 km/h (0 Bft)
17.05.2017 03:01 7,9 °C 7,9 °C 93 % 1024,7 hPa 0,0 mm 0,0 km/h (0 Bft) S 170 ° 0 min 0,000 mm 0,0 UV-I 0 W/m² 6,8 °C 7,9 °C 0,0 km/h (0 Bft)
17.05.2017 03:02 7,9 °C 7,9 °C 93 % 1024,7 hPa 0,0 mm 0,0 km/h (0 Bft) S 170 ° 0 min 0,000 mm 0,0 UV-I 0 W/m² 6,8 °C 7,9 °C 0,0 km/h (0 Bft)
17.05.2017 03:03 7,9 °C 7,9 °C 93 % 1024,7 hPa 0,0 mm 0,0 km/h (0 Bft) S 170 ° 0 min 0,000 mm 0,0 UV-I 0 W/m² 6,8 °C 7,9 °C 0,0 km/h (0 Bft)
17.05.2017 03:04 7,9 °C 7,9 °C 92 % 1024,7 hPa 0,0 mm 0,0 km/h (0 Bft) S 170 ° 0 min 0,000 mm 0,0 UV-I 0 W/m² 6,7 °C 7,9 °C 0,0 km/h (0 Bft)
17.05.2017 03:05 7,9 °C 7,9 °C 92 % 1024,7 hPa 0,0 mm 0,0 km/h (0 Bft) S 170 ° 0 min 0,000 mm 0,0 UV-I 0 W/m² 6,7 °C 7,9 °C 0,0 km/h (0 Bft)
17.05.2017 03:06 7,9 °C 7,9 °C 92 % 1024,7 hPa 0,0 mm 0,0 km/h (0 Bft) S 170 ° 0 min 0,000 mm 0,0 UV-I 0 W/m² 6,7 °C 7,9 °C 0,0 km/h (0 Bft)
17.05.2017 03:07 7,9 °C 7,9 °C 92 % 1024,7 hPa 0,0 mm 0,0 km/h (0 Bft) S 170 ° 0 min 0,000 mm 0,0 UV-I 0 W/m² 6,7 °C 7,9 °C 0,0 km/h (0 Bft)
17.05.2017 03:08 7,8 °C 7,9 °C 92 % 1024,7 hPa 0,0 mm 0,0 km/h (0 Bft) S 170 ° 0 min 0,000 mm 0,0 UV-I 0 W/m² 6,6 °C 7,8 °C 0,0 km/h (0 Bft)
17.05.2017 03:09 7,8 °C 7,8 °C 92 % 1024,7 hPa 0,0 mm 0,0 km/h (0 Bft) S 170 ° 0 min 0,000 mm 0,0 UV-I 0 W/m² 6,6 °C 7,8 °C 0,0 km/h (0 Bft)
17.05.2017 03:10 7,7 °C 7,8 °C 92 % 1024,7 hPa 0,0 mm 0,0 km/h (0 Bft) S 170 ° 0 min 0,000 mm 0,0 UV-I 0 W/m² 6,5 °C 7,7 °C 0,0 km/h (0 Bft)
17.05.2017 03:11 7,7 °C 7,7 °C 92 % 1024,6 hPa 0,0 mm 0,0 km/h (0 Bft) S 170 ° 0 min 0,000 mm 0,0 UV-I 0 W/m² 6,5 °C 7,7 °C 0,0 km/h (0 Bft)
17.05.2017 03:12 7,6 °C 7,7 °C 92 % 1024,6 hPa 0,0 mm 0,0 km/h (0 Bft) S 170 ° 0 min 0,000 mm 0,0 UV-I 0 W/m² 6,4 °C 7,6 °C 0,0 km/h (0 Bft)
17.05.2017 03:13 7,6 °C 7,6 °C 92 % 1024,7 hPa 0,0 mm 0,0 km/h (0 Bft) S 170 ° 0 min 0,000 mm 0,0 UV-I 0 W/m² 6,4 °C 7,6 °C 0,0 km/h (0 Bft)
17.05.2017 03:14 7,6 °C 7,6 °C 92 % 1024,6 hPa 0,0 mm 0,0 km/h (0 Bft) S 170 ° 0 min 0,000 mm 0,0 UV-I 0 W/m² 6,4 °C 7,6 °C 0,0 km/h (0 Bft)
17.05.2017 03:15 7,6 °C 7,6 °C 93 % 1024,6 hPa 0,0 mm 0,0 km/h (0 Bft) S 170 ° 0 min 0,000 mm 0,0 UV-I 0 W/m² 6,5 °C 7,6 °C 0,0 km/h (0 Bft)
17.05.2017 03:16 7,6 °C 7,6 °C 93 % 1024,6 hPa 0,0 mm 0,0 km/h (0 Bft) S 170 ° 0 min 0,000 mm 0,0 UV-I 0 W/m² 6,5 °C 7,6 °C 0,0 km/h (0 Bft)
17.05.2017 03:17 7,5 °C 7,6 °C 93 % 1024,5 hPa 0,0 mm 0,0 km/h (0 Bft) S 170 ° 0 min 0,000 mm 0,0 UV-I 0 W/m² 6,4 °C 7,5 °C 0,0 km/h (0 Bft)
17.05.2017 03:18 7,5 °C 7,6 °C 93 % 1024,5 hPa 0,0 mm 0,0 km/h (0 Bft) S 170 ° 0 min 0,000 mm 0,0 UV-I 0 W/m² 6,4 °C 7,5 °C 0,0 km/h (0 Bft)
17.05.2017 03:19 7,4 °C 7,5 °C 93 % 1024,5 hPa 0,0 mm 0,0 km/h (0 Bft) S 170 ° 0 min 0,000 mm 0,0 UV-I 0 W/m² 6,3 °C 7,4 °C 0,0 km/h (0 Bft)
17.05.2017 03:20 7,4 °C 7,4 °C 93 % 1024,6 hPa 0,0 mm 0,0 km/h (0 Bft) S 170 ° 0 min 0,000 mm 0,0 UV-I 0 W/m² 6,3 °C 7,4 °C 0,0 km/h (0 Bft)
17.05.2017 03:21 7,3 °C 7,4 °C 92 % 1024,5 hPa 0,0 mm 0,0 km/h (0 Bft) S 170 ° 0 min 0,000 mm 0,0 UV-I 0 W/m² 6,1 °C 7,3 °C 0,0 km/h (0 Bft)
17.05.2017 03:22 7,3 °C 7,3 °C 93 % 1024,5 hPa 0,0 mm 0,0 km/h (0 Bft) S 170 ° 0 min 0,000 mm 0,0 UV-I 0 W/m² 6,2 °C 7,3 °C 0,0 km/h (0 Bft)
17.05.2017 03:23 7,3 °C 7,3 °C 93 % 1024,5 hPa 0,0 mm 0,0 km/h (0 Bft) S 170 ° 0 min 0,000 mm 0,0 UV-I 0 W/m² 6,2 °C 7,3 °C 0,0 km/h (0 Bft)
17.05.2017 03:24 7,2 °C 7,3 °C 93 % 1024,5 hPa 0,0 mm 0,0 km/h (0 Bft) S 170 ° 0 min 0,000 mm 0,0 UV-I 0 W/m² 6,1 °C 7,2 °C 0,0 km/h (0 Bft)
17.05.2017 03:25 7,2 °C 7,3 °C 93 % 1024,4 hPa 0,0 mm 0,0 km/h (0 Bft) S 170 ° 0 min 0,000 mm 0,0 UV-I 0 W/m² 6,1 °C 7,2 °C 0,0 km/h (0 Bft)
17.05.2017 03:26 7,2 °C 7,3 °C 93 % 1024,4 hPa 0,0 mm 0,0 km/h (0 Bft) S 170 ° 0 min 0,000 mm 0,0 UV-I 0 W/m² 6,1 °C 7,2 °C 0,0 km/h (0 Bft)
17.05.2017 03:27 7,2 °C 7,3 °C 93 % 1024,4 hPa 0,0 mm 0,0 km/h (0 Bft) S 170 ° 0 min 0,000 mm 0,0 UV-I 0 W/m² 6,1 °C 7,2 °C 0,0 km/h (0 Bft)
17.05.2017 03:28 7,2 °C 7,3 °C 93 % 1024,4 hPa 0,0 mm 0,0 km/h (0 Bft) S 170 ° 0 min 0,000 mm 0,0 UV-I 0 W/m² 6,1 °C 7,2 °C 0,0 km/h (0 Bft)
17.05.2017 03:29 7,3 °C 7,3 °C 93 % 1024,4 hPa 0,0 mm 0,0 km/h (0 Bft) S 170 ° 0 min 0,000 mm 0,0 UV-I 0 W/m² 6,2 °C 7,3 °C 0,0 km/h (0 Bft)
17.05.2017 03:30 7,3 °C 7,3 °C 93 % 1024,4 hPa 0,0 mm 0,0 km/h (0 Bft) S 170 ° 0 min 0,000 mm 0,0 UV-I 0 W/m² 6,2 °C 7,3 °C 0,0 km/h (0 Bft)
17.05.2017 03:31 7,3 °C 7,3 °C 93 % 1024,4 hPa 0,0 mm 0,0 km/h (0 Bft) S 170 ° 0 min 0,000 mm 0,0 UV-I 0 W/m² 6,2 °C 7,3 °C 0,0 km/h (0 Bft)
17.05.2017 03:32 7,3 °C 7,3 °C 93 % 1024,3 hPa 0,0 mm 0,0 km/h (0 Bft) S 170 ° 0 min 0,000 mm 0,0 UV-I 0 W/m² 6,2 °C 7,3 °C 0,0 km/h (0 Bft)
17.05.2017 03:33 7,3 °C 7,3 °C 94 % 1024,3 hPa 0,0 mm 0,0 km/h (0 Bft) S 170 ° 0 min 0,000 mm 0,0 UV-I 0 W/m² 6,4 °C 7,3 °C 0,0 km/h (0 Bft)
17.05.2017 03:34 7,3 °C 7,3 °C 94 % 1024,3 hPa 0,0 mm 0,0 km/h (0 Bft) S 170 ° 0 min 0,000 mm 0,0 UV-I 0 W/m² 6,4 °C 7,3 °C 0,0 km/h (0 Bft)
17.05.2017 03:35 7,3 °C 7,3 °C 94 % 1024,3 hPa 0,0 mm 0,0 km/h (0 Bft) S 170 ° 0 min 0,000 mm 0,0 UV-I 0 W/m² 6,4 °C 7,3 °C 0,0 km/h (0 Bft)
17.05.2017 03:36 7,3 °C 7,3 °C 93 % 1024,3 hPa 0,0 mm 0,0 km/h (0 Bft) S 170 ° 0 min 0,000 mm 0,0 UV-I 0 W/m² 6,2 °C 7,3 °C 0,0 km/h (0 Bft)
17.05.2017 03:37 7,3 °C 7,3 °C 93 % 1024,2 hPa 0,0 mm 0,0 km/h (0 Bft) S 170 ° 0 min 0,000 mm 0,0 UV-I 0 W/m² 6,2 °C 7,3 °C 0,0 km/h (0 Bft)
17.05.2017 03:38 7,2 °C 7,3 °C 93 % 1024,2 hPa 0,0 mm 0,0 km/h (0 Bft) S 170 ° 0 min 0,000 mm 0,0 UV-I 0 W/m² 6,1 °C 7,2 °C 0,0 km/h (0 Bft)
17.05.2017 03:39 7,2 °C 7,2 °C 93 % 1024,2 hPa 0,0 mm 0,0 km/h (0 Bft) S 170 ° 0 min 0,000 mm 0,0 UV-I 0 W/m² 6,1 °C 7,2 °C 0,0 km/h (0 Bft)
17.05.2017 03:40 7,2 °C 7,2 °C 94 % 1024,2 hPa 0,0 mm 0,0 km/h (0 Bft) S 170 ° 0 min 0,000 mm 0,0 UV-I 0 W/m² 6,3 °C 7,2 °C 0,0 km/h (0 Bft)
17.05.2017 03:41 7,2 °C 7,2 °C 94 % 1024,1 hPa 0,0 mm 0,0 km/h (0 Bft) S 170 ° 0 min 0,000 mm 0,0 UV-I 0 W/m² 6,3 °C 7,2 °C 0,0 km/h (0 Bft)
17.05.2017 03:42 7,2 °C 7,2 °C 93 % 1024,1 hPa 0,0 mm 0,0 km/h (0 Bft) S 170 ° 0 min 0,000 mm 0,0 UV-I 0 W/m² 6,1 °C 7,2 °C 0,0 km/h (0 Bft)
17.05.2017 03:43 7,1 °C 7,2 °C 93 % 1024,2 hPa 0,0 mm 0,0 km/h (0 Bft) S 170 ° 0 min 0,000 mm 0,0 UV-I 0 W/m² 6,0 °C 7,1 °C 0,0 km/h (0 Bft)
17.05.2017 03:44 7,1 °C 7,2 °C 93 % 1024,2 hPa 0,0 mm 0,0 km/h (0 Bft) S 170 ° 0 min 0,000 mm 0,0 UV-I 0 W/m² 6,0 °C 7,1 °C 0,0 km/h (0 Bft)
17.05.2017 03:45 7,1 °C 7,1 °C 94 % 1024,1 hPa 0,0 mm 0,0 km/h (0 Bft) S 170 ° 0 min 0,000 mm 0,0 UV-I 0 W/m² 6,2 °C 7,1 °C 0,0 km/h (0 Bft)
17.05.2017 03:46 7,1 °C 7,1 °C 94 % 1024,1 hPa 0,0 mm 0,0 km/h (0 Bft) S 170 ° 0 min 0,000 mm 0,0 UV-I 0 W/m² 6,2 °C 7,1 °C 0,0 km/h (0 Bft)
17.05.2017 03:47 7,0 °C 7,1 °C 94 % 1024,1 hPa 0,0 mm 0,0 km/h (0 Bft) S 170 ° 0 min 0,000 mm 0,0 UV-I 0 W/m² 6,1 °C 7,0 °C 0,0 km/h (0 Bft)
17.05.2017 03:48 7,0 °C 7,0 °C 94 % 1024,1 hPa 0,0 mm 0,0 km/h (0 Bft) S 170 ° 0 min 0,000 mm 0,0 UV-I 0 W/m² 6,1 °C 7,0 °C 0,0 km/h (0 Bft)
17.05.2017 03:49 6,9 °C 7,0 °C 94 % 1024,1 hPa 0,0 mm 0,0 km/h (0 Bft) S 170 ° 0 min 0,000 mm 0,0 UV-I 0 W/m² 6,0 °C 6,9 °C 0,0 km/h (0 Bft)
17.05.2017 03:50 6,8 °C 6,9 °C 93 % 1024,0 hPa 0,0 mm 0,0 km/h (0 Bft) S 170 ° 0 min 0,000 mm 0,0 UV-I 0 W/m² 5,7 °C 6,8 °C 0,0 km/h (0 Bft)
17.05.2017 03:51 6,8 °C 6,8 °C 93 % 1024,0 hPa 0,0 mm 0,0 km/h (0 Bft) S 170 ° 0 min 0,000 mm 0,0 UV-I 0 W/m² 5,7 °C 6,8 °C 0,0 km/h (0 Bft)
17.05.2017 03:52 6,8 °C 6,8 °C 94 % 1024,0 hPa 0,0 mm 0,0 km/h (0 Bft) S 170 ° 0 min 0,000 mm 0,0 UV-I 0 W/m² 5,9 °C 6,8 °C 0,0 km/h (0 Bft)
17.05.2017 03:53 6,7 °C 6,8 °C 94 % 1024,0 hPa 0,0 mm 0,0 km/h (0 Bft) S 170 ° 0 min 0,000 mm 0,0 UV-I 0 W/m² 5,8 °C 6,7 °C 0,0 km/h (0 Bft)
17.05.2017 03:54 6,7 °C 6,7 °C 94 % 1024,0 hPa 0,0 mm 0,0 km/h (0 Bft) S 170 ° 0 min 0,000 mm 0,0 UV-I 0 W/m² 5,8 °C 6,7 °C 0,0 km/h (0 Bft)
17.05.2017 03:55 6,7 °C 6,7 °C 94 % 1024,0 hPa 0,0 mm 0,0 km/h (0 Bft) S 170 ° 0 min 0,000 mm 0,0 UV-I 0 W/m² 5,8 °C 6,7 °C 0,0 km/h (0 Bft)
17.05.2017 03:56 6,8 °C 6,8 °C 94 % 1024,0 hPa 0,0 mm 0,0 km/h (0 Bft) S 170 ° 0 min 0,000 mm 0,0 UV-I 0 W/m² 5,9 °C 6,8 °C 0,0 km/h (0 Bft)
17.05.2017 03:57 6,8 °C 6,8 °C 94 % 1024,0 hPa 0,0 mm 0,0 km/h (0 Bft) S 170 ° 0 min 0,000 mm 0,0 UV-I 0 W/m² 5,9 °C 6,8 °C 0,0 km/h (0 Bft)
17.05.2017 03:58 6,9 °C 6,9 °C 94 % 1024,0 hPa 0,0 mm 0,0 km/h (0 Bft) S 170 ° 0 min 0,000 mm 0,0 UV-I 0 W/m² 6,0 °C 6,9 °C 0,0 km/h (0 Bft)
17.05.2017 03:59 6,9 °C 6,9 °C 94 % 1024,0 hPa 0,0 mm 0,0 km/h (0 Bft) S 170 ° 0 min 0,000 mm 0,0 UV-I 0 W/m² 6,0 °C 6,9 °C 0,0 km/h (0 Bft)
17.05.2017 04:00 6,9 °C 6,9 °C 94 % 1024,0 hPa 0,0 mm 0,7 km/h (0 Bft) S 170 ° 0 min 0,000 mm 0,0 UV-I 0 W/m² 6,0 °C 6,9 °C 3,2 km/h (1 Bft)
17.05.2017 04:01 6,9 °C 7,0 °C 94 % 1024,0 hPa 0,0 mm 0,1 km/h (0 Bft) S 170 ° 0 min 0,000 mm 0,0 UV-I 0 W/m² 6,0 °C 6,9 °C 1,6 km/h (1 Bft)
17.05.2017 04:02 7,1 °C 7,1 °C 94 % 1024,0 hPa 0,0 mm 0,0 km/h (0 Bft) S 170 ° 0 min 0,000 mm 0,0 UV-I 0 W/m² 6,2 °C 7,1 °C 0,0 km/h (0 Bft)
17.05.2017 04:03 7,1 °C 7,1 °C 94 % 1023,9 hPa 0,0 mm 0,0 km/h (0 Bft) S 170 ° 0 min 0,000 mm 0,0 UV-I 0 W/m² 6,2 °C 7,1 °C 0,0 km/h (0 Bft)
17.05.2017 04:04 7,1 °C 7,1 °C 94 % 1023,9 hPa 0,0 mm 0,0 km/h (0 Bft) S 170 ° 0 min 0,000 mm 0,0 UV-I 0 W/m² 6,2 °C 7,1 °C 0,0 km/h (0 Bft)
17.05.2017 04:05 7,1 °C 7,1 °C 94 % 1023,9 hPa 0,0 mm 0,0 km/h (0 Bft) S 170 ° 0 min 0,000 mm 0,0 UV-I 0 W/m² 6,2 °C 7,1 °C 0,0 km/h (0 Bft)
17.05.2017 04:06 7,2 °C 7,2 °C 94 % 1023,9 hPa 0,0 mm 0,0 km/h (0 Bft) S 170 ° 0 min 0,000 mm 0,0 UV-I 0 W/m² 6,3 °C 7,2 °C 0,0 km/h (0 Bft)
17.05.2017 04:07 7,2 °C 7,2 °C 94 % 1023,9 hPa 0,0 mm 0,0 km/h (0 Bft) S 170 ° 0 min 0,000 mm 0,0 UV-I 0 W/m² 6,3 °C 7,2 °C 0,0 km/h (0 Bft)
17.05.2017 04:08 7,2 °C 7,2 °C 94 % 1023,9 hPa 0,0 mm 0,0 km/h (0 Bft) S 170 ° 0 min 0,000 mm 0,0 UV-I 0 W/m² 6,3 °C 7,2 °C 0,0 km/h (0 Bft)
17.05.2017 04:09 7,2 °C 7,2 °C 94 % 1023,9 hPa 0,0 mm 0,0 km/h (0 Bft) S 170 ° 0 min 0,000 mm 0,0 UV-I 0 W/m² 6,3 °C 7,2 °C 0,0 km/h (0 Bft)
17.05.2017 04:10 7,3 °C 7,3 °C 94 % 1023,9 hPa 0,0 mm 0,0 km/h (0 Bft) S 170 ° 0 min 0,000 mm 0,0 UV-I 0 W/m² 6,4 °C 7,3 °C 0,0 km/h (0 Bft)
17.05.2017 04:11 7,3 °C 7,3 °C 94 % 1023,9 hPa 0,0 mm 0,0 km/h (0 Bft) S 170 ° 0 min 0,000 mm 0,0 UV-I 0 W/m² 6,4 °C 7,3 °C 0,0 km/h (0 Bft)
17.05.2017 04:12 7,3 °C 7,4 °C 94 % 1023,8 hPa 0,0 mm 0,0 km/h (0 Bft) S 170 ° 0 min 0,000 mm 0,0 UV-I 0 W/m² 6,4 °C 7,3 °C 0,0 km/h (0 Bft)
17.05.2017 04:13 7,4 °C 7,4 °C 94 % 1023,9 hPa 0,0 mm 0,0 km/h (0 Bft) S 170 ° 0 min 0,000 mm 0,0 UV-I 0 W/m² 6,5 °C 7,4 °C 0,0 km/h (0 Bft)
17.05.2017 04:14 7,3 °C 7,4 °C 94 % 1023,9 hPa 0,0 mm 0,0 km/h (0 Bft) S 170 ° 0 min 0,000 mm 0,0 UV-I 0 W/m² 6,4 °C 7,3 °C 0,0 km/h (0 Bft)
17.05.2017 04:15 7,3 °C 7,3 °C 93 % 1023,9 hPa 0,0 mm 0,0 km/h (0 Bft) S 170 ° 0 min 0,000 mm 0,0 UV-I 0 W/m² 6,2 °C 7,3 °C 0,0 km/h (0 Bft)
17.05.2017 04:16 7,2 °C 7,3 °C 93 % 1023,8 hPa 0,0 mm 0,0 km/h (0 Bft) S 170 ° 0 min 0,000 mm 0,0 UV-I 0 W/m² 6,1 °C 7,2 °C 0,0 km/h (0 Bft)
17.05.2017 04:17 7,2 °C 7,2 °C 93 % 1023,8 hPa 0,0 mm 0,0 km/h (0 Bft) S 170 ° 0 min 0,000 mm 0,0 UV-I 0 W/m² 6,1 °C 7,2 °C 0,0 km/h (0 Bft)
17.05.2017 04:18 7,1 °C 7,2 °C 93 % 1023,8 hPa 0,0 mm 0,0 km/h (0 Bft) S 170 ° 0 min 0,000 mm 0,0 UV-I 0 W/m² 6,0 °C 7,1 °C 0,0 km/h (0 Bft)
17.05.2017 04:19 7,2 °C 7,2 °C 94 % 1023,8 hPa 0,0 mm 0,0 km/h (0 Bft) S 170 ° 0 min 0,000 mm 0,0 UV-I 0 W/m² 6,3 °C 7,2 °C 0,0 km/h (0 Bft)
17.05.2017 04:20 7,2 °C 7,2 °C 94 % 1023,8 hPa 0,0 mm 0,0 km/h (0 Bft) S 170 ° 0 min 0,000 mm 0,0 UV-I 0 W/m² 6,3 °C 7,2 °C 0,0 km/h (0 Bft)
17.05.2017 04:21 7,2 °C 7,2 °C 94 % 1023,8 hPa 0,0 mm 0,0 km/h (0 Bft) S 170 ° 0 min 0,000 mm 0,0 UV-I 0 W/m² 6,3 °C 7,2 °C 0,0 km/h (0 Bft)
17.05.2017 04:22 7,1 °C 7,2 °C 94 % 1023,8 hPa 0,0 mm 0,0 km/h (0 Bft) S 170 ° 0 min 0,000 mm 0,0 UV-I 0 W/m² 6,2 °C 7,1 °C 0,0 km/h (0 Bft)
17.05.2017 04:23 7,1 °C 7,1 °C 94 % 1023,8 hPa 0,0 mm 0,0 km/h (0 Bft) S 170 ° 0 min 0,000 mm 0,0 UV-I 0 W/m² 6,2 °C 7,1 °C 0,0 km/h (0 Bft)
17.05.2017 04:24 6,9 °C 7,1 °C 94 % 1023,8 hPa 0,0 mm 0,0 km/h (0 Bft) S 170 ° 0 min 0,000 mm 0,0 UV-I 0 W/m² 6,0 °C 6,9 °C 0,0 km/h (0 Bft)
17.05.2017 04:25 6,9 °C 7,0 °C 94 % 1023,8 hPa 0,0 mm 0,0 km/h (0 Bft) S 170 ° 0 min 0,000 mm 0,0 UV-I 0 W/m² 6,0 °C 6,9 °C 0,0 km/h (0 Bft)
17.05.2017 04:26 6,9 °C 6,9 °C 94 % 1023,8 hPa 0,0 mm 0,0 km/h (0 Bft) S 170 ° 0 min 0,000 mm 0,0 UV-I 0 W/m² 6,0 °C 6,9 °C 0,0 km/h (0 Bft)
17.05.2017 04:27 6,9 °C 6,9 °C 94 % 1023,8 hPa 0,0 mm 0,0 km/h (0 Bft) S 170 ° 0 min 0,000 mm 0,0 UV-I 0 W/m² 6,0 °C 6,9 °C 0,0 km/h (0 Bft)
17.05.2017 04:28 6,9 °C 6,9 °C 94 % 1023,7 hPa 0,0 mm 0,0 km/h (0 Bft) S 170 ° 0 min 0,000 mm 0,0 UV-I 0 W/m² 6,0 °C 6,9 °C 0,0 km/h (0 Bft)
17.05.2017 04:29 6,9 °C 6,9 °C 94 % 1023,7 hPa 0,0 mm 0,0 km/h (0 Bft) S 170 ° 0 min 0,000 mm 0,0 UV-I 0 W/m² 6,0 °C 6,9 °C 0,0 km/h (0 Bft)
17.05.2017 04:30 6,9 °C 6,9 °C 94 % 1023,7 hPa 0,0 mm 0,0 km/h (0 Bft) S 170 ° 0 min 0,000 mm 0,0 UV-I 0 W/m² 6,0 °C 6,9 °C 0,0 km/h (0 Bft)
17.05.2017 04:31 7,0 °C 7,0 °C 94 % 1023,7 hPa 0,0 mm 0,0 km/h (0 Bft) S 170 ° 0 min 0,000 mm 0,0 UV-I 0 W/m² 6,1 °C 7,0 °C 0,0 km/h (0 Bft)
17.05.2017 04:32 7,1 °C 7,1 °C 94 % 1023,7 hPa 0,0 mm 0,0 km/h (0 Bft) S 170 ° 0 min 0,000 mm 0,0 UV-I 0 W/m² 6,2 °C 7,1 °C 0,0 km/h (0 Bft)
17.05.2017 04:33 7,0 °C 7,1 °C 94 % 1023,7 hPa 0,0 mm 0,0 km/h (0 Bft) S 170 ° 0 min 0,000 mm 0,0 UV-I 0 W/m² 6,1 °C 7,0 °C 0,0 km/h (0 Bft)
17.05.2017 04:34 6,9 °C 7,0 °C 94 % 1023,7 hPa 0,0 mm 0,0 km/h (0 Bft) S 170 ° 0 min 0,000 mm 0,0 UV-I 0 W/m² 6,0 °C 6,9 °C 0,0 km/h (0 Bft)
17.05.2017 04:35 6,9 °C 6,9 °C 94 % 1023,7 hPa 0,0 mm 0,0 km/h (0 Bft) S 170 ° 0 min 0,000 mm 0,0 UV-I 0 W/m² 6,0 °C 6,9 °C 0,0 km/h (0 Bft)
17.05.2017 04:36 6,8 °C 6,9 °C 94 % 1023,7 hPa 0,0 mm 0,0 km/h (0 Bft) S 170 ° 0 min 0,000 mm 0,0 UV-I 0 W/m² 5,9 °C 6,8 °C 0,0 km/h (0 Bft)
17.05.2017 04:37 6,8 °C 6,8 °C 94 % 1023,7 hPa 0,0 mm 0,0 km/h (0 Bft) S 170 ° 0 min 0,000 mm 0,0 UV-I 0 W/m² 5,9 °C 6,8 °C 0,0 km/h (0 Bft)
17.05.2017 04:38 6,8 °C 6,8 °C 94 % 1023,7 hPa 0,0 mm 0,0 km/h (0 Bft) S 170 ° 0 min 0,000 mm 0,0 UV-I 0 W/m² 5,9 °C 6,8 °C 0,0 km/h (0 Bft)
17.05.2017 04:39 6,8 °C 6,8 °C 94 % 1023,7 hPa 0,0 mm 0,0 km/h (0 Bft) S 170 ° 0 min 0,000 mm 0,0 UV-I 0 W/m² 5,9 °C 6,8 °C 0,0 km/h (0 Bft)
17.05.2017 04:40 6,8 °C 6,8 °C 94 % 1023,7 hPa 0,0 mm 0,0 km/h (0 Bft) S 170 ° 0 min 0,000 mm 0,0 UV-I 0 W/m² 5,9 °C 6,8 °C 0,0 km/h (0 Bft)
17.05.2017 04:41 6,8 °C 6,8 °C 94 % 1023,7 hPa 0,0 mm 0,0 km/h (0 Bft) S 170 ° 0 min 0,000 mm 0,0 UV-I 0 W/m² 5,9 °C 6,8 °C 0,0 km/h (0 Bft)
17.05.2017 04:42 6,8 °C 6,8 °C 94 % 1023,7 hPa 0,0 mm 0,0 km/h (0 Bft) S 170 ° 0 min 0,000 mm 0,0 UV-I 0 W/m² 5,9 °C 6,8 °C 0,0 km/h (0 Bft)
17.05.2017 04:43 6,9 °C 6,9 °C 95 % 1023,7 hPa 0,0 mm 0,0 km/h (0 Bft) S 170 ° 0 min 0,000 mm 0,0 UV-I 0 W/m² 6,2 °C 6,9 °C 0,0 km/h (0 Bft)
17.05.2017 04:44 6,9 °C 6,9 °C 95 % 1023,6 hPa 0,0 mm 0,0 km/h (0 Bft) S 170 ° 0 min 0,000 mm 0,0 UV-I 0 W/m² 6,2 °C 6,9 °C 0,0 km/h (0 Bft)
17.05.2017 04:45 6,9 °C 6,9 °C 95 % 1023,7 hPa 0,0 mm 0,0 km/h (0 Bft) S 170 ° 0 min 0,000 mm 0,0 UV-I 0 W/m² 6,2 °C 6,9 °C 0,0 km/h (0 Bft)
17.05.2017 04:46 6,9 °C 6,9 °C 94 % 1023,6 hPa 0,0 mm 0,0 km/h (0 Bft) S 170 ° 0 min 0,000 mm 0,0 UV-I 0 W/m² 6,0 °C 6,9 °C 0,0 km/h (0 Bft)
17.05.2017 04:47 6,8 °C 6,9 °C 94 % 1023,6 hPa 0,0 mm 0,0 km/h (0 Bft) S 170 ° 0 min 0,000 mm 0,0 UV-I 0 W/m² 5,9 °C 6,8 °C 0,0 km/h (0 Bft)
17.05.2017 04:48 6,8 °C 6,8 °C 94 % 1023,6 hPa 0,0 mm 0,0 km/h (0 Bft) S 170 ° 0 min 0,000 mm 0,0 UV-I 0 W/m² 5,9 °C 6,8 °C 0,0 km/h (0 Bft)
17.05.2017 04:49 6,8 °C 6,8 °C 94 % 1023,6 hPa 0,0 mm 0,0 km/h (0 Bft) S 170 ° 0 min 0,000 mm 0,0 UV-I 0 W/m² 5,9 °C 6,8 °C 0,0 km/h (0 Bft)
17.05.2017 04:50 6,7 °C 6,8 °C 94 % 1023,6 hPa 0,0 mm 0,0 km/h (0 Bft) S 170 ° 0 min 0,000 mm 0,0 UV-I 0 W/m² 5,8 °C 6,7 °C 0,0 km/h (0 Bft)
17.05.2017 04:51 6,7 °C 6,7 °C 94 % 1023,6 hPa 0,0 mm 0,0 km/h (0 Bft) S 170 ° 0 min 0,000 mm 0,0 UV-I 0 W/m² 5,8 °C 6,7 °C 0,0 km/h (0 Bft)
17.05.2017 04:52 6,7 °C 6,7 °C 94 % 1023,6 hPa 0,0 mm 0,0 km/h (0 Bft) S 170 ° 0 min 0,000 mm 0,0 UV-I 0 W/m² 5,8 °C 6,7 °C 0,0 km/h (0 Bft)
17.05.2017 04:53 6,7 °C 6,7 °C 94 % 1023,6 hPa 0,0 mm 0,0 km/h (0 Bft) S 170 ° 0 min 0,000 mm 0,0 UV-I 0 W/m² 5,8 °C 6,7 °C 0,0 km/h (0 Bft)
17.05.2017 04:54 6,7 °C 6,7 °C 94 % 1023,6 hPa 0,0 mm 0,0 km/h (0 Bft) S 170 ° 0 min 0,000 mm 0,0 UV-I 0 W/m² 5,8 °C 6,7 °C 0,0 km/h (0 Bft)
17.05.2017 04:55 6,7 °C 6,7 °C 94 % 1023,6 hPa 0,0 mm 0,0 km/h (0 Bft) S 170 ° 0 min 0,000 mm 0,0 UV-I 0 W/m² 5,8 °C 6,7 °C 0,0 km/h (0 Bft)
17.05.2017 04:56 6,7 °C 6,7 °C 94 % 1023,5 hPa 0,0 mm 0,0 km/h (0 Bft) S 170 ° 0 min 0,000 mm 0,0 UV-I 0 W/m² 5,8 °C 6,7 °C 0,0 km/h (0 Bft)
17.05.2017 04:57 6,8 °C 6,8 °C 95 % 1023,5 hPa 0,0 mm 0,0 km/h (0 Bft) S 170 ° 0 min 0,000 mm 0,0 UV-I 0 W/m² 6,1 °C 6,8 °C 0,0 km/h (0 Bft)
17.05.2017 04:58 6,8 °C 6,8 °C 95 % 1023,4 hPa 0,0 mm 0,0 km/h (0 Bft) S 170 ° 0 min 0,000 mm 0,0 UV-I 0 W/m² 6,1 °C 6,8 °C 0,0 km/h (0 Bft)
17.05.2017 04:59 6,9 °C 6,9 °C 95 % 1023,4 hPa 0,0 mm 0,0 km/h (0 Bft) S 170 ° 0 min 0,000 mm 0,0 UV-I 0 W/m² 6,2 °C 6,9 °C 0,0 km/h (0 Bft)
17.05.2017 05:00 6,9 °C 6,9 °C 95 % 1023,4 hPa 0,0 mm 0,0 km/h (0 Bft) S 170 ° 0 min 0,000 mm 0,0 UV-I 0 W/m² 6,2 °C 6,9 °C 0,0 km/h (0 Bft)
17.05.2017 05:01 6,9 °C 6,9 °C 95 % 1023,4 hPa 0,0 mm 0,0 km/h (0 Bft) S 170 ° 0 min 0,000 mm 0,0 UV-I 0 W/m² 6,2 °C 6,9 °C 0,0 km/h (0 Bft)
17.05.2017 05:02 6,8 °C 6,9 °C 95 % 1023,4 hPa 0,0 mm 0,0 km/h (0 Bft) S 170 ° 0 min 0,000 mm 0,0 UV-I 0 W/m² 6,1 °C 6,8 °C 0,0 km/h (0 Bft)
17.05.2017 05:03 6,8 °C 6,8 °C 95 % 1023,4 hPa 0,0 mm 0,0 km/h (0 Bft) S 170 ° 0 min 0,000 mm 0,0 UV-I 0 W/m² 6,1 °C 6,8 °C 0,0 km/h (0 Bft)
17.05.2017 05:04 6,8 °C 6,8 °C 94 % 1023,4 hPa 0,0 mm 0,0 km/h (0 Bft) S 170 ° 0 min 0,000 mm 0,0 UV-I 0 W/m² 5,9 °C 6,8 °C 0,0 km/h (0 Bft)
17.05.2017 05:05 6,8 °C 6,8 °C 95 % 1023,4 hPa 0,0 mm 0,0 km/h (0 Bft) S 170 ° 0 min 0,000 mm 0,0 UV-I 0 W/m² 6,1 °C 6,8 °C 0,0 km/h (0 Bft)
17.05.2017 05:06 6,8 °C 6,8 °C 94 % 1023,4 hPa 0,0 mm 0,0 km/h (0 Bft) S 170 ° 0 min 0,000 mm 0,0 UV-I 0 W/m² 5,9 °C 6,8 °C 0,0 km/h (0 Bft)
17.05.2017 05:07 6,8 °C 6,8 °C 94 % 1023,4 hPa 0,0 mm 0,0 km/h (0 Bft) S 170 ° 0 min 0,000 mm 0,0 UV-I 0 W/m² 5,9 °C 6,8 °C 0,0 km/h (0 Bft)
17.05.2017 05:08 6,7 °C 6,8 °C 94 % 1023,4 hPa 0,0 mm 0,0 km/h (0 Bft) S 170 ° 0 min 0,000 mm 0,0 UV-I 0 W/m² 5,8 °C 6,7 °C 0,0 km/h (0 Bft)
17.05.2017 05:09 6,7 °C 6,7 °C 94 % 1023,3 hPa 0,0 mm 0,0 km/h (0 Bft) S 170 ° 0 min 0,000 mm 0,0 UV-I 0 W/m² 5,8 °C 6,7 °C 0,0 km/h (0 Bft)
17.05.2017 05:10 6,7 °C 6,7 °C 94 % 1023,3 hPa 0,0 mm 0,0 km/h (0 Bft) S 170 ° 0 min 0,000 mm 0,0 UV-I 0 W/m² 5,8 °C 6,7 °C 0,0 km/h (0 Bft)
17.05.2017 05:11 6,7 °C 6,7 °C 94 % 1023,3 hPa 0,0 mm 0,0 km/h (0 Bft) S 170 ° 0 min 0,000 mm 0,0 UV-I 0 W/m² 5,8 °C 6,7 °C 0,0 km/h (0 Bft)
17.05.2017 05:12 6,7 °C 6,7 °C 94 % 1023,3 hPa 0,0 mm 0,0 km/h (0 Bft) S 170 ° 0 min 0,000 mm 0,0 UV-I 0 W/m² 5,8 °C 6,7 °C 0,0 km/h (0 Bft)
17.05.2017 05:13 6,7 °C 6,7 °C 95 % 1023,3 hPa 0,0 mm 0,0 km/h (0 Bft) S 170 ° 0 min 0,000 mm 0,0 UV-I 0 W/m² 6,0 °C 6,7 °C 0,0 km/h (0 Bft)
17.05.2017 05:14 6,7 °C 6,7 °C 95 % 1023,3 hPa 0,0 mm 0,0 km/h (0 Bft) S 170 ° 0 min 0,000 mm 0,0 UV-I 0 W/m² 6,0 °C 6,7 °C 0,0 km/h (0 Bft)
17.05.2017 05:15 6,7 °C 6,7 °C 95 % 1023,3 hPa 0,0 mm 0,0 km/h (0 Bft) S 170 ° 0 min 0,000 mm 0,0 UV-I 0 W/m² 6,0 °C 6,7 °C 0,0 km/h (0 Bft)
17.05.2017 05:16 6,7 °C 6,7 °C 95 % 1023,3 hPa 0,0 mm 0,0 km/h (0 Bft) S 170 ° 0 min 0,000 mm 0,0 UV-I 0 W/m² 6,0 °C 6,7 °C 0,0 km/h (0 Bft)
17.05.2017 05:17 6,7 °C 6,7 °C 95 % 1023,3 hPa 0,0 mm 0,0 km/h (0 Bft) S 170 ° 0 min 0,000 mm 0,0 UV-I 0 W/m² 6,0 °C 6,7 °C 0,0 km/h (0 Bft)
17.05.2017 05:18 6,6 °C 6,7 °C 95 % 1023,3 hPa 0,0 mm 0,0 km/h (0 Bft) S 170 ° 0 min 0,000 mm 0,0 UV-I 0 W/m² 5,9 °C 6,6 °C 0,0 km/h (0 Bft)
17.05.2017 05:19 6,5 °C 6,6 °C 94 % 1023,2 hPa 0,0 mm 0,0 km/h (0 Bft) S 170 ° 0 min 0,000 mm 0,0 UV-I 0 W/m² 5,6 °C 6,5 °C 0,0 km/h (0 Bft)
17.05.2017 05:20 6,4 °C 6,5 °C 94 % 1023,2 hPa 0,0 mm 0,0 km/h (0 Bft) S 170 ° 0 min 0,000 mm 0,0 UV-I 0 W/m² 5,5 °C 6,4 °C 0,0 km/h (0 Bft)
17.05.2017 05:21 6,3 °C 6,4 °C 94 % 1023,3 hPa 0,0 mm 0,0 km/h (0 Bft) S 170 ° 0 min 0,000 mm 0,0 UV-I 0 W/m² 5,4 °C 6,3 °C 0,0 km/h (0 Bft)
17.05.2017 05:22 6,3 °C 6,3 °C 94 % 1023,3 hPa 0,0 mm 0,0 km/h (0 Bft) S 170 ° 0 min 0,000 mm 0,0 UV-I 0 W/m² 5,4 °C 6,3 °C 0,0 km/h (0 Bft)
17.05.2017 05:23 6,3 °C 6,3 °C 94 % 1023,3 hPa 0,0 mm 0,0 km/h (0 Bft) S 170 ° 0 min 0,000 mm 0,0 UV-I 0 W/m² 5,4 °C 6,3 °C 0,0 km/h (0 Bft)
17.05.2017 05:24 6,3 °C 6,3 °C 94 % 1023,2 hPa 0,0 mm 0,0 km/h (0 Bft) S 170 ° 0 min 0,000 mm 0,0 UV-I 0 W/m² 5,4 °C 6,3 °C 0,0 km/h (0 Bft)
17.05.2017 05:25 6,4 °C 6,4 °C 95 % 1023,2 hPa 0,0 mm 0,0 km/h (0 Bft) S 170 ° 0 min 0,000 mm 0,0 UV-I 0 W/m² 5,7 °C 6,4 °C 0,0 km/h (0 Bft)
17.05.2017 05:26 6,4 °C 6,4 °C 95 % 1023,2 hPa 0,0 mm 0,0 km/h (0 Bft) S 170 ° 0 min 0,000 mm 0,0 UV-I 0 W/m² 5,7 °C 6,4 °C 0,0 km/h (0 Bft)
17.05.2017 05:27 6,3 °C 6,4 °C 95 % 1023,2 hPa 0,0 mm 0,0 km/h (0 Bft) S 170 ° 0 min 0,000 mm 0,0 UV-I 0 W/m² 5,6 °C 6,3 °C 0,0 km/h (0 Bft)
17.05.2017 05:28 6,2 °C 6,3 °C 94 % 1023,2 hPa 0,0 mm 0,0 km/h (0 Bft) S 170 ° 0 min 0,000 mm 0,0 UV-I 0 W/m² 5,3 °C 6,2 °C 0,0 km/h (0 Bft)
17.05.2017 05:29 6,1 °C 6,2 °C 94 % 1023,2 hPa 0,0 mm 0,0 km/h (0 Bft) S 170 ° 0 min 0,000 mm 0,0 UV-I 0 W/m² 5,2 °C 6,1 °C 0,0 km/h (0 Bft)
17.05.2017 05:30 6,0 °C 6,1 °C 94 % 1023,2 hPa 0,0 mm 0,0 km/h (0 Bft) S 170 ° 0 min 0,000 mm 0,0 UV-I 0 W/m² 5,1 °C 6,0 °C 0,0 km/h (0 Bft)
17.05.2017 05:31 5,9 °C 6,0 °C 94 % 1023,3 hPa 0,0 mm 0,0 km/h (0 Bft) S 170 ° 0 min 0,000 mm 0,0 UV-I 0 W/m² 5,0 °C 5,9 °C 0,0 km/h (0 Bft)
17.05.2017 05:32 5,9 °C 5,9 °C 94 % 1023,3 hPa 0,0 mm 0,0 km/h (0 Bft) S 170 ° 0 min 0,000 mm 0,0 UV-I 0 W/m² 5,0 °C 5,9 °C 0,0 km/h (0 Bft)
17.05.2017 05:33 5,9 °C 5,9 °C 94 % 1023,2 hPa 0,0 mm 0,0 km/h (0 Bft) S 170 ° 0 min 0,000 mm 0,0 UV-I 0 W/m² 5,0 °C 5,9 °C 0,0 km/h (0 Bft)
17.05.2017 05:34 6,0 °C 6,0 °C 94 % 1023,2 hPa 0,0 mm 0,0 km/h (0 Bft) S 170 ° 0 min 0,000 mm 0,0 UV-I 0 W/m² 5,1 °C 6,0 °C 0,0 km/h (0 Bft)
17.05.2017 05:35 6,0 °C 6,0 °C 95 % 1023,2 hPa 0,0 mm 0,0 km/h (0 Bft) S 170 ° 0 min 0,000 mm 0,0 UV-I 0 W/m² 5,3 °C 6,0 °C 0,0 km/h (0 Bft)
17.05.2017 05:36 6,0 °C 6,0 °C 95 % 1023,2 hPa 0,0 mm 0,0 km/h (0 Bft) S 170 ° 0 min 0,000 mm 0,0 UV-I 0 W/m² 5,3 °C 6,0 °C 0,0 km/h (0 Bft)
17.05.2017 05:37 6,1 °C 6,1 °C 95 % 1023,2 hPa 0,0 mm 0,0 km/h (0 Bft) S 170 ° 0 min 0,000 mm 0,0 UV-I 5 W/m² 5,4 °C 6,1 °C 0,0 km/h (0 Bft)
17.05.2017 05:38 6,1 °C 6,1 °C 94 % 1023,2 hPa 0,0 mm 0,0 km/h (0 Bft) S 170 ° 0 min 0,000 mm 0,0 UV-I 5 W/m² 5,2 °C 6,1 °C 0,0 km/h (0 Bft)
17.05.2017 05:39 6,1 °C 6,1 °C 94 % 1023,2 hPa 0,0 mm 0,0 km/h (0 Bft) S 170 ° 0 min 0,000 mm 0,0 UV-I 5 W/m² 5,2 °C 6,1 °C 0,0 km/h (0 Bft)
17.05.2017 05:40 6,0 °C 6,1 °C 94 % 1023,2 hPa 0,0 mm 0,0 km/h (0 Bft) S 170 ° 0 min 0,000 mm 0,0 UV-I 5 W/m² 5,1 °C 6,0 °C 0,0 km/h (0 Bft)
17.05.2017 05:41 6,0 °C 6,0 °C 94 % 1023,2 hPa 0,0 mm 0,0 km/h (0 Bft) S 170 ° 0 min 0,000 mm 0,0 UV-I 5 W/m² 5,1 °C 6,0 °C 0,0 km/h (0 Bft)
17.05.2017 05:42 6,1 °C 6,1 °C 95 % 1023,2 hPa 0,0 mm 0,0 km/h (0 Bft) S 170 ° 0 min 0,000 mm 0,0 UV-I 5 W/m² 5,4 °C 6,1 °C 0,0 km/h (0 Bft)
17.05.2017 05:43 6,1 °C 6,1 °C 95 % 1023,2 hPa 0,0 mm 0,0 km/h (0 Bft) S 170 ° 0 min 0,000 mm 0,0 UV-I 7 W/m² 5,4 °C 6,1 °C 0,0 km/h (0 Bft)
17.05.2017 05:44 6,2 °C 6,2 °C 95 % 1023,2 hPa 0,0 mm 0,0 km/h (0 Bft) S 170 ° 0 min 0,000 mm 0,0 UV-I 7 W/m² 5,5 °C 6,2 °C 0,0 km/h (0 Bft)
17.05.2017 05:45 6,3 °C 6,3 °C 95 % 1023,2 hPa 0,0 mm 0,0 km/h (0 Bft) S 170 ° 0 min 0,000 mm 0,0 UV-I 7 W/m² 5,6 °C 6,3 °C 0,0 km/h (0 Bft)
17.05.2017 05:46 6,3 °C 6,3 °C 95 % 1023,2 hPa 0,0 mm 0,0 km/h (0 Bft) S 170 ° 0 min 0,000 mm 0,0 UV-I 7 W/m² 5,6 °C 6,3 °C 0,0 km/h (0 Bft)
17.05.2017 05:47 6,4 °C 6,4 °C 95 % 1023,3 hPa 0,0 mm 0,0 km/h (0 Bft) S 170 ° 0 min 0,000 mm 0,0 UV-I 7 W/m² 5,7 °C 6,4 °C 0,0 km/h (0 Bft)
17.05.2017 05:48 6,4 °C 6,4 °C 95 % 1023,2 hPa 0,0 mm 0,0 km/h (0 Bft) S 170 ° 0 min 0,000 mm 0,0 UV-I 7 W/m² 5,7 °C 6,4 °C 0,0 km/h (0 Bft)
17.05.2017 05:49 6,5 °C 6,5 °C 95 % 1023,2 hPa 0,0 mm 0,0 km/h (0 Bft) S 170 ° 0 min 0,000 mm 0,0 UV-I 9 W/m² 5,8 °C 6,5 °C 0,0 km/h (0 Bft)
17.05.2017 05:50 6,5 °C 6,5 °C 95 % 1023,2 hPa 0,0 mm 0,0 km/h (0 Bft) S 170 ° 0 min 0,000 mm 0,0 UV-I 11 W/m² 5,8 °C 6,5 °C 0,0 km/h (0 Bft)
17.05.2017 05:51 6,6 °C 6,6 °C 95 % 1023,2 hPa 0,0 mm 0,0 km/h (0 Bft) S 170 ° 0 min 0,000 mm 0,0 UV-I 11 W/m² 5,9 °C 6,6 °C 0,0 km/h (0 Bft)
17.05.2017 05:52 6,6 °C 6,6 °C 95 % 1023,2 hPa 0,0 mm 0,0 km/h (0 Bft) S 170 ° 0 min 0,000 mm 0,0 UV-I 11 W/m² 5,9 °C 6,6 °C 0,0 km/h (0 Bft)
17.05.2017 05:53 6,7 °C 6,7 °C 95 % 1023,3 hPa 0,0 mm 0,0 km/h (0 Bft) S 170 ° 0 min 0,000 mm 0,0 UV-I 11 W/m² 6,0 °C 6,7 °C 0,0 km/h (0 Bft)
17.05.2017 05:54 6,7 °C 6,7 °C 95 % 1023,2 hPa 0,0 mm 0,0 km/h (0 Bft) S 170 ° 0 min 0,000 mm 0,0 UV-I 12 W/m² 6,0 °C 6,7 °C 0,0 km/h (0 Bft)
17.05.2017 05:55 6,7 °C 6,7 °C 95 % 1023,2 hPa 0,0 mm 0,0 km/h (0 Bft) S 170 ° 0 min 0,000 mm 0,0 UV-I 12 W/m² 6,0 °C 6,7 °C 0,0 km/h (0 Bft)
17.05.2017 05:56 6,8 °C 6,8 °C 95 % 1023,2 hPa 0,0 mm 0,0 km/h (0 Bft) S 170 ° 0 min 0,000 mm 0,0 UV-I 12 W/m² 6,1 °C 6,8 °C 0,0 km/h (0 Bft)
17.05.2017 05:57 6,8 °C 6,8 °C 95 % 1023,2 hPa 0,0 mm 0,0 km/h (0 Bft) S 170 ° 0 min 0,000 mm 0,0 UV-I 14 W/m² 6,1 °C 6,8 °C 0,0 km/h (0 Bft)
17.05.2017 05:58 6,8 °C 6,8 °C 95 % 1023,2 hPa 0,0 mm 0,0 km/h (0 Bft) S 170 ° 0 min 0,000 mm 0,0 UV-I 14 W/m² 6,1 °C 6,8 °C 0,0 km/h (0 Bft)
17.05.2017 05:59 6,8 °C 6,8 °C 95 % 1023,2 hPa 0,0 mm 0,0 km/h (0 Bft) S 170 ° 0 min 0,000 mm 0,0 UV-I 14 W/m² 6,1 °C 6,8 °C 0,0 km/h (0 Bft)
17.05.2017 06:00 6,6 °C 6,8 °C 95 % 1023,2 hPa 0,0 mm 0,0 km/h (0 Bft) S 170 ° 0 min 0,000 mm 0,0 UV-I 16 W/m² 5,9 °C 6,6 °C 0,0 km/h (0 Bft)
17.05.2017 06:01 6,4 °C 6,6 °C 94 % 1023,2 hPa 0,0 mm 0,0 km/h (0 Bft) S 170 ° 0 min 0,000 mm 0,0 UV-I 16 W/m² 5,5 °C 6,4 °C 0,0 km/h (0 Bft)
17.05.2017 06:02 6,3 °C 6,4 °C 94 % 1023,2 hPa 0,0 mm 0,0 km/h (0 Bft) S 170 ° 0 min 0,000 mm 0,0 UV-I 16 W/m² 5,4 °C 6,3 °C 0,0 km/h (0 Bft)
17.05.2017 06:03 6,4 °C 6,4 °C 94 % 1023,2 hPa 0,0 mm 0,0 km/h (0 Bft) S 170 ° 0 min 0,000 mm 0,0 UV-I 16 W/m² 5,5 °C 6,4 °C 0,0 km/h (0 Bft)
17.05.2017 06:04 6,4 °C 6,4 °C 95 % 1023,2 hPa 0,0 mm 0,0 km/h (0 Bft) S 170 ° 0 min 0,000 mm 0,0 UV-I 18 W/m² 5,7 °C 6,4 °C 0,0 km/h (0 Bft)
17.05.2017 06:05 6,6 °C 6,6 °C 95 % 1023,2 hPa 0,0 mm 0,0 km/h (0 Bft) S 170 ° 0 min 0,000 mm 0,0 UV-I 18 W/m² 5,9 °C 6,6 °C 0,0 km/h (0 Bft)
17.05.2017 06:06 6,6 °C 6,6 °C 95 % 1023,2 hPa 0,0 mm 0,0 km/h (0 Bft) S 170 ° 0 min 0,000 mm 0,0 UV-I 19 W/m² 5,9 °C 6,6 °C 0,0 km/h (0 Bft)
17.05.2017 06:07 6,6 °C 6,6 °C 95 % 1023,2 hPa 0,0 mm 0,0 km/h (0 Bft) S 170 ° 0 min 0,000 mm 0,0 UV-I 21 W/m² 5,9 °C 6,6 °C 0,0 km/h (0 Bft)
17.05.2017 06:08 6,6 °C 6,6 °C 95 % 1023,2 hPa 0,0 mm 0,0 km/h (0 Bft) S 170 ° 0 min 0,000 mm 0,0 UV-I 26 W/m² 5,9 °C 6,6 °C 0,0 km/h (0 Bft)
17.05.2017 06:09 6,8 °C 6,8 °C 95 % 1023,2 hPa 0,0 mm 0,0 km/h (0 Bft) S 170 ° 0 min 0,000 mm 0,0 UV-I 28 W/m² 6,1 °C 6,8 °C 0,0 km/h (0 Bft)
17.05.2017 06:10 6,9 °C 6,9 °C 95 % 1023,1 hPa 0,0 mm 1,5 km/h (1 Bft) S 170 ° 0 min 0,000 mm 0,0 UV-I 30 W/m² 6,2 °C 6,9 °C 3,2 km/h (1 Bft)
17.05.2017 06:11 6,9 °C 7,0 °C 95 % 1023,1 hPa 0,0 mm 1,2 km/h (1 Bft) S 170 ° 0 min 0,000 mm 0,0 UV-I 32 W/m² 6,2 °C 6,9 °C 1,6 km/h (1 Bft)
17.05.2017 06:12 7,0 °C 7,1 °C 95 % 1023,1 hPa 0,0 mm 0,0 km/h (0 Bft) S 170 ° 0 min 0,000 mm 0,0 UV-I 33 W/m² 6,3 °C 7,0 °C 0,0 km/h (0 Bft)
17.05.2017 06:13 7,1 °C 7,1 °C 95 % 1023,1 hPa 0,0 mm 0,0 km/h (0 Bft) S 170 ° 0 min 0,000 mm 0,0 UV-I 35 W/m² 6,4 °C 7,1 °C 0,0 km/h (0 Bft)
17.05.2017 06:14 7,1 °C 7,1 °C 95 % 1023,2 hPa 0,0 mm 0,0 km/h (0 Bft) S 170 ° 0 min 0,000 mm 0,0 UV-I 33 W/m² 6,4 °C 7,1 °C 0,0 km/h (0 Bft)
17.05.2017 06:15 7,1 °C 7,1 °C 95 % 1023,2 hPa 0,0 mm 0,0 km/h (0 Bft) S 170 ° 0 min 0,000 mm 0,0 UV-I 30 W/m² 6,4 °C 7,1 °C 0,0 km/h (0 Bft)
17.05.2017 06:16 6,9 °C 7,1 °C 95 % 1023,2 hPa 0,0 mm 0,0 km/h (0 Bft) S 170 ° 0 min 0,000 mm 0,0 UV-I 28 W/m² 6,2 °C 6,9 °C 0,0 km/h (0 Bft)
17.05.2017 06:17 6,9 °C 6,9 °C 94 % 1023,1 hPa 0,0 mm 0,0 km/h (0 Bft) S 170 ° 0 min 0,000 mm 0,0 UV-I 28 W/m² 6,0 °C 6,9 °C 0,0 km/h (0 Bft)
17.05.2017 06:18 6,8 °C 6,9 °C 94 % 1023,1 hPa 0,0 mm 0,0 km/h (0 Bft) S 170 ° 0 min 0,000 mm 0,0 UV-I 28 W/m² 5,9 °C 6,8 °C 0,0 km/h (0 Bft)
17.05.2017 06:19 6,8 °C 6,8 °C 94 % 1023,2 hPa 0,0 mm 0,0 km/h (0 Bft) S 170 ° 0 min 0,000 mm 0,0 UV-I 25 W/m² 5,9 °C 6,8 °C 0,0 km/h (0 Bft)
17.05.2017 06:20 6,7 °C 6,8 °C 94 % 1023,2 hPa 0,0 mm 0,0 km/h (0 Bft) S 170 ° 0 min 0,000 mm 0,0 UV-I 26 W/m² 5,8 °C 6,7 °C 0,0 km/h (0 Bft)
17.05.2017 06:21 6,7 °C 6,7 °C 94 % 1023,2 hPa 0,0 mm 0,0 km/h (0 Bft) S 170 ° 0 min 0,000 mm 0,0 UV-I 25 W/m² 5,8 °C 6,7 °C 0,0 km/h (0 Bft)
17.05.2017 06:22 6,8 °C 6,8 °C 94 % 1023,1 hPa 0,0 mm 0,0 km/h (0 Bft) S 170 ° 0 min 0,000 mm 0,0 UV-I 25 W/m² 5,9 °C 6,8 °C 0,0 km/h (0 Bft)
17.05.2017 06:23 6,8 °C 6,8 °C 94 % 1023,1 hPa 0,0 mm 0,0 km/h (0 Bft) S 170 ° 0 min 0,000 mm 0,0 UV-I 26 W/m² 5,9 °C 6,8 °C 0,0 km/h (0 Bft)
17.05.2017 06:24 6,8 °C 6,8 °C 95 % 1023,2 hPa 0,0 mm 0,0 km/h (0 Bft) S 170 ° 0 min 0,000 mm 0,0 UV-I 26 W/m² 6,1 °C 6,8 °C 0,0 km/h (0 Bft)
17.05.2017 06:25 6,8 °C 6,8 °C 94 % 1023,2 hPa 0,0 mm 0,0 km/h (0 Bft) S 170 ° 0 min 0,000 mm 0,0 UV-I 28 W/m² 5,9 °C 6,8 °C 0,0 km/h (0 Bft)
17.05.2017 06:26 6,8 °C 6,8 °C 94 % 1023,1 hPa 0,0 mm 0,0 km/h (0 Bft) S 170 ° 0 min 0,000 mm 0,0 UV-I 28 W/m² 5,9 °C 6,8 °C 0,0 km/h (0 Bft)
17.05.2017 06:27 6,8 °C 6,8 °C 94 % 1023,1 hPa 0,0 mm 0,0 km/h (0 Bft) S 170 ° 0 min 0,000 mm 0,0 UV-I 30 W/m² 5,9 °C 6,8 °C 0,0 km/h (0 Bft)
17.05.2017 06:28 6,9 °C 6,9 °C 94 % 1023,1 hPa 0,0 mm 0,0 km/h (0 Bft) S 170 ° 0 min 0,000 mm 0,0 UV-I 33 W/m² 6,0 °C 6,9 °C 0,0 km/h (0 Bft)
17.05.2017 06:29 7,1 °C 7,1 °C 95 % 1023,1 hPa 0,0 mm 0,0 km/h (0 Bft) S 170 ° 0 min 0,000 mm 0,0 UV-I 44 W/m² 6,4 °C 7,1 °C 0,0 km/h (0 Bft)
17.05.2017 06:30 7,2 °C 7,2 °C 95 % 1023,1 hPa 0,0 mm 0,0 km/h (0 Bft) S 170 ° 0 min 0,000 mm 0,0 UV-I 56 W/m² 6,5 °C 7,2 °C 0,0 km/h (0 Bft)
17.05.2017 06:31 7,2 °C 7,2 °C 95 % 1023,1 hPa 0,0 mm 0,0 km/h (0 Bft) S 170 ° 0 min 0,000 mm 0,0 UV-I 72 W/m² 6,5 °C 7,2 °C 0,0 km/h (0 Bft)
17.05.2017 06:32 7,3 °C 7,3 °C 95 % 1023,1 hPa 0,0 mm 0,0 km/h (0 Bft) S 170 ° 0 min 0,000 mm 0,0 UV-I 76 W/m² 6,6 °C 7,3 °C 0,0 km/h (0 Bft)
17.05.2017 06:33 7,4 °C 7,4 °C 95 % 1023,1 hPa 0,0 mm 0,0 km/h (0 Bft) S 170 ° 0 min 0,000 mm 0,0 UV-I 77 W/m² 6,7 °C 7,4 °C 0,0 km/h (0 Bft)
17.05.2017 06:34 7,4 °C 7,4 °C 95 % 1023,0 hPa 0,0 mm 0,0 km/h (0 Bft) S 170 ° 0 min 0,000 mm 0,0 UV-I 79 W/m² 6,7 °C 7,4 °C 0,0 km/h (0 Bft)
17.05.2017 06:35 7,4 °C 7,5 °C 94 % 1023,0 hPa 0,0 mm 0,0 km/h (0 Bft) S 170 ° 0 min 0,000 mm 0,0 UV-I 81 W/m² 6,5 °C 7,4 °C 0,0 km/h (0 Bft)
17.05.2017 06:36 7,4 °C 7,4 °C 94 % 1023,0 hPa 0,0 mm 0,0 km/h (0 Bft) S 170 ° 0 min 0,000 mm 0,0 UV-I 79 W/m² 6,5 °C 7,4 °C 0,0 km/h (0 Bft)
17.05.2017 06:37 7,6 °C 7,6 °C 94 % 1023,0 hPa 0,0 mm 0,0 km/h (0 Bft) S 170 ° 0 min 0,000 mm 0,0 UV-I 79 W/m² 6,7 °C 7,6 °C 0,0 km/h (0 Bft)
17.05.2017 06:38 7,6 °C 7,6 °C 95 % 1023,0 hPa 0,0 mm 0,0 km/h (0 Bft) S 170 ° 0 min 0,000 mm 0,0 UV-I 81 W/m² 6,9 °C 7,6 °C 0,0 km/h (0 Bft)
17.05.2017 06:39 7,6 °C 7,6 °C 94 % 1023,0 hPa 0,0 mm 0,0 km/h (0 Bft) S 170 ° 0 min 0,000 mm 0,0 UV-I 86 W/m² 6,7 °C 7,6 °C 0,0 km/h (0 Bft)
17.05.2017 06:40 7,6 °C 7,6 °C 94 % 1023,0 hPa 0,0 mm 0,0 km/h (0 Bft) S 170 ° 0 min 0,000 mm 0,0 UV-I 90 W/m² 6,7 °C 7,6 °C 0,0 km/h (0 Bft)
17.05.2017 06:41 7,6 °C 7,6 °C 94 % 1023,0 hPa 0,0 mm 0,0 km/h (0 Bft) S 170 ° 0 min 0,000 mm 0,0 UV-I 91 W/m² 6,7 °C 7,6 °C 0,0 km/h (0 Bft)
17.05.2017 06:42 7,6 °C 7,6 °C 94 % 1023,0 hPa 0,0 mm 0,0 km/h (0 Bft) S 170 ° 0 min 0,000 mm 0,0 UV-I 93 W/m² 6,7 °C 7,6 °C 0,0 km/h (0 Bft)
17.05.2017 06:43 7,7 °C 7,7 °C 94 % 1023,0 hPa 0,0 mm 0,0 km/h (0 Bft) S 170 ° 0 min 0,000 mm 0,0 UV-I 97 W/m² 6,8 °C 7,7 °C 0,0 km/h (0 Bft)
17.05.2017 06:44 7,8 °C 7,8 °C 94 % 1023,0 hPa 0,0 mm 0,0 km/h (0 Bft) S 170 ° 0 min 0,000 mm 0,0 UV-I 98 W/m² 6,9 °C 7,8 °C 0,0 km/h (0 Bft)
17.05.2017 06:45 7,9 °C 7,9 °C 94 % 1023,0 hPa 0,0 mm 0,0 km/h (0 Bft) S 170 ° 0 min 0,000 mm 0,0 UV-I 98 W/m² 7,0 °C 7,9 °C 0,0 km/h (0 Bft)
17.05.2017 06:46 8,0 °C 8,0 °C 94 % 1023,0 hPa 0,0 mm 0,0 km/h (0 Bft) S 170 ° 0 min 0,000 mm 0,0 UV-I 98 W/m² 7,1 °C 8,0 °C 0,0 km/h (0 Bft)
17.05.2017 06:47 8,0 °C 8,0 °C 94 % 1023,0 hPa 0,0 mm 0,0 km/h (0 Bft) S 170 ° 0 min 0,000 mm 0,0 UV-I 100 W/m² 7,1 °C 8,0 °C 0,0 km/h (0 Bft)
17.05.2017 06:48 8,1 °C 8,1 °C 94 % 1023,0 hPa 0,0 mm 0,0 km/h (0 Bft) S 170 ° 0 min 0,000 mm 0,0 UV-I 100 W/m² 7,2 °C 8,1 °C 0,0 km/h (0 Bft)
17.05.2017 06:49 8,0 °C 8,1 °C 93 % 1023,0 hPa 0,0 mm 0,0 km/h (0 Bft) S 170 ° 0 min 0,000 mm 0,0 UV-I 102 W/m² 6,9 °C 8,0 °C 0,0 km/h (0 Bft)
17.05.2017 06:50 8,0 °C 8,0 °C 93 % 1023,0 hPa 0,0 mm 0,0 km/h (0 Bft) S 170 ° 0 min 0,000 mm 0,0 UV-I 102 W/m² 6,9 °C 8,0 °C 0,0 km/h (0 Bft)
17.05.2017 06:51 8,0 °C 8,0 °C 93 % 1023,0 hPa 0,0 mm 0,0 km/h (0 Bft) S 170 ° 0 min 0,000 mm 0,5 UV-I 104 W/m² 6,9 °C 8,0 °C 0,0 km/h (0 Bft)
17.05.2017 06:52 8,0 °C 8,0 °C 93 % 1023,0 hPa 0,0 mm 0,0 km/h (0 Bft) S 170 ° 0 min 0,000 mm 0,5 UV-I 104 W/m² 6,9 °C 8,0 °C 0,0 km/h (0 Bft)
17.05.2017 06:53 7,9 °C 8,0 °C 93 % 1023,0 hPa 0,0 mm 0,0 km/h (0 Bft) S 170 ° 0 min 0,000 mm 0,5 UV-I 107 W/m² 6,8 °C 7,9 °C 0,0 km/h (0 Bft)
17.05.2017 06:54 7,9 °C 8,0 °C 93 % 1023,0 hPa 0,0 mm 0,0 km/h (0 Bft) S 170 ° 0 min 0,000 mm 0,5 UV-I 113 W/m² 6,8 °C 7,9 °C 0,0 km/h (0 Bft)
17.05.2017 06:55 8,0 °C 8,0 °C 93 % 1023,0 hPa 0,0 mm 0,0 km/h (0 Bft) S 170 ° 0 min 0,000 mm 0,5 UV-I 116 W/m² 6,9 °C 8,0 °C 0,0 km/h (0 Bft)
17.05.2017 06:56 8,0 °C 8,0 °C 93 % 1023,0 hPa 0,0 mm 0,0 km/h (0 Bft) S 170 ° 0 min 0,000 mm 0,5 UV-I 118 W/m² 6,9 °C 8,0 °C 0,0 km/h (0 Bft)
17.05.2017 06:57 8,1 °C 8,1 °C 93 % 1023,0 hPa 0,0 mm 0,0 km/h (0 Bft) S 170 ° 0 min 0,000 mm 0,5 UV-I 121 W/m² 7,0 °C 8,1 °C 0,0 km/h (0 Bft)
17.05.2017 06:58 8,2 °C 8,2 °C 93 % 1022,9 hPa 0,0 mm 0,0 km/h (0 Bft) S 170 ° 0 min 0,000 mm 0,5 UV-I 125 W/m² 7,1 °C 8,2 °C 0,0 km/h (0 Bft)
17.05.2017 06:59 8,3 °C 8,3 °C 93 % 1022,9 hPa 0,0 mm 0,0 km/h (0 Bft) S 170 ° 0 min 0,000 mm 0,5 UV-I 128 W/m² 7,2 °C 8,3 °C 0,0 km/h (0 Bft)
17.05.2017 07:00 8,3 °C 8,3 °C 93 % 1022,9 hPa 0,0 mm 0,0 km/h (0 Bft) S 170 ° 0 min 0,025 mm 0,5 UV-I 135 W/m² 7,2 °C 8,3 °C 0,0 km/h (0 Bft)
17.05.2017 07:01 8,4 °C 8,4 °C 93 % 1022,9 hPa 0,0 mm 0,0 km/h (0 Bft) S 170 ° 0 min 0,000 mm 0,5 UV-I 139 W/m² 7,3 °C 8,4 °C 0,0 km/h (0 Bft)
17.05.2017 07:02 8,6 °C 8,6 °C 93 % 1022,9 hPa 0,0 mm 0,0 km/h (0 Bft) S 170 ° 0 min 0,000 mm 0,6 UV-I 142 W/m² 7,5 °C 8,6 °C 0,0 km/h (0 Bft)
17.05.2017 07:03 8,8 °C 8,8 °C 93 % 1022,9 hPa 0,0 mm 0,0 km/h (0 Bft) S 170 ° 0 min 0,000 mm 0,6 UV-I 146 W/m² 7,7 °C 8,8 °C 0,0 km/h (0 Bft)
17.05.2017 07:04 8,9 °C 8,9 °C 93 % 1022,9 hPa 0,0 mm 0,0 km/h (0 Bft) S 170 ° 0 min 0,000 mm 0,6 UV-I 151 W/m² 7,8 °C 8,9 °C 0,0 km/h (0 Bft)
17.05.2017 07:05 9,1 °C 9,1 °C 92 % 1022,9 hPa 0,0 mm 0,0 km/h (0 Bft) S 170 ° 0 min 0,000 mm 0,6 UV-I 155 W/m² 7,9 °C 9,1 °C 0,0 km/h (0 Bft)
17.05.2017 07:06 9,1 °C 9,2 °C 92 % 1022,9 hPa 0,0 mm 0,0 km/h (0 Bft) S 170 ° 0 min 0,000 mm 0,6 UV-I 160 W/m² 7,9 °C 9,1 °C 0,0 km/h (0 Bft)
17.05.2017 07:07 9,3 °C 9,3 °C 92 % 1022,9 hPa 0,0 mm 0,0 km/h (0 Bft) S 170 ° 0 min 0,000 mm 0,6 UV-I 167 W/m² 8,1 °C 9,3 °C 0,0 km/h (0 Bft)
17.05.2017 07:08 9,3 °C 9,3 °C 92 % 1022,9 hPa 0,0 mm 0,0 km/h (0 Bft) S 170 ° 0 min 0,000 mm 0,6 UV-I 169 W/m² 8,1 °C 9,3 °C 0,0 km/h (0 Bft)
17.05.2017 07:09 9,4 °C 9,4 °C 92 % 1022,8 hPa 0,0 mm 0,0 km/h (0 Bft) S 170 ° 0 min 0,000 mm 0,6 UV-I 171 W/m² 8,2 °C 9,4 °C 0,0 km/h (0 Bft)
17.05.2017 07:10 9,6 °C 9,6 °C 91 % 1022,8 hPa 0,0 mm 0,0 km/h (0 Bft) S 170 ° 0 min 0,000 mm 0,7 UV-I 172 W/m² 8,2 °C 9,6 °C 0,0 km/h (0 Bft)
17.05.2017 07:11 9,7 °C 9,7 °C 91 % 1022,8 hPa 0,0 mm 0,0 km/h (0 Bft) S 170 ° 0 min 0,000 mm 0,7 UV-I 174 W/m² 8,3 °C 9,7 °C 0,0 km/h (0 Bft)
17.05.2017 07:12 9,7 °C 9,7 °C 91 % 1022,8 hPa 0,0 mm 0,0 km/h (0 Bft) S 170 ° 0 min 0,000 mm 0,7 UV-I 176 W/m² 8,3 °C 9,7 °C 0,0 km/h (0 Bft)
17.05.2017 07:13 9,7 °C 9,7 °C 90 % 1022,8 hPa 0,0 mm 0,0 km/h (0 Bft) S 170 ° 0 min 0,000 mm 0,7 UV-I 178 W/m² 8,1 °C 9,7 °C 0,0 km/h (0 Bft)
17.05.2017 07:14 9,7 °C 9,7 °C 90 % 1022,8 hPa 0,0 mm 0,0 km/h (0 Bft) S 170 ° 0 min 0,000 mm 0,7 UV-I 179 W/m² 8,1 °C 9,7 °C 0,0 km/h (0 Bft)
17.05.2017 07:15 9,7 °C 9,7 °C 90 % 1022,8 hPa 0,0 mm 0,0 km/h (0 Bft) S 170 ° 0 min 0,000 mm 0,7 UV-I 179 W/m² 8,1 °C 9,7 °C 0,0 km/h (0 Bft)
17.05.2017 07:16 9,7 °C 9,8 °C 90 % 1022,8 hPa 0,0 mm 0,0 km/h (0 Bft) S 170 ° 0 min 0,000 mm 0,7 UV-I 181 W/m² 8,1 °C 9,7 °C 0,0 km/h (0 Bft)
17.05.2017 07:17 9,8 °C 9,8 °C 90 % 1022,8 hPa 0,0 mm 0,0 km/h (0 Bft) S 170 ° 0 min 0,000 mm 0,8 UV-I 181 W/m² 8,2 °C 9,8 °C 0,0 km/h (0 Bft)
17.05.2017 07:18 9,9 °C 9,9 °C 91 % 1022,8 hPa 0,0 mm 0,0 km/h (0 Bft) S 170 ° 0 min 0,000 mm 0,8 UV-I 185 W/m² 8,5 °C 9,9 °C 0,0 km/h (0 Bft)
17.05.2017 07:19 10,1 °C 10,1 °C 90 % 1022,7 hPa 0,0 mm 0,0 km/h (0 Bft) S 170 ° 0 min 0,000 mm 0,8 UV-I 183 W/m² 8,5 °C 10,1 °C 0,0 km/h (0 Bft)
17.05.2017 07:20 10,2 °C 10,2 °C 91 % 1022,7 hPa 0,0 mm 0,0 km/h (0 Bft) S 170 ° 0 min 0,000 mm 0,8 UV-I 183 W/m² 8,8 °C 10,2 °C 0,0 km/h (0 Bft)
17.05.2017 07:21 10,4 °C 10,4 °C 90 % 1022,7 hPa 0,0 mm 0,0 km/h (0 Bft) S 170 ° 0 min 0,000 mm 0,8 UV-I 185 W/m² 8,8 °C 10,4 °C 0,0 km/h (0 Bft)
17.05.2017 07:22 10,6 °C 10,6 °C 90 % 1022,8 hPa 0,0 mm 0,0 km/h (0 Bft) S 170 ° 0 min 0,000 mm 0,8 UV-I 186 W/m² 9,0 °C 10,6 °C 0,0 km/h (0 Bft)
17.05.2017 07:23 10,8 °C 10,8 °C 89 % 1022,8 hPa 0,0 mm 0,0 km/h (0 Bft) S 170 ° 0 min 0,000 mm 0,9 UV-I 188 W/m² 9,1 °C 10,8 °C 0,0 km/h (0 Bft)
17.05.2017 07:24 10,7 °C 10,8 °C 88 % 1022,7 hPa 0,0 mm 0,0 km/h (0 Bft) S 170 ° 0 min 0,000 mm 0,9 UV-I 188 W/m² 8,8 °C 10,7 °C 0,0 km/h (0 Bft)
17.05.2017 07:25 10,7 °C 10,7 °C 88 % 1022,7 hPa 0,0 mm 0,0 km/h (0 Bft) S 170 ° 0 min 0,000 mm 0,9 UV-I 190 W/m² 8,8 °C 10,7 °C 0,0 km/h (0 Bft)
17.05.2017 07:26 10,6 °C 10,7 °C 89 % 1022,7 hPa 0,0 mm 0,0 km/h (0 Bft) S 170 ° 0 min 0,000 mm 0,9 UV-I 192 W/m² 8,9 °C 10,6 °C 0,0 km/h (0 Bft)
17.05.2017 07:27 10,6 °C 10,6 °C 89 % 1022,7 hPa 0,0 mm 0,0 km/h (0 Bft) S 170 ° 0 min 0,000 mm 0,9 UV-I 193 W/m² 8,9 °C 10,6 °C 0,0 km/h (0 Bft)
17.05.2017 07:28 10,6 °C 10,6 °C 90 % 1022,7 hPa 0,0 mm 0,0 km/h (0 Bft) S 170 ° 0 min 0,000 mm 1,0 UV-I 193 W/m² 9,0 °C 10,6 °C 0,0 km/h (0 Bft)
17.05.2017 07:29 10,7 °C 10,7 °C 90 % 1022,7 hPa 0,0 mm 0,0 km/h (0 Bft) S 170 ° 0 min 0,000 mm 1,0 UV-I 193 W/m² 9,1 °C 10,7 °C 0,0 km/h (0 Bft)
17.05.2017 07:30 10,7 °C 10,7 °C 90 % 1022,7 hPa 0,0 mm 0,0 km/h (0 Bft) S 170 ° 0 min 0,000 mm 1,0 UV-I 188 W/m² 9,1 °C 10,7 °C 0,0 km/h (0 Bft)
17.05.2017 07:31 10,7 °C 10,7 °C 89 % 1022,7 hPa 0,0 mm 0,0 km/h (0 Bft) S 170 ° 0 min 0,000 mm 1,0 UV-I 185 W/m² 9,0 °C 10,7 °C 0,0 km/h (0 Bft)
17.05.2017 07:32 10,6 °C 10,7 °C 89 % 1022,7 hPa 0,0 mm 0,0 km/h (0 Bft) S 170 ° 0 min 0,000 mm 1,0 UV-I 183 W/m² 8,9 °C 10,6 °C 0,0 km/h (0 Bft)
17.05.2017 07:33 10,7 °C 10,7 °C 89 % 1022,7 hPa 0,0 mm 0,0 km/h (0 Bft) S 170 ° 0 min 0,000 mm 1,1 UV-I 181 W/m² 9,0 °C 10,7 °C 0,0 km/h (0 Bft)
17.05.2017 07:34 10,7 °C 10,7 °C 89 % 1022,7 hPa 0,0 mm 0,0 km/h (0 Bft) S 170 ° 0 min 0,000 mm 1,1 UV-I 178 W/m² 9,0 °C 10,7 °C 0,0 km/h (0 Bft)
17.05.2017 07:35 10,8 °C 10,8 °C 90 % 1022,7 hPa 0,0 mm 0,0 km/h (0 Bft) S 170 ° 0 min 0,000 mm 1,1 UV-I 172 W/m² 9,2 °C 10,8 °C 0,0 km/h (0 Bft)
17.05.2017 07:36 11,0 °C 11,0 °C 90 % 1022,6 hPa 0,0 mm 0,0 km/h (0 Bft) S 170 ° 0 min 0,000 mm 1,1 UV-I 171 W/m² 9,4 °C 11,0 °C 0,0 km/h (0 Bft)
17.05.2017 07:37 11,2 °C 11,2 °C 90 % 1022,6 hPa 0,0 mm 0,0 km/h (0 Bft) S 170 ° 0 min 0,000 mm 1,1 UV-I 169 W/m² 9,6 °C 11,2 °C 0,0 km/h (0 Bft)
17.05.2017 07:38 11,3 °C 11,3 °C 88 % 1022,7 hPa 0,0 mm 0,0 km/h (0 Bft) S 170 ° 0 min 0,000 mm 1,2 UV-I 165 W/m² 9,4 °C 11,3 °C 0,0 km/h (0 Bft)
17.05.2017 07:39 11,5 °C 11,5 °C 89 % 1022,6 hPa 0,0 mm 0,0 km/h (0 Bft) S 170 ° 0 min 0,000 mm 1,2 UV-I 163 W/m² 9,8 °C 11,5 °C 0,0 km/h (0 Bft)
17.05.2017 07:40 11,7 °C 11,7 °C 89 % 1022,6 hPa 0,0 mm 0,0 km/h (0 Bft) S 170 ° 0 min 0,000 mm 1,2 UV-I 163 W/m² 9,9 °C 11,7 °C 0,0 km/h (0 Bft)
17.05.2017 07:41 11,7 °C 11,7 °C 88 % 1022,6 hPa 0,0 mm 0,0 km/h (0 Bft) S 170 ° 0 min 0,000 mm 1,2 UV-I 163 W/m² 9,8 °C 11,7 °C 0,0 km/h (0 Bft)
17.05.2017 07:42 11,6 °C 11,7 °C 87 % 1022,6 hPa 0,0 mm 0,0 km/h (0 Bft) S 170 ° 0 min 0,000 mm 1,2 UV-I 163 W/m² 9,5 °C 11,6 °C 0,0 km/h (0 Bft)
17.05.2017 07:43 11,7 °C 11,7 °C 87 % 1022,7 hPa 0,0 mm 0,1 km/h (0 Bft) S 170 ° 0 min 0,000 mm 1,2 UV-I 171 W/m² 9,6 °C 11,7 °C 1,6 km/h (1 Bft)
17.05.2017 07:44 11,7 °C 11,7 °C 88 % 1022,6 hPa 0,0 mm 2,5 km/h (1 Bft) S-SO 159 ° 0 min 0,000 mm 1,3 UV-I 174 W/m² 9,8 °C 11,7 °C 3,2 km/h (1 Bft)
17.05.2017 07:45 11,8 °C 11,8 °C 86 % 1022,6 hPa 0,0 mm 3,6 km/h (1 Bft) NO 53 ° 0 min 0,000 mm 1,3 UV-I 181 W/m² 9,5 °C 11,8 °C 4,8 km/h (1 Bft)
17.05.2017 07:46 11,8 °C 11,8 °C 86 % 1022,6 hPa 0,0 mm 1,4 km/h (1 Bft) NO 53 ° 0 min 0,000 mm 1,3 UV-I 185 W/m² 9,5 °C 11,8 °C 1,6 km/h (1 Bft)
17.05.2017 07:47 11,9 °C 11,9 °C 84 % 1022,6 hPa 0,0 mm 0,0 km/h (0 Bft) NO 53 ° 0 min 0,000 mm 1,3 UV-I 195 W/m² 9,3 °C 11,9 °C 0,0 km/h (0 Bft)
17.05.2017 07:48 12,1 °C 12,1 °C 84 % 1022,6 hPa 0,0 mm 0,0 km/h (0 Bft) NO 53 ° 0 min 0,000 mm 1,3 UV-I 200 W/m² 9,5 °C 12,1 °C 0,0 km/h (0 Bft)
17.05.2017 07:49 12,2 °C 12,2 °C 84 % 1022,6 hPa 0,0 mm 0,0 km/h (0 Bft) NO 53 ° 0 min 0,000 mm 1,3 UV-I 207 W/m² 9,6 °C 12,2 °C 0,0 km/h (0 Bft)
17.05.2017 07:50 12,2 °C 12,3 °C 85 % 1022,6 hPa 0,0 mm 0,3 km/h (0 Bft) NO 53 ° 0 min 0,000 mm 1,4 UV-I 213 W/m² 9,8 °C 12,2 °C 1,6 km/h (1 Bft)
17.05.2017 07:51 12,3 °C 12,3 °C 87 % 1022,5 hPa 0,0 mm 0,1 km/h (0 Bft) NO 53 ° 0 min 0,000 mm 1,4 UV-I 220 W/m² 10,2 °C 12,3 °C 1,6 km/h (1 Bft)
17.05.2017 07:52 12,3 °C 12,3 °C 87 % 1022,5 hPa 0,0 mm 0,0 km/h (0 Bft) NO 53 ° 0 min 0,000 mm 1,4 UV-I 225 W/m² 10,2 °C 12,3 °C 0,0 km/h (0 Bft)
17.05.2017 07:53 12,3 °C 12,3 °C 85 % 1022,5 hPa 0,0 mm 0,0 km/h (0 Bft) NO 53 ° 0 min 0,000 mm 1,4 UV-I 237 W/m² 9,9 °C 12,3 °C 0,0 km/h (0 Bft)
17.05.2017 07:54 12,4 °C 12,4 °C 85 % 1022,5 hPa 0,0 mm 0,1 km/h (0 Bft) NO 53 ° 0 min 0,000 mm 1,5 UV-I 244 W/m² 9,9 °C 12,4 °C 1,6 km/h (1 Bft)
17.05.2017 07:55 12,4 °C 12,4 °C 84 % 1022,6 hPa 0,0 mm 0,0 km/h (0 Bft) NO 53 ° 0 min 0,000 mm 1,5 UV-I 250 W/m² 9,8 °C 12,4 °C 0,0 km/h (0 Bft)
17.05.2017 07:56 12,3 °C 12,4 °C 85 % 1022,6 hPa 0,0 mm 0,0 km/h (0 Bft) NO 53 ° 0 min 0,000 mm 1,5 UV-I 255 W/m² 9,9 °C 12,3 °C 0,0 km/h (0 Bft)
17.05.2017 07:57 12,3 °C 12,3 °C 85 % 1022,5 hPa 0,0 mm 0,0 km/h (0 Bft) NO 53 ° 0 min 0,000 mm 1,5 UV-I 260 W/m² 9,9 °C 12,3 °C 0,0 km/h (0 Bft)
17.05.2017 07:58 12,3 °C 12,3 °C 84 % 1022,5 hPa 0,0 mm 0,0 km/h (0 Bft) NO 53 ° 0 min 0,000 mm 1,5 UV-I 267 W/m² 9,7 °C 12,3 °C 0,0 km/h (0 Bft)
17.05.2017 07:59 12,3 °C 12,4 °C 85 % 1022,5 hPa 0,0 mm 0,1 km/h (0 Bft) NO 53 ° 0 min 0,000 mm 1,6 UV-I 276 W/m² 9,9 °C 12,3 °C 1,6 km/h (1 Bft)
17.05.2017 08:00 12,4 °C 12,4 °C 85 % 1022,5 hPa 0,0 mm 0,1 km/h (0 Bft) NO 53 ° 0 min 0,000 mm 1,6 UV-I 279 W/m² 9,9 °C 12,4 °C 1,6 km/h (1 Bft)
17.05.2017 08:01 12,5 °C 12,5 °C 84 % 1022,5 hPa 0,0 mm 0,1 km/h (0 Bft) NO 53 ° 0 min 0,102 mm 1,6 UV-I 283 W/m² 9,9 °C 12,5 °C 1,6 km/h (1 Bft)
17.05.2017 08:02 12,6 °C 12,6 °C 84 % 1022,5 hPa 0,0 mm 2,4 km/h (1 Bft) NO 53 ° 0 min 0,000 mm 1,6 UV-I 288 W/m² 10,0 °C 12,6 °C 3,2 km/h (1 Bft)
17.05.2017 08:03 12,7 °C 12,7 °C 84 % 1022,5 hPa 0,0 mm 1,3 km/h (1 Bft) NO 53 ° 1 min 0,000 mm 1,6 UV-I 294 W/m² 10,1 °C 12,7 °C 1,6 km/h (1 Bft)
17.05.2017 08:04 12,8 °C 12,8 °C 85 % 1022,5 hPa 0,0 mm 2,1 km/h (1 Bft) NO 53 ° 1 min 0,000 mm 1,7 UV-I 297 W/m² 10,3 °C 12,8 °C 3,2 km/h (1 Bft)
17.05.2017 08:05 12,9 °C 12,9 °C 83 % 1022,5 hPa 0,0 mm 0,9 km/h (0 Bft) NO 53 ° 1 min 0,000 mm 1,7 UV-I 308 W/m² 10,1 °C 12,9 °C 3,2 km/h (1 Bft)
17.05.2017 08:06 12,9 °C 12,9 °C 83 % 1022,5 hPa 0,0 mm 0,5 km/h (0 Bft) NO 53 ° 1 min 0,000 mm 1,7 UV-I 311 W/m² 10,1 °C 12,9 °C 1,6 km/h (1 Bft)
17.05.2017 08:07 13,1 °C 13,1 °C 84 % 1022,5 hPa 0,0 mm 0,4 km/h (0 Bft) NO 53 ° 1 min 0,000 mm 1,7 UV-I 315 W/m² 10,5 °C 13,1 °C 1,6 km/h (1 Bft)
17.05.2017 08:08 13,2 °C 13,2 °C 82 % 1022,4 hPa 0,0 mm 0,0 km/h (0 Bft) NO 53 ° 1 min 0,000 mm 1,8 UV-I 320 W/m² 10,2 °C 13,2 °C 0,0 km/h (0 Bft)
17.05.2017 08:09 13,2 °C 13,2 °C 81 % 1022,5 hPa 0,0 mm 0,0 km/h (0 Bft) NO 53 ° 1 min 0,000 mm 1,8 UV-I 323 W/m² 10,0 °C 13,2 °C 0,0 km/h (0 Bft)
17.05.2017 08:10 13,3 °C 13,3 °C 81 % 1022,4 hPa 0,0 mm 0,0 km/h (0 Bft) NO 53 ° 1 min 0,000 mm 1,8 UV-I 327 W/m² 10,1 °C 13,3 °C 0,0 km/h (0 Bft)
17.05.2017 08:11 13,3 °C 13,3 °C 80 % 1022,4 hPa 0,0 mm 0,0 km/h (0 Bft) NO 53 ° 1 min 0,000 mm 1,8 UV-I 338 W/m² 9,9 °C 13,3 °C 0,0 km/h (0 Bft)
17.05.2017 08:12 13,3 °C 13,3 °C 81 % 1022,4 hPa 0,0 mm 0,0 km/h (0 Bft) NO 53 ° 1 min 0,000 mm 1,9 UV-I 339 W/m² 10,1 °C 13,3 °C 0,0 km/h (0 Bft)
17.05.2017 08:13 13,2 °C 13,3 °C 80 % 1022,4 hPa 0,0 mm 0,0 km/h (0 Bft) NO 53 ° 1 min 0,000 mm 1,9 UV-I 343 W/m² 9,8 °C 13,2 °C 0,0 km/h (0 Bft)
17.05.2017 08:14 13,3 °C 13,3 °C 80 % 1022,4 hPa 0,0 mm 0,0 km/h (0 Bft) NO 53 ° 1 min 0,000 mm 1,9 UV-I 346 W/m² 9,9 °C 13,3 °C 0,0 km/h (0 Bft)
17.05.2017 08:15 13,4 °C 13,4 °C 81 % 1022,4 hPa 0,0 mm 0,0 km/h (0 Bft) NO 53 ° 1 min 0,000 mm 1,9 UV-I 350 W/m² 10,2 °C 13,4 °C 0,0 km/h (0 Bft)
17.05.2017 08:16 13,4 °C 13,4 °C 82 % 1022,4 hPa 0,0 mm 0,0 km/h (0 Bft) NO 53 ° 1 min 0,000 mm 1,9 UV-I 357 W/m² 10,4 °C 13,4 °C 0,0 km/h (0 Bft)
17.05.2017 08:17 13,4 °C 13,4 °C 83 % 1022,4 hPa 0,0 mm 0,3 km/h (0 Bft) NO 53 ° 1 min 0,000 mm 2,0 UV-I 360 W/m² 10,6 °C 13,4 °C 1,6 km/h (1 Bft)
17.05.2017 08:18 13,4 °C 13,4 °C 85 % 1022,3 hPa 0,0 mm 1,3 km/h (1 Bft) NO 53 ° 1 min 0,000 mm 2,0 UV-I 362 W/m² 10,9 °C 13,4 °C 1,6 km/h (1 Bft)
17.05.2017 08:19 13,6 °C 13,6 °C 81 % 1022,3 hPa 0,0 mm 0,1 km/h (0 Bft) NO 53 ° 1 min 0,000 mm 2,0 UV-I 366 W/m² 10,4 °C 13,6 °C 1,6 km/h (1 Bft)
17.05.2017 08:20 13,6 °C 13,6 °C 79 % 1022,3 hPa 0,0 mm 0,0 km/h (0 Bft) NO 53 ° 1 min 0,000 mm 2,0 UV-I 367 W/m² 10,0 °C 13,6 °C 0,0 km/h (0 Bft)
17.05.2017 08:21 13,7 °C 13,7 °C 82 % 1022,3 hPa 0,0 mm 0,0 km/h (0 Bft) NO 53 ° 1 min 0,000 mm 2,1 UV-I 371 W/m² 10,7 °C 13,7 °C 0,0 km/h (0 Bft)
17.05.2017 08:22 13,7 °C 13,7 °C 80 % 1022,3 hPa 0,0 mm 0,0 km/h (0 Bft) NO 53 ° 1 min 0,000 mm 2,1 UV-I 376 W/m² 10,3 °C 13,7 °C 0,0 km/h (0 Bft)
17.05.2017 08:23 13,6 °C 13,7 °C 78 % 1022,3 hPa 0,0 mm 0,0 km/h (0 Bft) NO 53 ° 1 min 0,000 mm 2,1 UV-I 378 W/m² 9,8 °C 13,6 °C 0,0 km/h (0 Bft)
17.05.2017 08:24 13,5 °C 13,6 °C 80 % 1022,3 hPa 0,0 mm 0,0 km/h (0 Bft) NO 53 ° 1 min 0,000 mm 2,1 UV-I 381 W/m² 10,1 °C 13,5 °C 0,0 km/h (0 Bft)
17.05.2017 08:25 13,5 °C 13,5 °C 80 % 1022,3 hPa 0,0 mm 0,0 km/h (0 Bft) NO 53 ° 1 min 0,000 mm 2,2 UV-I 383 W/m² 10,1 °C 13,5 °C 0,0 km/h (0 Bft)
17.05.2017 08:26 13,6 °C 13,7 °C 81 % 1022,4 hPa 0,0 mm 0,1 km/h (0 Bft) NO 53 ° 1 min 0,000 mm 2,2 UV-I 385 W/m² 10,4 °C 13,6 °C 1,6 km/h (1 Bft)
17.05.2017 08:27 13,6 °C 13,6 °C 81 % 1022,3 hPa 0,0 mm 0,0 km/h (0 Bft) NO 53 ° 1 min 0,000 mm 2,2 UV-I 388 W/m² 10,4 °C 13,6 °C 0,0 km/h (0 Bft)
17.05.2017 08:28 13,6 °C 13,6 °C 82 % 1022,3 hPa 0,0 mm 0,0 km/h (0 Bft) NO 53 ° 1 min 0,000 mm 2,2 UV-I 394 W/m² 10,6 °C 13,6 °C 0,0 km/h (0 Bft)
17.05.2017 08:29 13,6 °C 13,6 °C 81 % 1022,3 hPa 0,0 mm 0,0 km/h (0 Bft) NO 53 ° 1 min 0,000 mm 2,2 UV-I 396 W/m² 10,4 °C 13,6 °C 0,0 km/h (0 Bft)
17.05.2017 08:30 13,6 °C 13,6 °C 80 % 1022,2 hPa 0,0 mm 0,1 km/h (0 Bft) NO 53 ° 1 min 0,000 mm 2,2 UV-I 399 W/m² 10,2 °C 13,6 °C 1,6 km/h (1 Bft)
17.05.2017 08:31 13,6 °C 13,6 °C 80 % 1022,3 hPa 0,0 mm 0,1 km/h (0 Bft) NO 53 ° 1 min 0,000 mm 2,3 UV-I 401 W/m² 10,2 °C 13,6 °C 1,6 km/h (1 Bft)
17.05.2017 08:32 13,7 °C 13,7 °C 81 % 1022,3 hPa 0,0 mm 0,5 km/h (0 Bft) NO 53 ° 1 min 0,000 mm 2,3 UV-I 404 W/m² 10,5 °C 13,7 °C 1,6 km/h (1 Bft)
17.05.2017 08:33 13,7 °C 13,7 °C 80 % 1022,2 hPa 0,0 mm 0,1 km/h (0 Bft) NO 53 ° 1 min 0,000 mm 2,3 UV-I 408 W/m² 10,3 °C 13,7 °C 1,6 km/h (1 Bft)
17.05.2017 08:34 13,8 °C 13,8 °C 81 % 1022,2 hPa 0,0 mm 0,0 km/h (0 Bft) NO 53 ° 1 min 0,000 mm 2,3 UV-I 411 W/m² 10,6 °C 13,8 °C 0,0 km/h (0 Bft)
17.05.2017 08:35 13,9 °C 13,9 °C 81 % 1022,2 hPa 0,0 mm 1,4 km/h (1 Bft) NO 53 ° 1 min 0,000 mm 2,4 UV-I 413 W/m² 10,7 °C 13,9 °C 1,6 km/h (1 Bft)
17.05.2017 08:36 14,0 °C 14,0 °C 82 % 1022,2 hPa 0,0 mm 1,4 km/h (1 Bft) NO 53 ° 1 min 0,000 mm 2,4 UV-I 417 W/m² 11,0 °C 14,0 °C 3,2 km/h (1 Bft)
17.05.2017 08:37 14,1 °C 14,1 °C 79 % 1022,2 hPa 0,0 mm 0,1 km/h (0 Bft) NO 53 ° 1 min 0,000 mm 2,4 UV-I 418 W/m² 10,5 °C 14,1 °C 1,6 km/h (1 Bft)
17.05.2017 08:38 14,2 °C 14,2 °C 79 % 1022,2 hPa 0,0 mm 0,1 km/h (0 Bft) NO 53 ° 1 min 0,000 mm 2,4 UV-I 420 W/m² 10,6 °C 14,2 °C 1,6 km/h (1 Bft)
17.05.2017 08:39 14,3 °C 14,3 °C 79 % 1022,1 hPa 0,0 mm 0,3 km/h (0 Bft) NO 53 ° 1 min 0,000 mm 2,4 UV-I 422 W/m² 10,7 °C 14,3 °C 1,6 km/h (1 Bft)
17.05.2017 08:40 14,3 °C 14,3 °C 78 % 1022,1 hPa 0,0 mm 0,7 km/h (0 Bft) NO 53 ° 1 min 0,000 mm 2,5 UV-I 427 W/m² 10,5 °C 14,3 °C 1,6 km/h (1 Bft)
17.05.2017 08:41 14,3 °C 14,3 °C 77 % 1022,1 hPa 0,0 mm 1,3 km/h (1 Bft) NO 53 ° 1 min 0,000 mm 2,5 UV-I 431 W/m² 10,3 °C 14,3 °C 1,6 km/h (1 Bft)
17.05.2017 08:42 14,4 °C 14,4 °C 78 % 1022,1 hPa 0,0 mm 0,0 km/h (0 Bft) NO 53 ° 1 min 0,000 mm 2,5 UV-I 432 W/m² 10,6 °C 14,4 °C 0,0 km/h (0 Bft)
17.05.2017 08:43 14,3 °C 14,4 °C 78 % 1022,1 hPa 0,0 mm 1,2 km/h (1 Bft) NO 53 ° 1 min 0,000 mm 2,5 UV-I 436 W/m² 10,5 °C 14,3 °C 3,2 km/h (1 Bft)
17.05.2017 08:44 14,3 °C 14,3 °C 79 % 1022,1 hPa 0,0 mm 1,8 km/h (1 Bft) NO 53 ° 1 min 0,000 mm 2,6 UV-I 439 W/m² 10,7 °C 14,3 °C 3,2 km/h (1 Bft)
17.05.2017 08:45 14,4 °C 14,4 °C 79 % 1022,0 hPa 0,0 mm 0,9 km/h (0 Bft) NO 53 ° 1 min 0,000 mm 2,6 UV-I 441 W/m² 10,8 °C 14,4 °C 1,6 km/h (1 Bft)
17.05.2017 08:46 14,6 °C 14,6 °C 79 % 1022,0 hPa 0,0 mm 0,5 km/h (0 Bft) NO 53 ° 1 min 0,000 mm 2,6 UV-I 443 W/m² 11,0 °C 14,6 °C 1,6 km/h (1 Bft)
17.05.2017 08:47 14,6 °C 14,6 °C 77 % 1022,0 hPa 0,0 mm 0,0 km/h (0 Bft) NO 53 ° 1 min 0,000 mm 2,6 UV-I 448 W/m² 10,6 °C 14,6 °C 0,0 km/h (0 Bft)
17.05.2017 08:48 14,6 °C 14,6 °C 78 % 1022,0 hPa 0,0 mm 0,2 km/h (0 Bft) NO 53 ° 1 min 0,000 mm 2,6 UV-I 450 W/m² 10,8 °C 14,6 °C 1,6 km/h (1 Bft)
17.05.2017 08:49 14,6 °C 14,6 °C 79 % 1022,0 hPa 0,0 mm 0,1 km/h (0 Bft) NO 53 ° 1 min 0,000 mm 2,7 UV-I 454 W/m² 11,0 °C 14,6 °C 1,6 km/h (1 Bft)
17.05.2017 08:50 14,7 °C 14,7 °C 81 % 1022,0 hPa 0,0 mm 0,8 km/h (0 Bft) NO 53 ° 1 min 0,000 mm 2,7 UV-I 455 W/m² 11,5 °C 14,7 °C 3,2 km/h (1 Bft)
17.05.2017 08:51 14,8 °C 14,8 °C 79 % 1022,0 hPa 0,0 mm 1,1 km/h (1 Bft) NO 53 ° 1 min 0,000 mm 2,7 UV-I 459 W/m² 11,2 °C 14,8 °C 1,6 km/h (1 Bft)
17.05.2017 08:52 15,0 °C 15,0 °C 78 % 1021,9 hPa 0,0 mm 0,9 km/h (0 Bft) NO 53 ° 1 min 0,000 mm 2,7 UV-I 464 W/m² 11,2 °C 15,0 °C 1,6 km/h (1 Bft)
17.05.2017 08:53 15,1 °C 15,1 °C 77 % 1021,9 hPa 0,0 mm 1,0 km/h (0 Bft) NO 53 ° 1 min 0,000 mm 2,8 UV-I 468 W/m² 11,1 °C 15,1 °C 1,6 km/h (1 Bft)
17.05.2017 08:54 15,3 °C 15,3 °C 78 % 1021,9 hPa 0,0 mm 0,2 km/h (0 Bft) NO 53 ° 1 min 0,000 mm 2,8 UV-I 469 W/m² 11,5 °C 15,3 °C 1,6 km/h (1 Bft)
17.05.2017 08:55 15,4 °C 15,4 °C 76 % 1021,9 hPa 0,0 mm 0,3 km/h (0 Bft) NO 53 ° 1 min 0,000 mm 2,8 UV-I 471 W/m² 11,2 °C 15,4 °C 1,6 km/h (1 Bft)
17.05.2017 08:56 15,3 °C 15,4 °C 74 % 1021,9 hPa 0,0 mm 0,9 km/h (0 Bft) NO 53 ° 1 min 0,000 mm 2,8 UV-I 475 W/m² 10,7 °C 15,3 °C 3,2 km/h (1 Bft)
17.05.2017 08:57 15,3 °C 15,3 °C 74 % 1021,9 hPa 0,0 mm 0,0 km/h (0 Bft) NO 53 ° 1 min 0,000 mm 2,9 UV-I 478 W/m² 10,7 °C 15,3 °C 0,0 km/h (0 Bft)
17.05.2017 08:58 15,4 °C 15,4 °C 75 % 1021,9 hPa 0,0 mm 0,3 km/h (0 Bft) NO 53 ° 1 min 0,000 mm 2,9 UV-I 482 W/m² 11,0 °C 15,4 °C 1,6 km/h (1 Bft)
17.05.2017 08:59 15,4 °C 15,4 °C 73 % 1021,8 hPa 0,0 mm 1,7 km/h (1 Bft) NO 55 ° 1 min 0,000 mm 2,9 UV-I 485 W/m² 10,6 °C 15,4 °C 4,8 km/h (1 Bft)
17.05.2017 09:00 15,4 °C 15,4 °C 75 % 1021,8 hPa 0,0 mm 3,2 km/h (1 Bft) NO 55 ° 1 min 0,000 mm 3,0 UV-I 487 W/m² 11,0 °C 15,4 °C 4,8 km/h (1 Bft)
17.05.2017 09:01 15,4 °C 15,4 °C 73 % 1021,9 hPa 0,0 mm 2,6 km/h (1 Bft) NO 55 ° 1 min 0,203 mm 3,0 UV-I 489 W/m² 10,6 °C 15,4 °C 4,8 km/h (1 Bft)
17.05.2017 09:02 15,4 °C 15,4 °C 74 % 1021,8 hPa 0,0 mm 2,4 km/h (1 Bft) NO 54 ° 1 min 0,000 mm 3,0 UV-I 492 W/m² 10,8 °C 15,4 °C 4,8 km/h (1 Bft)
17.05.2017 09:03 15,6 °C 15,6 °C 74 % 1021,8 hPa 0,0 mm 2,2 km/h (1 Bft) NO 54 ° 1 min 0,000 mm 3,0 UV-I 496 W/m² 11,0 °C 15,6 °C 4,8 km/h (1 Bft)
17.05.2017 09:04 15,6 °C 15,6 °C 74 % 1021,8 hPa 0,0 mm 2,1 km/h (1 Bft) NO 54 ° 1 min 0,000 mm 3,0 UV-I 497 W/m² 11,0 °C 15,6 °C 3,2 km/h (1 Bft)
17.05.2017 09:05 15,8 °C 15,8 °C 75 % 1021,8 hPa 0,0 mm 0,2 km/h (0 Bft) NO 54 ° 1 min 0,000 mm 3,1 UV-I 501 W/m² 11,4 °C 15,8 °C 1,6 km/h (1 Bft)
17.05.2017 09:06 15,8 °C 15,8 °C 73 % 1021,8 hPa 0,0 mm 2,2 km/h (1 Bft) NO 54 ° 1 min 0,000 mm 3,1 UV-I 503 W/m² 11,0 °C 15,8 °C 6,4 km/h (2 Bft)
17.05.2017 09:07 15,8 °C 15,8 °C 73 % 1021,8 hPa 0,0 mm 3,5 km/h (1 Bft) NO 54 ° 1 min 0,000 mm 3,1 UV-I 506 W/m² 11,0 °C 15,8 °C 6,4 km/h (2 Bft)
17.05.2017 09:08 15,8 °C 15,8 °C 72 % 1021,8 hPa 0,0 mm 1,6 km/h (1 Bft) NO 54 ° 1 min 0,000 mm 3,1 UV-I 508 W/m² 10,8 °C 15,8 °C 3,2 km/h (1 Bft)
17.05.2017 09:09 15,8 °C 15,8 °C 72 % 1021,8 hPa 0,0 mm 3,1 km/h (1 Bft) O 82 ° 1 min 0,000 mm 3,1 UV-I 513 W/m² 10,8 °C 15,8 °C 4,8 km/h (1 Bft)
17.05.2017 09:10 15,8 °C 15,8 °C 74 % 1021,7 hPa 0,0 mm 1,5 km/h (1 Bft) O 82 ° 1 min 0,000 mm 3,2 UV-I 517 W/m² 11,2 °C 15,8 °C 3,2 km/h (1 Bft)
17.05.2017 09:11 15,7 °C 15,8 °C 73 % 1021,7 hPa 0,0 mm 2,4 km/h (1 Bft) O 82 ° 1 min 0,000 mm 3,2 UV-I 519 W/m² 10,9 °C 15,7 °C 3,2 km/h (1 Bft)
17.05.2017 09:12 15,8 °C 15,8 °C 72 % 1021,7 hPa 0,0 mm 1,5 km/h (1 Bft) O 82 ° 1 min 0,000 mm 3,2 UV-I 520 W/m² 10,8 °C 15,8 °C 3,2 km/h (1 Bft)
17.05.2017 09:13 15,8 °C 15,8 °C 72 % 1021,8 hPa 0,0 mm 0,0 km/h (0 Bft) O 82 ° 1 min 0,000 mm 3,3 UV-I 524 W/m² 10,8 °C 15,8 °C 0,0 km/h (0 Bft)
17.05.2017 09:14 15,9 °C 15,9 °C 73 % 1021,8 hPa 0,0 mm 0,0 km/h (0 Bft) O 82 ° 1 min 0,000 mm 3,3 UV-I 526 W/m² 11,1 °C 15,9 °C 0,0 km/h (0 Bft)
17.05.2017 09:15 15,8 °C 15,9 °C 72 % 1021,7 hPa 0,0 mm 0,0 km/h (0 Bft) O 82 ° 1 min 0,000 mm 3,3 UV-I 533 W/m² 10,8 °C 15,8 °C 0,0 km/h (0 Bft)
17.05.2017 09:16 15,9 °C 15,9 °C 74 % 1021,6 hPa 0,0 mm 0,0 km/h (0 Bft) O 82 ° 1 min 0,000 mm 3,3 UV-I 529 W/m² 11,3 °C 15,9 °C 0,0 km/h (0 Bft)
17.05.2017 09:17 15,9 °C 15,9 °C 73 % 1021,6 hPa 0,0 mm 0,0 km/h (0 Bft) O 82 ° 1 min 0,000 mm 3,4 UV-I 527 W/m² 11,1 °C 15,9 °C 0,0 km/h (0 Bft)
17.05.2017 09:18 15,9 °C 16,0 °C 77 % 1021,6 hPa 0,0 mm 0,7 km/h (0 Bft) O 82 ° 1 min 0,000 mm 3,4 UV-I 534 W/m² 11,9 °C 15,9 °C 3,2 km/h (1 Bft)
17.05.2017 09:19 16,1 °C 16,1 °C 72 % 1021,7 hPa 0,0 mm 1,9 km/h (1 Bft) O 82 ° 1 min 0,000 mm 3,4 UV-I 538 W/m² 11,0 °C 16,1 °C 3,2 km/h (1 Bft)
17.05.2017 09:20 16,1 °C 16,1 °C 72 % 1021,7 hPa 0,0 mm 0,4 km/h (0 Bft) O 82 ° 1 min 0,000 mm 3,4 UV-I 541 W/m² 11,0 °C 16,1 °C 1,6 km/h (1 Bft)
17.05.2017 09:21 16,3 °C 16,3 °C 72 % 1021,7 hPa 0,0 mm 0,0 km/h (0 Bft) O 82 ° 1 min 0,000 mm 3,4 UV-I 547 W/m² 11,2 °C 16,3 °C 0,0 km/h (0 Bft)
17.05.2017 09:22 16,5 °C 16,5 °C 72 % 1021,6 hPa 0,0 mm 0,0 km/h (0 Bft) O 82 ° 1 min 0,000 mm 3,5 UV-I 550 W/m² 11,4 °C 16,5 °C 0,0 km/h (0 Bft)
17.05.2017 09:23 16,7 °C 16,7 °C 72 % 1021,6 hPa 0,0 mm 0,3 km/h (0 Bft) O 82 ° 1 min 0,000 mm 3,5 UV-I 552 W/m² 11,6 °C 16,7 °C 1,6 km/h (1 Bft)
17.05.2017 09:24 16,9 °C 16,9 °C 76 % 1021,6 hPa 0,0 mm 0,6 km/h (0 Bft) O 82 ° 1 min 0,000 mm 3,5 UV-I 554 W/m² 12,6 °C 16,9 °C 1,6 km/h (1 Bft)
17.05.2017 09:25 17,0 °C 17,0 °C 70 % 1021,6 hPa 0,0 mm 0,1 km/h (0 Bft) O 82 ° 1 min 0,000 mm 3,6 UV-I 557 W/m² 11,5 °C 17,0 °C 1,6 km/h (1 Bft)
17.05.2017 09:26 17,1 °C 17,1 °C 75 % 1021,7 hPa 0,0 mm 2,7 km/h (1 Bft) NW 306 ° 1 min 0,000 mm 3,6 UV-I 561 W/m² 12,6 °C 17,1 °C 6,4 km/h (2 Bft)
17.05.2017 09:27 17,2 °C 17,2 °C 70 % 1021,6 hPa 0,0 mm 6,4 km/h (2 Bft) O-NO 68 ° 1 min 0,000 mm 3,6 UV-I 564 W/m² 11,7 °C 17,2 °C 8,0 km/h (2 Bft)
17.05.2017 09:28 17,3 °C 17,3 °C 74 % 1021,6 hPa 0,0 mm 4,2 km/h (1 Bft) O-NO 61 ° 1 min 0,000 mm 3,7 UV-I 568 W/m² 12,6 °C 17,3 °C 4,8 km/h (1 Bft)
17.05.2017 09:29 17,4 °C 17,4 °C 64 % 1021,6 hPa 0,0 mm 4,1 km/h (1 Bft) NO 56 ° 1 min 0,000 mm 3,7 UV-I 570 W/m² 10,5 °C 17,4 °C 6,4 km/h (2 Bft)
17.05.2017 09:30 17,5 °C 17,5 °C 64 % 1021,6 hPa 0,0 mm 5,8 km/h (2 Bft) O 86 ° 1 min 0,000 mm 3,7 UV-I 571 W/m² 10,6 °C 17,5 °C 8,0 km/h (2 Bft)
17.05.2017 09:31 17,6 °C 17,6 °C 64 % 1021,6 hPa 0,0 mm 5,8 km/h (2 Bft) NO 42 ° 1 min 0,000 mm 3,7 UV-I 575 W/m² 10,7 °C 17,6 °C 6,4 km/h (2 Bft)
17.05.2017 09:32 17,6 °C 17,7 °C 63 % 1021,6 hPa 0,0 mm 4,8 km/h (1 Bft) O-NO 62 ° 1 min 0,000 mm 3,7 UV-I 578 W/m² 10,5 °C 17,6 °C 9,7 km/h (2 Bft)
17.05.2017 09:33 17,8 °C 17,8 °C 63 % 1021,6 hPa 0,0 mm 4,5 km/h (1 Bft) O 98 ° 1 min 0,000 mm 3,7 UV-I 580 W/m² 10,7 °C 17,8 °C 6,4 km/h (2 Bft)
17.05.2017 09:34 17,8 °C 17,8 °C 63 % 1021,6 hPa 0,0 mm 3,2 km/h (1 Bft) N-NO 17 ° 1 min 0,000 mm 3,8 UV-I 582 W/m² 10,7 °C 17,8 °C 6,4 km/h (2 Bft)
17.05.2017 09:35 17,8 °C 17,8 °C 63 % 1021,6 hPa 0,0 mm 4,9 km/h (1 Bft) N-NO 32 ° 1 min 0,000 mm 3,8 UV-I 584 W/m² 10,7 °C 17,8 °C 8,0 km/h (2 Bft)
17.05.2017 09:36 17,8 °C 17,8 °C 60 % 1021,5 hPa 0,0 mm 5,2 km/h (1 Bft) NO 55 ° 1 min 0,000 mm 3,8 UV-I 587 W/m² 9,9 °C 17,8 °C 8,0 km/h (2 Bft)
17.05.2017 09:37 17,9 °C 17,9 °C 61 % 1021,5 hPa 0,0 mm 7,7 km/h (2 Bft) O-NO 67 ° 1 min 0,000 mm 3,8 UV-I 589 W/m² 10,3 °C 17,9 °C 11,3 km/h (2 Bft)
17.05.2017 09:38 17,8 °C 17,9 °C 60 % 1021,5 hPa 0,0 mm 4,2 km/h (1 Bft) NO 55 ° 1 min 0,000 mm 3,9 UV-I 591 W/m² 9,9 °C 17,8 °C 6,4 km/h (2 Bft)
17.05.2017 09:39 17,9 °C 17,9 °C 60 % 1021,5 hPa 0,0 mm 6,2 km/h (2 Bft) O-NO 66 ° 1 min 0,000 mm 3,9 UV-I 594 W/m² 10,0 °C 17,9 °C 8,0 km/h (2 Bft)
17.05.2017 09:40 17,8 °C 17,9 °C 60 % 1021,4 hPa 0,0 mm 7,1 km/h (2 Bft) NO 56 ° 1 min 0,000 mm 3,9 UV-I 599 W/m² 9,9 °C 17,8 °C 11,3 km/h (2 Bft)
17.05.2017 09:41 17,9 °C 17,9 °C 61 % 1021,4 hPa 0,0 mm 2,9 km/h (1 Bft) O-NO 70 ° 1 min 0,000 mm 3,9 UV-I 599 W/m² 10,3 °C 17,9 °C 6,4 km/h (2 Bft)
17.05.2017 09:42 17,9 °C 17,9 °C 60 % 1021,4 hPa 0,0 mm 4,9 km/h (1 Bft) NO 52 ° 1 min 0,000 mm 4,0 UV-I 601 W/m² 10,0 °C 17,9 °C 8,0 km/h (2 Bft)
17.05.2017 09:43 17,9 °C 17,9 °C 62 % 1021,4 hPa 0,0 mm 4,6 km/h (1 Bft) O 93 ° 1 min 0,000 mm 4,0 UV-I 605 W/m² 10,5 °C 17,9 °C 8,0 km/h (2 Bft)
17.05.2017 09:44 17,9 °C 17,9 °C 59 % 1021,4 hPa 0,0 mm 3,6 km/h (1 Bft) O-NO 76 ° 1 min 0,000 mm 4,0 UV-I 610 W/m² 9,8 °C 17,9 °C 4,8 km/h (1 Bft)
17.05.2017 09:45 18,0 °C 18,0 °C 62 % 1021,4 hPa 0,0 mm 4,3 km/h (1 Bft) O-NO 69 ° 1 min 0,000 mm 4,0 UV-I 610 W/m² 10,6 °C 18,0 °C 6,4 km/h (2 Bft)
17.05.2017 09:46 18,1 °C 18,1 °C 60 % 1021,4 hPa 0,0 mm 5,9 km/h (2 Bft) NO 54 ° 1 min 0,000 mm 4,0 UV-I 612 W/m² 10,2 °C 18,1 °C 8,0 km/h (2 Bft)
17.05.2017 09:47 18,2 °C 18,2 °C 61 % 1021,4 hPa 0,0 mm 7,5 km/h (2 Bft) O 88 ° 1 min 0,000 mm 4,1 UV-I 615 W/m² 10,6 °C 18,2 °C 12,9 km/h (3 Bft)
17.05.2017 09:48 18,3 °C 18,3 °C 61 % 1021,4 hPa 0,0 mm 5,2 km/h (1 Bft) O-NO 63 ° 1 min 0,000 mm 4,1 UV-I 617 W/m² 10,6 °C 18,3 °C 9,7 km/h (2 Bft)
17.05.2017 09:49 18,3 °C 18,3 °C 58 % 1021,4 hPa 0,0 mm 7,2 km/h (2 Bft) O-NO 69 ° 1 min 0,000 mm 4,1 UV-I 619 W/m² 9,9 °C 18,3 °C 9,7 km/h (2 Bft)
17.05.2017 09:50 18,3 °C 18,3 °C 58 % 1021,4 hPa 0,0 mm 9,7 km/h (2 Bft) O-NO 76 ° 1 min 0,000 mm 4,1 UV-I 624 W/m² 9,9 °C 18,3 °C 16,1 km/h (3 Bft)
17.05.2017 09:51 18,3 °C 18,3 °C 59 % 1021,4 hPa 0,0 mm 6,9 km/h (2 Bft) NO 54 ° 1 min 0,000 mm 4,2 UV-I 626 W/m² 10,1 °C 18,3 °C 14,5 km/h (3 Bft)
17.05.2017 09:52 18,3 °C 18,3 °C 58 % 1021,4 hPa 0,0 mm 7,9 km/h (2 Bft) O-NO 60 ° 1 min 0,000 mm 4,2 UV-I 629 W/m² 9,9 °C 18,3 °C 12,9 km/h (3 Bft)
17.05.2017 09:53 18,3 °C 18,3 °C 58 % 1021,4 hPa 0,0 mm 6,9 km/h (2 Bft) O-NO 66 ° 1 min 0,000 mm 4,2 UV-I 631 W/m² 9,9 °C 18,3 °C 11,3 km/h (2 Bft)
17.05.2017 09:54 18,3 °C 18,3 °C 59 % 1021,3 hPa 0,0 mm 1,9 km/h (1 Bft) O-NO 76 ° 1 min 0,000 mm 4,2 UV-I 633 W/m² 10,1 °C 18,3 °C 4,8 km/h (1 Bft)
17.05.2017 09:55 18,4 °C 18,4 °C 60 % 1021,3 hPa 0,0 mm 4,4 km/h (1 Bft) NO 47 ° 1 min 0,000 mm 4,2 UV-I 635 W/m² 10,5 °C 18,4 °C 6,4 km/h (2 Bft)
17.05.2017 09:56 18,4 °C 18,4 °C 59 % 1021,3 hPa 0,0 mm 5,9 km/h (2 Bft) O-NO 63 ° 1 min 0,000 mm 4,3 UV-I 640 W/m² 10,2 °C 18,4 °C 9,7 km/h (2 Bft)
17.05.2017 09:57 18,6 °C 18,6 °C 58 % 1021,3 hPa 0,0 mm 6,3 km/h (2 Bft) NO 34 ° 1 min 0,000 mm 4,3 UV-I 642 W/m² 10,2 °C 18,6 °C 8,0 km/h (2 Bft)
17.05.2017 09:58 18,7 °C 18,7 °C 60 % 1021,3 hPa 0,0 mm 6,7 km/h (2 Bft) O-NO 74 ° 1 min 0,000 mm 4,3 UV-I 643 W/m² 10,8 °C 18,7 °C 11,3 km/h (2 Bft)
17.05.2017 09:59 18,8 °C 18,8 °C 60 % 1021,3 hPa 0,0 mm 5,1 km/h (1 Bft) N-NO 30 ° 1 min 0,000 mm 4,4 UV-I 645 W/m² 10,9 °C 18,8 °C 8,0 km/h (2 Bft)
17.05.2017 10:00 18,8 °C 18,8 °C 61 % 1021,3 hPa 0,0 mm 7,1 km/h (2 Bft) N-NO 18 ° 1 min 0,000 mm 4,4 UV-I 647 W/m² 11,1 °C 18,8 °C 11,3 km/h (2 Bft)
17.05.2017 10:01 19,0 °C 19,0 °C 61 % 1021,3 hPa 0,0 mm 5,4 km/h (1 Bft) NO 44 ° 1 min 0,330 mm 4,4 UV-I 649 W/m² 11,3 °C 19,0 °C 8,0 km/h (2 Bft)
17.05.2017 10:02 19,1 °C 19,1 °C 64 % 1021,2 hPa 0,0 mm 5,4 km/h (1 Bft) O-NO 67 ° 1 min 0,000 mm 4,4 UV-I 654 W/m² 12,1 °C 19,1 °C 8,0 km/h (2 Bft)
17.05.2017 10:03 19,1 °C 19,1 °C 63 % 1021,2 hPa 0,0 mm 4,3 km/h (1 Bft) O 88 ° 1 min 0,000 mm 4,5 UV-I 656 W/m² 11,9 °C 19,1 °C 4,8 km/h (1 Bft)
17.05.2017 10:04 19,1 °C 19,1 °C 59 % 1021,2 hPa 0,0 mm 4,2 km/h (1 Bft) O-NO 71 ° 1 min 0,000 mm 4,5 UV-I 656 W/m² 10,9 °C 19,1 °C 8,0 km/h (2 Bft)
17.05.2017 10:05 19,1 °C 19,1 °C 58 % 1021,2 hPa 0,0 mm 6,5 km/h (2 Bft) O 91 ° 1 min 0,000 mm 4,5 UV-I 659 W/m² 10,6 °C 19,1 °C 8,0 km/h (2 Bft)
17.05.2017 10:06 19,1 °C 19,1 °C 58 % 1021,2 hPa 0,0 mm 7,8 km/h (2 Bft) O-NO 63 ° 1 min 0,000 mm 4,5 UV-I 661 W/m² 10,6 °C 19,1 °C 14,5 km/h (3 Bft)
17.05.2017 10:07 19,0 °C 19,1 °C 58 % 1021,2 hPa 0,0 mm 7,6 km/h (2 Bft) NO 42 ° 1 min 0,000 mm 4,6 UV-I 663 W/m² 10,5 °C 19,0 °C 14,5 km/h (3 Bft)
17.05.2017 10:08 18,9 °C 19,1 °C 57 % 1021,2 hPa 0,0 mm 9,7 km/h (2 Bft) O-NO 70 ° 1 min 0,000 mm 4,6 UV-I 668 W/m² 10,2 °C 18,9 °C 14,5 km/h (3 Bft)
17.05.2017 10:09 18,9 °C 18,9 °C 59 % 1021,2 hPa 0,0 mm 4,7 km/h (1 Bft) NO 36 ° 1 min 0,000 mm 4,6 UV-I 670 W/m² 10,7 °C 18,9 °C 6,4 km/h (2 Bft)
17.05.2017 10:10 19,1 °C 19,1 °C 59 % 1021,2 hPa 0,0 mm 3,7 km/h (1 Bft) O-NO 72 ° 1 min 0,000 mm 4,6 UV-I 671 W/m² 10,9 °C 19,1 °C 4,8 km/h (1 Bft)
17.05.2017 10:11 19,2 °C 19,2 °C 61 % 1021,2 hPa 0,0 mm 3,8 km/h (1 Bft) O 85 ° 1 min 0,000 mm 4,7 UV-I 671 W/m² 11,5 °C 19,2 °C 6,4 km/h (2 Bft)
17.05.2017 10:12 19,1 °C 19,2 °C 57 % 1021,2 hPa 0,0 mm 4,7 km/h (1 Bft) O-NO 62 ° 1 min 0,000 mm 4,7 UV-I 675 W/m² 10,4 °C 19,1 °C 6,4 km/h (2 Bft)
17.05.2017 10:13 19,1 °C 19,1 °C 60 % 1021,2 hPa 0,0 mm 5,9 km/h (2 Bft) NO 49 ° 1 min 0,000 mm 4,7 UV-I 677 W/m² 11,1 °C 19,1 °C 11,3 km/h (2 Bft)
17.05.2017 10:14 19,1 °C 19,1 °C 59 % 1021,2 hPa 0,0 mm 8,9 km/h (2 Bft) NO 42 ° 1 min 0,000 mm 4,7 UV-I 680 W/m² 10,9 °C 19,1 °C 14,5 km/h (3 Bft)
17.05.2017 10:15 19,1 °C 19,1 °C 57 % 1021,2 hPa 0,0 mm 7,8 km/h (2 Bft) O 96 ° 1 min 0,000 mm 4,8 UV-I 684 W/m² 10,4 °C 19,1 °C 11,3 km/h (2 Bft)
17.05.2017 10:16 18,9 °C 19,1 °C 56 % 1021,2 hPa 0,0 mm 10,6 km/h (2 Bft) O-NO 76 ° 1 min 0,000 mm 4,8 UV-I 684 W/m² 9,9 °C 18,9 °C 17,7 km/h (3 Bft)
17.05.2017 10:17 18,9 °C 18,9 °C 59 % 1021,1 hPa 0,0 mm 5,9 km/h (2 Bft) O 92 ° 1 min 0,000 mm 4,8 UV-I 686 W/m² 10,7 °C 18,9 °C 14,5 km/h (3 Bft)
17.05.2017 10:18 18,9 °C 18,9 °C 57 % 1021,1 hPa 0,0 mm 3,4 km/h (1 Bft) O-NO 67 ° 1 min 0,000 mm 4,8 UV-I 689 W/m² 10,2 °C 18,9 °C 6,4 km/h (2 Bft)
17.05.2017 10:19 18,9 °C 18,9 °C 57 % 1021,2 hPa 0,0 mm 9,9 km/h (2 Bft) O-NO 68 ° 1 min 0,000 mm 4,8 UV-I 691 W/m² 10,2 °C 18,9 °C 14,5 km/h (3 Bft)
17.05.2017 10:20 19,0 °C 19,0 °C 60 % 1021,1 hPa 0,0 mm 2,9 km/h (1 Bft) NO 51 ° 1 min 0,000 mm 4,9 UV-I 693 W/m² 11,1 °C 19,0 °C 4,8 km/h (1 Bft)
17.05.2017 10:21 19,2 °C 19,2 °C 59 % 1021,1 hPa 0,0 mm 2,9 km/h (1 Bft) N 5 ° 1 min 0,000 mm 4,9 UV-I 696 W/m² 11,0 °C 19,2 °C 6,4 km/h (2 Bft)
17.05.2017 10:22 19,4 °C 19,4 °C 59 % 1021,1 hPa 0,0 mm 5,8 km/h (2 Bft) O-NO 61 ° 1 min 0,000 mm 4,9 UV-I 698 W/m² 11,2 °C 19,4 °C 8,0 km/h (2 Bft)
17.05.2017 10:23 19,4 °C 19,4 °C 57 % 1021,1 hPa 0,0 mm 7,1 km/h (2 Bft) O-NO 75 ° 1 min 0,000 mm 4,9 UV-I 701 W/m² 10,7 °C 19,4 °C 9,7 km/h (2 Bft)
17.05.2017 10:24 19,4 °C 19,4 °C 59 % 1021,1 hPa 0,0 mm 4,1 km/h (1 Bft) O-NO 74 ° 1 min 0,000 mm 5,0 UV-I 701 W/m² 11,2 °C 19,4 °C 6,4 km/h (2 Bft)
17.05.2017 10:25 19,4 °C 19,4 °C 58 % 1021,1 hPa 0,0 mm 8,4 km/h (2 Bft) N-NO 29 ° 1 min 0,000 mm 5,0 UV-I 703 W/m² 10,9 °C 19,4 °C 12,9 km/h (3 Bft)
17.05.2017 10:26 19,4 °C 19,4 °C 58 % 1021,1 hPa 0,0 mm 8,0 km/h (2 Bft) N-NO 29 ° 1 min 0,000 mm 5,0 UV-I 708 W/m² 10,9 °C 19,4 °C 12,9 km/h (3 Bft)
17.05.2017 10:27 19,4 °C 19,4 °C 54 % 1021,1 hPa 0,0 mm 8,3 km/h (2 Bft) O-NO 74 ° 1 min 0,000 mm 5,0 UV-I 710 W/m² 9,8 °C 19,4 °C 11,3 km/h (2 Bft)
17.05.2017 10:28 19,4 °C 19,4 °C 56 % 1021,1 hPa 0,0 mm 4,4 km/h (1 Bft) O-NO 76 ° 1 min 0,000 mm 5,1 UV-I 710 W/m² 10,4 °C 19,4 °C 11,3 km/h (2 Bft)
17.05.2017 10:29 19,4 °C 19,4 °C 55 % 1021,1 hPa 0,0 mm 5,3 km/h (1 Bft) O 82 ° 1 min 0,000 mm 5,1 UV-I 712 W/m² 10,1 °C 19,4 °C 9,7 km/h (2 Bft)
17.05.2017 10:30 19,5 °C 19,5 °C 58 % 1021,1 hPa 0,0 mm 5,5 km/h (1 Bft) O-SO 103 ° 1 min 0,000 mm 5,1 UV-I 714 W/m² 11,0 °C 19,5 °C 14,5 km/h (3 Bft)
17.05.2017 10:31 19,6 °C 19,6 °C 57 % 1021,0 hPa 0,0 mm 8,6 km/h (2 Bft) O 84 ° 1 min 0,000 mm 5,1 UV-I 719 W/m² 10,8 °C 19,6 °C 11,3 km/h (2 Bft)
17.05.2017 10:32 19,5 °C 19,6 °C 60 % 1021,1 hPa 0,0 mm 5,6 km/h (1 Bft) O-SO 102 ° 1 min 0,000 mm 5,2 UV-I 719 W/m² 11,5 °C 19,5 °C 8,0 km/h (2 Bft)
17.05.2017 10:33 19,4 °C 19,5 °C 57 % 1021,1 hPa 0,0 mm 4,4 km/h (1 Bft) O 82 ° 1 min 0,000 mm 5,2 UV-I 721 W/m² 10,7 °C 19,4 °C 6,4 km/h (2 Bft)
17.05.2017 10:34 19,2 °C 19,4 °C 57 % 1021,1 hPa 0,0 mm 6,5 km/h (2 Bft) O-NO 65 ° 1 min 0,000 mm 5,2 UV-I 724 W/m² 10,5 °C 19,2 °C 11,3 km/h (2 Bft)
17.05.2017 10:35 19,2 °C 19,2 °C 57 % 1021,1 hPa 0,0 mm 5,6 km/h (1 Bft) NO 42 ° 1 min 0,000 mm 5,2 UV-I 724 W/m² 10,5 °C 19,2 °C 9,7 km/h (2 Bft)
17.05.2017 10:36 19,1 °C 19,2 °C 57 % 1021,1 hPa 0,0 mm 7,2 km/h (2 Bft) N 11 ° 1 min 0,000 mm 5,2 UV-I 728 W/m² 10,4 °C 19,1 °C 11,3 km/h (2 Bft)
17.05.2017 10:37 19,2 °C 19,2 °C 62 % 1021,1 hPa 0,0 mm 3,7 km/h (1 Bft) NO 44 ° 1 min 0,000 mm 5,3 UV-I 729 W/m² 11,7 °C 19,2 °C 6,4 km/h (2 Bft)
17.05.2017 10:38 19,2 °C 19,2 °C 57 % 1021,1 hPa 0,0 mm 5,1 km/h (1 Bft) NO 36 ° 1 min 0,000 mm 5,3 UV-I 731 W/m² 10,5 °C 19,2 °C 8,0 km/h (2 Bft)
17.05.2017 10:39 19,2 °C 19,2 °C 58 % 1021,0 hPa 0,0 mm 3,6 km/h (1 Bft) NO 36 ° 1 min 0,000 mm 5,3 UV-I 733 W/m² 10,7 °C 19,2 °C 4,8 km/h (1 Bft)
17.05.2017 10:40 19,3 °C 19,3 °C 57 % 1021,0 hPa 0,0 mm 7,6 km/h (2 Bft) NO 40 ° 1 min 0,000 mm 5,3 UV-I 737 W/m² 10,6 °C 19,3 °C 14,5 km/h (3 Bft)
17.05.2017 10:41 19,4 °C 19,4 °C 62 % 1021,1 hPa 0,0 mm 8,6 km/h (2 Bft) NO 36 ° 1 min 0,000 mm 5,4 UV-I 737 W/m² 11,9 °C 19,4 °C 14,5 km/h (3 Bft)
17.05.2017 10:42 19,4 °C 19,4 °C 58 % 1021,0 hPa 0,0 mm 4,9 km/h (1 Bft) NO 48 ° 1 min 0,000 mm 5,4 UV-I 740 W/m² 10,9 °C 19,4 °C 8,0 km/h (2 Bft)
17.05.2017 10:43 19,4 °C 19,4 °C 56 % 1021,0 hPa 0,0 mm 5,1 km/h (1 Bft) O 84 ° 1 min 0,000 mm 5,4 UV-I 742 W/m² 10,4 °C 19,4 °C 6,4 km/h (2 Bft)
17.05.2017 10:44 19,4 °C 19,4 °C 57 % 1021,0 hPa 0,0 mm 3,8 km/h (1 Bft) O-NO 63 ° 1 min 0,000 mm 5,4 UV-I 744 W/m² 10,7 °C 19,4 °C 4,8 km/h (1 Bft)
17.05.2017 10:45 19,3 °C 19,4 °C 56 % 1021,1 hPa 0,0 mm 5,7 km/h (1 Bft) NO 53 ° 1 min 0,000 mm 5,5 UV-I 745 W/m² 10,3 °C 19,3 °C 8,0 km/h (2 Bft)
17.05.2017 10:46 19,4 °C 19,4 °C 56 % 1021,1 hPa 0,0 mm 4,0 km/h (1 Bft) NO 49 ° 1 min 0,000 mm 5,5 UV-I 745 W/m² 10,4 °C 19,4 °C 8,0 km/h (2 Bft)
17.05.2017 10:47 19,6 °C 19,6 °C 61 % 1021,0 hPa 0,0 mm 5,2 km/h (1 Bft) NO 48 ° 1 min 0,000 mm 5,5 UV-I 747 W/m² 11,9 °C 19,6 °C 9,7 km/h (2 Bft)
17.05.2017 10:48 19,6 °C 19,7 °C 57 % 1021,0 hPa 0,0 mm 6,8 km/h (2 Bft) O-NO 74 ° 1 min 0,000 mm 5,5 UV-I 749 W/m² 10,8 °C 19,6 °C 14,5 km/h (3 Bft)
17.05.2017 10:49 19,6 °C 19,7 °C 56 % 1021,0 hPa 0,0 mm 5,8 km/h (2 Bft) O-NO 57 ° 1 min 0,000 mm 5,5 UV-I 754 W/m² 10,6 °C 19,6 °C 8,0 km/h (2 Bft)
17.05.2017 10:50 19,6 °C 19,6 °C 56 % 1021,0 hPa 0,0 mm 5,7 km/h (1 Bft) O-NO 76 ° 1 min 0,000 mm 5,6 UV-I 756 W/m² 10,6 °C 19,6 °C 11,3 km/h (2 Bft)
17.05.2017 10:51 19,5 °C 19,6 °C 54 % 1021,0 hPa 0,0 mm 7,6 km/h (2 Bft) O 97 ° 1 min 0,000 mm 5,6 UV-I 758 W/m² 9,9 °C 19,5 °C 12,9 km/h (3 Bft)
17.05.2017 10:52 19,5 °C 19,6 °C 58 % 1021,0 hPa 0,0 mm 3,8 km/h (1 Bft) O-NO 69 ° 1 min 0,000 mm 5,6 UV-I 758 W/m² 11,0 °C 19,5 °C 6,4 km/h (2 Bft)
17.05.2017 10:53 19,6 °C 19,6 °C 58 % 1020,9 hPa 0,0 mm 4,8 km/h (1 Bft) NO 52 ° 1 min 0,000 mm 5,6 UV-I 759 W/m² 11,1 °C 19,6 °C 6,4 km/h (2 Bft)
17.05.2017 10:54 19,7 °C 19,7 °C 56 % 1020,9 hPa 0,0 mm 10,1 km/h (2 Bft) O-SO 121 ° 1 min 0,000 mm 5,6 UV-I 761 W/m² 10,7 °C 19,7 °C 12,9 km/h (3 Bft)
17.05.2017 10:55 19,6 °C 19,7 °C 55 % 1020,8 hPa 0,0 mm 4,9 km/h (1 Bft) O-NO 74 ° 1 min 0,000 mm 5,7 UV-I 763 W/m² 10,3 °C 19,6 °C 6,4 km/h (2 Bft)
17.05.2017 10:56 19,7 °C 19,7 °C 57 % 1020,9 hPa 0,0 mm 3,4 km/h (1 Bft) NO 53 ° 1 min 0,000 mm 5,7 UV-I 765 W/m² 10,9 °C 19,7 °C 4,8 km/h (1 Bft)
17.05.2017 10:57 19,7 °C 19,7 °C 58 % 1020,9 hPa 0,0 mm 4,0 km/h (1 Bft) O-NO 67 ° 1 min 0,000 mm 5,7 UV-I 766 W/m² 11,2 °C 19,7 °C 8,0 km/h (2 Bft)
17.05.2017 10:58 19,7 °C 19,7 °C 57 % 1020,8 hPa 0,0 mm 11,2 km/h (2 Bft) N-NO 32 ° 1 min 0,000 mm 5,7 UV-I 766 W/m² 10,9 °C 19,7 °C 16,1 km/h (3 Bft)
17.05.2017 10:59 19,7 °C 19,7 °C 55 % 1020,8 hPa 0,0 mm 7,8 km/h (2 Bft) O-NO 74 ° 1 min 0,000 mm 5,8 UV-I 770 W/m² 10,4 °C 19,7 °C 14,5 km/h (3 Bft)
17.05.2017 11:00 19,7 °C 19,7 °C 59 % 1020,8 hPa 0,0 mm 7,8 km/h (2 Bft) N-NO 28 ° 1 min 0,000 mm 5,8 UV-I 770 W/m² 11,5 °C 19,7 °C 14,5 km/h (3 Bft)
17.05.2017 11:01 19,7 °C 19,7 °C 57 % 1020,8 hPa 0,0 mm 4,1 km/h (1 Bft) NO 41 ° 1 min 0,432 mm 5,8 UV-I 770 W/m² 10,9 °C 19,7 °C 6,4 km/h (2 Bft)
17.05.2017 11:02 19,7 °C 19,7 °C 57 % 1020,8 hPa 0,0 mm 6,4 km/h (2 Bft) N-NO 24 ° 1 min 0,000 mm 5,8 UV-I 773 W/m² 10,9 °C 19,7 °C 16,1 km/h (3 Bft)
17.05.2017 11:03 19,7 °C 19,7 °C 56 % 1020,8 hPa 0,0 mm 11,5 km/h (2 Bft) O-NO 63 ° 1 min 0,000 mm 5,8 UV-I 775 W/m² 10,7 °C 19,7 °C 14,5 km/h (3 Bft)
17.05.2017 11:04 19,7 °C 19,8 °C 56 % 1020,8 hPa 0,0 mm 9,6 km/h (2 Bft) NO 45 ° 1 min 0,000 mm 5,8 UV-I 777 W/m² 10,7 °C 19,7 °C 12,9 km/h (3 Bft)
17.05.2017 11:05 19,8 °C 19,8 °C 57 % 1020,8 hPa 0,0 mm 6,6 km/h (2 Bft) N-NO 26 ° 1 min 0,000 mm 5,8 UV-I 779 W/m² 11,0 °C 19,8 °C 11,3 km/h (2 Bft)
17.05.2017 11:06 19,8 °C 19,8 °C 56 % 1020,8 hPa 0,0 mm 6,6 km/h (2 Bft) O 98 ° 1 min 0,000 mm 5,9 UV-I 780 W/m² 10,8 °C 19,8 °C 9,7 km/h (2 Bft)
17.05.2017 11:07 19,8 °C 19,8 °C 57 % 1020,8 hPa 0,0 mm 9,3 km/h (2 Bft) NO 40 ° 1 min 0,000 mm 5,9 UV-I 784 W/m² 11,0 °C 19,8 °C 12,9 km/h (3 Bft)
17.05.2017 11:08 19,7 °C 19,8 °C 58 % 1020,8 hPa 0,0 mm 6,4 km/h (2 Bft) O-NO 61 ° 1 min 0,000 mm 5,9 UV-I 786 W/m² 11,2 °C 19,7 °C 11,3 km/h (2 Bft)
17.05.2017 11:09 19,7 °C 19,7 °C 60 % 1020,8 hPa 0,0 mm 10,3 km/h (2 Bft) O-NO 71 ° 1 min 0,000 mm 5,9 UV-I 788 W/m² 11,7 °C 19,7 °C 14,5 km/h (3 Bft)
17.05.2017 11:10 19,7 °C 19,7 °C 58 % 1020,8 hPa 0,0 mm 6,2 km/h (2 Bft) N-NO 27 ° 1 min 0,000 mm 5,9 UV-I 788 W/m² 11,2 °C 19,7 °C 9,7 km/h (2 Bft)
17.05.2017 11:11 19,7 °C 19,7 °C 58 % 1020,7 hPa 0,0 mm 6,8 km/h (2 Bft) N-NO 19 ° 1 min 0,000 mm 6,0 UV-I 791 W/m² 11,2 °C 19,7 °C 11,3 km/h (2 Bft)
17.05.2017 11:12 19,8 °C 19,8 °C 60 % 1020,7 hPa 0,0 mm 6,0 km/h (2 Bft) NO 34 ° 1 min 0,000 mm 6,0 UV-I 793 W/m² 11,8 °C 19,8 °C 12,9 km/h (3 Bft)
17.05.2017 11:13 19,8 °C 19,8 °C 57 % 1020,7 hPa 0,0 mm 6,4 km/h (2 Bft) NO 54 ° 1 min 0,000 mm 6,0 UV-I 793 W/m² 11,0 °C 19,8 °C 12,9 km/h (3 Bft)
17.05.2017 11:14 19,9 °C 19,9 °C 59 % 1020,7 hPa 0,0 mm 2,2 km/h (1 Bft) NO 37 ° 1 min 0,000 mm 6,0 UV-I 795 W/m² 11,6 °C 19,9 °C 3,2 km/h (1 Bft)
17.05.2017 11:15 20,0 °C 20,0 °C 62 % 1020,7 hPa 0,0 mm 9,3 km/h (2 Bft) NO 41 ° 1 min 0,000 mm 6,0 UV-I 795 W/m² 12,5 °C 20,0 °C 14,5 km/h (3 Bft)
17.05.2017 11:16 20,0 °C 20,1 °C 57 % 1020,7 hPa 0,0 mm 8,2 km/h (2 Bft) NO 45 ° 1 min 0,000 mm 6,1 UV-I 798 W/m² 11,2 °C 20,0 °C 12,9 km/h (3 Bft)
17.05.2017 11:17 20,0 °C 20,0 °C 58 % 1020,6 hPa 0,0 mm 7,0 km/h (2 Bft) O-NO 76 ° 1 min 0,000 mm 6,1 UV-I 800 W/m² 11,5 °C 20,0 °C 11,3 km/h (2 Bft)
17.05.2017 11:18 20,1 °C 20,1 °C 58 % 1020,6 hPa 0,0 mm 5,7 km/h (1 Bft) N-NO 20 ° 1 min 0,000 mm 6,1 UV-I 800 W/m² 11,6 °C 20,1 °C 8,0 km/h (2 Bft)
17.05.2017 11:19 20,0 °C 20,1 °C 59 % 1020,6 hPa 0,0 mm 5,1 km/h (1 Bft) NO 36 ° 1 min 0,000 mm 6,1 UV-I 803 W/m² 11,7 °C 20,0 °C 8,0 km/h (2 Bft)
17.05.2017 11:20 19,9 °C 20,0 °C 60 % 1020,6 hPa 0,0 mm 8,9 km/h (2 Bft) N-NO 15 ° 1 min 0,000 mm 6,1 UV-I 802 W/m² 11,9 °C 19,9 °C 14,5 km/h (3 Bft)
17.05.2017 11:21 19,9 °C 19,9 °C 57 % 1020,6 hPa 0,0 mm 6,4 km/h (2 Bft) O-NO 59 ° 1 min 0,000 mm 6,1 UV-I 805 W/m² 11,1 °C 19,9 °C 11,3 km/h (2 Bft)
17.05.2017 11:22 19,8 °C 19,9 °C 58 % 1020,6 hPa 0,0 mm 6,8 km/h (2 Bft) NO 44 ° 1 min 0,000 mm 6,2 UV-I 807 W/m² 11,3 °C 19,8 °C 12,9 km/h (3 Bft)
17.05.2017 11:23 19,9 °C 19,9 °C 58 % 1020,5 hPa 0,0 mm 7,9 km/h (2 Bft) NO 47 ° 1 min 0,000 mm 6,2 UV-I 809 W/m² 11,4 °C 19,9 °C 14,5 km/h (3 Bft)
17.05.2017 11:24 19,9 °C 19,9 °C 61 % 1020,5 hPa 0,0 mm 10,8 km/h (2 Bft) N 11 ° 1 min 0,000 mm 6,2 UV-I 809 W/m² 12,2 °C 19,9 °C 17,7 km/h (3 Bft)
17.05.2017 11:25 20,0 °C 20,0 °C 58 % 1020,5 hPa 0,0 mm 9,8 km/h (2 Bft) NO 42 ° 1 min 0,000 mm 6,2 UV-I 810 W/m² 11,5 °C 20,0 °C 12,9 km/h (3 Bft)
17.05.2017 11:26 20,1 °C 20,1 °C 59 % 1020,5 hPa 0,0 mm 9,9 km/h (2 Bft) O 85 ° 1 min 0,000 mm 6,2 UV-I 812 W/m² 11,8 °C 20,1 °C 14,5 km/h (3 Bft)
17.05.2017 11:27 20,1 °C 20,1 °C 59 % 1020,5 hPa 0,0 mm 3,9 km/h (1 Bft) O-NO 63 ° 1 min 0,000 mm 6,3 UV-I 814 W/m² 11,8 °C 20,1 °C 8,0 km/h (2 Bft)
17.05.2017 11:28 20,1 °C 20,1 °C 58 % 1020,5 hPa 0,0 mm 9,1 km/h (2 Bft) O 84 ° 1 min 0,000 mm 6,3 UV-I 816 W/m² 11,6 °C 20,1 °C 14,5 km/h (3 Bft)
17.05.2017 11:29 19,9 °C 20,1 °C 57 % 1020,5 hPa 0,0 mm 9,3 km/h (2 Bft) O-NO 69 ° 1 min 0,000 mm 6,3 UV-I 816 W/m² 11,1 °C 19,9 °C 14,5 km/h (3 Bft)
17.05.2017 11:30 20,0 °C 20,0 °C 58 % 1020,4 hPa 0,0 mm 5,7 km/h (1 Bft) NO 42 ° 1 min 0,000 mm 6,3 UV-I 819 W/m² 11,5 °C 20,0 °C 8,0 km/h (2 Bft)
17.05.2017 11:31 20,2 °C 20,2 °C 60 % 1020,4 hPa 0,0 mm 7,1 km/h (2 Bft) O-SO 117 ° 1 min 0,000 mm 6,3 UV-I 819 W/m² 12,2 °C 20,2 °C 16,1 km/h (3 Bft)
17.05.2017 11:32 20,2 °C 20,2 °C 58 % 1020,3 hPa 0,0 mm 12,3 km/h (3 Bft) NO 53 ° 1 min 0,000 mm 6,3 UV-I 821 W/m² 11,7 °C 20,2 °C 14,5 km/h (3 Bft)
17.05.2017 11:33 20,1 °C 20,2 °C 60 % 1020,3 hPa 0,0 mm 3,6 km/h (1 Bft) O-NO 59 ° 1 min 0,000 mm 6,3 UV-I 821 W/m² 12,1 °C 20,1 °C 6,4 km/h (2 Bft)
17.05.2017 11:34 20,1 °C 20,1 °C 59 % 1020,4 hPa 0,0 mm 4,1 km/h (1 Bft) O-NO 76 ° 1 min 0,000 mm 6,4 UV-I 824 W/m² 11,8 °C 20,1 °C 6,4 km/h (2 Bft)
17.05.2017 11:35 20,2 °C 20,2 °C 61 % 1020,4 hPa 0,0 mm 3,7 km/h (1 Bft) N-NO 24 ° 1 min 0,000 mm 6,4 UV-I 824 W/m² 12,4 °C 20,2 °C 4,8 km/h (1 Bft)
17.05.2017 11:36 20,3 °C 20,3 °C 58 % 1020,4 hPa 0,0 mm 2,8 km/h (1 Bft) N-NO 15 ° 1 min 0,000 mm 6,4 UV-I 824 W/m² 11,8 °C 20,3 °C 4,8 km/h (1 Bft)
17.05.2017 11:37 20,4 °C 20,4 °C 58 % 1020,3 hPa 0,0 mm 4,6 km/h (1 Bft) N 5 ° 1 min 0,000 mm 6,4 UV-I 826 W/m² 11,9 °C 20,4 °C 6,4 km/h (2 Bft)
17.05.2017 11:38 20,5 °C 20,5 °C 60 % 1020,3 hPa 0,0 mm 6,3 km/h (2 Bft) O 91 ° 1 min 0,000 mm 6,5 UV-I 828 W/m² 12,5 °C 20,5 °C 11,3 km/h (2 Bft)
17.05.2017 11:39 20,4 °C 20,6 °C 56 % 1020,3 hPa 0,0 mm 7,1 km/h (2 Bft) O-NO 67 ° 1 min 0,000 mm 6,5 UV-I 830 W/m² 11,3 °C 20,4 °C 9,7 km/h (2 Bft)
17.05.2017 11:40 20,4 °C 20,4 °C 59 % 1020,3 hPa 0,0 mm 9,9 km/h (2 Bft) O 93 ° 1 min 0,000 mm 6,5 UV-I 830 W/m² 12,1 °C 20,4 °C 14,5 km/h (3 Bft)
17.05.2017 11:41 20,3 °C 20,4 °C 59 % 1020,3 hPa 0,0 mm 8,5 km/h (2 Bft) O 96 ° 1 min 0,000 mm 6,5 UV-I 831 W/m² 12,0 °C 20,3 °C 11,3 km/h (2 Bft)
17.05.2017 11:42 20,3 °C 20,3 °C 60 % 1020,3 hPa 0,0 mm 6,2 km/h (2 Bft) NO 46 ° 1 min 0,000 mm 6,5 UV-I 831 W/m² 12,3 °C 20,3 °C 11,3 km/h (2 Bft)
17.05.2017 11:43 20,4 °C 20,4 °C 61 % 1020,3 hPa 0,0 mm 5,6 km/h (1 Bft) N-NO 25 ° 1 min 0,000 mm 6,5 UV-I 833 W/m² 12,6 °C 20,4 °C 8,0 km/h (2 Bft)
17.05.2017 11:44 20,5 °C 20,5 °C 60 % 1020,1 hPa 0,0 mm 4,8 km/h (1 Bft) O 82 ° 1 min 0,000 mm 6,5 UV-I 835 W/m² 12,5 °C 20,5 °C 6,4 km/h (2 Bft)
17.05.2017 11:45 20,4 °C 20,5 °C 62 % 1020,2 hPa 0,0 mm 4,7 km/h (1 Bft) N 5 ° 1 min 0,000 mm 6,6 UV-I 835 W/m² 12,9 °C 20,4 °C 8,0 km/h (2 Bft)
17.05.2017 11:46 20,4 °C 20,5 °C 63 % 1020,2 hPa 0,0 mm 5,6 km/h (1 Bft) N-NO 25 ° 1 min 0,000 mm 6,6 UV-I 837 W/m² 13,1 °C 20,4 °C 8,0 km/h (2 Bft)
17.05.2017 11:47 20,6 °C 20,6 °C 60 % 1020,3 hPa 0,0 mm 8,5 km/h (2 Bft) N 11 ° 1 min 0,000 mm 6,6 UV-I 842 W/m² 12,6 °C 20,6 °C 11,3 km/h (2 Bft)
17.05.2017 11:48 20,7 °C 20,7 °C 62 % 1020,2 hPa 0,0 mm 3,7 km/h (1 Bft) N-NW 344 ° 1 min 0,000 mm 6,6 UV-I 840 W/m² 13,2 °C 20,7 °C 6,4 km/h (2 Bft)
17.05.2017 11:49 20,7 °C 20,7 °C 65 % 1020,2 hPa 0,0 mm 4,8 km/h (1 Bft) O-NO 62 ° 1 min 0,000 mm 6,6 UV-I 844 W/m² 13,9 °C 20,7 °C 12,9 km/h (3 Bft)
17.05.2017 11:50 20,7 °C 20,7 °C 60 % 1020,2 hPa 0,0 mm 5,5 km/h (1 Bft) N-NO 15 ° 1 min 0,000 mm 6,7 UV-I 846 W/m² 12,7 °C 20,7 °C 11,3 km/h (2 Bft)
17.05.2017 11:51 20,7 °C 20,7 °C 60 % 1020,1 hPa 0,0 mm 4,8 km/h (1 Bft) O-NO 69 ° 1 min 0,000 mm 6,7 UV-I 846 W/m² 12,7 °C 20,7 °C 9,7 km/h (2 Bft)
17.05.2017 11:52 20,8 °C 20,8 °C 60 % 1020,2 hPa 0,0 mm 7,1 km/h (2 Bft) N-NO 22 ° 1 min 0,000 mm 6,7 UV-I 847 W/m² 12,7 °C 20,8 °C 9,7 km/h (2 Bft)
17.05.2017 11:53 20,7 °C 20,8 °C 57 % 1020,2 hPa 0,0 mm 9,3 km/h (2 Bft) N-NO 31 ° 1 min 0,000 mm 6,7 UV-I 846 W/m² 11,9 °C 20,7 °C 14,5 km/h (3 Bft)
17.05.2017 11:54 20,7 °C 20,7 °C 57 % 1020,1 hPa 0,0 mm 3,7 km/h (1 Bft) N-NO 17 ° 1 min 0,000 mm 6,7 UV-I 849 W/m² 11,9 °C 20,7 °C 8,0 km/h (2 Bft)
17.05.2017 11:55 20,6 °C 20,7 °C 60 % 1020,1 hPa 0,0 mm 5,1 km/h (1 Bft) O-NO 71 ° 1 min 0,000 mm 6,7 UV-I 851 W/m² 12,6 °C 20,6 °C 8,0 km/h (2 Bft)
17.05.2017 11:56 20,7 °C 20,7 °C 61 % 1020,1 hPa 0,0 mm 8,2 km/h (2 Bft) NO 48 ° 1 min 0,000 mm 6,7 UV-I 851 W/m² 12,9 °C 20,7 °C 11,3 km/h (2 Bft)
17.05.2017 11:57 20,8 °C 20,8 °C 59 % 1020,1 hPa 0,0 mm 7,6 km/h (2 Bft) NO 49 ° 1 min 0,000 mm 6,7 UV-I 851 W/m² 12,5 °C 20,8 °C 9,7 km/h (2 Bft)
17.05.2017 11:58 20,8 °C 20,8 °C 58 % 1020,1 hPa 0,0 mm 6,1 km/h (2 Bft) NO 46 ° 1 min 0,000 mm 6,8 UV-I 853 W/m² 12,2 °C 20,8 °C 11,3 km/h (2 Bft)
17.05.2017 11:59 20,8 °C 20,8 °C 60 % 1020,1 hPa 0,0 mm 8,3 km/h (2 Bft) NO 53 ° 1 min 0,000 mm 6,8 UV-I 853 W/m² 12,7 °C 20,8 °C 16,1 km/h (3 Bft)
17.05.2017 12:00 20,7 °C 20,8 °C 60 % 1020,1 hPa 0,0 mm 9,7 km/h (2 Bft) O 81 ° 1 min 0,508 mm 6,8 UV-I 854 W/m² 12,7 °C 20,7 °C 17,7 km/h (3 Bft)
17.05.2017 12:01 20,7 °C 20,7 °C 60 % 1020,1 hPa 0,0 mm 7,0 km/h (2 Bft) O 80 ° 1 min 0,000 mm 6,8 UV-I 856 W/m² 12,7 °C 20,7 °C 9,7 km/h (2 Bft)
17.05.2017 12:02 20,7 °C 20,8 °C 60 % 1020,1 hPa 0,0 mm 6,1 km/h (2 Bft) O 86 ° 1 min 0,000 mm 6,8 UV-I 856 W/m² 12,7 °C 20,7 °C 8,0 km/h (2 Bft)
17.05.2017 12:03 20,6 °C 20,7 °C 58 % 1020,1 hPa 0,0 mm 4,9 km/h (1 Bft) N-NW 342 ° 1 min 0,000 mm 6,8 UV-I 858 W/m² 12,0 °C 20,6 °C 8,0 km/h (2 Bft)
17.05.2017 12:04 20,6 °C 20,6 °C 58 % 1020,1 hPa 0,0 mm 3,8 km/h (1 Bft) O-NO 60 ° 1 min 0,000 mm 6,8 UV-I 858 W/m² 12,0 °C 20,6 °C 8,0 km/h (2 Bft)
17.05.2017 12:05 20,6 °C 20,6 °C 59 % 1020,0 hPa 0,0 mm 3,3 km/h (1 Bft) O-NO 61 ° 1 min 0,000 mm 6,8 UV-I 858 W/m² 12,3 °C 20,6 °C 12,9 km/h (3 Bft)
17.05.2017 12:06 20,6 °C 20,6 °C 59 % 1020,0 hPa 0,0 mm 9,3 km/h (2 Bft) N 350 ° 1 min 0,000 mm 6,8 UV-I 856 W/m² 12,3 °C 20,6 °C 14,5 km/h (3 Bft)
17.05.2017 12:07 20,7 °C 20,7 °C 58 % 1020,0 hPa 0,0 mm 9,2 km/h (2 Bft) N-NO 25 ° 1 min 0,000 mm 6,8 UV-I 858 W/m² 12,1 °C 20,7 °C 14,5 km/h (3 Bft)
17.05.2017 12:08 20,7 °C 20,7 °C 57 % 1020,0 hPa 0,0 mm 8,3 km/h (2 Bft) NO 36 ° 1 min 0,000 mm 6,9 UV-I 861 W/m² 11,9 °C 20,7 °C 11,3 km/h (2 Bft)
17.05.2017 12:09 20,7 °C 20,7 °C 56 % 1019,9 hPa 0,0 mm 6,0 km/h (2 Bft) N-NO 21 ° 1 min 0,000 mm 6,9 UV-I 861 W/m² 11,6 °C 20,7 °C 8,0 km/h (2 Bft)
17.05.2017 12:10 20,7 °C 20,8 °C 57 % 1019,9 hPa 0,0 mm 5,1 km/h (1 Bft) O-NO 76 ° 1 min 0,000 mm 6,9 UV-I 863 W/m² 11,9 °C 20,7 °C 9,7 km/h (2 Bft)
17.05.2017 12:11 20,9 °C 20,9 °C 61 % 1019,9 hPa 0,0 mm 12,5 km/h (3 Bft) N-NO 21 ° 1 min 0,000 mm 6,9 UV-I 863 W/m² 13,1 °C 20,9 °C 17,7 km/h (3 Bft)
17.05.2017 12:12 20,9 °C 20,9 °C 57 % 1019,9 hPa 0,0 mm 8,5 km/h (2 Bft) NO 39 ° 1 min 0,000 mm 6,9 UV-I 865 W/m² 12,1 °C 20,9 °C 16,1 km/h (3 Bft)
17.05.2017 12:13 20,9 °C 20,9 °C 56 % 1019,9 hPa 0,0 mm 7,2 km/h (2 Bft) NO 39 ° 1 min 0,000 mm 6,9 UV-I 867 W/m² 11,8 °C 20,9 °C 11,3 km/h (2 Bft)
17.05.2017 12:14 21,0 °C 21,0 °C 62 % 1019,9 hPa 0,0 mm 5,8 km/h (2 Bft) NO 49 ° 1 min 0,000 mm 6,9 UV-I 867 W/m² 13,4 °C 21,0 °C 11,3 km/h (2 Bft)
17.05.2017 12:15 21,1 °C 21,1 °C 62 % 1019,8 hPa 0,0 mm 7,5 km/h (2 Bft) O-NO 78 ° 1 min 0,000 mm 7,0 UV-I 865 W/m² 13,5 °C 21,1 °C 12,9 km/h (3 Bft)
17.05.2017 12:16 21,1 °C 21,1 °C 60 % 1019,8 hPa 0,0 mm 8,0 km/h (2 Bft) O-NO 62 ° 1 min 0,000 mm 7,0 UV-I 868 W/m² 13,0 °C 21,1 °C 12,9 km/h (3 Bft)
17.05.2017 12:17 21,1 °C 21,1 °C 56 % 1019,8 hPa 0,0 mm 8,4 km/h (2 Bft) NO 51 ° 1 min 0,000 mm 7,0 UV-I 868 W/m² 12,0 °C 21,1 °C 14,5 km/h (3 Bft)
17.05.2017 12:18 21,2 °C 21,2 °C 56 % 1019,9 hPa 0,0 mm 7,7 km/h (2 Bft) N-NO 26 ° 1 min 0,000 mm 7,0 UV-I 870 W/m² 12,1 °C 21,2 °C 11,3 km/h (2 Bft)
17.05.2017 12:19 21,2 °C 21,2 °C 56 % 1019,8 hPa 0,0 mm 8,0 km/h (2 Bft) O 79 ° 1 min 0,000 mm 7,0 UV-I 870 W/m² 12,1 °C 21,2 °C 14,5 km/h (3 Bft)
17.05.2017 12:20 21,1 °C 21,2 °C 56 % 1019,8 hPa 0,0 mm 8,3 km/h (2 Bft) O-NO 69 ° 1 min 0,000 mm 7,0 UV-I 872 W/m² 12,0 °C 21,1 °C 12,9 km/h (3 Bft)
17.05.2017 12:21 21,0 °C 21,1 °C 52 % 1019,8 hPa 0,0 mm 9,1 km/h (2 Bft) O 80 ° 1 min 0,000 mm 7,0 UV-I 872 W/m² 10,8 °C 21,0 °C 14,5 km/h (3 Bft)
17.05.2017 12:22 20,9 °C 21,0 °C 52 % 1019,8 hPa 0,0 mm 12,2 km/h (2 Bft) O-NO 62 ° 1 min 0,000 mm 7,0 UV-I 874 W/m² 10,7 °C 20,9 °C 16,1 km/h (3 Bft)
17.05.2017 12:23 21,1 °C 21,1 °C 54 % 1019,8 hPa 0,0 mm 9,4 km/h (2 Bft) N-NO 25 ° 1 min 0,000 mm 7,0 UV-I 874 W/m² 11,4 °C 21,1 °C 14,5 km/h (3 Bft)
17.05.2017 12:24 21,1 °C 21,1 °C 52 % 1019,8 hPa 0,0 mm 8,5 km/h (2 Bft) N-NO 26 ° 1 min 0,000 mm 7,1 UV-I 875 W/m² 10,9 °C 21,1 °C 16,1 km/h (3 Bft)
17.05.2017 12:25 21,1 °C 21,2 °C 52 % 1019,8 hPa 0,0 mm 8,1 km/h (2 Bft) N-NO 21 ° 1 min 0,000 mm 7,1 UV-I 877 W/m² 10,9 °C 21,1 °C 14,5 km/h (3 Bft)
17.05.2017 12:26 21,2 °C 21,2 °C 54 % 1019,8 hPa 0,0 mm 7,8 km/h (2 Bft) NO 42 ° 1 min 0,000 mm 7,1 UV-I 877 W/m² 11,5 °C 21,2 °C 12,9 km/h (3 Bft)
17.05.2017 12:27 21,1 °C 21,2 °C 51 % 1019,7 hPa 0,0 mm 7,0 km/h (2 Bft) O 93 ° 1 min 0,000 mm 7,1 UV-I 879 W/m² 10,6 °C 21,1 °C 12,9 km/h (3 Bft)
17.05.2017 12:28 21,1 °C 21,1 °C 53 % 1019,7 hPa 0,0 mm 10,0 km/h (2 Bft) O-NO 76 ° 1 min 0,000 mm 7,1 UV-I 879 W/m² 11,1 °C 21,1 °C 16,1 km/h (3 Bft)
17.05.2017 12:29 21,0 °C 21,1 °C 53 % 1019,7 hPa 0,0 mm 11,1 km/h (2 Bft) O-NO 65 ° 1 min 0,000 mm 7,1 UV-I 879 W/m² 11,0 °C 21,0 °C 14,5 km/h (3 Bft)
17.05.2017 12:30 21,1 °C 21,1 °C 53 % 1019,7 hPa 0,0 mm 8,6 km/h (2 Bft) N-NO 20 ° 1 min 0,000 mm 7,1 UV-I 881 W/m² 11,1 °C 21,1 °C 14,5 km/h (3 Bft)
17.05.2017 12:31 21,2 °C 21,2 °C 52 % 1019,7 hPa 0,0 mm 6,1 km/h (2 Bft) NO 48 ° 1 min 0,000 mm 7,1 UV-I 882 W/m² 10,9 °C 21,2 °C 8,0 km/h (2 Bft)
17.05.2017 12:32 21,2 °C 21,2 °C 51 % 1019,6 hPa 0,0 mm 12,3 km/h (3 Bft) O-NO 75 ° 1 min 0,000 mm 7,1 UV-I 881 W/m² 10,7 °C 21,2 °C 16,1 km/h (3 Bft)
17.05.2017 12:33 21,2 °C 21,2 °C 53 % 1019,7 hPa 0,0 mm 9,5 km/h (2 Bft) O 87 ° 1 min 0,000 mm 7,1 UV-I 882 W/m² 11,2 °C 21,2 °C 16,1 km/h (3 Bft)
17.05.2017 12:34 21,3 °C 21,3 °C 53 % 1019,6 hPa 0,0 mm 7,8 km/h (2 Bft) O-NO 78 ° 1 min 0,000 mm 7,1 UV-I 882 W/m² 11,3 °C 21,3 °C 14,5 km/h (3 Bft)
17.05.2017 12:35 21,3 °C 21,3 °C 53 % 1019,6 hPa 0,0 mm 8,6 km/h (2 Bft) O-SO 103 ° 1 min 0,000 mm 7,2 UV-I 882 W/m² 11,3 °C 21,3 °C 14,5 km/h (3 Bft)
17.05.2017 12:36 21,4 °C 21,4 °C 57 % 1019,6 hPa 0,0 mm 7,2 km/h (2 Bft) O 84 ° 1 min 0,000 mm 7,2 UV-I 884 W/m² 12,5 °C 21,4 °C 16,1 km/h (3 Bft)
17.05.2017 12:37 21,5 °C 21,5 °C 51 % 1019,6 hPa 0,0 mm 6,5 km/h (2 Bft) O-NO 57 ° 1 min 0,000 mm 7,2 UV-I 884 W/m² 10,9 °C 21,5 °C 17,7 km/h (3 Bft)
17.05.2017 12:38 21,4 °C 21,5 °C 48 % 1019,6 hPa 0,0 mm 9,5 km/h (2 Bft) O-SO 119 ° 1 min 0,000 mm 7,2 UV-I 886 W/m² 9,9 °C 21,4 °C 16,1 km/h (3 Bft)
17.05.2017 12:39 21,4 °C 21,4 °C 49 % 1019,6 hPa 0,0 mm 10,0 km/h (2 Bft) O-NO 63 ° 1 min 0,000 mm 7,2 UV-I 886 W/m² 10,2 °C 21,4 °C 14,5 km/h (3 Bft)
17.05.2017 12:40 21,5 °C 21,5 °C 49 % 1019,5 hPa 0,0 mm 9,7 km/h (2 Bft) O 89 ° 1 min 0,000 mm 7,2 UV-I 886 W/m² 10,3 °C 21,5 °C 14,5 km/h (3 Bft)
17.05.2017 12:41 21,6 °C 21,6 °C 49 % 1019,5 hPa 0,0 mm 9,3 km/h (2 Bft) O 79 ° 1 min 0,000 mm 7,2 UV-I 888 W/m² 10,4 °C 21,6 °C 12,9 km/h (3 Bft)
17.05.2017 12:42 21,6 °C 21,6 °C 51 % 1019,5 hPa 0,0 mm 5,7 km/h (1 Bft) O 82 ° 1 min 0,000 mm 7,2 UV-I 888 W/m² 11,0 °C 21,6 °C 8,0 km/h (2 Bft)
17.05.2017 12:43 21,7 °C 21,7 °C 51 % 1019,5 hPa 0,0 mm 9,4 km/h (2 Bft) O-NO 65 ° 1 min 0,000 mm 7,2 UV-I 889 W/m² 11,1 °C 21,7 °C 14,5 km/h (3 Bft)
17.05.2017 12:44 21,7 °C 21,7 °C 53 % 1019,5 hPa 0,0 mm 7,6 km/h (2 Bft) O-NO 73 ° 1 min 0,000 mm 7,2 UV-I 888 W/m² 11,7 °C 21,7 °C 12,9 km/h (3 Bft)
17.05.2017 12:45 21,6 °C 21,7 °C 52 % 1019,4 hPa 0,0 mm 7,5 km/h (2 Bft) NO 36 ° 1 min 0,000 mm 7,2 UV-I 886 W/m² 11,3 °C 21,6 °C 11,3 km/h (2 Bft)
17.05.2017 12:46 21,5 °C 21,6 °C 51 % 1019,5 hPa 0,0 mm 10,8 km/h (2 Bft) NO 39 ° 1 min 0,000 mm 7,2 UV-I 884 W/m² 10,9 °C 21,5 °C 14,5 km/h (3 Bft)
17.05.2017 12:47 21,6 °C 21,6 °C 51 % 1019,4 hPa 0,0 mm 8,0 km/h (2 Bft) NO 38 ° 1 min 0,000 mm 7,2 UV-I 886 W/m² 11,0 °C 21,6 °C 16,1 km/h (3 Bft)
17.05.2017 12:48 21,6 °C 21,6 °C 51 % 1019,4 hPa 0,0 mm 9,9 km/h (2 Bft) O 90 ° 1 min 0,000 mm 7,2 UV-I 888 W/m² 11,0 °C 21,6 °C 17,7 km/h (3 Bft)
17.05.2017 12:49 21,6 °C 21,6 °C 50 % 1019,4 hPa 0,0 mm 10,1 km/h (2 Bft) N 9 ° 1 min 0,000 mm 7,2 UV-I 888 W/m² 10,7 °C 21,6 °C 14,5 km/h (3 Bft)
17.05.2017 12:50 21,7 °C 21,7 °C 54 % 1019,4 hPa 0,0 mm 6,9 km/h (2 Bft) N-NO 19 ° 1 min 0,000 mm 7,2 UV-I 888 W/m² 12,0 °C 21,7 °C 8,0 km/h (2 Bft)
17.05.2017 12:51 21,8 °C 21,8 °C 53 % 1019,3 hPa 0,0 mm 3,8 km/h (1 Bft) NO 53 ° 1 min 0,000 mm 7,3 UV-I 889 W/m² 11,8 °C 21,8 °C 6,4 km/h (2 Bft)
17.05.2017 12:52 21,9 °C 21,9 °C 56 % 1019,3 hPa 0,0 mm 7,8 km/h (2 Bft) O-NO 77 ° 1 min 0,000 mm 7,3 UV-I 889 W/m² 12,7 °C 21,9 °C 14,5 km/h (3 Bft)
17.05.2017 12:53 21,8 °C 21,9 °C 50 % 1019,4 hPa 0,0 mm 11,4 km/h (2 Bft) NO 43 ° 1 min 0,000 mm 7,3 UV-I 889 W/m² 10,9 °C 21,8 °C 16,1 km/h (3 Bft)
17.05.2017 12:54 21,6 °C 21,8 °C 49 % 1019,4 hPa 0,0 mm 4,2 km/h (1 Bft) N 10 ° 1 min 0,000 mm 7,3 UV-I 889 W/m² 10,4 °C 21,6 °C 8,0 km/h (2 Bft)
17.05.2017 12:55 21,6 °C 21,6 °C 52 % 1019,3 hPa 0,0 mm 4,2 km/h (1 Bft) N 5 ° 1 min 0,000 mm 7,3 UV-I 889 W/m² 11,3 °C 21,6 °C 8,0 km/h (2 Bft)
17.05.2017 12:56 21,7 °C 21,7 °C 55 % 1019,3 hPa 0,0 mm 5,7 km/h (1 Bft) O-NO 60 ° 1 min 0,000 mm 7,3 UV-I 889 W/m² 12,3 °C 21,7 °C 8,0 km/h (2 Bft)
17.05.2017 12:57 21,9 °C 21,9 °C 50 % 1019,3 hPa 0,0 mm 4,8 km/h (1 Bft) NO 40 ° 1 min 0,000 mm 7,3 UV-I 891 W/m² 11,0 °C 21,9 °C 8,0 km/h (2 Bft)
17.05.2017 12:59 22,1 °C 22,1 °C 51 % 1019,3 hPa 0,0 mm 7,6 km/h (2 Bft) N 9 ° 2 min 0,000 mm 7,3 UV-I 891 W/m² 11,5 °C 22,1 °C 14,5 km/h (3 Bft)
17.05.2017 13:00 22,2 °C 22,2 °C 53 % 1019,3 hPa 0,0 mm 3,7 km/h (1 Bft) O-NO 63 ° 1 min 0,000 mm 7,3 UV-I 891 W/m² 12,2 °C 22,2 °C 6,4 km/h (2 Bft)
17.05.2017 13:01 22,2 °C 22,2 °C 46 % 1019,3 hPa 0,0 mm 10,1 km/h (2 Bft) O 83 ° 1 min 0,559 mm 7,3 UV-I 891 W/m² 10,0 °C 22,2 °C 19,3 km/h (3 Bft)
17.05.2017 13:02 22,2 °C 22,2 °C 47 % 1019,3 hPa 0,0 mm 16,1 km/h (3 Bft) O 80 ° 1 min 0,000 mm 7,3 UV-I 893 W/m² 10,3 °C 22,2 °C 16,1 km/h (3 Bft)
17.05.2017 13:03 22,2 °C 22,2 °C 43 % 1019,3 hPa 0,0 mm 9,5 km/h (2 Bft) O 86 ° 1 min 0,000 mm 7,3 UV-I 895 W/m² 9,0 °C 22,2 °C 17,7 km/h (3 Bft)
17.05.2017 13:04 22,1 °C 22,2 °C 46 % 1019,3 hPa 0,0 mm 6,7 km/h (2 Bft) O-NO 76 ° 1 min 0,000 mm 7,3 UV-I 896 W/m² 9,9 °C 22,1 °C 16,1 km/h (3 Bft)
17.05.2017 13:05 22,1 °C 22,1 °C 44 % 1019,3 hPa 0,0 mm 8,7 km/h (2 Bft) O-NO 69 ° 1 min 0,000 mm 7,3 UV-I 896 W/m² 9,3 °C 22,1 °C 12,9 km/h (3 Bft)
17.05.2017 13:06 22,2 °C 22,2 °C 44 % 1019,2 hPa 0,0 mm 2,8 km/h (1 Bft) O 82 ° 1 min 0,000 mm 7,4 UV-I 895 W/m² 9,4 °C 22,2 °C 4,8 km/h (1 Bft)
17.05.2017 13:07 22,2 °C 22,2 °C 46 % 1019,2 hPa 0,0 mm 8,2 km/h (2 Bft) O 92 ° 1 min 0,000 mm 7,4 UV-I 896 W/m² 10,0 °C 22,2 °C 14,5 km/h (3 Bft)
17.05.2017 13:08 22,2 °C 22,2 °C 48 % 1019,1 hPa 0,0 mm 6,6 km/h (2 Bft) O 95 ° 1 min 0,000 mm 7,4 UV-I 895 W/m² 10,7 °C 22,2 °C 9,7 km/h (2 Bft)
17.05.2017 13:09 22,2 °C 22,2 °C 49 % 1019,1 hPa 0,0 mm 3,9 km/h (1 Bft) NO 53 ° 1 min 0,000 mm 7,3 UV-I 895 W/m² 11,0 °C 22,2 °C 6,4 km/h (2 Bft)
17.05.2017 13:10 22,2 °C 22,2 °C 49 % 1019,1 hPa 0,0 mm 6,8 km/h (2 Bft) NO 42 ° 1 min 0,000 mm 7,3 UV-I 895 W/m² 11,0 °C 22,2 °C 12,9 km/h (3 Bft)
17.05.2017 13:11 22,4 °C 22,4 °C 48 % 1019,1 hPa 0,0 mm 5,3 km/h (1 Bft) O-SO 117 ° 1 min 0,000 mm 7,4 UV-I 896 W/m² 10,8 °C 22,4 °C 9,7 km/h (2 Bft)
17.05.2017 13:12 22,4 °C 22,4 °C 49 % 1019,1 hPa 0,0 mm 3,1 km/h (1 Bft) N 360 ° 1 min 0,000 mm 7,4 UV-I 896 W/m² 11,2 °C 22,4 °C 9,7 km/h (2 Bft)
17.05.2017 13:13 22,4 °C 22,4 °C 53 % 1019,1 hPa 0,0 mm 6,7 km/h (2 Bft) N-NO 19 ° 1 min 0,000 mm 7,4 UV-I 895 W/m² 12,3 °C 22,4 °C 8,0 km/h (2 Bft)
17.05.2017 13:14 22,4 °C 22,4 °C 48 % 1019,1 hPa 0,0 mm 6,0 km/h (2 Bft) NO 37 ° 1 min 0,000 mm 7,4 UV-I 893 W/m² 10,8 °C 22,4 °C 8,0 km/h (2 Bft)
17.05.2017 13:15 22,4 °C 22,4 °C 50 % 1019,0 hPa 0,0 mm 9,9 km/h (2 Bft) NO 34 ° 1 min 0,000 mm 7,4 UV-I 893 W/m² 11,5 °C 22,4 °C 14,5 km/h (3 Bft)
17.05.2017 13:16 22,4 °C 22,4 °C 50 % 1019,0 hPa 0,0 mm 9,4 km/h (2 Bft) NO 52 ° 1 min 0,000 mm 7,3 UV-I 893 W/m² 11,5 °C 22,4 °C 16,1 km/h (3 Bft)
17.05.2017 13:17 22,4 °C 22,4 °C 51 % 1019,0 hPa 0,0 mm 6,1 km/h (2 Bft) O-NO 65 ° 1 min 0,000 mm 7,3 UV-I 891 W/m² 11,8 °C 22,4 °C 16,1 km/h (3 Bft)
17.05.2017 13:18 22,3 °C 22,4 °C 49 % 1019,0 hPa 0,0 mm 6,4 km/h (2 Bft) NO 42 ° 1 min 0,000 mm 7,3 UV-I 893 W/m² 11,1 °C 22,3 °C 12,9 km/h (3 Bft)
17.05.2017 13:19 22,2 °C 22,3 °C 50 % 1018,9 hPa 0,0 mm 10,2 km/h (2 Bft) O-NO 61 ° 1 min 0,000 mm 7,3 UV-I 893 W/m² 11,3 °C 22,2 °C 16,1 km/h (3 Bft)
17.05.2017 13:20 22,2 °C 22,2 °C 51 % 1018,9 hPa 0,0 mm 6,3 km/h (2 Bft) O 88 ° 1 min 0,000 mm 7,3 UV-I 893 W/m² 11,6 °C 22,2 °C 9,7 km/h (2 Bft)
17.05.2017 13:21 22,2 °C 22,2 °C 50 % 1018,9 hPa 0,0 mm 4,3 km/h (1 Bft) NO 49 ° 1 min 0,000 mm 7,3 UV-I 893 W/m² 11,3 °C 22,2 °C 11,3 km/h (2 Bft)
17.05.2017 13:22 22,1 °C 22,2 °C 51 % 1018,9 hPa 0,0 mm 11,1 km/h (2 Bft) O 88 ° 1 min 0,000 mm 7,3 UV-I 891 W/m² 11,5 °C 22,1 °C 16,1 km/h (3 Bft)
17.05.2017 13:23 22,1 °C 22,1 °C 50 % 1018,9 hPa 0,0 mm 10,3 km/h (2 Bft) O 101 ° 1 min 0,000 mm 7,3 UV-I 895 W/m² 11,2 °C 22,1 °C 12,9 km/h (3 Bft)
17.05.2017 13:24 22,1 °C 22,1 °C 51 % 1018,8 hPa 0,0 mm 8,2 km/h (2 Bft) O-NO 72 ° 1 min 0,000 mm 7,3 UV-I 895 W/m² 11,5 °C 22,1 °C 11,3 km/h (2 Bft)
17.05.2017 13:25 22,1 °C 22,1 °C 51 % 1018,8 hPa 0,0 mm 7,4 km/h (2 Bft) O 93 ° 1 min 0,000 mm 7,3 UV-I 895 W/m² 11,5 °C 22,1 °C 11,3 km/h (2 Bft)
17.05.2017 13:26 22,1 °C 22,2 °C 50 % 1018,7 hPa 0,0 mm 3,7 km/h (1 Bft) O-NO 63 ° 1 min 0,000 mm 7,3 UV-I 895 W/m² 11,2 °C 22,1 °C 4,8 km/h (1 Bft)
17.05.2017 13:27 22,1 °C 22,1 °C 49 % 1018,8 hPa 0,0 mm 4,4 km/h (1 Bft) NO 37 ° 1 min 0,000 mm 7,3 UV-I 891 W/m² 10,9 °C 22,1 °C 9,7 km/h (2 Bft)
17.05.2017 13:28 22,1 °C 22,1 °C 49 % 1018,7 hPa 0,0 mm 5,1 km/h (1 Bft) O-NO 61 ° 1 min 0,000 mm 7,3 UV-I 891 W/m² 10,9 °C 22,1 °C 9,7 km/h (2 Bft)
17.05.2017 13:29 22,2 °C 22,2 °C 54 % 1018,7 hPa 0,0 mm 7,1 km/h (2 Bft) N-NO 29 ° 1 min 0,000 mm 7,3 UV-I 891 W/m² 12,4 °C 22,2 °C 9,7 km/h (2 Bft)
17.05.2017 13:30 22,5 °C 22,5 °C 52 % 1018,7 hPa 0,0 mm 7,2 km/h (2 Bft) NO 51 ° 1 min 0,000 mm 7,3 UV-I 891 W/m² 12,1 °C 22,5 °C 11,3 km/h (2 Bft)
17.05.2017 13:31 22,7 °C 22,7 °C 50 % 1018,8 hPa 0,0 mm 11,4 km/h (2 Bft) NO 47 ° 1 min 0,000 mm 7,3 UV-I 893 W/m² 11,7 °C 22,7 °C 16,1 km/h (3 Bft)
17.05.2017 13:32 22,6 °C 22,7 °C 49 % 1018,8 hPa 0,0 mm 6,2 km/h (2 Bft) O-NO 61 ° 1 min 0,000 mm 7,3 UV-I 891 W/m² 11,3 °C 22,6 °C 11,3 km/h (2 Bft)
17.05.2017 13:33 22,6 °C 22,6 °C 49 % 1018,7 hPa 0,0 mm 8,2 km/h (2 Bft) N-NW 348 ° 1 min 0,000 mm 7,3 UV-I 893 W/m² 11,3 °C 22,6 °C 16,1 km/h (3 Bft)
17.05.2017 13:34 22,6 °C 22,6 °C 51 % 1018,7 hPa 0,0 mm 5,3 km/h (1 Bft) NO 51 ° 1 min 0,000 mm 7,3 UV-I 893 W/m² 11,9 °C 22,6 °C 8,0 km/h (2 Bft)
17.05.2017 13:35 22,7 °C 22,7 °C 51 % 1018,7 hPa 0,0 mm 5,3 km/h (1 Bft) O-NO 64 ° 1 min 0,000 mm 7,3 UV-I 893 W/m² 12,0 °C 22,7 °C 8,0 km/h (2 Bft)
17.05.2017 13:36 22,6 °C 22,7 °C 49 % 1018,7 hPa 0,0 mm 8,4 km/h (2 Bft) O-NO 58 ° 1 min 0,000 mm 7,3 UV-I 889 W/m² 11,3 °C 22,6 °C 16,1 km/h (3 Bft)
17.05.2017 13:37 22,5 °C 22,6 °C 52 % 1018,7 hPa 0,0 mm 8,0 km/h (2 Bft) N-NO 17 ° 1 min 0,000 mm 7,2 UV-I 891 W/m² 12,1 °C 22,5 °C 16,1 km/h (3 Bft)
17.05.2017 13:38 22,5 °C 22,5 °C 47 % 1018,7 hPa 0,0 mm 6,9 km/h (2 Bft) N 5 ° 1 min 0,000 mm 7,2 UV-I 889 W/m² 10,6 °C 22,5 °C 11,3 km/h (2 Bft)
17.05.2017 13:39 22,6 °C 22,6 °C 47 % 1018,6 hPa 0,0 mm 8,1 km/h (2 Bft) NO 34 ° 1 min 0,000 mm 7,2 UV-I 891 W/m² 10,7 °C 22,6 °C 14,5 km/h (3 Bft)
17.05.2017 13:40 22,7 °C 22,7 °C 51 % 1018,7 hPa 0,0 mm 5,3 km/h (1 Bft) NO 54 ° 1 min 0,000 mm 7,2 UV-I 893 W/m² 12,0 °C 22,7 °C 6,4 km/h (2 Bft)
17.05.2017 13:41 22,8 °C 22,8 °C 47 % 1018,7 hPa 0,0 mm 4,8 km/h (1 Bft) NO 38 ° 1 min 0,000 mm 7,2 UV-I 893 W/m² 10,9 °C 22,8 °C 11,3 km/h (2 Bft)
17.05.2017 13:42 22,9 °C 22,9 °C 46 % 1018,6 hPa 0,0 mm 8,3 km/h (2 Bft) O-NO 70 ° 1 min 0,000 mm 7,2 UV-I 891 W/m² 10,7 °C 22,9 °C 14,5 km/h (3 Bft)
17.05.2017 13:43 22,9 °C 22,9 °C 46 % 1018,6 hPa 0,0 mm 5,3 km/h (1 Bft) NO 41 ° 1 min 0,000 mm 7,2 UV-I 889 W/m² 10,7 °C 22,9 °C 9,7 km/h (2 Bft)
17.05.2017 13:44 22,9 °C 22,9 °C 48 % 1018,7 hPa 0,0 mm 7,4 km/h (2 Bft) O-NO 66 ° 1 min 0,000 mm 7,2 UV-I 889 W/m² 11,3 °C 22,9 °C 11,3 km/h (2 Bft)
17.05.2017 13:45 22,9 °C 23,0 °C 46 % 1018,7 hPa 0,0 mm 9,0 km/h (2 Bft) NO 35 ° 1 min 0,000 mm 7,2 UV-I 888 W/m² 10,7 °C 22,9 °C 14,5 km/h (3 Bft)
17.05.2017 13:46 22,9 °C 22,9 °C 46 % 1018,6 hPa 0,0 mm 9,1 km/h (2 Bft) O-NO 60 ° 1 min 0,000 mm 7,2 UV-I 888 W/m² 10,7 °C 22,9 °C 11,3 km/h (2 Bft)
17.05.2017 13:47 22,9 °C 22,9 °C 49 % 1018,6 hPa 0,0 mm 9,3 km/h (2 Bft) O-NO 65 ° 1 min 0,000 mm 7,2 UV-I 889 W/m² 11,6 °C 22,9 °C 12,9 km/h (3 Bft)
17.05.2017 13:48 22,9 °C 22,9 °C 44 % 1018,6 hPa 0,0 mm 5,1 km/h (1 Bft) NO 40 ° 1 min 0,000 mm 7,2 UV-I 889 W/m² 10,0 °C 22,9 °C 6,4 km/h (2 Bft)
17.05.2017 13:49 23,0 °C 23,0 °C 44 % 1018,6 hPa 0,0 mm 3,1 km/h (1 Bft) N-NO 13 ° 1 min 0,000 mm 7,2 UV-I 889 W/m² 10,1 °C 23,0 °C 6,4 km/h (2 Bft)
17.05.2017 13:50 23,1 °C 23,1 °C 48 % 1018,6 hPa 0,0 mm 4,7 km/h (1 Bft) O-NO 61 ° 1 min 0,000 mm 7,2 UV-I 891 W/m² 11,5 °C 23,1 °C 6,4 km/h (2 Bft)
17.05.2017 13:51 23,1 °C 23,1 °C 44 % 1018,6 hPa 0,0 mm 6,5 km/h (2 Bft) N-NO 33 ° 1 min 0,000 mm 7,2 UV-I 891 W/m² 10,2 °C 23,1 °C 9,7 km/h (2 Bft)
17.05.2017 13:52 23,0 °C 23,1 °C 43 % 1018,6 hPa 0,0 mm 7,1 km/h (2 Bft) O-NO 63 ° 1 min 0,000 mm 7,2 UV-I 891 W/m² 9,7 °C 23,0 °C 12,9 km/h (3 Bft)
17.05.2017 13:53 23,1 °C 23,1 °C 45 % 1018,6 hPa 0,0 mm 8,2 km/h (2 Bft) NO 34 ° 1 min 0,000 mm 7,2 UV-I 889 W/m² 10,5 °C 23,1 °C 14,5 km/h (3 Bft)
17.05.2017 13:54 23,1 °C 23,1 °C 43 % 1018,6 hPa 0,0 mm 6,9 km/h (2 Bft) O-NO 69 ° 1 min 0,000 mm 7,2 UV-I 888 W/m² 9,8 °C 23,1 °C 9,7 km/h (2 Bft)
17.05.2017 13:55 23,2 °C 23,2 °C 48 % 1018,6 hPa 0,0 mm 6,2 km/h (2 Bft) O-NO 67 ° 1 min 0,000 mm 7,2 UV-I 888 W/m² 11,6 °C 23,2 °C 9,7 km/h (2 Bft)
17.05.2017 13:56 23,2 °C 23,2 °C 45 % 1018,6 hPa 0,0 mm 7,5 km/h (2 Bft) NO 49 ° 1 min 0,000 mm 7,2 UV-I 886 W/m² 10,6 °C 23,2 °C 12,9 km/h (3 Bft)
17.05.2017 13:57 23,2 °C 23,2 °C 45 % 1018,6 hPa 0,0 mm 9,8 km/h (2 Bft) O 101 ° 1 min 0,000 mm 7,2 UV-I 886 W/m² 10,6 °C 23,2 °C 14,5 km/h (3 Bft)
17.05.2017 13:58 23,0 °C 23,2 °C 44 % 1018,6 hPa 0,0 mm 9,2 km/h (2 Bft) O 82 ° 1 min 0,000 mm 7,1 UV-I 884 W/m² 10,1 °C 23,0 °C 12,9 km/h (3 Bft)
17.05.2017 13:59 22,9 °C 23,0 °C 46 % 1018,6 hPa 0,0 mm 9,5 km/h (2 Bft) O 88 ° 1 min 0,000 mm 7,1 UV-I 882 W/m² 10,7 °C 22,9 °C 16,1 km/h (3 Bft)
17.05.2017 14:00 22,9 °C 22,9 °C 46 % 1018,6 hPa 0,0 mm 3,7 km/h (1 Bft) O-NO 63 ° 1 min 0,000 mm 7,1 UV-I 882 W/m² 10,7 °C 22,9 °C 4,8 km/h (1 Bft)
17.05.2017 14:01 22,8 °C 22,9 °C 45 % 1018,5 hPa 0,0 mm 4,8 km/h (1 Bft) NO 39 ° 1 min 0,584 mm 7,1 UV-I 881 W/m² 10,2 °C 22,8 °C 9,7 km/h (2 Bft)
17.05.2017 14:02 22,8 °C 22,8 °C 47 % 1018,6 hPa 0,0 mm 5,3 km/h (1 Bft) NO 40 ° 1 min 0,000 mm 7,1 UV-I 879 W/m² 10,9 °C 22,8 °C 11,3 km/h (2 Bft)
17.05.2017 14:03 22,8 °C 22,8 °C 47 % 1018,5 hPa 0,0 mm 3,6 km/h (1 Bft) N-NO 14 ° 1 min 0,000 mm 7,1 UV-I 877 W/m² 10,9 °C 22,8 °C 6,4 km/h (2 Bft)
17.05.2017 14:04 22,8 °C 22,8 °C 46 % 1018,5 hPa 0,0 mm 3,0 km/h (1 Bft) O-NO 65 ° 1 min 0,000 mm 7,0 UV-I 877 W/m² 10,6 °C 22,8 °C 6,4 km/h (2 Bft)
17.05.2017 14:05 22,9 °C 22,9 °C 54 % 1018,4 hPa 0,0 mm 3,6 km/h (1 Bft) NO 56 ° 1 min 0,000 mm 7,0 UV-I 875 W/m² 13,1 °C 22,9 °C 8,0 km/h (2 Bft)
17.05.2017 14:06 22,9 °C 22,9 °C 46 % 1018,5 hPa 0,0 mm 4,8 km/h (1 Bft) N 10 ° 1 min 0,000 mm 7,0 UV-I 874 W/m² 10,7 °C 22,9 °C 6,4 km/h (2 Bft)
17.05.2017 14:07 23,1 °C 23,1 °C 50 % 1018,5 hPa 0,0 mm 9,8 km/h (2 Bft) N-NO 14 ° 1 min 0,000 mm 7,0 UV-I 872 W/m² 12,1 °C 23,1 °C 14,5 km/h (3 Bft)
17.05.2017 14:08 23,1 °C 23,1 °C 45 % 1018,5 hPa 0,0 mm 8,5 km/h (2 Bft) N 10 ° 1 min 0,000 mm 7,0 UV-I 870 W/m² 10,5 °C 23,1 °C 12,9 km/h (3 Bft)
17.05.2017 14:09 23,2 °C 23,2 °C 48 % 1018,5 hPa 0,0 mm 7,5 km/h (2 Bft) O 100 ° 1 min 0,000 mm 7,0 UV-I 868 W/m² 11,6 °C 23,2 °C 12,9 km/h (3 Bft)
17.05.2017 14:10 23,2 °C 23,2 °C 47 % 1018,4 hPa 0,0 mm 12,0 km/h (2 Bft) O-NO 65 ° 1 min 0,000 mm 6,9 UV-I 868 W/m² 11,3 °C 23,2 °C 17,7 km/h (3 Bft)
17.05.2017 14:11 23,3 °C 23,3 °C 46 % 1018,5 hPa 0,0 mm 12,7 km/h (3 Bft) O-NO 64 ° 1 min 0,000 mm 6,9 UV-I 867 W/m² 11,0 °C 23,3 °C 16,1 km/h (3 Bft)
17.05.2017 14:12 23,2 °C 23,3 °C 46 % 1018,4 hPa 0,0 mm 7,8 km/h (2 Bft) NO 42 ° 1 min 0,000 mm 6,9 UV-I 865 W/m² 10,9 °C 23,2 °C 9,7 km/h (2 Bft)
17.05.2017 14:13 23,1 °C 23,2 °C 48 % 1018,4 hPa 0,0 mm 5,1 km/h (1 Bft) O-NO 65 ° 1 min 0,000 mm 6,9 UV-I 865 W/m² 11,5 °C 23,1 °C 8,0 km/h (2 Bft)
17.05.2017 14:14 23,1 °C 23,1 °C 47 % 1018,4 hPa 0,0 mm 11,7 km/h (2 Bft) O 86 ° 1 min 0,000 mm 6,9 UV-I 865 W/m² 11,2 °C 23,1 °C 16,1 km/h (3 Bft)
17.05.2017 14:15 22,9 °C 23,1 °C 48 % 1018,4 hPa 0,0 mm 7,6 km/h (2 Bft) N-NW 346 ° 1 min 0,000 mm 6,9 UV-I 865 W/m² 11,3 °C 22,9 °C 14,5 km/h (3 Bft)
17.05.2017 14:16 22,9 °C 22,9 °C 52 % 1018,4 hPa 0,0 mm 6,6 km/h (2 Bft) O 86 ° 1 min 0,000 mm 6,8 UV-I 863 W/m² 12,5 °C 22,9 °C 9,7 km/h (2 Bft)
17.05.2017 14:17 23,0 °C 23,1 °C 53 % 1018,4 hPa 0,0 mm 10,8 km/h (2 Bft) O-NO 60 ° 1 min 0,000 mm 6,8 UV-I 865 W/m² 12,9 °C 23,0 °C 14,5 km/h (3 Bft)
17.05.2017 14:18 23,1 °C 23,1 °C 50 % 1018,4 hPa 0,0 mm 10,8 km/h (2 Bft) NO 38 ° 1 min 0,000 mm 6,8 UV-I 863 W/m² 12,1 °C 23,1 °C 14,5 km/h (3 Bft)
17.05.2017 14:19 23,2 °C 23,2 °C 47 % 1018,4 hPa 0,0 mm 11,1 km/h (2 Bft) N-NO 29 ° 1 min 0,000 mm 6,8 UV-I 863 W/m² 11,3 °C 23,2 °C 19,3 km/h (3 Bft)
17.05.2017 14:20 23,2 °C 23,2 °C 47 % 1018,3 hPa 0,0 mm 6,3 km/h (2 Bft) NW 323 ° 1 min 0,000 mm 6,9 UV-I 863 W/m² 11,3 °C 23,2 °C 11,3 km/h (2 Bft)
17.05.2017 14:21 23,2 °C 23,3 °C 46 % 1018,3 hPa 0,0 mm 4,3 km/h (1 Bft) N-NW 338 ° 1 min 0,000 mm 6,8 UV-I 861 W/m² 10,9 °C 23,2 °C 9,7 km/h (2 Bft)
17.05.2017 14:22 23,3 °C 23,3 °C 49 % 1018,3 hPa 0,0 mm 3,8 km/h (1 Bft) N 5 ° 1 min 0,000 mm 6,8 UV-I 863 W/m² 12,0 °C 23,3 °C 8,0 km/h (2 Bft)
17.05.2017 14:23 23,3 °C 23,3 °C 47 % 1018,3 hPa 0,0 mm 9,8 km/h (2 Bft) N-NW 346 ° 1 min 0,000 mm 6,8 UV-I 860 W/m² 11,3 °C 23,3 °C 12,9 km/h (3 Bft)
17.05.2017 14:24 23,4 °C 23,4 °C 49 % 1018,3 hPa 0,0 mm 7,4 km/h (2 Bft) N 5 ° 1 min 0,000 mm 6,8 UV-I 860 W/m² 12,1 °C 23,4 °C 12,9 km/h (3 Bft)
17.05.2017 14:25 23,5 °C 23,6 °C 44 % 1018,3 hPa 0,0 mm 11,9 km/h (2 Bft) N-NW 329 ° 1 min 0,000 mm 6,8 UV-I 861 W/m² 10,5 °C 23,5 °C 16,1 km/h (3 Bft)
17.05.2017 14:26 23,4 °C 23,5 °C 44 % 1018,2 hPa 0,0 mm 12,2 km/h (2 Bft) NO 38 ° 1 min 0,000 mm 6,8 UV-I 861 W/m² 10,4 °C 23,4 °C 19,3 km/h (3 Bft)
17.05.2017 14:27 23,3 °C 23,4 °C 46 % 1018,3 hPa 0,0 mm 10,1 km/h (2 Bft) N-NO 29 ° 1 min 0,000 mm 6,8 UV-I 860 W/m² 11,0 °C 23,3 °C 14,5 km/h (3 Bft)
17.05.2017 14:28 23,3 °C 23,3 °C 46 % 1018,3 hPa 0,0 mm 5,6 km/h (1 Bft) NO 43 ° 1 min 0,000 mm 6,8 UV-I 858 W/m² 11,0 °C 23,3 °C 9,7 km/h (2 Bft)
17.05.2017 14:29 23,2 °C 23,3 °C 47 % 1018,2 hPa 0,0 mm 9,9 km/h (2 Bft) N-NO 31 ° 1 min 0,000 mm 6,8 UV-I 858 W/m² 11,3 °C 23,2 °C 16,1 km/h (3 Bft)
17.05.2017 14:30 23,1 °C 23,2 °C 47 % 1018,2 hPa 0,0 mm 6,2 km/h (2 Bft) O-NO 62 ° 1 min 0,000 mm 6,7 UV-I 856 W/m² 11,2 °C 23,1 °C 8,0 km/h (2 Bft)
17.05.2017 14:31 22,9 °C 23,1 °C 51 % 1018,3 hPa 0,0 mm 6,3 km/h (2 Bft) N-NW 327 ° 1 min 0,000 mm 6,7 UV-I 856 W/m² 12,2 °C 22,9 °C 11,3 km/h (2 Bft)
17.05.2017 14:32 23,0 °C 23,0 °C 48 % 1018,2 hPa 0,0 mm 11,9 km/h (2 Bft) N 11 ° 1 min 0,000 mm 6,7 UV-I 854 W/m² 11,4 °C 23,0 °C 16,1 km/h (3 Bft)
17.05.2017 14:33 23,1 °C 23,1 °C 47 % 1018,2 hPa 0,0 mm 8,3 km/h (2 Bft) N-NW 346 ° 1 min 0,000 mm 6,7 UV-I 851 W/m² 11,2 °C 23,1 °C 12,9 km/h (3 Bft)
17.05.2017 14:34 23,3 °C 23,3 °C 48 % 1018,2 hPa 0,0 mm 10,5 km/h (2 Bft) N-NO 32 ° 1 min 0,000 mm 6,7 UV-I 853 W/m² 11,7 °C 23,3 °C 16,1 km/h (3 Bft)
17.05.2017 14:35 23,2 °C 23,3 °C 49 % 1018,2 hPa 0,0 mm 9,8 km/h (2 Bft) NO 53 ° 1 min 0,000 mm 6,7 UV-I 849 W/m² 11,9 °C 23,2 °C 16,1 km/h (3 Bft)
17.05.2017 14:36 23,2 °C 23,2 °C 47 % 1018,2 hPa 0,0 mm 9,3 km/h (2 Bft) O-NO 76 ° 1 min 0,000 mm 6,6 UV-I 849 W/m² 11,3 °C 23,2 °C 11,3 km/h (2 Bft)
17.05.2017 14:37 23,2 °C 23,2 °C 47 % 1018,2 hPa 0,0 mm 9,1 km/h (2 Bft) O-SO 102 ° 1 min 0,000 mm 6,6 UV-I 846 W/m² 11,3 °C 23,2 °C 12,9 km/h (3 Bft)
17.05.2017 14:38 23,1 °C 23,2 °C 50 % 1018,1 hPa 0,0 mm 8,0 km/h (2 Bft) O-NO 78 ° 1 min 0,000 mm 6,6 UV-I 849 W/m² 12,1 °C 23,1 °C 12,9 km/h (3 Bft)
17.05.2017 14:39 23,0 °C 23,1 °C 48 % 1018,2 hPa 0,0 mm 5,0 km/h (1 Bft) N-NO 24 ° 1 min 0,000 mm 6,6 UV-I 844 W/m² 11,4 °C 23,0 °C 8,0 km/h (2 Bft)
17.05.2017 14:40 23,0 °C 23,0 °C 47 % 1018,1 hPa 0,0 mm 2,3 km/h (1 Bft) O-NO 60 ° 1 min 0,000 mm 6,6 UV-I 844 W/m² 11,1 °C 23,0 °C 6,4 km/h (2 Bft)
17.05.2017 14:41 23,0 °C 23,0 °C 46 % 1018,1 hPa 0,0 mm 6,8 km/h (2 Bft) O 82 ° 1 min 0,000 mm 6,5 UV-I 842 W/m² 10,7 °C 23,0 °C 9,7 km/h (2 Bft)
17.05.2017 14:42 23,1 °C 23,1 °C 53 % 1018,1 hPa 0,0 mm 4,0 km/h (1 Bft) NO 42 ° 1 min 0,000 mm 6,6 UV-I 844 W/m² 13,0 °C 23,1 °C 6,4 km/h (2 Bft)
17.05.2017 14:43 23,2 °C 23,2 °C 53 % 1018,0 hPa 0,0 mm 6,6 km/h (2 Bft) NO 36 ° 1 min 0,000 mm 6,5 UV-I 840 W/m² 13,1 °C 23,2 °C 16,1 km/h (3 Bft)
17.05.2017 14:44 23,2 °C 23,2 °C 46 % 1018,0 hPa 0,0 mm 8,0 km/h (2 Bft) N-NO 29 ° 1 min 0,000 mm 6,5 UV-I 840 W/m² 10,9 °C 23,2 °C 12,9 km/h (3 Bft)
17.05.2017 14:45 23,2 °C 23,2 °C 48 % 1018,0 hPa 0,0 mm 6,5 km/h (2 Bft) O-NO 72 ° 1 min 0,000 mm 6,5 UV-I 837 W/m² 11,6 °C 23,2 °C 11,3 km/h (2 Bft)
17.05.2017 14:46 23,2 °C 23,2 °C 48 % 1018,0 hPa 0,0 mm 7,6 km/h (2 Bft) O-NO 74 ° 1 min 0,000 mm 6,5 UV-I 838 W/m² 11,6 °C 23,2 °C 14,5 km/h (3 Bft)
17.05.2017 14:47 23,1 °C 23,2 °C 48 % 1017,9 hPa 0,0 mm 5,6 km/h (1 Bft) O-NO 72 ° 1 min 0,000 mm 6,5 UV-I 838 W/m² 11,5 °C 23,1 °C 9,7 km/h (2 Bft)
17.05.2017 14:48 23,1 °C 23,1 °C 47 % 1017,9 hPa 0,0 mm 7,0 km/h (2 Bft) N-NO 16 ° 1 min 0,000 mm 6,4 UV-I 835 W/m² 11,2 °C 23,1 °C 9,7 km/h (2 Bft)
17.05.2017 14:49 23,2 °C 23,2 °C 48 % 1018,0 hPa 0,0 mm 11,7 km/h (2 Bft) NO 46 ° 1 min 0,000 mm 6,4 UV-I 830 W/m² 11,6 °C 23,2 °C 19,3 km/h (3 Bft)
17.05.2017 14:50 23,2 °C 23,2 °C 46 % 1017,9 hPa 0,0 mm 7,8 km/h (2 Bft) N-NO 33 ° 1 min 0,000 mm 6,3 UV-I 830 W/m² 10,9 °C 23,2 °C 11,3 km/h (2 Bft)
17.05.2017 14:51 23,1 °C 23,2 °C 49 % 1017,9 hPa 0,0 mm 8,9 km/h (2 Bft) NW 323 ° 1 min 0,000 mm 6,3 UV-I 824 W/m² 11,8 °C 23,1 °C 12,9 km/h (3 Bft)
17.05.2017 14:52 23,2 °C 23,2 °C 50 % 1017,9 hPa 0,0 mm 8,0 km/h (2 Bft) N 355 ° 1 min 0,000 mm 6,4 UV-I 828 W/m² 12,2 °C 23,2 °C 14,5 km/h (3 Bft)
17.05.2017 14:53 23,3 °C 23,3 °C 48 % 1017,9 hPa 0,0 mm 8,7 km/h (2 Bft) N-NO 24 ° 1 min 0,000 mm 6,4 UV-I 830 W/m² 11,7 °C 23,3 °C 12,9 km/h (3 Bft)
17.05.2017 14:54 23,4 °C 23,4 °C 47 % 1017,9 hPa 0,0 mm 8,2 km/h (2 Bft) N 360 ° 1 min 0,000 mm 6,4 UV-I 828 W/m² 11,4 °C 23,4 °C 12,9 km/h (3 Bft)
17.05.2017 14:55 23,4 °C 23,4 °C 46 % 1018,0 hPa 0,0 mm 12,5 km/h (3 Bft) O-NO 64 ° 1 min 0,000 mm 6,4 UV-I 826 W/m² 11,1 °C 23,4 °C 19,3 km/h (3 Bft)
17.05.2017 14:56 23,3 °C 23,4 °C 46 % 1017,9 hPa 0,0 mm 7,3 km/h (2 Bft) O-NO 64 ° 1 min 0,000 mm 6,3 UV-I 824 W/m² 11,0 °C 23,3 °C 14,5 km/h (3 Bft)
17.05.2017 14:57 23,2 °C 23,3 °C 48 % 1017,8 hPa 0,0 mm 10,9 km/h (2 Bft) O-NO 65 ° 1 min 0,000 mm 6,3 UV-I 823 W/m² 11,6 °C 23,2 °C 16,1 km/h (3 Bft)
17.05.2017 14:58 23,1 °C 23,2 °C 46 % 1017,8 hPa 0,0 mm 9,9 km/h (2 Bft) O 81 ° 1 min 0,000 mm 6,2 UV-I 821 W/m² 10,8 °C 23,1 °C 17,7 km/h (3 Bft)
17.05.2017 14:59 22,9 °C 23,1 °C 46 % 1017,9 hPa 0,0 mm 12,0 km/h (2 Bft) O-NO 59 ° 1 min 0,000 mm 6,2 UV-I 821 W/m² 10,7 °C 22,9 °C 17,7 km/h (3 Bft)
17.05.2017 15:00 22,9 °C 22,9 °C 48 % 1017,8 hPa 0,0 mm 11,1 km/h (2 Bft) O-NO 76 ° 1 min 0,000 mm 6,3 UV-I 823 W/m² 11,3 °C 22,9 °C 16,1 km/h (3 Bft)
17.05.2017 15:01 22,8 °C 22,9 °C 46 % 1017,8 hPa 0,0 mm 7,2 km/h (2 Bft) O-NO 61 ° 1 min 0,584 mm 6,2 UV-I 817 W/m² 10,6 °C 22,8 °C 11,3 km/h (2 Bft)
17.05.2017 15:02 22,8 °C 22,8 °C 49 % 1017,9 hPa 0,0 mm 8,0 km/h (2 Bft) NO 53 ° 1 min 0,000 mm 6,1 UV-I 814 W/m² 11,5 °C 22,8 °C 17,7 km/h (3 Bft)
17.05.2017 15:03 22,7 °C 22,8 °C 47 % 1017,8 hPa 0,0 mm 4,9 km/h (1 Bft) O-SO 117 ° 1 min 0,000 mm 6,1 UV-I 814 W/m² 10,8 °C 22,7 °C 9,7 km/h (2 Bft)
17.05.2017 15:04 22,8 °C 22,8 °C 48 % 1017,8 hPa 0,0 mm 5,3 km/h (1 Bft) N-NW 347 ° 1 min 0,000 mm 6,1 UV-I 812 W/m² 11,2 °C 22,8 °C 12,9 km/h (3 Bft)
17.05.2017 15:05 22,9 °C 22,9 °C 48 % 1017,8 hPa 0,0 mm 9,3 km/h (2 Bft) N-NO 32 ° 1 min 0,000 mm 6,1 UV-I 814 W/m² 11,3 °C 22,9 °C 14,5 km/h (3 Bft)
17.05.2017 15:06 23,1 °C 23,1 °C 48 % 1017,8 hPa 0,0 mm 5,4 km/h (1 Bft) NO 45 ° 1 min 0,000 mm 6,1 UV-I 812 W/m² 11,5 °C 23,1 °C 14,5 km/h (3 Bft)
17.05.2017 15:07 23,2 °C 23,2 °C 47 % 1017,8 hPa 0,0 mm 8,8 km/h (2 Bft) NO 38 ° 1 min 0,000 mm 6,1 UV-I 810 W/m² 11,3 °C 23,2 °C 16,1 km/h (3 Bft)
17.05.2017 15:08 23,2 °C 23,2 °C 48 % 1017,7 hPa 0,0 mm 11,6 km/h (2 Bft) N 5 ° 1 min 0,000 mm 6,1 UV-I 810 W/m² 11,6 °C 23,2 °C 19,3 km/h (3 Bft)
17.05.2017 15:09 23,3 °C 23,3 °C 49 % 1017,7 hPa 0,0 mm 11,2 km/h (2 Bft) O-NO 68 ° 1 min 0,000 mm 6,1 UV-I 807 W/m² 12,0 °C 23,3 °C 16,1 km/h (3 Bft)
17.05.2017 15:10 23,2 °C 23,3 °C 46 % 1017,7 hPa 0,0 mm 10,2 km/h (2 Bft) N-NW 343 ° 1 min 0,000 mm 6,0 UV-I 805 W/m² 10,9 °C 23,2 °C 17,7 km/h (3 Bft)
17.05.2017 15:11 23,2 °C 23,2 °C 46 % 1017,7 hPa 0,0 mm 11,1 km/h (2 Bft) N-NO 29 ° 1 min 0,000 mm 6,0 UV-I 803 W/m² 10,9 °C 23,2 °C 16,1 km/h (3 Bft)
17.05.2017 15:12 23,2 °C 23,2 °C 48 % 1017,6 hPa 0,0 mm 7,5 km/h (2 Bft) O-NO 74 ° 1 min 0,000 mm 6,0 UV-I 803 W/m² 11,6 °C 23,2 °C 11,3 km/h (2 Bft)
17.05.2017 15:13 23,3 °C 23,3 °C 48 % 1017,6 hPa 0,0 mm 7,3 km/h (2 Bft) N 360 ° 1 min 0,000 mm 6,0 UV-I 798 W/m² 11,7 °C 23,3 °C 11,3 km/h (2 Bft)
17.05.2017 15:14 23,3 °C 23,3 °C 47 % 1017,6 hPa 0,0 mm 9,4 km/h (2 Bft) N 351 ° 1 min 0,000 mm 5,9 UV-I 796 W/m² 11,3 °C 23,3 °C 19,3 km/h (3 Bft)
17.05.2017 15:15 23,3 °C 23,3 °C 47 % 1017,7 hPa 0,0 mm 6,7 km/h (2 Bft) N-NO 26 ° 1 min 0,000 mm 5,9 UV-I 795 W/m² 11,3 °C 23,3 °C 12,9 km/h (3 Bft)
17.05.2017 15:16 23,3 °C 23,3 °C 46 % 1017,7 hPa 0,0 mm 8,3 km/h (2 Bft) O-NO 69 ° 1 min 0,000 mm 5,9 UV-I 793 W/m² 11,0 °C 23,3 °C 16,1 km/h (3 Bft)
17.05.2017 15:17 23,3 °C 23,3 °C 45 % 1017,6 hPa 0,0 mm 6,8 km/h (2 Bft) N-NO 32 ° 1 min 0,000 mm 5,9 UV-I 793 W/m² 10,7 °C 23,3 °C 12,9 km/h (3 Bft)
17.05.2017 15:18 23,3 °C 23,3 °C 46 % 1017,6 hPa 0,0 mm 7,3 km/h (2 Bft) NO 45 ° 1 min 0,000 mm 5,9 UV-I 793 W/m² 11,0 °C 23,3 °C 9,7 km/h (2 Bft)
17.05.2017 15:19 23,2 °C 23,3 °C 46 % 1017,5 hPa 0,0 mm 6,9 km/h (2 Bft) O 93 ° 1 min 0,000 mm 5,9 UV-I 791 W/m² 10,9 °C 23,2 °C 11,3 km/h (2 Bft)
17.05.2017 15:20 23,2 °C 23,3 °C 47 % 1017,6 hPa 0,0 mm 9,2 km/h (2 Bft) O-NO 74 ° 1 min 0,000 mm 5,8 UV-I 789 W/m² 11,3 °C 23,2 °C 16,1 km/h (3 Bft)
17.05.2017 15:21 23,1 °C 23,2 °C 46 % 1017,5 hPa 0,0 mm 12,1 km/h (2 Bft) N 360 ° 1 min 0,000 mm 5,8 UV-I 788 W/m² 10,8 °C 23,1 °C 17,7 km/h (3 Bft)
17.05.2017 15:22 23,3 °C 23,3 °C 47 % 1017,6 hPa 0,0 mm 7,5 km/h (2 Bft) O 100 ° 1 min 0,000 mm 5,8 UV-I 786 W/m² 11,3 °C 23,3 °C 16,1 km/h (3 Bft)
17.05.2017 15:23 23,3 °C 23,3 °C 47 % 1017,5 hPa 0,0 mm 8,2 km/h (2 Bft) O-SO 107 ° 1 min 0,000 mm 5,8 UV-I 782 W/m² 11,3 °C 23,3 °C 12,9 km/h (3 Bft)
17.05.2017 15:24 23,3 °C 23,3 °C 50 % 1017,6 hPa 0,0 mm 8,4 km/h (2 Bft) O-NO 74 ° 1 min 0,000 mm 5,7 UV-I 780 W/m² 12,3 °C 23,3 °C 14,5 km/h (3 Bft)
17.05.2017 15:25 23,2 °C 23,3 °C 45 % 1017,5 hPa 0,0 mm 10,0 km/h (2 Bft) N-NW 329 ° 1 min 0,000 mm 5,7 UV-I 777 W/m² 10,6 °C 23,2 °C 12,9 km/h (3 Bft)
17.05.2017 15:26 23,2 °C 23,2 °C 46 % 1017,4 hPa 0,0 mm 6,3 km/h (2 Bft) N 5 ° 1 min 0,000 mm 5,7 UV-I 777 W/m² 10,9 °C 23,2 °C 8,0 km/h (2 Bft)
17.05.2017 15:27 23,2 °C 23,2 °C 46 % 1017,5 hPa 0,0 mm 8,5 km/h (2 Bft) N-NO 28 ° 1 min 0,000 mm 5,7 UV-I 775 W/m² 10,9 °C 23,2 °C 12,9 km/h (3 Bft)
17.05.2017 15:28 23,3 °C 23,3 °C 47 % 1017,5 hPa 0,0 mm 8,9 km/h (2 Bft) O-NO 71 ° 1 min 0,000 mm 5,6 UV-I 773 W/m² 11,3 °C 23,3 °C 12,9 km/h (3 Bft)
17.05.2017 15:29 23,4 °C 23,4 °C 47 % 1017,4 hPa 0,0 mm 7,7 km/h (2 Bft) O-NO 63 ° 1 min 0,000 mm 5,6 UV-I 768 W/m² 11,4 °C 23,4 °C 12,9 km/h (3 Bft)
17.05.2017 15:30 23,4 °C 23,4 °C 47 % 1017,5 hPa 0,0 mm 5,7 km/h (1 Bft) O-NO 71 ° 1 min 0,000 mm 5,6 UV-I 766 W/m² 11,4 °C 23,4 °C 12,9 km/h (3 Bft)
17.05.2017 15:31 23,4 °C 23,4 °C 47 % 1017,4 hPa 0,0 mm 6,3 km/h (2 Bft) NO 51 ° 1 min 0,000 mm 5,6 UV-I 766 W/m² 11,4 °C 23,4 °C 8,0 km/h (2 Bft)
17.05.2017 15:32 23,4 °C 23,4 °C 46 % 1017,3 hPa 0,0 mm 3,6 km/h (1 Bft) O-NO 77 ° 1 min 0,000 mm 5,5 UV-I 765 W/m² 11,1 °C 23,4 °C 6,4 km/h (2 Bft)
17.05.2017 15:33 23,3 °C 23,4 °C 46 % 1017,3 hPa 0,0 mm 0,4 km/h (0 Bft) O-NO 76 ° 1 min 0,000 mm 5,5 UV-I 761 W/m² 11,0 °C 23,3 °C 1,6 km/h (1 Bft)
17.05.2017 15:34 23,3 °C 23,3 °C 46 % 1017,2 hPa 0,0 mm 6,6 km/h (2 Bft) O-NO 74 ° 1 min 0,000 mm 5,5 UV-I 761 W/m² 11,0 °C 23,3 °C 8,0 km/h (2 Bft)
17.05.2017 15:35 23,3 °C 23,3 °C 49 % 1017,3 hPa 0,0 mm 8,2 km/h (2 Bft) N-NO 12 ° 1 min 0,000 mm 5,5 UV-I 756 W/m² 12,0 °C 23,3 °C 14,5 km/h (3 Bft)
17.05.2017 15:36 23,4 °C 23,4 °C 47 % 1017,3 hPa 0,0 mm 6,4 km/h (2 Bft) N-NO 26 ° 1 min 0,000 mm 5,5 UV-I 754 W/m² 11,4 °C 23,4 °C 11,3 km/h (2 Bft)
17.05.2017 15:37 23,5 °C 23,5 °C 48 % 1017,2 hPa 0,0 mm 10,4 km/h (2 Bft) N-NW 341 ° 1 min 0,000 mm 5,4 UV-I 752 W/m² 11,8 °C 23,5 °C 12,9 km/h (3 Bft)
17.05.2017 15:38 23,6 °C 23,6 °C 47 % 1017,2 hPa 0,0 mm 8,3 km/h (2 Bft) NW 323 ° 1 min 0,000 mm 5,4 UV-I 751 W/m² 11,6 °C 23,6 °C 14,5 km/h (3 Bft)
17.05.2017 15:39 23,6 °C 23,6 °C 49 % 1017,2 hPa 0,0 mm 5,4 km/h (1 Bft) N-NW 347 ° 1 min 0,000 mm 5,4 UV-I 749 W/m² 12,2 °C 23,6 °C 8,0 km/h (2 Bft)
17.05.2017 15:40 23,6 °C 23,6 °C 51 % 1017,2 hPa 0,0 mm 5,4 km/h (1 Bft) N-NO 18 ° 1 min 0,000 mm 5,4 UV-I 747 W/m² 12,9 °C 23,6 °C 8,0 km/h (2 Bft)
17.05.2017 15:41 23,7 °C 23,7 °C 47 % 1017,2 hPa 0,0 mm 6,5 km/h (2 Bft) O-NO 74 ° 1 min 0,000 mm 5,3 UV-I 745 W/m² 11,7 °C 23,7 °C 12,9 km/h (3 Bft)
17.05.2017 15:42 23,7 °C 23,7 °C 46 % 1017,2 hPa 0,0 mm 8,2 km/h (2 Bft) O-SO 104 ° 1 min 0,000 mm 5,3 UV-I 742 W/m² 11,4 °C 23,7 °C 12,9 km/h (3 Bft)
17.05.2017 15:43 23,6 °C 23,7 °C 46 % 1017,2 hPa 0,0 mm 13,0 km/h (3 Bft) NO 56 ° 1 min 0,000 mm 5,3 UV-I 740 W/m² 11,3 °C 23,6 °C 19,3 km/h (3 Bft)
17.05.2017 15:44 23,6 °C 23,6 °C 47 % 1017,1 hPa 0,0 mm 9,5 km/h (2 Bft) O-NO 58 ° 1 min 0,000 mm 5,2 UV-I 740 W/m² 11,6 °C 23,6 °C 12,9 km/h (3 Bft)
17.05.2017 15:45 23,4 °C 23,6 °C 47 % 1017,1 hPa 0,0 mm 6,8 km/h (2 Bft) NO 52 ° 1 min 0,000 mm 5,2 UV-I 738 W/m² 11,4 °C 23,4 °C 11,3 km/h (2 Bft)
17.05.2017 15:46 23,6 °C 23,6 °C 47 % 1017,1 hPa 0,0 mm 6,4 km/h (2 Bft) N-NO 31 ° 1 min 0,000 mm 5,2 UV-I 735 W/m² 11,6 °C 23,6 °C 8,0 km/h (2 Bft)
17.05.2017 15:47 23,5 °C 23,6 °C 46 % 1017,1 hPa 0,0 mm 7,5 km/h (2 Bft) N 10 ° 1 min 0,000 mm 5,2 UV-I 733 W/m² 11,2 °C 23,5 °C 11,3 km/h (2 Bft)
17.05.2017 15:49 23,6 °C 23,6 °C 48 % 1017,1 hPa 0,0 mm 6,3 km/h (2 Bft) O-NO 62 ° 2 min 0,000 mm 5,2 UV-I 731 W/m² 11,9 °C 23,6 °C 11,3 km/h (2 Bft)
17.05.2017 15:50 23,6 °C 23,6 °C 47 % 1017,1 hPa 0,0 mm 6,7 km/h (2 Bft) N-NW 339 ° 1 min 0,000 mm 5,1 UV-I 728 W/m² 11,6 °C 23,6 °C 9,7 km/h (2 Bft)
17.05.2017 15:51 23,7 °C 23,7 °C 47 % 1017,1 hPa 0,0 mm 6,4 km/h (2 Bft) N-NO 21 ° 1 min 0,000 mm 5,1 UV-I 728 W/m² 11,7 °C 23,7 °C 8,0 km/h (2 Bft)
17.05.2017 15:52 23,7 °C 23,7 °C 46 % 1017,0 hPa 0,0 mm 11,1 km/h (2 Bft) N-NO 15 ° 1 min 0,000 mm 5,1 UV-I 726 W/m² 11,4 °C 23,7 °C 17,7 km/h (3 Bft)
17.05.2017 15:53 23,6 °C 23,7 °C 44 % 1017,0 hPa 0,0 mm 8,9 km/h (2 Bft) NO 34 ° 1 min 0,000 mm 5,1 UV-I 724 W/m² 10,6 °C 23,6 °C 16,1 km/h (3 Bft)
17.05.2017 15:54 23,6 °C 23,6 °C 45 % 1017,0 hPa 0,0 mm 10,0 km/h (2 Bft) N-NW 335 ° 1 min 0,000 mm 5,1 UV-I 719 W/m² 11,0 °C 23,6 °C 14,5 km/h (3 Bft)
17.05.2017 15:55 23,6 °C 23,6 °C 45 % 1017,0 hPa 0,0 mm 7,6 km/h (2 Bft) N-NO 30 ° 1 min 0,000 mm 5,0 UV-I 719 W/m² 11,0 °C 23,6 °C 9,7 km/h (2 Bft)
17.05.2017 15:56 23,5 °C 23,6 °C 45 % 1017,0 hPa 0,0 mm 5,3 km/h (1 Bft) N-NW 327 ° 1 min 0,000 mm 5,0 UV-I 717 W/m² 10,9 °C 23,5 °C 8,0 km/h (2 Bft)
17.05.2017 15:57 23,5 °C 23,6 °C 48 % 1016,9 hPa 0,0 mm 3,9 km/h (1 Bft) N 9 ° 1 min 0,000 mm 5,0 UV-I 714 W/m² 11,8 °C 23,5 °C 8,0 km/h (2 Bft)
17.05.2017 15:58 23,6 °C 23,6 °C 46 % 1016,9 hPa 0,0 mm 7,6 km/h (2 Bft) O-NO 65 ° 1 min 0,000 mm 4,9 UV-I 712 W/m² 11,3 °C 23,6 °C 11,3 km/h (2 Bft)
17.05.2017 15:59 23,6 °C 23,6 °C 50 % 1016,9 hPa 0,0 mm 4,6 km/h (1 Bft) NO 36 ° 1 min 0,000 mm 4,9 UV-I 710 W/m² 12,6 °C 23,6 °C 8,0 km/h (2 Bft)
17.05.2017 16:00 23,6 °C 23,6 °C 45 % 1016,9 hPa 0,0 mm 13,8 km/h (3 Bft) N-NO 29 ° 1 min 0,000 mm 4,9 UV-I 707 W/m² 11,0 °C 23,6 °C 17,7 km/h (3 Bft)
17.05.2017 16:01 23,6 °C 23,6 °C 44 % 1016,9 hPa 0,0 mm 7,4 km/h (2 Bft) N 11 ° 1 min 0,534 mm 4,9 UV-I 708 W/m² 10,6 °C 23,6 °C 12,9 km/h (3 Bft)
17.05.2017 16:02 23,5 °C 23,6 °C 45 % 1016,9 hPa 0,0 mm 12,7 km/h (3 Bft) N-NO 24 ° 1 min 0,000 mm 4,9 UV-I 708 W/m² 10,9 °C 23,5 °C 17,7 km/h (3 Bft)
17.05.2017 16:03 23,4 °C 23,5 °C 45 % 1016,8 hPa 0,0 mm 10,8 km/h (2 Bft) O 89 ° 1 min 0,000 mm 4,9 UV-I 700 W/m² 10,8 °C 23,4 °C 14,5 km/h (3 Bft)
17.05.2017 16:04 23,3 °C 23,4 °C 46 % 1016,9 hPa 0,0 mm 10,4 km/h (2 Bft) NO 42 ° 1 min 0,000 mm 4,8 UV-I 643 W/m² 11,0 °C 23,3 °C 17,7 km/h (3 Bft)
17.05.2017 16:05 23,2 °C 23,3 °C 46 % 1016,9 hPa 0,0 mm 5,1 km/h (1 Bft) NO 55 ° 1 min 0,000 mm 3,9 UV-I 643 W/m² 10,9 °C 23,2 °C 11,3 km/h (2 Bft)
17.05.2017 16:06 23,2 °C 23,2 °C 47 % 1016,8 hPa 0,0 mm 10,6 km/h (2 Bft) N-NO 24 ° 1 min 0,000 mm 3,9 UV-I 643 W/m² 11,3 °C 23,2 °C 14,5 km/h (3 Bft)
17.05.2017 16:07 23,2 °C 23,2 °C 46 % 1016,9 hPa 0,0 mm 15,1 km/h (3 Bft) O 84 ° 1 min 0,000 mm 4,7 UV-I 643 W/m² 10,9 °C 23,2 °C 24,1 km/h (4 Bft)
17.05.2017 16:08 23,1 °C 23,2 °C 46 % 1016,9 hPa 0,0 mm 7,6 km/h (2 Bft) N-NO 25 ° 1 min 0,000 mm 2,5 UV-I 643 W/m² 10,8 °C 23,1 °C 17,7 km/h (3 Bft)
17.05.2017 16:09 23,0 °C 23,1 °C 46 % 1016,8 hPa 0,0 mm 5,0 km/h (1 Bft) N-NO 15 ° 1 min 0,000 mm 2,5 UV-I 643 W/m² 10,7 °C 23,0 °C 11,3 km/h (2 Bft)
17.05.2017 16:10 23,1 °C 23,1 °C 46 % 1016,8 hPa 0,0 mm 8,2 km/h (2 Bft) O-NO 57 ° 0 min 0,000 mm 3,0 UV-I 171 W/m² 10,8 °C 23,1 °C 12,9 km/h (3 Bft)
17.05.2017 16:11 23,1 °C 23,2 °C 46 % 1016,8 hPa 0,0 mm 10,9 km/h (2 Bft) N-NW 330 ° 0 min 0,000 mm 2,7 UV-I 95 W/m² 10,8 °C 23,1 °C 19,3 km/h (3 Bft)
17.05.2017 16:12 23,2 °C 23,2 °C 47 % 1016,7 hPa 0,0 mm 4,6 km/h (1 Bft) N-NO 21 ° 0 min 0,000 mm 2,2 UV-I 56 W/m² 11,3 °C 23,2 °C 8,0 km/h (2 Bft)
17.05.2017 16:13 23,2 °C 23,2 °C 47 % 1016,7 hPa 0,0 mm 8,9 km/h (2 Bft) N-NO 22 ° 0 min 0,000 mm 2,1 UV-I 58 W/m² 11,3 °C 23,2 °C 16,1 km/h (3 Bft)
17.05.2017 16:14 23,2 °C 23,2 °C 47 % 1016,7 hPa 0,0 mm 9,4 km/h (2 Bft) N 5 ° 0 min 0,000 mm 2,1 UV-I 60 W/m² 11,3 °C 23,2 °C 16,1 km/h (3 Bft)
17.05.2017 16:15 23,3 °C 23,3 °C 49 % 1016,7 hPa 0,0 mm 5,9 km/h (2 Bft) O-SO 103 ° 0 min 0,000 mm 2,1 UV-I 67 W/m² 12,0 °C 23,3 °C 9,7 km/h (2 Bft)
17.05.2017 16:16 23,3 °C 23,4 °C 47 % 1016,7 hPa 0,0 mm 5,1 km/h (1 Bft) N-NO 20 ° 0 min 0,000 mm 2,1 UV-I 77 W/m² 11,3 °C 23,3 °C 8,0 km/h (2 Bft)
17.05.2017 16:17 23,4 °C 23,4 °C 48 % 1016,7 hPa 0,0 mm 6,7 km/h (2 Bft) NO 43 ° 0 min 0,000 mm 2,2 UV-I 76 W/m² 11,8 °C 23,4 °C 11,3 km/h (2 Bft)
17.05.2017 16:18 23,4 °C 23,5 °C 47 % 1016,7 hPa 0,0 mm 11,2 km/h (2 Bft) N 360 ° 0 min 0,000 mm 2,2 UV-I 207 W/m² 11,4 °C 23,4 °C 16,1 km/h (3 Bft)
17.05.2017 16:19 23,4 °C 23,4 °C 46 % 1016,7 hPa 0,0 mm 10,6 km/h (2 Bft) N-NO 26 ° 0 min 0,000 mm 2,3 UV-I 209 W/m² 11,1 °C 23,4 °C 17,7 km/h (3 Bft)
17.05.2017 16:20 23,4 °C 23,4 °C 46 % 1016,7 hPa 0,0 mm 11,1 km/h (2 Bft) O 92 ° 0 min 0,000 mm 2,2 UV-I 209 W/m² 11,1 °C 23,4 °C 17,7 km/h (3 Bft)
17.05.2017 16:21 23,4 °C 23,4 °C 50 % 1016,7 hPa 0,0 mm 10,1 km/h (2 Bft) O-NO 57 ° 0 min 0,000 mm 2,3 UV-I 111 W/m² 12,4 °C 23,4 °C 16,1 km/h (3 Bft)
17.05.2017 16:22 23,3 °C 23,4 °C 48 % 1016,7 hPa 0,0 mm 9,5 km/h (2 Bft) O-NO 58 ° 0 min 0,000 mm 2,2 UV-I 146 W/m² 11,7 °C 23,3 °C 16,1 km/h (3 Bft)
17.05.2017 16:23 23,2 °C 23,3 °C 46 % 1016,6 hPa 0,0 mm 12,4 km/h (3 Bft) NO 52 ° 0 min 0,000 mm 2,5 UV-I 179 W/m² 10,9 °C 23,2 °C 17,7 km/h (3 Bft)
17.05.2017 16:24 23,2 °C 23,3 °C 46 % 1016,6 hPa 0,0 mm 8,0 km/h (2 Bft) N 360 ° 0 min 0,000 mm 2,6 UV-I 172 W/m² 10,9 °C 23,2 °C 12,9 km/h (3 Bft)
17.05.2017 16:25 23,3 °C 23,3 °C 46 % 1016,6 hPa 0,0 mm 8,9 km/h (2 Bft) O-NO 71 ° 0 min 0,000 mm 2,3 UV-I 142 W/m² 11,0 °C 23,3 °C 12,9 km/h (3 Bft)
17.05.2017 16:26 23,3 °C 23,3 °C 47 % 1016,5 hPa 0,0 mm 5,5 km/h (1 Bft) O-NO 71 ° 0 min 0,000 mm 2,2 UV-I 186 W/m² 11,3 °C 23,3 °C 11,3 km/h (2 Bft)
17.05.2017 16:27 23,3 °C 23,3 °C 46 % 1016,6 hPa 0,0 mm 7,0 km/h (2 Bft) NO 53 ° 0 min 0,000 mm 2,3 UV-I 174 W/m² 11,0 °C 23,3 °C 16,1 km/h (3 Bft)
17.05.2017 16:28 23,3 °C 23,3 °C 48 % 1016,5 hPa 0,0 mm 8,9 km/h (2 Bft) O-NO 61 ° 0 min 0,000 mm 2,7 UV-I 213 W/m² 11,7 °C 23,3 °C 14,5 km/h (3 Bft)
17.05.2017 16:29 23,3 °C 23,3 °C 46 % 1016,5 hPa 0,0 mm 4,7 km/h (1 Bft) NO 39 ° 0 min 0,000 mm 2,4 UV-I 262 W/m² 11,0 °C 23,3 °C 12,9 km/h (3 Bft)
17.05.2017 16:30 23,2 °C 23,3 °C 46 % 1016,5 hPa 0,0 mm 2,6 km/h (1 Bft) O-NO 74 ° 0 min 0,000 mm 2,2 UV-I 262 W/m² 10,9 °C 23,2 °C 4,8 km/h (1 Bft)
17.05.2017 16:31 23,1 °C 23,2 °C 45 % 1016,5 hPa 0,0 mm 9,3 km/h (2 Bft) O 82 ° 0 min 0,000 mm 2,4 UV-I 77 W/m² 10,5 °C 23,1 °C 19,3 km/h (3 Bft)
17.05.2017 16:32 23,1 °C 23,1 °C 46 % 1016,4 hPa 0,0 mm 7,4 km/h (2 Bft) O-NO 58 ° 0 min 0,000 mm 0,0 UV-I 54 W/m² 10,8 °C 23,1 °C 12,9 km/h (3 Bft)
17.05.2017 16:33 23,1 °C 23,1 °C 46 % 1016,4 hPa 0,0 mm 13,2 km/h (3 Bft) O-NO 69 ° 0 min 0,000 mm 0,0 UV-I 53 W/m² 10,8 °C 23,1 °C 19,3 km/h (3 Bft)
17.05.2017 16:34 23,1 °C 23,1 °C 48 % 1016,3 hPa 0,0 mm 6,9 km/h (2 Bft) O-NO 65 ° 0 min 0,000 mm 0,0 UV-I 60 W/m² 11,5 °C 23,1 °C 12,9 km/h (3 Bft)
17.05.2017 16:35 23,1 °C 23,1 °C 47 % 1016,4 hPa 0,0 mm 9,0 km/h (2 Bft) NO 45 ° 0 min 0,000 mm 1,9 UV-I 46 W/m² 11,2 °C 23,1 °C 14,5 km/h (3 Bft)
17.05.2017 16:36 23,1 °C 23,1 °C 47 % 1016,4 hPa 0,0 mm 11,3 km/h (2 Bft) O-NO 64 ° 0 min 0,000 mm 0,0 UV-I 46 W/m² 11,2 °C 23,1 °C 17,7 km/h (3 Bft)
17.05.2017 16:37 23,2 °C 23,2 °C 47 % 1016,4 hPa 0,0 mm 7,9 km/h (2 Bft) O 82 ° 0 min 0,000 mm 0,0 UV-I 47 W/m² 11,3 °C 23,2 °C 12,9 km/h (3 Bft)
17.05.2017 16:38 23,2 °C 23,2 °C 53 % 1016,4 hPa 0,0 mm 7,5 km/h (2 Bft) SO 142 ° 0 min 0,000 mm 0,0 UV-I 46 W/m² 13,1 °C 23,2 °C 14,5 km/h (3 Bft)
17.05.2017 16:39 23,1 °C 23,2 °C 48 % 1016,3 hPa 0,0 mm 6,4 km/h (2 Bft) O-NO 65 ° 0 min 0,000 mm 1,9 UV-I 62 W/m² 11,5 °C 23,1 °C 14,5 km/h (3 Bft)
17.05.2017 16:40 23,2 °C 23,2 °C 49 % 1016,3 hPa 0,0 mm 8,3 km/h (2 Bft) O-NO 78 ° 0 min 0,000 mm 0,0 UV-I 62 W/m² 11,9 °C 23,2 °C 11,3 km/h (2 Bft)
17.05.2017 16:41 23,2 °C 23,2 °C 47 % 1016,4 hPa 0,0 mm 7,0 km/h (2 Bft) O-NO 76 ° 0 min 0,000 mm 0,0 UV-I 49 W/m² 11,3 °C 23,2 °C 12,9 km/h (3 Bft)
17.05.2017 16:42 23,2 °C 23,2 °C 46 % 1016,3 hPa 0,0 mm 9,7 km/h (2 Bft) O 92 ° 0 min 0,000 mm 1,9 UV-I 63 W/m² 10,9 °C 23,2 °C 14,5 km/h (3 Bft)
17.05.2017 16:43 23,1 °C 23,2 °C 45 % 1016,3 hPa 0,0 mm 7,2 km/h (2 Bft) O-NO 70 ° 0 min 0,000 mm 1,8 UV-I 56 W/m² 10,5 °C 23,1 °C 11,3 km/h (2 Bft)
17.05.2017 16:44 23,1 °C 23,1 °C 47 % 1016,4 hPa 0,0 mm 3,2 km/h (1 Bft) NO 47 ° 0 min 0,000 mm 1,8 UV-I 86 W/m² 11,2 °C 23,1 °C 6,4 km/h (2 Bft)
17.05.2017 16:45 23,1 °C 23,1 °C 49 % 1016,3 hPa 0,0 mm 5,6 km/h (1 Bft) O-NO 64 ° 0 min 0,000 mm 1,9 UV-I 77 W/m² 11,8 °C 23,1 °C 9,7 km/h (2 Bft)
17.05.2017 16:46 23,2 °C 23,2 °C 48 % 1016,3 hPa 0,0 mm 7,6 km/h (2 Bft) O-NO 65 ° 0 min 0,000 mm 1,8 UV-I 81 W/m² 11,6 °C 23,2 °C 16,1 km/h (3 Bft)
17.05.2017 16:47 23,2 °C 23,2 °C 48 % 1016,3 hPa 0,0 mm 8,3 km/h (2 Bft) NO 51 ° 0 min 0,000 mm 2,0 UV-I 88 W/m² 11,6 °C 23,2 °C 12,9 km/h (3 Bft)
17.05.2017 16:48 23,2 °C 23,2 °C 47 % 1016,3 hPa 0,0 mm 10,6 km/h (2 Bft) O 88 ° 0 min 0,000 mm 1,9 UV-I 91 W/m² 11,3 °C 23,2 °C 17,7 km/h (3 Bft)
17.05.2017 16:49 23,2 °C 23,2 °C 47 % 1016,3 hPa 0,0 mm 4,3 km/h (1 Bft) O-NO 61 ° 0 min 0,000 mm 1,9 UV-I 53 W/m² 11,3 °C 23,2 °C 8,0 km/h (2 Bft)
17.05.2017 16:50 23,2 °C 23,2 °C 48 % 1016,3 hPa 0,0 mm 6,1 km/h (2 Bft) O-NO 63 ° 0 min 0,000 mm 1,8 UV-I 53 W/m² 11,6 °C 23,2 °C 8,0 km/h (2 Bft)
17.05.2017 16:51 23,2 °C 23,2 °C 51 % 1016,3 hPa 0,0 mm 7,3 km/h (2 Bft) O 86 ° 0 min 0,000 mm 1,9 UV-I 76 W/m² 12,5 °C 23,2 °C 12,9 km/h (3 Bft)
17.05.2017 16:52 23,3 °C 23,3 °C 48 % 1016,3 hPa 0,0 mm 8,0 km/h (2 Bft) NO 48 ° 0 min 0,000 mm 1,8 UV-I 47 W/m² 11,7 °C 23,3 °C 14,5 km/h (3 Bft)
17.05.2017 16:53 23,2 °C 23,3 °C 49 % 1016,2 hPa 0,0 mm 9,9 km/h (2 Bft) O-NO 76 ° 0 min 0,000 mm 0,0 UV-I 53 W/m² 11,9 °C 23,2 °C 14,5 km/h (3 Bft)
17.05.2017 16:54 23,2 °C 23,3 °C 46 % 1016,3 hPa 0,0 mm 6,4 km/h (2 Bft) O 93 ° 0 min 0,000 mm 0,0 UV-I 51 W/m² 10,9 °C 23,2 °C 11,3 km/h (2 Bft)
17.05.2017 16:55 23,1 °C 23,2 °C 46 % 1016,3 hPa 0,0 mm 9,2 km/h (2 Bft) NO 41 ° 0 min 0,000 mm 1,7 UV-I 56 W/m² 10,8 °C 23,1 °C 12,9 km/h (3 Bft)
17.05.2017 16:56 23,1 °C 23,1 °C 47 % 1016,3 hPa 0,0 mm 11,1 km/h (2 Bft) NO 45 ° 0 min 0,000 mm 0,0 UV-I 51 W/m² 11,2 °C 23,1 °C 16,1 km/h (3 Bft)
17.05.2017 16:57 23,0 °C 23,1 °C 46 % 1016,3 hPa 0,0 mm 9,4 km/h (2 Bft) NO 53 ° 0 min 0,000 mm 0,0 UV-I 51 W/m² 10,7 °C 23,0 °C 14,5 km/h (3 Bft)
17.05.2017 16:58 22,9 °C 23,0 °C 45 % 1016,3 hPa 0,0 mm 7,3 km/h (2 Bft) N-NO 19 ° 0 min 0,000 mm 0,0 UV-I 54 W/m² 10,3 °C 22,9 °C 12,9 km/h (3 Bft)
17.05.2017 16:59 22,9 °C 22,9 °C 46 % 1016,2 hPa 0,0 mm 9,7 km/h (2 Bft) O 86 ° 0 min 0,000 mm 0,0 UV-I 53 W/m² 10,7 °C 22,9 °C 14,5 km/h (3 Bft)
17.05.2017 17:00 22,9 °C 22,9 °C 46 % 1016,2 hPa 0,0 mm 7,1 km/h (2 Bft) N 349 ° 0 min 0,000 mm 1,7 UV-I 72 W/m² 10,7 °C 22,9 °C 12,9 km/h (3 Bft)
17.05.2017 17:01 22,9 °C 22,9 °C 47 % 1016,1 hPa 0,0 mm 11,1 km/h (2 Bft) O 90 ° 0 min 0,178 mm 1,7 UV-I 118 W/m² 11,0 °C 22,9 °C 17,7 km/h (3 Bft)
17.05.2017 17:02 23,0 °C 23,0 °C 47 % 1016,2 hPa 0,0 mm 10,9 km/h (2 Bft) NO 37 ° 0 min 0,000 mm 0,0 UV-I 51 W/m² 11,1 °C 23,0 °C 17,7 km/h (3 Bft)
17.05.2017 17:03 23,0 °C 23,0 °C 47 % 1016,2 hPa 0,0 mm 12,5 km/h (3 Bft) N-NO 30 ° 0 min 0,000 mm 0,0 UV-I 46 W/m² 11,1 °C 23,0 °C 16,1 km/h (3 Bft)
17.05.2017 17:04 23,0 °C 23,0 °C 48 % 1016,2 hPa 0,0 mm 5,5 km/h (1 Bft) O-NO 78 ° 0 min 0,000 mm 0,0 UV-I 54 W/m² 11,4 °C 23,0 °C 12,9 km/h (3 Bft)
17.05.2017 17:05 22,9 °C 23,0 °C 48 % 1016,2 hPa 0,0 mm 7,3 km/h (2 Bft) O-NO 65 ° 0 min 0,000 mm 0,0 UV-I 44 W/m² 11,3 °C 22,9 °C 12,9 km/h (3 Bft)
17.05.2017 17:06 22,9 °C 23,0 °C 48 % 1016,2 hPa 0,0 mm 7,7 km/h (2 Bft) N 360 ° 0 min 0,000 mm 0,0 UV-I 54 W/m² 11,3 °C 22,9 °C 11,3 km/h (2 Bft)
17.05.2017 17:07 22,9 °C 22,9 °C 48 % 1016,2 hPa 0,0 mm 6,4 km/h (2 Bft) N-NO 12 ° 0 min 0,000 mm 1,8 UV-I 63 W/m² 11,3 °C 22,9 °C 9,7 km/h (2 Bft)
17.05.2017 17:08 22,9 °C 22,9 °C 47 % 1016,2 hPa 0,0 mm 3,5 km/h (1 Bft) N 5 ° 0 min 0,000 mm 1,8 UV-I 81 W/m² 11,0 °C 22,9 °C 6,4 km/h (2 Bft)
17.05.2017 17:09 23,0 °C 23,0 °C 49 % 1016,2 hPa 0,0 mm 5,4 km/h (1 Bft) O 80 ° 0 min 0,000 mm 1,9 UV-I 149 W/m² 11,7 °C 23,0 °C 11,3 km/h (2 Bft)
17.05.2017 17:10 23,0 °C 23,1 °C 47 % 1016,1 hPa 0,0 mm 13,2 km/h (3 Bft) O 92 ° 0 min 0,000 mm 1,8 UV-I 83 W/m² 11,1 °C 23,0 °C 19,3 km/h (3 Bft)
17.05.2017 17:11 23,0 °C 23,1 °C 48 % 1016,1 hPa 0,0 mm 6,3 km/h (2 Bft) NO 56 ° 0 min 0,000 mm 0,0 UV-I 47 W/m² 11,4 °C 23,0 °C 11,3 km/h (2 Bft)
17.05.2017 17:12 23,0 °C 23,0 °C 47 % 1016,1 hPa 0,0 mm 8,2 km/h (2 Bft) NO 55 ° 0 min 0,000 mm 1,6 UV-I 63 W/m² 11,1 °C 23,0 °C 14,5 km/h (3 Bft)
17.05.2017 17:13 23,1 °C 23,1 °C 48 % 1016,2 hPa 0,0 mm 9,1 km/h (2 Bft) O 85 ° 0 min 0,000 mm 1,6 UV-I 70 W/m² 11,5 °C 23,1 °C 14,5 km/h (3 Bft)
17.05.2017 17:14 23,1 °C 23,1 °C 46 % 1016,1 hPa 0,0 mm 7,4 km/h (2 Bft) O-NO 71 ° 0 min 0,000 mm 1,6 UV-I 76 W/m² 10,8 °C 23,1 °C 12,9 km/h (3 Bft)
17.05.2017 17:15 23,1 °C 23,1 °C 47 % 1016,1 hPa 0,0 mm 5,9 km/h (2 Bft) N-NO 18 ° 0 min 0,000 mm 1,6 UV-I 44 W/m² 11,2 °C 23,1 °C 8,0 km/h (2 Bft)
17.05.2017 17:16 23,1 °C 23,1 °C 48 % 1016,1 hPa 0,0 mm 7,0 km/h (2 Bft) O 101 ° 0 min 0,000 mm 0,0 UV-I 42 W/m² 11,5 °C 23,1 °C 9,7 km/h (2 Bft)
17.05.2017 17:17 23,1 °C 23,1 °C 48 % 1016,1 hPa 0,0 mm 7,2 km/h (2 Bft) O 84 ° 0 min 0,000 mm 1,6 UV-I 63 W/m² 11,5 °C 23,1 °C 11,3 km/h (2 Bft)
17.05.2017 17:18 23,0 °C 23,1 °C 47 % 1016,1 hPa 0,0 mm 7,9 km/h (2 Bft) O-NO 78 ° 0 min 0,000 mm 0,0 UV-I 51 W/m² 11,1 °C 23,0 °C 14,5 km/h (3 Bft)
17.05.2017 17:19 23,0 °C 23,0 °C 48 % 1016,1 hPa 0,0 mm 10,3 km/h (2 Bft) O-NO 73 ° 0 min 0,000 mm 1,6 UV-I 69 W/m² 11,4 °C 23,0 °C 16,1 km/h (3 Bft)
17.05.2017 17:20 23,0 °C 23,1 °C 48 % 1016,0 hPa 0,0 mm 7,0 km/h (2 Bft) O-NO 63 ° 0 min 0,000 mm 1,7 UV-I 83 W/m² 11,4 °C 23,0 °C 11,3 km/h (2 Bft)
17.05.2017 17:21 23,1 °C 23,1 °C 47 % 1016,0 hPa 0,0 mm 8,7 km/h (2 Bft) O 82 ° 0 min 0,000 mm 1,7 UV-I 49 W/m² 11,2 °C 23,1 °C 14,5 km/h (3 Bft)
17.05.2017 17:22 23,1 °C 23,1 °C 47 % 1016,0 hPa 0,0 mm 14,3 km/h (3 Bft) S-SO 148 ° 0 min 0,000 mm 1,6 UV-I 63 W/m² 11,2 °C 23,1 °C 17,7 km/h (3 Bft)
17.05.2017 17:23 23,0 °C 23,1 °C 50 % 1016,1 hPa 0,0 mm 10,7 km/h (2 Bft) O-NO 62 ° 0 min 0,000 mm 0,0 UV-I 53 W/m² 12,0 °C 23,0 °C 14,5 km/h (3 Bft)
17.05.2017 17:24 23,0 °C 23,0 °C 47 % 1016,0 hPa 0,0 mm 9,6 km/h (2 Bft) SO 125 ° 0 min 0,000 mm 0,0 UV-I 51 W/m² 11,1 °C 23,0 °C 14,5 km/h (3 Bft)
17.05.2017 17:25 22,9 °C 23,0 °C 46 % 1015,9 hPa 0,0 mm 6,7 km/h (2 Bft) NO 55 ° 0 min 0,000 mm 0,0 UV-I 46 W/m² 10,7 °C 22,9 °C 11,3 km/h (2 Bft)
17.05.2017 17:26 22,8 °C 22,9 °C 47 % 1016,0 hPa 0,0 mm 5,2 km/h (1 Bft) O 92 ° 0 min 0,000 mm 0,0 UV-I 42 W/m² 10,9 °C 22,8 °C 12,9 km/h (3 Bft)
17.05.2017 17:27 22,8 °C 22,9 °C 47 % 1016,0 hPa 0,0 mm 10,7 km/h (2 Bft) O 95 ° 0 min 0,000 mm 0,0 UV-I 42 W/m² 10,9 °C 22,8 °C 14,5 km/h (3 Bft)
17.05.2017 17:28 22,8 °C 22,8 °C 47 % 1015,9 hPa 0,0 mm 7,8 km/h (2 Bft) N-NO 26 ° 0 min 0,000 mm 0,0 UV-I 44 W/m² 10,9 °C 22,8 °C 16,1 km/h (3 Bft)
17.05.2017 17:29 22,8 °C 22,8 °C 48 % 1015,9 hPa 0,0 mm 8,4 km/h (2 Bft) O-NO 67 ° 0 min 0,000 mm 0,0 UV-I 42 W/m² 11,2 °C 22,8 °C 19,3 km/h (3 Bft)
17.05.2017 17:30 22,8 °C 22,9 °C 48 % 1015,9 hPa 0,0 mm 10,8 km/h (2 Bft) O-NO 69 ° 0 min 0,000 mm 0,0 UV-I 47 W/m² 11,2 °C 22,8 °C 16,1 km/h (3 Bft)
17.05.2017 17:31 22,8 °C 22,9 °C 50 % 1015,9 hPa 0,0 mm 6,2 km/h (2 Bft) N 5 ° 0 min 0,000 mm 1,5 UV-I 91 W/m² 11,8 °C 22,8 °C 9,7 km/h (2 Bft)
17.05.2017 17:32 22,9 °C 22,9 °C 47 % 1015,9 hPa 0,0 mm 7,9 km/h (2 Bft) N-NO 33 ° 0 min 0,000 mm 1,5 UV-I 121 W/m² 11,0 °C 22,9 °C 9,7 km/h (2 Bft)
17.05.2017 17:33 23,0 °C 23,0 °C 48 % 1015,9 hPa 0,0 mm 7,4 km/h (2 Bft) NO 40 ° 0 min 0,000 mm 1,5 UV-I 58 W/m² 11,4 °C 23,0 °C 11,3 km/h (2 Bft)
17.05.2017 17:34 23,0 °C 23,0 °C 48 % 1015,9 hPa 0,0 mm 9,4 km/h (2 Bft) N-NO 13 ° 0 min 0,000 mm 0,0 UV-I 58 W/m² 11,4 °C 23,0 °C 12,9 km/h (3 Bft)
17.05.2017 17:35 22,9 °C 23,0 °C 47 % 1015,9 hPa 0,0 mm 7,2 km/h (2 Bft) O 89 ° 0 min 0,000 mm 0,0 UV-I 46 W/m² 11,0 °C 22,9 °C 11,3 km/h (2 Bft)
17.05.2017 17:36 22,9 °C 22,9 °C 47 % 1015,9 hPa 0,0 mm 8,1 km/h (2 Bft) NO 53 ° 0 min 0,000 mm 0,0 UV-I 51 W/m² 11,0 °C 22,9 °C 12,9 km/h (3 Bft)
17.05.2017 17:37 22,9 °C 22,9 °C 47 % 1015,9 hPa 0,0 mm 9,7 km/h (2 Bft) O-NO 57 ° 0 min 0,000 mm 0,0 UV-I 46 W/m² 11,0 °C 22,9 °C 16,1 km/h (3 Bft)
17.05.2017 17:38 22,8 °C 22,9 °C 48 % 1015,9 hPa 0,0 mm 13,2 km/h (3 Bft) O-NO 76 ° 0 min 0,000 mm 0,0 UV-I 46 W/m² 11,2 °C 22,8 °C 17,7 km/h (3 Bft)
17.05.2017 17:39 22,8 °C 22,8 °C 47 % 1015,9 hPa 0,0 mm 8,7 km/h (2 Bft) NO 41 ° 0 min 0,000 mm 1,4 UV-I 58 W/m² 10,9 °C 22,8 °C 12,9 km/h (3 Bft)
17.05.2017 17:40 22,8 °C 22,8 °C 46 % 1015,8 hPa 0,0 mm 7,1 km/h (2 Bft) O-NO 61 ° 0 min 0,000 mm 0,0 UV-I 42 W/m² 10,6 °C 22,8 °C 11,3 km/h (2 Bft)
17.05.2017 17:41 22,8 °C 22,8 °C 47 % 1015,8 hPa 0,0 mm 5,9 km/h (2 Bft) NW 325 ° 0 min 0,000 mm 0,0 UV-I 42 W/m² 10,9 °C 22,8 °C 11,3 km/h (2 Bft)
17.05.2017 17:42 22,8 °C 22,9 °C 47 % 1015,8 hPa 0,0 mm 11,1 km/h (2 Bft) O-NO 61 ° 0 min 0,000 mm 0,0 UV-I 53 W/m² 10,9 °C 22,8 °C 17,7 km/h (3 Bft)
17.05.2017 17:43 22,9 °C 22,9 °C 47 % 1015,8 hPa 0,0 mm 8,8 km/h (2 Bft) NO 41 ° 0 min 0,000 mm 1,5 UV-I 58 W/m² 11,0 °C 22,9 °C 12,9 km/h (3 Bft)
17.05.2017 17:44 22,9 °C 22,9 °C 51 % 1015,7 hPa 0,0 mm 4,3 km/h (1 Bft) NO 34 ° 0 min 0,000 mm 1,4 UV-I 58 W/m² 12,2 °C 22,9 °C 6,4 km/h (2 Bft)
17.05.2017 17:45 22,9 °C 22,9 °C 48 % 1015,8 hPa 0,0 mm 5,5 km/h (1 Bft) N-NO 31 ° 0 min 0,000 mm 1,4 UV-I 69 W/m² 11,3 °C 22,9 °C 6,4 km/h (2 Bft)
17.05.2017 17:46 23,0 °C 23,0 °C 47 % 1015,7 hPa 0,0 mm 7,3 km/h (2 Bft) O-NO 65 ° 0 min 0,000 mm 1,3 UV-I 70 W/m² 11,1 °C 23,0 °C 11,3 km/h (2 Bft)
17.05.2017 17:47 23,0 °C 23,0 °C 48 % 1015,8 hPa 0,0 mm 6,9 km/h (2 Bft) O-NO 76 ° 0 min 0,000 mm 1,3 UV-I 62 W/m² 11,4 °C 23,0 °C 9,7 km/h (2 Bft)
17.05.2017 17:48 23,0 °C 23,0 °C 48 % 1015,7 hPa 0,0 mm 6,5 km/h (2 Bft) N-NO 32 ° 0 min 0,000 mm 0,0 UV-I 44 W/m² 11,4 °C 23,0 °C 11,3 km/h (2 Bft)
17.05.2017 17:49 23,0 °C 23,0 °C 47 % 1015,8 hPa 0,0 mm 9,7 km/h (2 Bft) O-NO 62 ° 0 min 0,000 mm 1,4 UV-I 83 W/m² 11,1 °C 23,0 °C 16,1 km/h (3 Bft)
17.05.2017 17:50 22,9 °C 23,0 °C 46 % 1015,7 hPa 0,0 mm 9,3 km/h (2 Bft) O 94 ° 0 min 0,000 mm 0,0 UV-I 56 W/m² 10,7 °C 22,9 °C 12,9 km/h (3 Bft)
17.05.2017 17:51 22,9 °C 22,9 °C 47 % 1015,7 hPa 0,0 mm 6,5 km/h (2 Bft) NO 53 ° 0 min 0,000 mm 0,0 UV-I 53 W/m² 11,0 °C 22,9 °C 11,3 km/h (2 Bft)
17.05.2017 17:52 22,8 °C 22,9 °C 46 % 1015,7 hPa 0,0 mm 11,1 km/h (2 Bft) O-NO 63 ° 0 min 0,000 mm 0,0 UV-I 46 W/m² 10,6 °C 22,8 °C 17,7 km/h (3 Bft)
17.05.2017 17:53 22,8 °C 22,8 °C 46 % 1015,7 hPa 0,0 mm 13,6 km/h (3 Bft) O-NO 61 ° 0 min 0,000 mm 0,0 UV-I 54 W/m² 10,6 °C 22,8 °C 17,7 km/h (3 Bft)
17.05.2017 17:54 22,7 °C 22,8 °C 46 % 1015,7 hPa 0,0 mm 7,0 km/h (2 Bft) NO 55 ° 0 min 0,000 mm 0,0 UV-I 53 W/m² 10,5 °C 22,7 °C 12,9 km/h (3 Bft)
17.05.2017 17:55 22,7 °C 22,7 °C 48 % 1015,7 hPa 0,0 mm 4,0 km/h (1 Bft) O 84 ° 0 min 0,000 mm 0,0 UV-I 54 W/m² 11,1 °C 22,7 °C 6,4 km/h (2 Bft)
17.05.2017 17:56 22,7 °C 22,7 °C 49 % 1015,7 hPa 0,0 mm 10,3 km/h (2 Bft) O 98 ° 0 min 0,000 mm 0,0 UV-I 46 W/m² 11,4 °C 22,7 °C 14,5 km/h (3 Bft)
17.05.2017 17:57 22,7 °C 22,7 °C 47 % 1015,7 hPa 0,0 mm 9,5 km/h (2 Bft) O-NO 67 ° 0 min 0,000 mm 1,3 UV-I 70 W/m² 10,8 °C 22,7 °C 16,1 km/h (3 Bft)
17.05.2017 17:58 22,7 °C 22,7 °C 47 % 1015,7 hPa 0,0 mm 6,6 km/h (2 Bft) O-NO 74 ° 0 min 0,000 mm 1,3 UV-I 70 W/m² 10,8 °C 22,7 °C 11,3 km/h (2 Bft)
17.05.2017 17:59 22,7 °C 22,7 °C 47 % 1015,7 hPa 0,0 mm 7,6 km/h (2 Bft) O 82 ° 0 min 0,000 mm 1,3 UV-I 63 W/m² 10,8 °C 22,7 °C 14,5 km/h (3 Bft)
17.05.2017 18:00 22,6 °C 22,7 °C 47 % 1015,7 hPa 0,0 mm 9,0 km/h (2 Bft) O-NO 72 ° 0 min 0,000 mm 1,3 UV-I 74 W/m² 10,7 °C 22,6 °C 12,9 km/h (3 Bft)
17.05.2017 18:01 22,6 °C 22,6 °C 46 % 1015,7 hPa 0,0 mm 11,0 km/h (2 Bft) O-NO 57 ° 0 min 0,101 mm 1,3 UV-I 83 W/m² 10,4 °C 22,6 °C 16,1 km/h (3 Bft)
17.05.2017 18:02 22,6 °C 22,6 °C 46 % 1015,7 hPa 0,0 mm 9,9 km/h (2 Bft) N-NO 22 ° 0 min 0,000 mm 1,3 UV-I 54 W/m² 10,4 °C 22,6 °C 14,5 km/h (3 Bft)
17.05.2017 18:03 22,6 °C 22,6 °C 46 % 1015,6 hPa 0,0 mm 7,2 km/h (2 Bft) NO 37 ° 0 min 0,000 mm 1,3 UV-I 60 W/m² 10,4 °C 22,6 °C 12,9 km/h (3 Bft)
17.05.2017 18:04 22,7 °C 22,7 °C 47 % 1015,7 hPa 0,0 mm 11,0 km/h (2 Bft) O-NO 67 ° 0 min 0,000 mm 1,3 UV-I 53 W/m² 10,8 °C 22,7 °C 17,7 km/h (3 Bft)
17.05.2017 18:05 22,7 °C 22,7 °C 47 % 1015,6 hPa 0,0 mm 15,9 km/h (3 Bft) O-NO 71 ° 0 min 0,000 mm 1,3 UV-I 56 W/m² 10,8 °C 22,7 °C 19,3 km/h (3 Bft)
17.05.2017 18:06 22,7 °C 22,7 °C 47 % 1015,7 hPa 0,0 mm 10,5 km/h (2 Bft) NO 47 ° 0 min 0,000 mm 1,4 UV-I 95 W/m² 10,8 °C 22,7 °C 14,5 km/h (3 Bft)
17.05.2017 18:07 22,6 °C 22,7 °C 47 % 1015,6 hPa 0,0 mm 6,6 km/h (2 Bft) O-NO 61 ° 0 min 0,000 mm 1,3 UV-I 76 W/m² 10,7 °C 22,6 °C 12,9 km/h (3 Bft)
17.05.2017 18:08 22,6 °C 22,6 °C 47 % 1015,6 hPa 0,0 mm 5,0 km/h (1 Bft) O-NO 61 ° 0 min 0,000 mm 1,3 UV-I 40 W/m² 10,7 °C 22,6 °C 6,4 km/h (2 Bft)
17.05.2017 18:09 22,6 °C 22,6 °C 46 % 1015,6 hPa 0,0 mm 6,4 km/h (2 Bft) NO 42 ° 0 min 0,000 mm 0,0 UV-I 40 W/m² 10,4 °C 22,6 °C 11,3 km/h (2 Bft)
17.05.2017 18:10 22,6 °C 22,6 °C 49 % 1015,6 hPa 0,0 mm 5,1 km/h (1 Bft) NO 53 ° 0 min 0,000 mm 1,2 UV-I 77 W/m² 11,3 °C 22,6 °C 6,4 km/h (2 Bft)
17.05.2017 18:11 22,6 °C 22,6 °C 49 % 1015,6 hPa 0,0 mm 7,9 km/h (2 Bft) O-NO 67 ° 0 min 0,000 mm 1,2 UV-I 69 W/m² 11,3 °C 22,6 °C 14,5 km/h (3 Bft)
17.05.2017 18:12 22,6 °C 22,6 °C 48 % 1015,6 hPa 0,0 mm 9,0 km/h (2 Bft) O-NO 69 ° 0 min 0,000 mm 1,2 UV-I 70 W/m² 11,0 °C 22,6 °C 12,9 km/h (3 Bft)
17.05.2017 18:13 22,6 °C 22,6 °C 49 % 1015,6 hPa 0,0 mm 6,6 km/h (2 Bft) O-NO 67 ° 0 min 0,000 mm 1,2 UV-I 58 W/m² 11,3 °C 22,6 °C 8,0 km/h (2 Bft)
17.05.2017 18:14 22,6 °C 22,6 °C 49 % 1015,5 hPa 0,0 mm 4,7 km/h (1 Bft) O-NO 69 ° 0 min 0,000 mm 1,2 UV-I 81 W/m² 11,3 °C 22,6 °C 6,4 km/h (2 Bft)
17.05.2017 18:15 22,5 °C 22,6 °C 49 % 1015,6 hPa 0,0 mm 7,7 km/h (2 Bft) N-NO 31 ° 0 min 0,000 mm 0,0 UV-I 44 W/m² 11,2 °C 22,5 °C 12,9 km/h (3 Bft)
17.05.2017 18:16 22,5 °C 22,6 °C 47 % 1015,5 hPa 0,0 mm 5,9 km/h (2 Bft) O-NO 77 ° 0 min 0,000 mm 0,0 UV-I 44 W/m² 10,6 °C 22,5 °C 12,9 km/h (3 Bft)
17.05.2017 18:17 22,6 °C 22,6 °C 48 % 1015,5 hPa 0,0 mm 6,1 km/h (2 Bft) NO 36 ° 0 min 0,000 mm 1,1 UV-I 67 W/m² 11,0 °C 22,6 °C 9,7 km/h (2 Bft)
17.05.2017 18:18 22,5 °C 22,6 °C 46 % 1015,5 hPa 0,0 mm 10,5 km/h (2 Bft) N-NO 22 ° 0 min 0,000 mm 0,0 UV-I 51 W/m² 10,3 °C 22,5 °C 17,7 km/h (3 Bft)
17.05.2017 18:19 22,5 °C 22,5 °C 46 % 1015,5 hPa 0,0 mm 8,0 km/h (2 Bft) O-NO 59 ° 0 min 0,000 mm 0,0 UV-I 46 W/m² 10,3 °C 22,5 °C 16,1 km/h (3 Bft)
17.05.2017 18:20 22,4 °C 22,5 °C 47 % 1015,5 hPa 0,0 mm 6,8 km/h (2 Bft) O-SO 121 ° 0 min 0,000 mm 0,0 UV-I 100 W/m² 10,5 °C 22,4 °C 12,9 km/h (3 Bft)
17.05.2017 18:21 22,4 °C 22,4 °C 47 % 1015,6 hPa 0,0 mm 4,9 km/h (1 Bft) O-NO 78 ° 0 min 0,000 mm 1,1 UV-I 65 W/m² 10,5 °C 22,4 °C 8,0 km/h (2 Bft)
17.05.2017 18:22 22,4 °C 22,4 °C 47 % 1015,6 hPa 0,0 mm 6,0 km/h (2 Bft) O-NO 69 ° 0 min 0,000 mm 1,1 UV-I 60 W/m² 10,5 °C 22,4 °C 11,3 km/h (2 Bft)
17.05.2017 18:23 22,4 °C 22,4 °C 48 % 1015,6 hPa 0,0 mm 6,4 km/h (2 Bft) N-NW 338 ° 0 min 0,000 mm 1,1 UV-I 58 W/m² 10,8 °C 22,4 °C 14,5 km/h (3 Bft)
17.05.2017 18:24 22,4 °C 22,4 °C 47 % 1015,6 hPa 0,0 mm 5,6 km/h (1 Bft) O 99 ° 0 min 0,000 mm 1,1 UV-I 56 W/m² 10,5 °C 22,4 °C 9,7 km/h (2 Bft)
17.05.2017 18:25 22,4 °C 22,4 °C 47 % 1015,6 hPa 0,0 mm 7,9 km/h (2 Bft) N-NO 29 ° 0 min 0,000 mm 0,0 UV-I 53 W/m² 10,5 °C 22,4 °C 11,3 km/h (2 Bft)
17.05.2017 18:26 22,4 °C 22,4 °C 49 % 1015,6 hPa 0,0 mm 6,9 km/h (2 Bft) O-NO 66 ° 0 min 0,000 mm 0,0 UV-I 51 W/m² 11,2 °C 22,4 °C 11,3 km/h (2 Bft)
17.05.2017 18:27 22,4 °C 22,5 °C 47 % 1015,5 hPa 0,0 mm 9,8 km/h (2 Bft) O-NO 67 ° 0 min 0,000 mm 0,0 UV-I 44 W/m² 10,5 °C 22,4 °C 14,5 km/h (3 Bft)
17.05.2017 18:28 22,4 °C 22,5 °C 46 % 1015,5 hPa 0,0 mm 6,2 km/h (2 Bft) O 83 ° 0 min 0,000 mm 0,0 UV-I 46 W/m² 10,2 °C 22,4 °C 11,3 km/h (2 Bft)
17.05.2017 18:29 22,4 °C 22,4 °C 47 % 1015,6 hPa 0,0 mm 3,3 km/h (1 Bft) O-NO 64 ° 0 min 0,000 mm 0,0 UV-I 44 W/m² 10,5 °C 22,4 °C 11,3 km/h (2 Bft)
17.05.2017 18:30 22,4 °C 22,4 °C 47 % 1015,6 hPa 0,0 mm 9,7 km/h (2 Bft) O-NO 67 ° 0 min 0,000 mm 0,0 UV-I 46 W/m² 10,5 °C 22,4 °C 19,3 km/h (3 Bft)
17.05.2017 18:31 22,4 °C 22,4 °C 47 % 1015,6 hPa 0,0 mm 6,1 km/h (2 Bft) O-NO 59 ° 0 min 0,000 mm 0,0 UV-I 42 W/m² 10,5 °C 22,4 °C 11,3 km/h (2 Bft)
17.05.2017 18:32 22,3 °C 22,4 °C 48 % 1015,6 hPa 0,0 mm 5,6 km/h (1 Bft) NO 39 ° 0 min 0,000 mm 0,0 UV-I 62 W/m² 10,8 °C 22,3 °C 11,3 km/h (2 Bft)
17.05.2017 18:33 22,3 °C 22,3 °C 47 % 1015,5 hPa 0,0 mm 4,0 km/h (1 Bft) O-NO 58 ° 0 min 0,000 mm 0,0 UV-I 53 W/m² 10,4 °C 22,3 °C 8,0 km/h (2 Bft)
17.05.2017 18:34 22,3 °C 22,3 °C 47 % 1015,5 hPa 0,0 mm 10,2 km/h (2 Bft) O 92 ° 0 min 0,000 mm 0,0 UV-I 46 W/m² 10,4 °C 22,3 °C 19,3 km/h (3 Bft)
17.05.2017 18:35 22,4 °C 22,4 °C 47 % 1015,5 hPa 0,0 mm 10,9 km/h (2 Bft) NO 42 ° 0 min 0,000 mm 0,0 UV-I 39 W/m² 10,5 °C 22,4 °C 16,1 km/h (3 Bft)
17.05.2017 18:36 22,3 °C 22,4 °C 47 % 1015,5 hPa 0,0 mm 7,4 km/h (2 Bft) NO 52 ° 0 min 0,000 mm 0,0 UV-I 40 W/m² 10,4 °C 22,3 °C 11,3 km/h (2 Bft)
17.05.2017 18:37 22,4 °C 22,4 °C 47 % 1015,5 hPa 0,0 mm 5,1 km/h (1 Bft) O-NO 58 ° 0 min 0,000 mm 0,0 UV-I 46 W/m² 10,5 °C 22,4 °C 11,3 km/h (2 Bft)
17.05.2017 18:38 22,4 °C 22,4 °C 47 % 1015,5 hPa 0,0 mm 10,9 km/h (2 Bft) NO 34 ° 0 min 0,000 mm 0,0 UV-I 53 W/m² 10,5 °C 22,4 °C 17,7 km/h (3 Bft)
17.05.2017 18:39 22,4 °C 22,4 °C 47 % 1015,4 hPa 0,0 mm 10,3 km/h (2 Bft) O 80 ° 0 min 0,000 mm 0,0 UV-I 53 W/m² 10,5 °C 22,4 °C 14,5 km/h (3 Bft)
17.05.2017 18:40 22,4 °C 22,4 °C 47 % 1015,4 hPa 0,0 mm 11,5 km/h (2 Bft) N-NO 14 ° 0 min 0,000 mm 0,0 UV-I 49 W/m² 10,5 °C 22,4 °C 14,5 km/h (3 Bft)
17.05.2017 18:41 22,4 °C 22,4 °C 48 % 1015,4 hPa 0,0 mm 7,0 km/h (2 Bft) O-SO 113 ° 0 min 0,000 mm 0,9 UV-I 77 W/m² 10,8 °C 22,4 °C 11,3 km/h (2 Bft)
17.05.2017 18:42 22,4 °C 22,4 °C 48 % 1015,4 hPa 0,0 mm 6,5 km/h (2 Bft) O-NO 65 ° 0 min 0,000 mm 0,9 UV-I 90 W/m² 10,8 °C 22,4 °C 11,3 km/h (2 Bft)
17.05.2017 18:43 22,4 °C 22,4 °C 49 % 1015,4 hPa 0,0 mm 6,4 km/h (2 Bft) N-NO 24 ° 0 min 0,000 mm 0,9 UV-I 155 W/m² 11,2 °C 22,4 °C 9,7 km/h (2 Bft)
17.05.2017 18:44 22,4 °C 22,4 °C 49 % 1015,4 hPa 0,0 mm 9,9 km/h (2 Bft) NO 53 ° 0 min 0,000 mm 1,0 UV-I 118 W/m² 11,2 °C 22,4 °C 14,5 km/h (3 Bft)
17.05.2017 18:45 22,4 °C 22,4 °C 47 % 1015,4 hPa 0,0 mm 7,1 km/h (2 Bft) O-NO 70 ° 0 min 0,000 mm 0,9 UV-I 144 W/m² 10,5 °C 22,4 °C 12,9 km/h (3 Bft)
17.05.2017 18:46 22,4 °C 22,4 °C 48 % 1015,4 hPa 0,0 mm 12,7 km/h (3 Bft) O-NO 78 ° 0 min 0,000 mm 0,9 UV-I 144 W/m² 10,8 °C 22,4 °C 14,5 km/h (3 Bft)
17.05.2017 18:47 22,3 °C 22,4 °C 48 % 1015,4 hPa 0,0 mm 2,9 km/h (1 Bft) NO 52 ° 0 min 0,000 mm 0,9 UV-I 123 W/m² 10,8 °C 22,3 °C 6,4 km/h (2 Bft)
17.05.2017 18:48 22,3 °C 22,3 °C 49 % 1015,4 hPa 0,0 mm 3,8 km/h (1 Bft) N-NO 30 ° 0 min 0,000 mm 0,9 UV-I 84 W/m² 11,1 °C 22,3 °C 6,4 km/h (2 Bft)
17.05.2017 18:49 22,3 °C 22,3 °C 48 % 1015,4 hPa 0,0 mm 5,2 km/h (1 Bft) N 360 ° 0 min 0,000 mm 0,9 UV-I 76 W/m² 10,8 °C 22,3 °C 11,3 km/h (2 Bft)
17.05.2017 18:50 22,3 °C 22,3 °C 49 % 1015,4 hPa 0,0 mm 7,2 km/h (2 Bft) O 88 ° 0 min 0,000 mm 0,9 UV-I 98 W/m² 11,1 °C 22,3 °C 12,9 km/h (3 Bft)
17.05.2017 18:51 22,3 °C 22,3 °C 48 % 1015,4 hPa 0,0 mm 11,7 km/h (2 Bft) O-NO 77 ° 0 min 0,000 mm 0,9 UV-I 91 W/m² 10,8 °C 22,3 °C 17,7 km/h (3 Bft)
17.05.2017 18:52 22,2 °C 22,3 °C 49 % 1015,4 hPa 0,0 mm 9,0 km/h (2 Bft) O-NO 69 ° 0 min 0,000 mm 0,9 UV-I 113 W/m² 11,0 °C 22,2 °C 12,9 km/h (3 Bft)
17.05.2017 18:53 22,2 °C 22,2 °C 49 % 1015,4 hPa 0,0 mm 8,0 km/h (2 Bft) SO 131 ° 0 min 0,000 mm 0,9 UV-I 114 W/m² 11,0 °C 22,2 °C 12,9 km/h (3 Bft)
17.05.2017 18:54 22,2 °C 22,2 °C 48 % 1015,4 hPa 0,0 mm 5,0 km/h (1 Bft) O 100 ° 0 min 0,000 mm 0,9 UV-I 142 W/m² 10,7 °C 22,2 °C 8,0 km/h (2 Bft)
17.05.2017 18:55 22,1 °C 22,2 °C 48 % 1015,4 hPa 0,0 mm 6,2 km/h (2 Bft) O 83 ° 0 min 0,000 mm 0,9 UV-I 125 W/m² 10,6 °C 22,1 °C 6,4 km/h (2 Bft)
17.05.2017 18:56 22,1 °C 22,1 °C 49 % 1015,4 hPa 0,0 mm 5,1 km/h (1 Bft) O 92 ° 0 min 0,000 mm 0,8 UV-I 98 W/m² 10,9 °C 22,1 °C 11,3 km/h (2 Bft)
17.05.2017 18:57 22,1 °C 22,1 °C 47 % 1015,4 hPa 0,0 mm 6,8 km/h (2 Bft) NO 40 ° 0 min 0,000 mm 0,9 UV-I 146 W/m² 10,3 °C 22,1 °C 9,7 km/h (2 Bft)
17.05.2017 18:58 22,1 °C 22,1 °C 48 % 1015,4 hPa 0,0 mm 8,4 km/h (2 Bft) O-NO 74 ° 0 min 0,000 mm 0,8 UV-I 160 W/m² 10,6 °C 22,1 °C 11,3 km/h (2 Bft)
17.05.2017 18:59 22,1 °C 22,1 °C 49 % 1015,4 hPa 0,0 mm 6,4 km/h (2 Bft) O-NO 74 ° 0 min 0,000 mm 0,8 UV-I 81 W/m² 10,9 °C 22,1 °C 12,9 km/h (3 Bft)
17.05.2017 19:00 22,1 °C 22,2 °C 50 % 1015,4 hPa 0,0 mm 8,8 km/h (2 Bft) NO 51 ° 0 min 0,000 mm 0,8 UV-I 84 W/m² 11,2 °C 22,1 °C 14,5 km/h (3 Bft)
17.05.2017 19:01 22,1 °C 22,1 °C 49 % 1015,4 hPa 0,0 mm 5,0 km/h (1 Bft) N-NO 22 ° 0 min 0,102 mm 0,8 UV-I 144 W/m² 10,9 °C 22,1 °C 6,4 km/h (2 Bft)
17.05.2017 19:02 22,1 °C 22,1 °C 49 % 1015,4 hPa 0,0 mm 9,7 km/h (2 Bft) O-SO 111 ° 0 min 0,000 mm 0,8 UV-I 118 W/m² 10,9 °C 22,1 °C 14,5 km/h (3 Bft)
17.05.2017 19:03 22,0 °C 22,1 °C 49 % 1015,4 hPa 0,0 mm 6,6 km/h (2 Bft) NO 56 ° 0 min 0,000 mm 0,7 UV-I 65 W/m² 10,8 °C 22,0 °C 11,3 km/h (2 Bft)
17.05.2017 19:04 22,0 °C 22,0 °C 49 % 1015,4 hPa 0,0 mm 6,0 km/h (2 Bft) O 99 ° 0 min 0,000 mm 0,7 UV-I 62 W/m² 10,8 °C 22,0 °C 8,0 km/h (2 Bft)
17.05.2017 19:05 22,0 °C 22,0 °C 50 % 1015,4 hPa 0,0 mm 6,7 km/h (2 Bft) O-NO 61 ° 0 min 0,000 mm 0,7 UV-I 69 W/m² 11,1 °C 22,0 °C 11,3 km/h (2 Bft)
17.05.2017 19:06 21,9 °C 22,0 °C 50 % 1015,4 hPa 0,0 mm 9,7 km/h (2 Bft) O-NO 63 ° 0 min 0,000 mm 0,0 UV-I 49 W/m² 11,0 °C 21,9 °C 12,9 km/h (3 Bft)
17.05.2017 19:07 21,9 °C 22,0 °C 49 % 1015,4 hPa 0,0 mm 8,2 km/h (2 Bft) O 84 ° 0 min 0,000 mm 0,0 UV-I 42 W/m² 10,7 °C 21,9 °C 11,3 km/h (2 Bft)
17.05.2017 19:09 21,9 °C 22,0 °C 49 % 1015,3 hPa 0,0 mm 6,1 km/h (2 Bft) N-NO 28 ° 0 min 0,000 mm 0,0 UV-I 46 W/m² 10,7 °C 21,9 °C 14,5 km/h (3 Bft)
17.05.2017 19:10 21,9 °C 21,9 °C 50 % 1015,3 hPa 0,0 mm 6,3 km/h (2 Bft) NO 53 ° 0 min 0,000 mm 0,7 UV-I 77 W/m² 11,0 °C 21,9 °C 9,7 km/h (2 Bft)
17.05.2017 19:11 21,9 °C 21,9 °C 50 % 1015,4 hPa 0,0 mm 6,8 km/h (2 Bft) O 88 ° 0 min 0,000 mm 0,7 UV-I 91 W/m² 11,0 °C 21,9 °C 14,5 km/h (3 Bft)
17.05.2017 19:12 21,9 °C 21,9 °C 50 % 1015,4 hPa 0,0 mm 8,5 km/h (2 Bft) O-NO 60 ° 0 min 0,000 mm 0,7 UV-I 144 W/m² 11,0 °C 21,9 °C 12,9 km/h (3 Bft)
17.05.2017 19:13 21,9 °C 21,9 °C 50 % 1015,3 hPa 0,0 mm 7,6 km/h (2 Bft) NO 45 ° 0 min 0,000 mm 0,7 UV-I 113 W/m² 11,0 °C 21,9 °C 11,3 km/h (2 Bft)
17.05.2017 19:14 21,9 °C 21,9 °C 49 % 1015,3 hPa 0,0 mm 6,8 km/h (2 Bft) O-NO 77 ° 0 min 0,000 mm 0,7 UV-I 67 W/m² 10,7 °C 21,9 °C 12,9 km/h (3 Bft)
17.05.2017 19:15 21,8 °C 21,9 °C 50 % 1015,3 hPa 0,0 mm 4,1 km/h (1 Bft) O-SO 113 ° 0 min 0,000 mm 0,0 UV-I 51 W/m² 10,9 °C 21,8 °C 4,8 km/h (1 Bft)
17.05.2017 19:16 21,8 °C 21,9 °C 51 % 1015,3 hPa 0,0 mm 3,0 km/h (1 Bft) O 96 ° 0 min 0,000 mm 0,0 UV-I 49 W/m² 11,2 °C 21,8 °C 4,8 km/h (1 Bft)
17.05.2017 19:17 21,8 °C 21,9 °C 52 % 1015,3 hPa 0,0 mm 0,6 km/h (0 Bft) NO 42 ° 0 min 0,000 mm 0,6 UV-I 88 W/m² 11,5 °C 21,8 °C 3,2 km/h (1 Bft)
17.05.2017 19:18 21,8 °C 21,8 °C 52 % 1015,2 hPa 0,0 mm 4,2 km/h (1 Bft) O-SO 103 ° 0 min 0,000 mm 0,6 UV-I 90 W/m² 11,5 °C 21,8 °C 12,9 km/h (3 Bft)
17.05.2017 19:19 21,8 °C 21,8 °C 51 % 1015,3 hPa 0,0 mm 9,2 km/h (2 Bft) O 80 ° 0 min 0,000 mm 0,6 UV-I 79 W/m² 11,2 °C 21,8 °C 14,5 km/h (3 Bft)
17.05.2017 19:20 21,8 °C 21,8 °C 51 % 1015,3 hPa 0,0 mm 6,4 km/h (2 Bft) NO 48 ° 0 min 0,000 mm 0,6 UV-I 132 W/m² 11,2 °C 21,8 °C 14,5 km/h (3 Bft)
17.05.2017 19:21 21,8 °C 21,8 °C 51 % 1015,2 hPa 0,0 mm 4,5 km/h (1 Bft) O-NO 78 ° 0 min 0,000 mm 0,6 UV-I 97 W/m² 11,2 °C 21,8 °C 11,3 km/h (2 Bft)
17.05.2017 19:22 21,7 °C 21,8 °C 50 % 1015,3 hPa 0,0 mm 7,7 km/h (2 Bft) O-SO 117 ° 0 min 0,000 mm 0,6 UV-I 72 W/m² 10,8 °C 21,7 °C 12,9 km/h (3 Bft)
17.05.2017 19:23 21,7 °C 21,7 °C 51 % 1015,2 hPa 0,0 mm 6,7 km/h (2 Bft) O-NO 61 ° 0 min 0,000 mm 0,6 UV-I 63 W/m² 11,1 °C 21,7 °C 9,7 km/h (2 Bft)
17.05.2017 19:24 21,7 °C 21,7 °C 50 % 1015,2 hPa 0,0 mm 5,1 km/h (1 Bft) O-NO 67 ° 0 min 0,000 mm 0,6 UV-I 70 W/m² 10,8 °C 21,7 °C 9,7 km/h (2 Bft)
17.05.2017 19:25 21,7 °C 21,7 °C 52 % 1015,2 hPa 0,0 mm 5,5 km/h (1 Bft) O-NO 66 ° 0 min 0,000 mm 0,0 UV-I 53 W/m² 11,4 °C 21,7 °C 8,0 km/h (2 Bft)
17.05.2017 19:26 21,6 °C 21,7 °C 51 % 1015,2 hPa 0,0 mm 5,5 km/h (1 Bft) O-NO 73 ° 0 min 0,000 mm 0,6 UV-I 62 W/m² 11,0 °C 21,6 °C 8,0 km/h (2 Bft)
17.05.2017 19:27 21,6 °C 21,7 °C 51 % 1015,2 hPa 0,0 mm 4,6 km/h (1 Bft) O 79 ° 0 min 0,000 mm 0,6 UV-I 84 W/m² 11,0 °C 21,6 °C 8,0 km/h (2 Bft)
17.05.2017 19:28 21,6 °C 21,6 °C 52 % 1015,2 hPa 0,0 mm 7,1 km/h (2 Bft) O-NO 69 ° 0 min 0,000 mm 0,6 UV-I 114 W/m² 11,3 °C 21,6 °C 11,3 km/h (2 Bft)
17.05.2017 19:29 21,6 °C 21,6 °C 53 % 1015,2 hPa 0,0 mm 2,8 km/h (1 Bft) O-NO 71 ° 0 min 0,000 mm 0,5 UV-I 98 W/m² 11,6 °C 21,6 °C 4,8 km/h (1 Bft)
17.05.2017 19:30 21,6 °C 21,6 °C 52 % 1015,2 hPa 0,0 mm 2,7 km/h (1 Bft) O-NO 70 ° 0 min 0,000 mm 0,5 UV-I 121 W/m² 11,3 °C 21,6 °C 4,8 km/h (1 Bft)
17.05.2017 19:31 21,5 °C 21,6 °C 53 % 1015,2 hPa 0,0 mm 2,2 km/h (1 Bft) NO 41 ° 0 min 0,000 mm 0,5 UV-I 125 W/m² 11,5 °C 21,5 °C 6,4 km/h (2 Bft)
17.05.2017 19:32 21,6 °C 21,6 °C 53 % 1015,2 hPa 0,0 mm 4,5 km/h (1 Bft) O 86 ° 0 min 0,000 mm 0,5 UV-I 123 W/m² 11,6 °C 21,6 °C 6,4 km/h (2 Bft)
17.05.2017 19:33 21,4 °C 21,6 °C 55 % 1015,2 hPa 0,0 mm 0,9 km/h (0 Bft) O 83 ° 0 min 0,000 mm 0,5 UV-I 120 W/m² 12,0 °C 21,4 °C 1,6 km/h (1 Bft)
17.05.2017 19:34 21,3 °C 21,4 °C 53 % 1015,2 hPa 0,0 mm 0,5 km/h (0 Bft) O 83 ° 0 min 0,000 mm 0,5 UV-I 118 W/m² 11,3 °C 21,3 °C 1,6 km/h (1 Bft)
17.05.2017 19:35 21,3 °C 21,3 °C 54 % 1015,2 hPa 0,0 mm 1,9 km/h (1 Bft) O 83 ° 0 min 0,000 mm 0,5 UV-I 116 W/m² 11,6 °C 21,3 °C 3,2 km/h (1 Bft)
17.05.2017 19:36 21,3 °C 21,3 °C 53 % 1015,2 hPa 0,0 mm 1,2 km/h (1 Bft) O 82 ° 0 min 0,000 mm 0,5 UV-I 111 W/m² 11,3 °C 21,3 °C 3,2 km/h (1 Bft)
17.05.2017 19:37 21,3 °C 21,3 °C 54 % 1015,2 hPa 0,0 mm 4,2 km/h (1 Bft) O-NO 61 ° 0 min 0,000 mm 0,5 UV-I 109 W/m² 11,6 °C 21,3 °C 6,4 km/h (2 Bft)
17.05.2017 19:38 21,3 °C 21,3 °C 53 % 1015,2 hPa 0,0 mm 4,8 km/h (1 Bft) O-NO 61 ° 0 min 0,000 mm 0,5 UV-I 107 W/m² 11,3 °C 21,3 °C 8,0 km/h (2 Bft)
17.05.2017 19:39 21,3 °C 21,3 °C 58 % 1015,2 hPa 0,0 mm 2,4 km/h (1 Bft) O 83 ° 0 min 0,000 mm 0,0 UV-I 104 W/m² 12,7 °C 21,3 °C 4,8 km/h (1 Bft)
17.05.2017 19:40 21,2 °C 21,3 °C 56 % 1015,2 hPa 0,0 mm 5,1 km/h (1 Bft) NO 40 ° 0 min 0,000 mm 0,0 UV-I 102 W/m² 12,1 °C 21,2 °C 8,0 km/h (2 Bft)
17.05.2017 19:41 21,2 °C 21,2 °C 56 % 1015,2 hPa 0,0 mm 6,3 km/h (2 Bft) O 90 ° 0 min 0,000 mm 0,0 UV-I 100 W/m² 12,1 °C 21,2 °C 9,7 km/h (2 Bft)
17.05.2017 19:42 21,1 °C 21,2 °C 56 % 1015,2 hPa 0,0 mm 3,1 km/h (1 Bft) O-NO 69 ° 0 min 0,000 mm 0,0 UV-I 95 W/m² 12,0 °C 21,1 °C 6,4 km/h (2 Bft)
17.05.2017 19:43 21,1 °C 21,1 °C 55 % 1015,1 hPa 0,0 mm 1,8 km/h (1 Bft) NO 36 ° 0 min 0,000 mm 0,0 UV-I 93 W/m² 11,7 °C 21,1 °C 3,2 km/h (1 Bft)
17.05.2017 19:44 20,9 °C 21,1 °C 56 % 1015,2 hPa 0,0 mm 3,6 km/h (1 Bft) O-SO 103 ° 0 min 0,000 mm 0,0 UV-I 91 W/m² 11,8 °C 20,9 °C 6,4 km/h (2 Bft)
17.05.2017 19:45 20,8 °C 20,9 °C 57 % 1015,2 hPa 0,0 mm 1,8 km/h (1 Bft) O-NO 69 ° 0 min 0,000 mm 0,0 UV-I 88 W/m² 12,0 °C 20,8 °C 4,8 km/h (1 Bft)
17.05.2017 19:46 20,8 °C 20,8 °C 54 % 1015,2 hPa 0,0 mm 6,5 km/h (2 Bft) O-NO 75 ° 0 min 0,000 mm 0,0 UV-I 86 W/m² 11,1 °C 20,8 °C 11,3 km/h (2 Bft)
17.05.2017 19:47 20,8 °C 20,8 °C 58 % 1015,2 hPa 0,0 mm 2,7 km/h (1 Bft) O-NO 71 ° 0 min 0,000 mm 0,0 UV-I 84 W/m² 12,2 °C 20,8 °C 4,8 km/h (1 Bft)
17.05.2017 19:48 20,7 °C 20,8 °C 58 % 1015,1 hPa 0,0 mm 2,1 km/h (1 Bft) O-NO 71 ° 0 min 0,000 mm 0,0 UV-I 79 W/m² 12,1 °C 20,7 °C 3,2 km/h (1 Bft)
17.05.2017 19:49 20,6 °C 20,7 °C 58 % 1015,2 hPa 0,0 mm 0,7 km/h (0 Bft) O-NO 71 ° 0 min 0,000 mm 0,0 UV-I 77 W/m² 12,0 °C 20,6 °C 3,2 km/h (1 Bft)
17.05.2017 19:50 20,5 °C 20,6 °C 55 % 1015,2 hPa 0,0 mm 3,3 km/h (1 Bft) O-NO 77 ° 0 min 0,000 mm 0,0 UV-I 76 W/m² 11,1 °C 20,5 °C 8,0 km/h (2 Bft)
17.05.2017 19:51 20,5 °C 20,6 °C 57 % 1015,2 hPa 0,0 mm 2,8 km/h (1 Bft) NO 53 ° 0 min 0,000 mm 0,0 UV-I 74 W/m² 11,7 °C 20,5 °C 4,8 km/h (1 Bft)
17.05.2017 19:52 20,5 °C 20,5 °C 57 % 1015,2 hPa 0,0 mm 0,0 km/h (0 Bft) NO 53 ° 0 min 0,000 mm 0,0 UV-I 72 W/m² 11,7 °C 20,5 °C 0,0 km/h (0 Bft)
17.05.2017 19:53 20,5 °C 20,5 °C 58 % 1015,1 hPa 0,0 mm 1,5 km/h (1 Bft) NO 53 ° 0 min 0,000 mm 0,0 UV-I 70 W/m² 11,9 °C 20,5 °C 3,2 km/h (1 Bft)
17.05.2017 19:54 20,4 °C 20,5 °C 56 % 1015,2 hPa 0,0 mm 0,6 km/h (0 Bft) NO 53 ° 0 min 0,000 mm 0,0 UV-I 67 W/m² 11,3 °C 20,4 °C 1,6 km/h (1 Bft)
17.05.2017 19:55 20,4 °C 20,4 °C 57 % 1015,1 hPa 0,0 mm 0,0 km/h (0 Bft) NO 53 ° 0 min 0,000 mm 0,0 UV-I 63 W/m² 11,6 °C 20,4 °C 0,0 km/h (0 Bft)
17.05.2017 19:56 20,4 °C 20,4 °C 58 % 1015,1 hPa 0,0 mm 1,5 km/h (1 Bft) NO 47 ° 0 min 0,000 mm 0,0 UV-I 62 W/m² 11,9 °C 20,4 °C 3,2 km/h (1 Bft)
17.05.2017 19:57 20,3 °C 20,4 °C 59 % 1015,2 hPa 0,0 mm 0,3 km/h (0 Bft) NO 47 ° 0 min 0,000 mm 0,0 UV-I 60 W/m² 12,0 °C 20,3 °C 1,6 km/h (1 Bft)
17.05.2017 19:58 20,2 °C 20,3 °C 58 % 1015,2 hPa 0,0 mm 0,7 km/h (0 Bft) O 80 ° 0 min 0,000 mm 0,0 UV-I 58 W/m² 11,7 °C 20,2 °C 3,2 km/h (1 Bft)
17.05.2017 19:59 20,2 °C 20,2 °C 58 % 1015,2 hPa 0,0 mm 1,3 km/h (1 Bft) O 80 ° 0 min 0,000 mm 0,0 UV-I 54 W/m² 11,7 °C 20,2 °C 3,2 km/h (1 Bft)
17.05.2017 20:00 20,1 °C 20,2 °C 60 % 1015,2 hPa 0,0 mm 0,9 km/h (0 Bft) O 80 ° 0 min 0,000 mm 0,0 UV-I 54 W/m² 12,1 °C 20,1 °C 3,2 km/h (1 Bft)
17.05.2017 20:01 20,1 °C 20,1 °C 59 % 1015,1 hPa 0,0 mm 1,2 km/h (1 Bft) O 81 ° 0 min 0,076 mm 0,0 UV-I 53 W/m² 11,8 °C 20,1 °C 3,2 km/h (1 Bft)
17.05.2017 20:02 20,0 °C 20,1 °C 59 % 1015,1 hPa 0,0 mm 0,7 km/h (0 Bft) O 81 ° 0 min 0,000 mm 0,0 UV-I 51 W/m² 11,7 °C 20,0 °C 1,6 km/h (1 Bft)
17.05.2017 20:03 20,0 °C 20,0 °C 57 % 1015,2 hPa 0,0 mm 1,0 km/h (0 Bft) O 81 ° 0 min 0,000 mm 0,0 UV-I 49 W/m² 11,2 °C 20,0 °C 3,2 km/h (1 Bft)
17.05.2017 20:04 20,0 °C 20,0 °C 58 % 1015,1 hPa 0,0 mm 1,9 km/h (1 Bft) O 83 ° 0 min 0,000 mm 0,0 UV-I 47 W/m² 11,5 °C 20,0 °C 3,2 km/h (1 Bft)
17.05.2017 20:05 20,1 °C 20,1 °C 57 % 1015,1 hPa 0,0 mm 2,7 km/h (1 Bft) N-NO 13 ° 0 min 0,000 mm 0,0 UV-I 44 W/m² 11,3 °C 20,1 °C 4,8 km/h (1 Bft)
17.05.2017 20:06 20,1 °C 20,1 °C 58 % 1015,1 hPa 0,0 mm 0,1 km/h (0 Bft) N-NO 13 ° 0 min 0,000 mm 0,0 UV-I 42 W/m² 11,6 °C 20,1 °C 1,6 km/h (1 Bft)
17.05.2017 20:07 20,1 °C 20,1 °C 57 % 1015,1 hPa 0,0 mm 2,3 km/h (1 Bft) O-NO 69 ° 0 min 0,000 mm 0,0 UV-I 42 W/m² 11,3 °C 20,1 °C 4,8 km/h (1 Bft)
17.05.2017 20:08 19,9 °C 20,1 °C 59 % 1015,1 hPa 0,0 mm 1,5 km/h (1 Bft) O-NO 69 ° 0 min 0,000 mm 0,0 UV-I 40 W/m² 11,6 °C 19,9 °C 3,2 km/h (1 Bft)
17.05.2017 20:09 19,8 °C 19,9 °C 58 % 1015,1 hPa 0,0 mm 1,7 km/h (1 Bft) O-NO 69 ° 0 min 0,000 mm 0,0 UV-I 39 W/m² 11,3 °C 19,8 °C 3,2 km/h (1 Bft)
17.05.2017 20:10 19,8 °C 19,8 °C 60 % 1015,1 hPa 0,0 mm 2,4 km/h (1 Bft) O-NO 69 ° 0 min 0,000 mm 0,0 UV-I 37 W/m² 11,8 °C 19,8 °C 4,8 km/h (1 Bft)
17.05.2017 20:11 19,7 °C 19,8 °C 60 % 1015,1 hPa 0,0 mm 2,8 km/h (1 Bft) O-NO 75 ° 0 min 0,000 mm 0,0 UV-I 33 W/m² 11,7 °C 19,7 °C 4,8 km/h (1 Bft)
17.05.2017 20:12 19,6 °C 19,7 °C 60 % 1015,1 hPa 0,0 mm 1,0 km/h (0 Bft) O-NO 75 ° 0 min 0,000 mm 0,0 UV-I 33 W/m² 11,6 °C 19,6 °C 3,2 km/h (1 Bft)
17.05.2017 20:13 19,6 °C 19,6 °C 60 % 1015,1 hPa 0,0 mm 0,6 km/h (0 Bft) O-NO 75 ° 0 min 0,000 mm 0,0 UV-I 32 W/m² 11,6 °C 19,6 °C 3,2 km/h (1 Bft)
17.05.2017 20:14 19,6 °C 19,6 °C 60 % 1015,1 hPa 0,0 mm 3,2 km/h (1 Bft) O 92 ° 0 min 0,000 mm 0,0 UV-I 30 W/m² 11,6 °C 19,6 °C 4,8 km/h (1 Bft)
17.05.2017 20:15 19,5 °C 19,6 °C 61 % 1015,1 hPa 0,0 mm 1,8 km/h (1 Bft) O 92 ° 0 min 0,000 mm 0,0 UV-I 28 W/m² 11,8 °C 19,5 °C 3,2 km/h (1 Bft)
17.05.2017 20:16 19,4 °C 19,5 °C 61 % 1015,1 hPa 0,0 mm 0,3 km/h (0 Bft) O 92 ° 0 min 0,000 mm 0,0 UV-I 26 W/m² 11,7 °C 19,4 °C 1,6 km/h (1 Bft)
17.05.2017 20:17 19,3 °C 19,4 °C 62 % 1015,1 hPa 0,0 mm 2,4 km/h (1 Bft) O 96 ° 0 min 0,000 mm 0,0 UV-I 26 W/m² 11,8 °C 19,3 °C 4,8 km/h (1 Bft)
17.05.2017 20:18 19,3 °C 19,3 °C 60 % 1015,1 hPa 0,0 mm 1,4 km/h (1 Bft) O-NO 73 ° 0 min 0,000 mm 0,0 UV-I 25 W/m² 11,3 °C 19,3 °C 4,8 km/h (1 Bft)
17.05.2017 20:19 19,3 °C 19,3 °C 60 % 1015,1 hPa 0,0 mm 1,4 km/h (1 Bft) O-NO 75 ° 0 min 0,000 mm 0,0 UV-I 23 W/m² 11,3 °C 19,3 °C 4,8 km/h (1 Bft)
17.05.2017 20:20 19,3 °C 19,3 °C 61 % 1015,1 hPa 0,0 mm 2,0 km/h (1 Bft) O-NO 67 ° 0 min 0,000 mm 0,0 UV-I 23 W/m² 11,6 °C 19,3 °C 4,8 km/h (1 Bft)
17.05.2017 20:21 19,3 °C 19,3 °C 60 % 1015,1 hPa 0,0 mm 0,2 km/h (0 Bft) O-NO 67 ° 0 min 0,000 mm 0,0 UV-I 21 W/m² 11,3 °C 19,3 °C 1,6 km/h (1 Bft)
17.05.2017 20:22 19,2 °C 19,3 °C 62 % 1015,1 hPa 0,0 mm 0,3 km/h (0 Bft) O-NO 68 ° 0 min 0,000 mm 0,0 UV-I 19 W/m² 11,7 °C 19,2 °C 1,6 km/h (1 Bft)
17.05.2017 20:23 19,1 °C 19,2 °C 63 % 1015,1 hPa 0,0 mm 0,8 km/h (0 Bft) O-NO 68 ° 0 min 0,000 mm 0,0 UV-I 19 W/m² 11,9 °C 19,1 °C 1,6 km/h (1 Bft)
17.05.2017 20:24 19,1 °C 19,1 °C 62 % 1015,1 hPa 0,0 mm 0,0 km/h (0 Bft) O-NO 68 ° 0 min 0,000 mm 0,0 UV-I 18 W/m² 11,6 °C 19,1 °C 0,0 km/h (0 Bft)
17.05.2017 20:25 19,1 °C 19,1 °C 62 % 1015,2 hPa 0,0 mm 0,8 km/h (0 Bft) O-SO 103 ° 0 min 0,000 mm 0,0 UV-I 16 W/m² 11,6 °C 19,1 °C 1,6 km/h (1 Bft)
17.05.2017 20:26 19,0 °C 19,1 °C 62 % 1015,1 hPa 0,0 mm 2,5 km/h (1 Bft) O-SO 103 ° 0 min 0,000 mm 0,0 UV-I 16 W/m² 11,6 °C 19,0 °C 3,2 km/h (1 Bft)
17.05.2017 20:27 18,9 °C 19,0 °C 62 % 1015,1 hPa 0,0 mm 2,1 km/h (1 Bft) O-SO 103 ° 0 min 0,000 mm 0,0 UV-I 14 W/m² 11,5 °C 18,9 °C 4,8 km/h (1 Bft)
17.05.2017 20:29 18,7 °C 18,9 °C 63 % 1015,1 hPa 0,0 mm 1,3 km/h (1 Bft) O-SO 111 ° 0 min 0,000 mm 0,0 UV-I 14 W/m² 11,5 °C 18,7 °C 3,2 km/h (1 Bft)
17.05.2017 20:30 18,6 °C 18,7 °C 64 % 1015,1 hPa 0,0 mm 1,6 km/h (1 Bft) O-SO 111 ° 0 min 0,000 mm 0,0 UV-I 14 W/m² 11,7 °C 18,6 °C 3,2 km/h (1 Bft)
17.05.2017 20:31 18,7 °C 18,7 °C 62 % 1015,1 hPa 0,0 mm 0,0 km/h (0 Bft) O-SO 111 ° 0 min 0,000 mm 0,0 UV-I 12 W/m² 11,3 °C 18,7 °C 0,0 km/h (0 Bft)
17.05.2017 20:32 18,6 °C 18,7 °C 63 % 1015,1 hPa 0,0 mm 0,6 km/h (0 Bft) O-SO 111 ° 0 min 0,000 mm 0,0 UV-I 12 W/m² 11,4 °C 18,6 °C 1,6 km/h (1 Bft)
17.05.2017 20:33 18,5 °C 18,6 °C 65 % 1015,1 hPa 0,0 mm 0,0 km/h (0 Bft) O-SO 111 ° 0 min 0,000 mm 0,0 UV-I 11 W/m² 11,8 °C 18,5 °C 0,0 km/h (0 Bft)
17.05.2017 20:34 18,4 °C 18,5 °C 64 % 1015,1 hPa 0,0 mm 0,1 km/h (0 Bft) O-SO 111 ° 0 min 0,000 mm 0,0 UV-I 9 W/m² 11,5 °C 18,4 °C 1,6 km/h (1 Bft)
17.05.2017 20:35 18,3 °C 18,4 °C 65 % 1015,1 hPa 0,0 mm 1,6 km/h (1 Bft) O-SO 111 ° 0 min 0,000 mm 0,0 UV-I 9 W/m² 11,6 °C 18,3 °C 3,2 km/h (1 Bft)
17.05.2017 20:36 18,1 °C 18,3 °C 66 % 1015,0 hPa 0,0 mm 1,0 km/h (0 Bft) O-SO 116 ° 0 min 0,000 mm 0,0 UV-I 7 W/m² 11,6 °C 18,1 °C 3,2 km/h (1 Bft)
17.05.2017 20:37 18,1 °C 18,1 °C 65 % 1015,0 hPa 0,0 mm 0,7 km/h (0 Bft) O-SO 116 ° 0 min 0,000 mm 0,0 UV-I 7 W/m² 11,4 °C 18,1 °C 1,6 km/h (1 Bft)
17.05.2017 20:38 18,1 °C 18,1 °C 65 % 1015,0 hPa 0,0 mm 0,1 km/h (0 Bft) O-SO 116 ° 0 min 0,000 mm 0,0 UV-I 7 W/m² 11,4 °C 18,1 °C 1,6 km/h (1 Bft)
17.05.2017 20:39 18,1 °C 18,1 °C 65 % 1015,0 hPa 0,0 mm 0,0 km/h (0 Bft) O-SO 116 ° 0 min 0,000 mm 0,0 UV-I 5 W/m² 11,4 °C 18,1 °C 0,0 km/h (0 Bft)
17.05.2017 20:40 18,1 °C 18,1 °C 64 % 1015,0 hPa 0,0 mm 0,4 km/h (0 Bft) O-SO 116 ° 0 min 0,000 mm 0,0 UV-I 5 W/m² 11,2 °C 18,1 °C 1,6 km/h (1 Bft)
17.05.2017 20:41 18,1 °C 18,2 °C 66 % 1015,0 hPa 0,0 mm 1,4 km/h (1 Bft) O-SO 116 ° 0 min 0,000 mm 0,0 UV-I 5 W/m² 11,6 °C 18,1 °C 3,2 km/h (1 Bft)
17.05.2017 20:42 18,0 °C 18,1 °C 65 % 1015,0 hPa 0,0 mm 0,5 km/h (0 Bft) O-SO 116 ° 0 min 0,000 mm 0,0 UV-I 5 W/m² 11,3 °C 18,0 °C 1,6 km/h (1 Bft)
17.05.2017 20:43 17,9 °C 18,0 °C 66 % 1015,0 hPa 0,0 mm 0,0 km/h (0 Bft) O-SO 116 ° 0 min 0,000 mm 0,0 UV-I 0 W/m² 11,5 °C 17,9 °C 0,0 km/h (0 Bft)
17.05.2017 20:44 17,8 °C 17,9 °C 66 % 1015,0 hPa 0,0 mm 1,2 km/h (1 Bft) O-SO 116 ° 0 min 0,000 mm 0,0 UV-I 0 W/m² 11,4 °C 17,8 °C 3,2 km/h (1 Bft)
17.05.2017 20:45 17,8 °C 17,8 °C 66 % 1015,0 hPa 0,0 mm 0,0 km/h (0 Bft) O-SO 116 ° 0 min 0,000 mm 0,0 UV-I 0 W/m² 11,4 °C 17,8 °C 0,0 km/h (0 Bft)
17.05.2017 20:46 17,8 °C 17,8 °C 66 % 1015,0 hPa 0,0 mm 0,1 km/h (0 Bft) O-SO 116 ° 0 min 0,000 mm 0,0 UV-I 0 W/m² 11,4 °C 17,8 °C 1,6 km/h (1 Bft)
17.05.2017 20:47 17,8 °C 17,8 °C 66 % 1015,0 hPa 0,0 mm 0,0 km/h (0 Bft) O-SO 116 ° 0 min 0,000 mm 0,0 UV-I 0 W/m² 11,4 °C 17,8 °C 0,0 km/h (0 Bft)
17.05.2017 20:48 17,9 °C 17,9 °C 66 % 1015,0 hPa 0,0 mm 0,5 km/h (0 Bft) O-SO 116 ° 0 min 0,000 mm 0,0 UV-I 0 W/m² 11,5 °C 17,9 °C 1,6 km/h (1 Bft)
17.05.2017 20:49 17,8 °C 17,9 °C 66 % 1015,0 hPa 0,0 mm 0,6 km/h (0 Bft) O-SO 116 ° 0 min 0,000 mm 0,0 UV-I 0 W/m² 11,4 °C 17,8 °C 1,6 km/h (1 Bft)
17.05.2017 20:50 17,8 °C 17,8 °C 66 % 1014,9 hPa 0,0 mm 0,7 km/h (0 Bft) O-SO 116 ° 0 min 0,000 mm 0,0 UV-I 0 W/m² 11,4 °C 17,8 °C 1,6 km/h (1 Bft)
17.05.2017 20:51 17,8 °C 17,8 °C 66 % 1015,0 hPa 0,0 mm 1,4 km/h (1 Bft) O-SO 116 ° 0 min 0,000 mm 0,0 UV-I 0 W/m² 11,4 °C 17,8 °C 3,2 km/h (1 Bft)
17.05.2017 20:52 17,8 °C 17,8 °C 65 % 1014,9 hPa 0,0 mm 0,1 km/h (0 Bft) O-SO 116 ° 0 min 0,000 mm 0,0 UV-I 0 W/m² 11,1 °C 17,8 °C 1,6 km/h (1 Bft)
17.05.2017 20:53 17,7 °C 17,8 °C 66 % 1015,0 hPa 0,0 mm 0,0 km/h (0 Bft) O-SO 116 ° 0 min 0,000 mm 0,0 UV-I 0 W/m² 11,3 °C 17,7 °C 0,0 km/h (0 Bft)
17.05.2017 20:54 17,7 °C 17,7 °C 66 % 1014,9 hPa 0,0 mm 0,0 km/h (0 Bft) O-SO 116 ° 0 min 0,000 mm 0,0 UV-I 0 W/m² 11,3 °C 17,7 °C 0,0 km/h (0 Bft)
17.05.2017 20:55 17,8 °C 17,8 °C 65 % 1014,9 hPa 0,0 mm 0,7 km/h (0 Bft) O-SO 116 ° 0 min 0,000 mm 0,0 UV-I 0 W/m² 11,1 °C 17,8 °C 1,6 km/h (1 Bft)
17.05.2017 20:56 17,8 °C 17,8 °C 66 % 1014,9 hPa 0,0 mm 2,4 km/h (1 Bft) SO 140 ° 0 min 0,000 mm 0,0 UV-I 0 W/m² 11,4 °C 17,8 °C 4,8 km/h (1 Bft)
17.05.2017 20:57 17,8 °C 17,8 °C 66 % 1015,0 hPa 0,0 mm 1,5 km/h (1 Bft) SO 140 ° 0 min 0,000 mm 0,0 UV-I 0 W/m² 11,4 °C 17,8 °C 3,2 km/h (1 Bft)
17.05.2017 20:58 17,8 °C 17,8 °C 66 % 1015,0 hPa 0,0 mm 1,5 km/h (1 Bft) SO 140 ° 0 min 0,000 mm 0,0 UV-I 0 W/m² 11,4 °C 17,8 °C 3,2 km/h (1 Bft)
17.05.2017 20:59 17,8 °C 17,8 °C 66 % 1015,0 hPa 0,0 mm 0,4 km/h (0 Bft) SO 140 ° 0 min 0,000 mm 0,0 UV-I 0 W/m² 11,4 °C 17,8 °C 1,6 km/h (1 Bft)
17.05.2017 21:00 17,7 °C 17,8 °C 67 % 1014,9 hPa 0,0 mm 1,9 km/h (1 Bft) SO 140 ° 0 min 0,000 mm 0,0 UV-I 0 W/m² 11,5 °C 17,7 °C 3,2 km/h (1 Bft)
17.05.2017 21:01 17,6 °C 17,7 °C 67 % 1014,9 hPa 0,0 mm 1,0 km/h (0 Bft) SO 140 ° 0 min 0,025 mm 0,0 UV-I 0 W/m² 11,4 °C 17,6 °C 3,2 km/h (1 Bft)
17.05.2017 21:02 17,6 °C 17,6 °C 67 % 1015,0 hPa 0,0 mm 0,2 km/h (0 Bft) SO 140 ° 0 min 0,000 mm 0,0 UV-I 0 W/m² 11,4 °C 17,6 °C 1,6 km/h (1 Bft)
17.05.2017 21:03 17,5 °C 17,6 °C 67 % 1015,0 hPa 0,0 mm 0,0 km/h (0 Bft) SO 140 ° 0 min 0,000 mm 0,0 UV-I 0 W/m² 11,3 °C 17,5 °C 0,0 km/h (0 Bft)
17.05.2017 21:04 17,5 °C 17,5 °C 67 % 1015,0 hPa 0,0 mm 0,8 km/h (0 Bft) SO 140 ° 0 min 0,000 mm 0,0 UV-I 0 W/m² 11,3 °C 17,5 °C 1,6 km/h (1 Bft)
17.05.2017 21:05 17,5 °C 17,5 °C 67 % 1014,9 hPa 0,0 mm 1,1 km/h (1 Bft) SO 138 ° 0 min 0,000 mm 0,0 UV-I 0 W/m² 11,3 °C 17,5 °C 3,2 km/h (1 Bft)
17.05.2017 21:06 17,3 °C 17,5 °C 67 % 1015,0 hPa 0,0 mm 2,0 km/h (1 Bft) SO 127 ° 0 min 0,000 mm 0,0 UV-I 0 W/m² 11,1 °C 17,3 °C 3,2 km/h (1 Bft)
17.05.2017 21:07 17,3 °C 17,3 °C 68 % 1015,0 hPa 0,0 mm 0,6 km/h (0 Bft) SO 127 ° 0 min 0,000 mm 0,0 UV-I 0 W/m² 11,3 °C 17,3 °C 3,2 km/h (1 Bft)
17.05.2017 21:08 17,2 °C 17,3 °C 68 % 1015,0 hPa 0,0 mm 0,4 km/h (0 Bft) SO 127 ° 0 min 0,000 mm 0,0 UV-I 0 W/m² 11,2 °C 17,2 °C 1,6 km/h (1 Bft)
17.05.2017 21:09 17,2 °C 17,2 °C 68 % 1015,0 hPa 0,0 mm 0,2 km/h (0 Bft) SO 127 ° 0 min 0,000 mm 0,0 UV-I 0 W/m² 11,2 °C 17,2 °C 1,6 km/h (1 Bft)
17.05.2017 21:10 17,1 °C 17,3 °C 69 % 1014,9 hPa 0,0 mm 0,1 km/h (0 Bft) SO 127 ° 0 min 0,000 mm 0,0 UV-I 0 W/m² 11,4 °C 17,1 °C 1,6 km/h (1 Bft)
17.05.2017 21:11 17,1 °C 17,1 °C 68 % 1015,0 hPa 0,0 mm 1,5 km/h (1 Bft) SO 127 ° 0 min 0,000 mm 0,0 UV-I 0 W/m² 11,1 °C 17,1 °C 3,2 km/h (1 Bft)
17.05.2017 21:12 17,1 °C 17,1 °C 68 % 1015,0 hPa 0,0 mm 0,5 km/h (0 Bft) SO 127 ° 0 min 0,000 mm 0,0 UV-I 0 W/m² 11,1 °C 17,1 °C 3,2 km/h (1 Bft)
17.05.2017 21:13 17,1 °C 17,1 °C 68 % 1015,0 hPa 0,0 mm 0,3 km/h (0 Bft) SO 127 ° 0 min 0,000 mm 0,0 UV-I 0 W/m² 11,1 °C 17,1 °C 1,6 km/h (1 Bft)
17.05.2017 21:14 17,1 °C 17,1 °C 69 % 1015,0 hPa 0,0 mm 0,9 km/h (0 Bft) SO 127 ° 0 min 0,000 mm 0,0 UV-I 0 W/m² 11,4 °C 17,1 °C 3,2 km/h (1 Bft)
17.05.2017 21:15 17,1 °C 17,1 °C 68 % 1015,0 hPa 0,0 mm 1,7 km/h (1 Bft) SO 127 ° 0 min 0,000 mm 0,0 UV-I 0 W/m² 11,1 °C 17,1 °C 4,8 km/h (1 Bft)
17.05.2017 21:16 17,1 °C 17,1 °C 69 % 1015,0 hPa 0,0 mm 2,3 km/h (1 Bft) SO 127 ° 0 min 0,000 mm 0,0 UV-I 0 W/m² 11,4 °C 17,1 °C 4,8 km/h (1 Bft)
17.05.2017 21:17 17,1 °C 17,1 °C 69 % 1014,9 hPa 0,0 mm 0,8 km/h (0 Bft) SO 127 ° 0 min 0,000 mm 0,0 UV-I 0 W/m² 11,4 °C 17,1 °C 1,6 km/h (1 Bft)
17.05.2017 21:18 17,1 °C 17,1 °C 69 % 1015,0 hPa 0,0 mm 2,0 km/h (1 Bft) SO 127 ° 0 min 0,000 mm 0,0 UV-I 0 W/m² 11,4 °C 17,1 °C 4,8 km/h (1 Bft)
17.05.2017 21:19 17,1 °C 17,1 °C 69 % 1015,0 hPa 0,0 mm 1,7 km/h (1 Bft) SO 127 ° 0 min 0,000 mm 0,0 UV-I 0 W/m² 11,4 °C 17,1 °C 4,8 km/h (1 Bft)
17.05.2017 21:20 17,1 °C 17,1 °C 69 % 1015,0 hPa 0,0 mm 0,2 km/h (0 Bft) SO 127 ° 0 min 0,000 mm 0,0 UV-I 0 W/m² 11,4 °C 17,1 °C 1,6 km/h (1 Bft)
17.05.2017 21:21 17,1 °C 17,1 °C 69 % 1014,9 hPa 0,0 mm 0,6 km/h (0 Bft) SO 127 ° 0 min 0,000 mm 0,0 UV-I 0 W/m² 11,4 °C 17,1 °C 1,6 km/h (1 Bft)
17.05.2017 21:22 16,9 °C 17,1 °C 70 % 1015,1 hPa 0,0 mm 1,2 km/h (1 Bft) SO 127 ° 0 min 0,000 mm 0,0 UV-I 0 W/m² 11,4 °C 16,9 °C 3,2 km/h (1 Bft)
17.05.2017 21:23 16,7 °C 16,9 °C 70 % 1015,1 hPa 0,0 mm 1,2 km/h (1 Bft) SO 127 ° 0 min 0,000 mm 0,0 UV-I 0 W/m² 11,2 °C 16,7 °C 3,2 km/h (1 Bft)
17.05.2017 21:24 16,7 °C 16,7 °C 70 % 1015,0 hPa 0,0 mm 0,7 km/h (0 Bft) SO 127 ° 0 min 0,000 mm 0,0 UV-I 0 W/m² 11,2 °C 16,7 °C 1,6 km/h (1 Bft)
17.05.2017 21:25 16,7 °C 16,7 °C 70 % 1015,0 hPa 0,0 mm 0,4 km/h (0 Bft) SO 127 ° 0 min 0,000 mm 0,0 UV-I 0 W/m² 11,2 °C 16,7 °C 1,6 km/h (1 Bft)
17.05.2017 21:26 16,8 °C 16,8 °C 71 % 1015,0 hPa 0,0 mm 0,0 km/h (0 Bft) SO 127 ° 0 min 0,000 mm 0,0 UV-I 0 W/m² 11,5 °C 16,8 °C 0,0 km/h (0 Bft)
17.05.2017 21:27 16,6 °C 16,8 °C 71 % 1015,1 hPa 0,0 mm 0,0 km/h (0 Bft) SO 127 ° 0 min 0,000 mm 0,0 UV-I 0 W/m² 11,3 °C 16,6 °C 0,0 km/h (0 Bft)
17.05.2017 21:28 16,6 °C 16,6 °C 70 % 1015,0 hPa 0,0 mm 0,7 km/h (0 Bft) SO 127 ° 0 min 0,000 mm 0,0 UV-I 0 W/m² 11,1 °C 16,6 °C 3,2 km/h (1 Bft)
17.05.2017 21:29 16,7 °C 16,7 °C 70 % 1015,0 hPa 0,0 mm 0,4 km/h (0 Bft) SO 127 ° 0 min 0,000 mm 0,0 UV-I 0 W/m² 11,2 °C 16,7 °C 1,6 km/h (1 Bft)
17.05.2017 21:30 16,7 °C 16,7 °C 71 % 1015,0 hPa 0,0 mm 0,8 km/h (0 Bft) SO 127 ° 0 min 0,000 mm 0,0 UV-I 0 W/m² 11,4 °C 16,7 °C 1,6 km/h (1 Bft)
17.05.2017 21:31 16,7 °C 16,7 °C 70 % 1014,9 hPa 0,0 mm 0,7 km/h (0 Bft) SO 127 ° 0 min 0,000 mm 0,0 UV-I 0 W/m² 11,2 °C 16,7 °C 1,6 km/h (1 Bft)
17.05.2017 21:32 16,6 °C 16,7 °C 71 % 1015,0 hPa 0,0 mm 0,1 km/h (0 Bft) SO 127 ° 0 min 0,000 mm 0,0 UV-I 0 W/m² 11,3 °C 16,6 °C 1,6 km/h (1 Bft)
17.05.2017 21:33 16,5 °C 16,6 °C 71 % 1015,0 hPa 0,0 mm 0,0 km/h (0 Bft) SO 127 ° 0 min 0,000 mm 0,0 UV-I 0 W/m² 11,2 °C 16,5 °C 0,0 km/h (0 Bft)
17.05.2017 21:34 16,4 °C 16,5 °C 71 % 1015,0 hPa 0,0 mm 0,1 km/h (0 Bft) SO 127 ° 0 min 0,000 mm 0,0 UV-I 0 W/m² 11,1 °C 16,4 °C 1,6 km/h (1 Bft)
17.05.2017 21:35 16,3 °C 16,4 °C 71 % 1015,0 hPa 0,0 mm 0,8 km/h (0 Bft) SO 128 ° 0 min 0,000 mm 0,0 UV-I 0 W/m² 11,0 °C 16,3 °C 4,8 km/h (1 Bft)
17.05.2017 21:36 16,2 °C 16,3 °C 72 % 1015,0 hPa 0,0 mm 1,4 km/h (1 Bft) SO 128 ° 0 min 0,000 mm 0,0 UV-I 0 W/m² 11,1 °C 16,2 °C 3,2 km/h (1 Bft)
17.05.2017 21:37 16,1 °C 16,2 °C 72 % 1015,0 hPa 0,0 mm 0,1 km/h (0 Bft) SO 128 ° 0 min 0,000 mm 0,0 UV-I 0 W/m² 11,0 °C 16,1 °C 1,6 km/h (1 Bft)
17.05.2017 21:38 16,2 °C 16,2 °C 72 % 1015,0 hPa 0,0 mm 0,0 km/h (0 Bft) SO 128 ° 0 min 0,000 mm 0,0 UV-I 0 W/m² 11,1 °C 16,2 °C 0,0 km/h (0 Bft)
17.05.2017 21:39 16,1 °C 16,2 °C 73 % 1015,0 hPa 0,0 mm 0,0 km/h (0 Bft) SO 128 ° 0 min 0,000 mm 0,0 UV-I 0 W/m² 11,3 °C 16,1 °C 0,0 km/h (0 Bft)
17.05.2017 21:40 15,9 °C 16,1 °C 74 % 1014,9 hPa 0,0 mm 0,0 km/h (0 Bft) SO 128 ° 0 min 0,000 mm 0,0 UV-I 0 W/m² 11,3 °C 15,9 °C 0,0 km/h (0 Bft)
17.05.2017 21:41 15,6 °C 15,9 °C 74 % 1015,0 hPa 0,0 mm 0,0 km/h (0 Bft) SO 128 ° 0 min 0,000 mm 0,0 UV-I 0 W/m² 11,0 °C 15,6 °C 0,0 km/h (0 Bft)
17.05.2017 21:42 15,4 °C 15,6 °C 76 % 1015,0 hPa 0,0 mm 0,0 km/h (0 Bft) SO 128 ° 0 min 0,000 mm 0,0 UV-I 0 W/m² 11,2 °C 15,4 °C 0,0 km/h (0 Bft)
17.05.2017 21:43 15,2 °C 15,4 °C 76 % 1014,9 hPa 0,0 mm 0,0 km/h (0 Bft) SO 128 ° 0 min 0,000 mm 0,0 UV-I 0 W/m² 11,0 °C 15,2 °C 0,0 km/h (0 Bft)
17.05.2017 21:44 15,1 °C 15,2 °C 77 % 1014,9 hPa 0,0 mm 0,0 km/h (0 Bft) SO 128 ° 0 min 0,000 mm 0,0 UV-I 0 W/m² 11,1 °C 15,1 °C 0,0 km/h (0 Bft)
17.05.2017 21:45 15,1 °C 15,1 °C 77 % 1014,9 hPa 0,0 mm 0,0 km/h (0 Bft) SO 128 ° 0 min 0,000 mm 0,0 UV-I 0 W/m² 11,1 °C 15,1 °C 0,0 km/h (0 Bft)
17.05.2017 21:46 15,1 °C 15,2 °C 77 % 1014,9 hPa 0,0 mm 0,0 km/h (0 Bft) SO 128 ° 0 min 0,000 mm 0,0 UV-I 0 W/m² 11,1 °C 15,1 °C 0,0 km/h (0 Bft)
17.05.2017 21:47 15,1 °C 15,2 °C 77 % 1015,0 hPa 0,0 mm 0,0 km/h (0 Bft) SO 128 ° 0 min 0,000 mm 0,0 UV-I 0 W/m² 11,1 °C 15,1 °C 0,0 km/h (0 Bft)
17.05.2017 21:49 15,3 °C 15,3 °C 76 % 1015,0 hPa 0,0 mm 0,0 km/h (0 Bft) SO 128 ° 0 min 0,000 mm 0,0 UV-I 0 W/m² 11,1 °C 15,3 °C 0,0 km/h (0 Bft)
17.05.2017 21:50 15,3 °C 15,3 °C 76 % 1015,0 hPa 0,0 mm 0,0 km/h (0 Bft) SO 128 ° 0 min 0,000 mm 0,0 UV-I 0 W/m² 11,1 °C 15,3 °C 0,0 km/h (0 Bft)
17.05.2017 21:51 15,3 °C 15,3 °C 76 % 1015,0 hPa 0,0 mm 0,0 km/h (0 Bft) SO 128 ° 0 min 0,000 mm 0,0 UV-I 0 W/m² 11,1 °C 15,3 °C 0,0 km/h (0 Bft)
17.05.2017 21:52 15,2 °C 15,3 °C 77 % 1015,0 hPa 0,0 mm 0,0 km/h (0 Bft) SO 128 ° 0 min 0,000 mm 0,0 UV-I 0 W/m² 11,2 °C 15,2 °C 0,0 km/h (0 Bft)
17.05.2017 21:53 15,2 °C 15,2 °C 77 % 1015,0 hPa 0,0 mm 0,0 km/h (0 Bft) SO 128 ° 0 min 0,000 mm 0,0 UV-I 0 W/m² 11,2 °C 15,2 °C 0,0 km/h (0 Bft)
17.05.2017 21:54 15,2 °C 15,2 °C 78 % 1015,0 hPa 0,0 mm 0,0 km/h (0 Bft) SO 128 ° 0 min 0,000 mm 0,0 UV-I 0 W/m² 11,4 °C 15,2 °C 0,0 km/h (0 Bft)
17.05.2017 21:55 15,1 °C 15,2 °C 78 % 1015,1 hPa 0,0 mm 0,0 km/h (0 Bft) SO 128 ° 0 min 0,000 mm 0,0 UV-I 0 W/m² 11,3 °C 15,1 °C 0,0 km/h (0 Bft)
17.05.2017 21:56 15,1 °C 15,1 °C 78 % 1015,0 hPa 0,0 mm 0,0 km/h (0 Bft) SO 128 ° 0 min 0,000 mm 0,0 UV-I 0 W/m² 11,3 °C 15,1 °C 0,0 km/h (0 Bft)
17.05.2017 21:57 15,1 °C 15,1 °C 78 % 1014,9 hPa 0,0 mm 0,0 km/h (0 Bft) SO 128 ° 0 min 0,000 mm 0,0 UV-I 0 W/m² 11,3 °C 15,1 °C 0,0 km/h (0 Bft)
17.05.2017 21:58 15,1 °C 15,1 °C 78 % 1014,9 hPa 0,0 mm 0,0 km/h (0 Bft) SO 128 ° 0 min 0,000 mm 0,0 UV-I 0 W/m² 11,3 °C 15,1 °C 0,0 km/h (0 Bft)
17.05.2017 21:59 15,1 °C 15,1 °C 78 % 1014,9 hPa 0,0 mm 0,0 km/h (0 Bft) SO 128 ° 0 min 0,000 mm 0,0 UV-I 0 W/m² 11,3 °C 15,1 °C 0,0 km/h (0 Bft)
17.05.2017 22:00 15,2 °C 15,2 °C 77 % 1014,9 hPa 0,0 mm 0,0 km/h (0 Bft) SO 128 ° 0 min 0,000 mm 0,0 UV-I 0 W/m² 11,2 °C 15,2 °C 0,0 km/h (0 Bft)
17.05.2017 22:01 15,1 °C 15,2 °C 77 % 1014,9 hPa 0,0 mm 0,0 km/h (0 Bft) SO 128 ° 0 min 0,000 mm 0,0 UV-I 0 W/m² 11,1 °C 15,1 °C 0,0 km/h (0 Bft)
17.05.2017 22:02 14,9 °C 15,1 °C 78 % 1014,9 hPa 0,0 mm 0,0 km/h (0 Bft) SO 128 ° 0 min 0,000 mm 0,0 UV-I 0 W/m² 11,1 °C 14,9 °C 0,0 km/h (0 Bft)
17.05.2017 22:03 14,9 °C 14,9 °C 78 % 1014,9 hPa 0,0 mm 0,0 km/h (0 Bft) SO 128 ° 0 min 0,000 mm 0,0 UV-I 0 W/m² 11,1 °C 14,9 °C 0,0 km/h (0 Bft)
17.05.2017 22:04 14,8 °C 14,9 °C 78 % 1014,9 hPa 0,0 mm 0,0 km/h (0 Bft) SO 128 ° 0 min 0,000 mm 0,0 UV-I 0 W/m² 11,0 °C 14,8 °C 0,0 km/h (0 Bft)
17.05.2017 22:05 14,8 °C 14,9 °C 78 % 1014,9 hPa 0,0 mm 0,0 km/h (0 Bft) SO 128 ° 0 min 0,000 mm 0,0 UV-I 0 W/m² 11,0 °C 14,8 °C 0,0 km/h (0 Bft)
17.05.2017 22:06 14,8 °C 14,8 °C 79 % 1014,9 hPa 0,0 mm 0,0 km/h (0 Bft) SO 128 ° 0 min 0,000 mm 0,0 UV-I 0 W/m² 11,2 °C 14,8 °C 0,0 km/h (0 Bft)
17.05.2017 22:07 14,8 °C 14,8 °C 79 % 1014,8 hPa 0,0 mm 0,0 km/h (0 Bft) SO 128 ° 0 min 0,000 mm 0,0 UV-I 0 W/m² 11,2 °C 14,8 °C 0,0 km/h (0 Bft)
17.05.2017 22:08 14,8 °C 14,8 °C 78 % 1014,8 hPa 0,0 mm 0,0 km/h (0 Bft) SO 128 ° 0 min 0,000 mm 0,0 UV-I 0 W/m² 11,0 °C 14,8 °C 0,0 km/h (0 Bft)
17.05.2017 22:09 14,7 °C 14,8 °C 79 % 1014,9 hPa 0,0 mm 0,0 km/h (0 Bft) SO 128 ° 0 min 0,000 mm 0,0 UV-I 0 W/m² 11,1 °C 14,7 °C 0,0 km/h (0 Bft)
17.05.2017 22:10 14,6 °C 14,7 °C 79 % 1014,8 hPa 0,0 mm 0,0 km/h (0 Bft) SO 128 ° 0 min 0,000 mm 0,0 UV-I 0 W/m² 11,0 °C 14,6 °C 0,0 km/h (0 Bft)
17.05.2017 22:11 14,5 °C 14,6 °C 79 % 1014,9 hPa 0,0 mm 0,0 km/h (0 Bft) SO 128 ° 0 min 0,000 mm 0,0 UV-I 0 W/m² 10,9 °C 14,5 °C 0,0 km/h (0 Bft)
17.05.2017 22:12 14,4 °C 14,5 °C 80 % 1014,9 hPa 0,0 mm 0,0 km/h (0 Bft) SO 128 ° 0 min 0,000 mm 0,0 UV-I 0 W/m² 11,0 °C 14,4 °C 0,0 km/h (0 Bft)
17.05.2017 22:13 14,4 °C 14,4 °C 80 % 1014,8 hPa 0,0 mm 0,0 km/h (0 Bft) SO 128 ° 0 min 0,000 mm 0,0 UV-I 0 W/m² 11,0 °C 14,4 °C 0,0 km/h (0 Bft)
17.05.2017 22:14 14,3 °C 14,4 °C 80 % 1014,8 hPa 0,0 mm 0,0 km/h (0 Bft) SO 128 ° 0 min 0,000 mm 0,0 UV-I 0 W/m² 10,9 °C 14,3 °C 0,0 km/h (0 Bft)
17.05.2017 22:15 14,3 °C 14,3 °C 80 % 1014,8 hPa 0,0 mm 0,0 km/h (0 Bft) SO 128 ° 0 min 0,000 mm 0,0 UV-I 0 W/m² 10,9 °C 14,3 °C 0,0 km/h (0 Bft)
17.05.2017 22:16 14,3 °C 14,3 °C 80 % 1014,8 hPa 0,0 mm 0,0 km/h (0 Bft) SO 128 ° 0 min 0,000 mm 0,0 UV-I 0 W/m² 10,9 °C 14,3 °C 0,0 km/h (0 Bft)
17.05.2017 22:17 14,4 °C 14,4 °C 80 % 1014,8 hPa 0,0 mm 0,0 km/h (0 Bft) SO 128 ° 0 min 0,000 mm 0,0 UV-I 0 W/m² 11,0 °C 14,4 °C 0,0 km/h (0 Bft)
17.05.2017 22:18 14,4 °C 14,4 °C 80 % 1014,8 hPa 0,0 mm 0,0 km/h (0 Bft) SO 128 ° 0 min 0,000 mm 0,0 UV-I 0 W/m² 11,0 °C 14,4 °C 0,0 km/h (0 Bft)
17.05.2017 22:19 14,4 °C 14,4 °C 80 % 1014,8 hPa 0,0 mm 0,0 km/h (0 Bft) SO 128 ° 0 min 0,000 mm 0,0 UV-I 0 W/m² 11,0 °C 14,4 °C 0,0 km/h (0 Bft)
17.05.2017 22:20 14,4 °C 14,4 °C 80 % 1014,8 hPa 0,0 mm 0,0 km/h (0 Bft) SO 128 ° 0 min 0,000 mm 0,0 UV-I 0 W/m² 11,0 °C 14,4 °C 0,0 km/h (0 Bft)
17.05.2017 22:21 14,4 °C 14,4 °C 80 % 1014,8 hPa 0,0 mm 0,0 km/h (0 Bft) SO 128 ° 0 min 0,000 mm 0,0 UV-I 0 W/m² 11,0 °C 14,4 °C 0,0 km/h (0 Bft)
17.05.2017 22:22 14,3 °C 14,4 °C 80 % 1014,8 hPa 0,0 mm 0,0 km/h (0 Bft) SO 128 ° 0 min 0,000 mm 0,0 UV-I 0 W/m² 10,9 °C 14,3 °C 0,0 km/h (0 Bft)
17.05.2017 22:23 14,2 °C 14,3 °C 80 % 1014,8 hPa 0,0 mm 0,0 km/h (0 Bft) SO 128 ° 0 min 0,000 mm 0,0 UV-I 0 W/m² 10,8 °C 14,2 °C 0,0 km/h (0 Bft)
17.05.2017 22:24 14,1 °C 14,2 °C 80 % 1014,8 hPa 0,0 mm 0,0 km/h (0 Bft) SO 128 ° 0 min 0,000 mm 0,0 UV-I 0 W/m² 10,7 °C 14,1 °C 0,0 km/h (0 Bft)
17.05.2017 22:25 14,1 °C 14,1 °C 80 % 1014,8 hPa 0,0 mm 0,1 km/h (0 Bft) SO 128 ° 0 min 0,000 mm 0,0 UV-I 0 W/m² 10,7 °C 14,1 °C 1,6 km/h (1 Bft)
17.05.2017 22:26 14,1 °C 14,1 °C 81 % 1014,8 hPa 0,0 mm 0,0 km/h (0 Bft) SO 128 ° 0 min 0,000 mm 0,0 UV-I 0 W/m² 10,9 °C 14,1 °C 0,0 km/h (0 Bft)
17.05.2017 22:27 14,2 °C 14,2 °C 81 % 1014,8 hPa 0,0 mm 0,0 km/h (0 Bft) SO 128 ° 0 min 0,000 mm 0,0 UV-I 0 W/m² 11,0 °C 14,2 °C 0,0 km/h (0 Bft)
17.05.2017 22:28 14,1 °C 14,2 °C 80 % 1014,8 hPa 0,0 mm 0,0 km/h (0 Bft) SO 128 ° 0 min 0,000 mm 0,0 UV-I 0 W/m² 10,7 °C 14,1 °C 0,0 km/h (0 Bft)
17.05.2017 22:29 14,0 °C 14,1 °C 81 % 1014,8 hPa 0,0 mm 0,0 km/h (0 Bft) SO 128 ° 0 min 0,000 mm 0,0 UV-I 0 W/m² 10,8 °C 14,0 °C 0,0 km/h (0 Bft)
17.05.2017 22:30 13,9 °C 14,0 °C 81 % 1014,9 hPa 0,0 mm 0,0 km/h (0 Bft) SO 128 ° 0 min 0,000 mm 0,0 UV-I 0 W/m² 10,7 °C 13,9 °C 0,0 km/h (0 Bft)
17.05.2017 22:31 13,8 °C 13,9 °C 82 % 1014,8 hPa 0,0 mm 0,0 km/h (0 Bft) SO 128 ° 0 min 0,000 mm 0,0 UV-I 0 W/m² 10,8 °C 13,8 °C 0,0 km/h (0 Bft)
17.05.2017 22:32 13,7 °C 13,8 °C 82 % 1014,8 hPa 0,0 mm 0,0 km/h (0 Bft) SO 128 ° 0 min 0,000 mm 0,0 UV-I 0 W/m² 10,7 °C 13,7 °C 0,0 km/h (0 Bft)
17.05.2017 22:33 13,6 °C 13,7 °C 82 % 1014,8 hPa 0,0 mm 0,0 km/h (0 Bft) SO 128 ° 0 min 0,000 mm 0,0 UV-I 0 W/m² 10,6 °C 13,6 °C 0,0 km/h (0 Bft)
17.05.2017 22:34 13,5 °C 13,6 °C 82 % 1014,8 hPa 0,0 mm 0,0 km/h (0 Bft) SO 128 ° 0 min 0,000 mm 0,0 UV-I 0 W/m² 10,5 °C 13,5 °C 0,0 km/h (0 Bft)
17.05.2017 22:35 13,4 °C 13,5 °C 82 % 1014,8 hPa 0,0 mm 0,0 km/h (0 Bft) SO 128 ° 0 min 0,000 mm 0,0 UV-I 0 W/m² 10,4 °C 13,4 °C 0,0 km/h (0 Bft)
17.05.2017 22:36 13,4 °C 13,4 °C 83 % 1014,8 hPa 0,0 mm 0,0 km/h (0 Bft) SO 128 ° 0 min 0,000 mm 0,0 UV-I 0 W/m² 10,6 °C 13,4 °C 0,0 km/h (0 Bft)
17.05.2017 22:37 13,4 °C 13,4 °C 83 % 1014,8 hPa 0,0 mm 0,0 km/h (0 Bft) SO 128 ° 0 min 0,000 mm 0,0 UV-I 0 W/m² 10,6 °C 13,4 °C 0,0 km/h (0 Bft)
17.05.2017 22:38 13,4 °C 13,4 °C 83 % 1014,8 hPa 0,0 mm 0,0 km/h (0 Bft) SO 128 ° 0 min 0,000 mm 0,0 UV-I 0 W/m² 10,6 °C 13,4 °C 0,0 km/h (0 Bft)
17.05.2017 22:39 13,5 °C 13,5 °C 83 % 1014,8 hPa 0,0 mm 0,6 km/h (0 Bft) SO 128 ° 0 min 0,000 mm 0,0 UV-I 0 W/m² 10,7 °C 13,5 °C 3,2 km/h (1 Bft)
17.05.2017 22:40 13,7 °C 13,7 °C 82 % 1014,8 hPa 0,0 mm 1,3 km/h (1 Bft) SO 128 ° 0 min 0,000 mm 0,0 UV-I 0 W/m² 10,7 °C 13,7 °C 3,2 km/h (1 Bft)
17.05.2017 22:41 13,7 °C 13,7 °C 82 % 1014,7 hPa 0,0 mm 0,1 km/h (0 Bft) SO 128 ° 0 min 0,000 mm 0,0 UV-I 0 W/m² 10,7 °C 13,7 °C 1,6 km/h (1 Bft)
17.05.2017 22:42 13,8 °C 13,8 °C 82 % 1014,7 hPa 0,0 mm 0,0 km/h (0 Bft) SO 128 ° 0 min 0,000 mm 0,0 UV-I 0 W/m² 10,8 °C 13,8 °C 0,0 km/h (0 Bft)
17.05.2017 22:44 14,0 °C 14,0 °C 82 % 1014,7 hPa 0,0 mm 3,3 km/h (1 Bft) SO 128 ° 0 min 0,000 mm 0,0 UV-I 0 W/m² 11,0 °C 14,0 °C 4,8 km/h (1 Bft)
17.05.2017 22:45 14,0 °C 14,0 °C 81 % 1014,7 hPa 0,0 mm 4,2 km/h (1 Bft) SO 128 ° 0 min 0,000 mm 0,0 UV-I 0 W/m² 10,8 °C 14,0 °C 4,8 km/h (1 Bft)
17.05.2017 22:46 14,0 °C 14,0 °C 81 % 1014,7 hPa 0,0 mm 3,5 km/h (1 Bft) SO 128 ° 0 min 0,000 mm 0,0 UV-I 0 W/m² 10,8 °C 14,0 °C 4,8 km/h (1 Bft)
17.05.2017 22:47 13,9 °C 14,0 °C 81 % 1014,7 hPa 0,0 mm 2,4 km/h (1 Bft) SO 128 ° 0 min 0,000 mm 0,0 UV-I 0 W/m² 10,7 °C 13,9 °C 3,2 km/h (1 Bft)
17.05.2017 22:48 13,8 °C 13,9 °C 81 % 1014,7 hPa 0,0 mm 2,2 km/h (1 Bft) SO 128 ° 0 min 0,000 mm 0,0 UV-I 0 W/m² 10,6 °C 13,8 °C 3,2 km/h (1 Bft)
17.05.2017 22:49 13,8 °C 13,9 °C 81 % 1014,7 hPa 0,0 mm 1,5 km/h (1 Bft) SO 128 ° 0 min 0,000 mm 0,0 UV-I 0 W/m² 10,6 °C 13,8 °C 3,2 km/h (1 Bft)
17.05.2017 22:50 13,8 °C 13,8 °C 81 % 1014,7 hPa 0,0 mm 1,9 km/h (1 Bft) SO 128 ° 0 min 0,000 mm 0,0 UV-I 0 W/m² 10,6 °C 13,8 °C 3,2 km/h (1 Bft)
17.05.2017 22:51 13,8 °C 13,8 °C 81 % 1014,7 hPa 0,0 mm 0,5 km/h (0 Bft) SO 128 ° 0 min 0,000 mm 0,0 UV-I 0 W/m² 10,6 °C 13,8 °C 1,6 km/h (1 Bft)
17.05.2017 22:52 13,8 °C 13,8 °C 81 % 1014,7 hPa 0,0 mm 0,2 km/h (0 Bft) SO 128 ° 0 min 0,000 mm 0,0 UV-I 0 W/m² 10,6 °C 13,8 °C 1,6 km/h (1 Bft)
17.05.2017 22:53 13,7 °C 13,8 °C 81 % 1014,6 hPa 0,0 mm 0,0 km/h (0 Bft) SO 128 ° 0 min 0,000 mm 0,0 UV-I 0 W/m² 10,5 °C 13,7 °C 0,0 km/h (0 Bft)
17.05.2017 22:54 13,5 °C 13,7 °C 82 % 1014,6 hPa 0,0 mm 0,0 km/h (0 Bft) SO 128 ° 0 min 0,000 mm 0,0 UV-I 0 W/m² 10,5 °C 13,5 °C 0,0 km/h (0 Bft)
17.05.2017 22:55 13,4 °C 13,5 °C 83 % 1014,6 hPa 0,0 mm 0,0 km/h (0 Bft) SO 128 ° 0 min 0,000 mm 0,0 UV-I 0 W/m² 10,6 °C 13,4 °C 0,0 km/h (0 Bft)
17.05.2017 22:56 13,3 °C 13,4 °C 84 % 1014,6 hPa 0,0 mm 0,0 km/h (0 Bft) SO 128 ° 0 min 0,000 mm 0,0 UV-I 0 W/m² 10,7 °C 13,3 °C 0,0 km/h (0 Bft)
17.05.2017 22:57 13,3 °C 13,3 °C 83 % 1014,6 hPa 0,0 mm 1,1 km/h (1 Bft) SO 128 ° 0 min 0,000 mm 0,0 UV-I 0 W/m² 10,5 °C 13,3 °C 3,2 km/h (1 Bft)
17.05.2017 22:58 13,3 °C 13,3 °C 84 % 1014,7 hPa 0,0 mm 1,7 km/h (1 Bft) SO 128 ° 0 min 0,000 mm 0,0 UV-I 0 W/m² 10,7 °C 13,3 °C 3,2 km/h (1 Bft)
17.05.2017 22:59 13,5 °C 13,5 °C 83 % 1014,7 hPa 0,0 mm 0,2 km/h (0 Bft) SO 128 ° 0 min 0,000 mm 0,0 UV-I 0 W/m² 10,7 °C 13,5 °C 1,6 km/h (1 Bft)
17.05.2017 23:00 13,4 °C 13,5 °C 82 % 1014,7 hPa 0,0 mm 0,0 km/h (0 Bft) SO 128 ° 0 min 0,000 mm 0,0 UV-I 0 W/m² 10,4 °C 13,4 °C 0,0 km/h (0 Bft)
17.05.2017 23:01 13,3 °C 13,4 °C 83 % 1014,6 hPa 0,0 mm 0,0 km/h (0 Bft) SO 128 ° 0 min 0,026 mm 0,0 UV-I 0 W/m² 10,5 °C 13,3 °C 0,0 km/h (0 Bft)
17.05.2017 23:02 13,3 °C 13,3 °C 84 % 1014,6 hPa 0,0 mm 0,0 km/h (0 Bft) SO 128 ° 0 min 0,000 mm 0,0 UV-I 0 W/m² 10,7 °C 13,3 °C 0,0 km/h (0 Bft)
17.05.2017 23:03 13,2 °C 13,3 °C 84 % 1014,6 hPa 0,0 mm 0,0 km/h (0 Bft) SO 128 ° 0 min 0,000 mm 0,0 UV-I 0 W/m² 10,6 °C 13,2 °C 0,0 km/h (0 Bft)
17.05.2017 23:04 13,2 °C 13,2 °C 84 % 1014,6 hPa 0,0 mm 0,0 km/h (0 Bft) SO 128 ° 0 min 0,000 mm 0,0 UV-I 0 W/m² 10,6 °C 13,2 °C 0,0 km/h (0 Bft)
17.05.2017 23:05 13,2 °C 13,2 °C 84 % 1014,6 hPa 0,0 mm 0,0 km/h (0 Bft) SO 128 ° 0 min 0,000 mm 0,0 UV-I 0 W/m² 10,6 °C 13,2 °C 0,0 km/h (0 Bft)
17.05.2017 23:06 13,1 °C 13,2 °C 84 % 1014,6 hPa 0,0 mm 0,0 km/h (0 Bft) SO 128 ° 0 min 0,000 mm 0,0 UV-I 0 W/m² 10,5 °C 13,1 °C 0,0 km/h (0 Bft)
17.05.2017 23:07 13,2 °C 13,2 °C 84 % 1014,6 hPa 0,0 mm 0,3 km/h (0 Bft) SO 128 ° 0 min 0,000 mm 0,0 UV-I 0 W/m² 10,6 °C 13,2 °C 1,6 km/h (1 Bft)
17.05.2017 23:08 13,2 °C 13,2 °C 84 % 1014,6 hPa 0,0 mm 0,0 km/h (0 Bft) SO 128 ° 0 min 0,000 mm 0,0 UV-I 0 W/m² 10,6 °C 13,2 °C 0,0 km/h (0 Bft)
17.05.2017 23:09 13,2 °C 13,2 °C 83 % 1014,6 hPa 0,0 mm 0,0 km/h (0 Bft) SO 128 ° 0 min 0,000 mm 0,0 UV-I 0 W/m² 10,4 °C 13,2 °C 0,0 km/h (0 Bft)
17.05.2017 23:10 13,1 °C 13,2 °C 84 % 1014,6 hPa 0,0 mm 0,0 km/h (0 Bft) SO 128 ° 0 min 0,000 mm 0,0 UV-I 0 W/m² 10,5 °C 13,1 °C 0,0 km/h (0 Bft)
17.05.2017 23:11 12,9 °C 13,1 °C 85 % 1014,6 hPa 0,0 mm 0,0 km/h (0 Bft) SO 128 ° 0 min 0,000 mm 0,0 UV-I 0 W/m² 10,4 °C 12,9 °C 0,0 km/h (0 Bft)
17.05.2017 23:12 12,9 °C 12,9 °C 85 % 1014,6 hPa 0,0 mm 0,0 km/h (0 Bft) SO 128 ° 0 min 0,000 mm 0,0 UV-I 0 W/m² 10,4 °C 12,9 °C 0,0 km/h (0 Bft)
17.05.2017 23:13 12,9 °C 12,9 °C 85 % 1014,6 hPa 0,0 mm 0,0 km/h (0 Bft) SO 128 ° 0 min 0,000 mm 0,0 UV-I 0 W/m² 10,4 °C 12,9 °C 0,0 km/h (0 Bft)
17.05.2017 23:14 12,9 °C 12,9 °C 85 % 1014,6 hPa 0,0 mm 0,0 km/h (0 Bft) SO 128 ° 0 min 0,000 mm 0,0 UV-I 0 W/m² 10,4 °C 12,9 °C 0,0 km/h (0 Bft)
17.05.2017 23:15 12,9 °C 12,9 °C 85 % 1014,6 hPa 0,0 mm 0,0 km/h (0 Bft) SO 128 ° 0 min 0,000 mm 0,0 UV-I 0 W/m² 10,4 °C 12,9 °C 0,0 km/h (0 Bft)
17.05.2017 23:16 12,8 °C 12,9 °C 85 % 1014,6 hPa 0,0 mm 0,0 km/h (0 Bft) SO 128 ° 0 min 0,000 mm 0,0 UV-I 0 W/m² 10,3 °C 12,8 °C 0,0 km/h (0 Bft)
17.05.2017 23:17 12,8 °C 12,8 °C 85 % 1014,5 hPa 0,0 mm 0,0 km/h (0 Bft) SO 128 ° 0 min 0,000 mm 0,0 UV-I 0 W/m² 10,3 °C 12,8 °C 0,0 km/h (0 Bft)
17.05.2017 23:18 12,8 °C 12,8 °C 86 % 1014,6 hPa 0,0 mm 0,0 km/h (0 Bft) SO 128 ° 0 min 0,000 mm 0,0 UV-I 0 W/m² 10,5 °C 12,8 °C 0,0 km/h (0 Bft)
17.05.2017 23:19 12,8 °C 12,8 °C 86 % 1014,5 hPa 0,0 mm 0,0 km/h (0 Bft) SO 128 ° 0 min 0,000 mm 0,0 UV-I 0 W/m² 10,5 °C 12,8 °C 0,0 km/h (0 Bft)
17.05.2017 23:20 12,8 °C 12,8 °C 85 % 1014,5 hPa 0,0 mm 0,0 km/h (0 Bft) SO 128 ° 0 min 0,000 mm 0,0 UV-I 0 W/m² 10,3 °C 12,8 °C 0,0 km/h (0 Bft)
17.05.2017 23:21 12,8 °C 12,8 °C 85 % 1014,6 hPa 0,0 mm 0,0 km/h (0 Bft) SO 128 ° 0 min 0,000 mm 0,0 UV-I 0 W/m² 10,3 °C 12,8 °C 0,0 km/h (0 Bft)
17.05.2017 23:22 12,8 °C 12,8 °C 85 % 1014,5 hPa 0,0 mm 0,0 km/h (0 Bft) SO 128 ° 0 min 0,000 mm 0,0 UV-I 0 W/m² 10,3 °C 12,8 °C 0,0 km/h (0 Bft)
17.05.2017 23:23 12,8 °C 12,8 °C 85 % 1014,5 hPa 0,0 mm 0,0 km/h (0 Bft) SO 128 ° 0 min 0,000 mm 0,0 UV-I 0 W/m² 10,3 °C 12,8 °C 0,0 km/h (0 Bft)
17.05.2017 23:24 12,9 °C 12,9 °C 85 % 1014,5 hPa 0,0 mm 0,0 km/h (0 Bft) SO 128 ° 0 min 0,000 mm 0,0 UV-I 0 W/m² 10,4 °C 12,9 °C 0,0 km/h (0 Bft)
17.05.2017 23:25 12,9 °C 12,9 °C 85 % 1014,5 hPa 0,0 mm 0,0 km/h (0 Bft) SO 128 ° 0 min 0,000 mm 0,0 UV-I 0 W/m² 10,4 °C 12,9 °C 0,0 km/h (0 Bft)
17.05.2017 23:26 12,9 °C 12,9 °C 85 % 1014,6 hPa 0,0 mm 0,0 km/h (0 Bft) SO 128 ° 0 min 0,000 mm 0,0 UV-I 0 W/m² 10,4 °C 12,9 °C 0,0 km/h (0 Bft)
17.05.2017 23:27 12,8 °C 12,9 °C 85 % 1014,5 hPa 0,0 mm 0,0 km/h (0 Bft) SO 128 ° 0 min 0,000 mm 0,0 UV-I 0 W/m² 10,3 °C 12,8 °C 0,0 km/h (0 Bft)
17.05.2017 23:28 12,8 °C 12,8 °C 85 % 1014,5 hPa 0,0 mm 0,0 km/h (0 Bft) SO 128 ° 0 min 0,000 mm 0,0 UV-I 0 W/m² 10,3 °C 12,8 °C 0,0 km/h (0 Bft)
17.05.2017 23:29 12,6 °C 12,8 °C 85 % 1014,5 hPa 0,0 mm 0,0 km/h (0 Bft) SO 128 ° 0 min 0,000 mm 0,0 UV-I 0 W/m² 10,1 °C 12,6 °C 0,0 km/h (0 Bft)
17.05.2017 23:30 12,6 °C 12,6 °C 86 % 1014,5 hPa 0,0 mm 0,0 km/h (0 Bft) SO 128 ° 0 min 0,000 mm 0,0 UV-I 0 W/m² 10,3 °C 12,6 °C 0,0 km/h (0 Bft)
17.05.2017 23:31 12,6 °C 12,6 °C 86 % 1014,5 hPa 0,0 mm 0,0 km/h (0 Bft) SO 128 ° 0 min 0,000 mm 0,0 UV-I 0 W/m² 10,3 °C 12,6 °C 0,0 km/h (0 Bft)
17.05.2017 23:32 12,5 °C 12,6 °C 86 % 1014,5 hPa 0,0 mm 0,0 km/h (0 Bft) SO 128 ° 0 min 0,000 mm 0,0 UV-I 0 W/m² 10,2 °C 12,5 °C 0,0 km/h (0 Bft)
17.05.2017 23:34 12,6 °C 12,6 °C 86 % 1014,5 hPa 0,0 mm 0,0 km/h (0 Bft) SO 128 ° 0 min 0,000 mm 0,0 UV-I 0 W/m² 10,3 °C 12,6 °C 0,0 km/h (0 Bft)
17.05.2017 23:35 12,6 °C 12,7 °C 86 % 1014,5 hPa 0,0 mm 0,0 km/h (0 Bft) SO 128 ° 0 min 0,000 mm 0,0 UV-I 0 W/m² 10,3 °C 12,6 °C 0,0 km/h (0 Bft)
17.05.2017 23:36 12,6 °C 12,6 °C 85 % 1014,4 hPa 0,0 mm 0,0 km/h (0 Bft) SO 128 ° 0 min 0,000 mm 0,0 UV-I 0 W/m² 10,1 °C 12,6 °C 0,0 km/h (0 Bft)
17.05.2017 23:37 12,4 °C 12,6 °C 86 % 1014,4 hPa 0,0 mm 0,0 km/h (0 Bft) SO 128 ° 0 min 0,000 mm 0,0 UV-I 0 W/m² 10,1 °C 12,4 °C 0,0 km/h (0 Bft)
17.05.2017 23:38 12,4 °C 12,4 °C 86 % 1014,4 hPa 0,0 mm 0,0 km/h (0 Bft) SO 128 ° 0 min 0,000 mm 0,0 UV-I 0 W/m² 10,1 °C 12,4 °C 0,0 km/h (0 Bft)
17.05.2017 23:39 12,3 °C 12,4 °C 86 % 1014,4 hPa 0,0 mm 0,0 km/h (0 Bft) SO 128 ° 0 min 0,000 mm 0,0 UV-I 0 W/m² 10,0 °C 12,3 °C 0,0 km/h (0 Bft)
17.05.2017 23:40 12,3 °C 12,3 °C 87 % 1014,4 hPa 0,0 mm 0,0 km/h (0 Bft) SO 128 ° 0 min 0,000 mm 0,0 UV-I 0 W/m² 10,2 °C 12,3 °C 0,0 km/h (0 Bft)
17.05.2017 23:41 12,3 °C 12,3 °C 87 % 1014,3 hPa 0,0 mm 0,0 km/h (0 Bft) SO 128 ° 0 min 0,000 mm 0,0 UV-I 0 W/m² 10,2 °C 12,3 °C 0,0 km/h (0 Bft)
17.05.2017 23:42 12,4 °C 12,4 °C 87 % 1014,3 hPa 0,0 mm 0,0 km/h (0 Bft) SO 128 ° 0 min 0,000 mm 0,0 UV-I 0 W/m² 10,3 °C 12,4 °C 0,0 km/h (0 Bft)
17.05.2017 23:43 12,4 °C 12,4 °C 87 % 1014,3 hPa 0,0 mm 0,0 km/h (0 Bft) SO 128 ° 0 min 0,000 mm 0,0 UV-I 0 W/m² 10,3 °C 12,4 °C 0,0 km/h (0 Bft)
17.05.2017 23:44 12,5 °C 12,5 °C 87 % 1014,3 hPa 0,0 mm 0,0 km/h (0 Bft) SO 128 ° 0 min 0,000 mm 0,0 UV-I 0 W/m² 10,4 °C 12,5 °C 0,0 km/h (0 Bft)
17.05.2017 23:45 12,5 °C 12,6 °C 86 % 1014,3 hPa 0,0 mm 0,0 km/h (0 Bft) SO 128 ° 0 min 0,000 mm 0,0 UV-I 0 W/m² 10,2 °C 12,5 °C 0,0 km/h (0 Bft)
17.05.2017 23:46 12,5 °C 12,6 °C 86 % 1014,3 hPa 0,0 mm 0,0 km/h (0 Bft) SO 128 ° 0 min 0,000 mm 0,0 UV-I 0 W/m² 10,2 °C 12,5 °C 0,0 km/h (0 Bft)
17.05.2017 23:47 12,5 °C 12,5 °C 86 % 1014,3 hPa 0,0 mm 0,0 km/h (0 Bft) SO 128 ° 0 min 0,000 mm 0,0 UV-I 0 W/m² 10,2 °C 12,5 °C 0,0 km/h (0 Bft)
17.05.2017 23:48 12,6 °C 12,6 °C 86 % 1014,3 hPa 0,0 mm 0,0 km/h (0 Bft) SO 128 ° 0 min 0,000 mm 0,0 UV-I 0 W/m² 10,3 °C 12,6 °C 0,0 km/h (0 Bft)
17.05.2017 23:49 12,6 °C 12,6 °C 86 % 1014,3 hPa 0,0 mm 0,0 km/h (0 Bft) SO 128 ° 0 min 0,000 mm 0,0 UV-I 0 W/m² 10,3 °C 12,6 °C 0,0 km/h (0 Bft)
17.05.2017 23:50 12,7 °C 12,7 °C 86 % 1014,3 hPa 0,0 mm 0,3 km/h (0 Bft) SO 128 ° 0 min 0,000 mm 0,0 UV-I 0 W/m² 10,4 °C 12,7 °C 1,6 km/h (1 Bft)
17.05.2017 23:51 12,6 °C 12,7 °C 85 % 1014,3 hPa 0,0 mm 0,0 km/h (0 Bft) SO 128 ° 0 min 0,000 mm 0,0 UV-I 0 W/m² 10,1 °C 12,6 °C 0,0 km/h (0 Bft)
17.05.2017 23:52 12,4 °C 12,6 °C 85 % 1014,2 hPa 0,0 mm 0,0 km/h (0 Bft) SO 128 ° 0 min 0,000 mm 0,0 UV-I 0 W/m² 9,9 °C 12,4 °C 0,0 km/h (0 Bft)
17.05.2017 23:53 12,2 °C 12,4 °C 85 % 1014,2 hPa 0,0 mm 0,0 km/h (0 Bft) SO 128 ° 0 min 0,000 mm 0,0 UV-I 0 W/m² 9,8 °C 12,2 °C 0,0 km/h (0 Bft)
17.05.2017 23:54 12,2 °C 12,2 °C 86 % 1014,2 hPa 0,0 mm 0,0 km/h (0 Bft) SO 128 ° 0 min 0,000 mm 0,0 UV-I 0 W/m² 9,9 °C 12,2 °C 0,0 km/h (0 Bft)
17.05.2017 23:55 12,1 °C 12,2 °C 87 % 1014,1 hPa 0,0 mm 0,0 km/h (0 Bft) SO 128 ° 0 min 0,000 mm 0,0 UV-I 0 W/m² 10,0 °C 12,1 °C 0,0 km/h (0 Bft)
17.05.2017 23:56 11,9 °C 12,1 °C 87 % 1014,2 hPa 0,0 mm 0,0 km/h (0 Bft) SO 128 ° 0 min 0,000 mm 0,0 UV-I 0 W/m² 9,8 °C 11,9 °C 0,0 km/h (0 Bft)
17.05.2017 23:57 11,9 °C 11,9 °C 87 % 1014,2 hPa 0,0 mm 0,0 km/h (0 Bft) SO 128 ° 0 min 0,000 mm 0,0 UV-I 0 W/m² 9,8 °C 11,9 °C 0,0 km/h (0 Bft)
17.05.2017 23:58 11,9 °C 11,9 °C 88 % 1014,1 hPa 0,0 mm 0,0 km/h (0 Bft) SO 128 ° 0 min 0,000 mm 0,0 UV-I 0 W/m² 10,0 °C 11,9 °C 0,0 km/h (0 Bft)
17.05.2017 23:59 11,8 °C 11,9 °C 88 % 1014,1 hPa 0,0 mm 0,0 km/h (0 Bft) SO 128 ° 0 min 0,000 mm 0,0 UV-I 0 W/m² 9,9 °C 11,8 °C 0,0 km/h (0 Bft)
_ Min-Zeit 05:33 05:33 13:54 23:59 - 23:59 - - - - - - 05:33 05:33 23:59
Minimum _ 5,9 °C 5,9 °C 43 % 1014,1 hPa - 0,0 km/h (0 Bft) - - - - - - 5,0 °C 5,9 °C 0,0 km/h (0 Bft)
_ Max-Zeit 15:52 15:53 06:38 00:02 23:59 13:02 - - 15:49 15:01 13:15 13:12 11:49 15:52 16:07
Maximum _ 23,7 °C 23,7 °C 95 % 1026,1 hPa 0,0 mm 16,1 km/h
O (3 Bft)
- - 2 min 0,584 mm 7,4 UV-I 896 W/m² 13,9 °C 23,7 °C 24,1 km/h
O-NO (4 Bft)
Durchschnitt _ 15,7 °C 15,8 °C 70 % 1019,8 hPa #0,0 mm 3,3 km/h (1 Bft) O-NO - #8:07 h #4,369 mm 4,2 UV-I 273 W/m² 9,7 °C 15,7 °C 5,4 km/h (1 Bft)